<?xml version='1.0' encoding='UTF-8'?><gpx version="1.1" creator="JPX - https://github.com/jenetics/jpx" xmlns="http://www.topografix.com/GPX/1/1"><trk><trkseg><trkpt lat="41.4237428" lon="12.7874555"><ele>1.0</ele><time>2026-04-18T12:30:41.353Z</time></trkpt><trkpt lat="41.4237925" lon="12.7873616"><ele>1.0</ele><time>2026-04-18T12:31:12.313Z</time></trkpt><trkpt lat="41.4237443" lon="12.7872945"><ele>1.0</ele><time>2026-04-18T12:31:21.34Z</time></trkpt><trkpt lat="41.4236517" lon="12.7872656"><ele>1.0</ele><time>2026-04-18T12:31:28.293Z</time></trkpt><trkpt lat="41.423427" lon="12.7871544"><ele>1.0</ele><time>2026-04-18T12:31:29.291Z</time></trkpt><trkpt lat="41.4233447" lon="12.7871527"><ele>1.0</ele><time>2026-04-18T12:31:32.292Z</time></trkpt><trkpt lat="41.4232772" lon="12.7871232"><ele>1.0</ele><time>2026-04-18T12:31:34.292Z</time></trkpt><trkpt lat="41.4231907" lon="12.7871028"><ele>1.0</ele><time>2026-04-18T12:31:36.292Z</time></trkpt><trkpt lat="41.4230889" lon="12.7870744"><ele>1.0</ele><time>2026-04-18T12:31:38.292Z</time></trkpt><trkpt lat="41.4229819" lon="12.7870402"><ele>0.8</ele><time>2026-04-18T12:31:40.293Z</time></trkpt><trkpt lat="41.422883" lon="12.7870069"><ele>0.6000000000000001</ele><time>2026-04-18T12:31:42.293Z</time></trkpt><trkpt lat="41.4227777" lon="12.7869753"><ele>0.4</ele><time>2026-04-18T12:31:44.29Z</time></trkpt><trkpt lat="41.4226727" lon="12.7869535"><ele>0.2</ele><time>2026-04-18T12:31:46.297Z</time></trkpt><trkpt lat="41.422581" lon="12.7869147"><ele>0.0</ele><time>2026-04-18T12:31:48.29Z</time></trkpt><trkpt lat="41.4225173" lon="12.7868983"><ele>0.0</ele><time>2026-04-18T12:31:49.298Z</time></trkpt><trkpt lat="41.4224513" lon="12.7868696"><ele>0.0</ele><time>2026-04-18T12:31:50.291Z</time></trkpt><trkpt lat="41.4223503" lon="12.7868212"><ele>0.0</ele><time>2026-04-18T12:31:52.292Z</time></trkpt><trkpt lat="41.4222851" lon="12.7868029"><ele>0.0</ele><time>2026-04-18T12:31:53.297Z</time></trkpt><trkpt lat="41.4221587" lon="12.7867578"><ele>0.0</ele><time>2026-04-18T12:31:55.29Z</time></trkpt><trkpt lat="41.4220839" lon="12.7867331"><ele>0.16666666666666666</ele><time>2026-04-18T12:31:56.291Z</time></trkpt><trkpt lat="41.4220166" lon="12.7867085"><ele>0.3333333333333333</ele><time>2026-04-18T12:31:57.294Z</time></trkpt><trkpt lat="41.4219543" lon="12.7866786"><ele>0.5</ele><time>2026-04-18T12:31:58.294Z</time></trkpt><trkpt lat="41.4218867" lon="12.7866681"><ele>0.6666666666666666</ele><time>2026-04-18T12:31:59.294Z</time></trkpt><trkpt lat="41.4218225" lon="12.7866338"><ele>0.8333333333333333</ele><time>2026-04-18T12:32:00.292Z</time></trkpt><trkpt lat="41.4217526" lon="12.7866195"><ele>1.0</ele><time>2026-04-18T12:32:01.291Z</time></trkpt><trkpt lat="41.4216326" lon="12.7865826"><ele>0.9999999999999999</ele><time>2026-04-18T12:32:03.29Z</time></trkpt><trkpt lat="41.4215327" lon="12.7865209"><ele>1.0</ele><time>2026-04-18T12:32:05.293Z</time></trkpt><trkpt lat="41.4214625" lon="12.7864985"><ele>1.0</ele><time>2026-04-18T12:32:06.294Z</time></trkpt><trkpt lat="41.4213906" lon="12.7864821"><ele>1.0</ele><time>2026-04-18T12:32:07.29Z</time></trkpt><trkpt lat="41.4213165" lon="12.786465"><ele>0.9999999999999999</ele><time>2026-04-18T12:32:08.29Z</time></trkpt><trkpt lat="41.4212518" lon="12.7864577"><ele>1.0</ele><time>2026-04-18T12:32:09.291Z</time></trkpt><trkpt lat="41.421189" lon="12.7864421"><ele>1.2000000000000002</ele><time>2026-04-18T12:32:10.29Z</time></trkpt><trkpt lat="41.4210812" lon="12.7864088"><ele>1.4000000000000001</ele><time>2026-04-18T12:32:12.294Z</time></trkpt><trkpt lat="41.4209946" lon="12.7863788"><ele>1.6</ele><time>2026-04-18T12:32:14.293Z</time></trkpt><trkpt lat="41.4208915" lon="12.7863317"><ele>1.8</ele><time>2026-04-18T12:32:16.298Z</time></trkpt><trkpt lat="41.4207819" lon="12.7862754"><ele>2.0</ele><time>2026-04-18T12:32:18.294Z</time></trkpt><trkpt lat="41.4206674" lon="12.786233"><ele>2.0</ele><time>2026-04-18T12:32:20.296Z</time></trkpt><trkpt lat="41.4205493" lon="12.7862077"><ele>2.0</ele><time>2026-04-18T12:32:22.292Z</time></trkpt><trkpt lat="41.420487" lon="12.7861939"><ele>2.0</ele><time>2026-04-18T12:32:23.294Z</time></trkpt><trkpt lat="41.4203734" lon="12.7861547"><ele>2.0</ele><time>2026-04-18T12:32:25.293Z</time></trkpt><trkpt lat="41.4202579" lon="12.786119"><ele>2.0</ele><time>2026-04-18T12:32:27.292Z</time></trkpt><trkpt lat="41.4201887" lon="12.7860745"><ele>1.6666666666666665</ele><time>2026-04-18T12:32:29.295Z</time></trkpt><trkpt lat="41.4201203" lon="12.7860908"><ele>1.3333333333333333</ele><time>2026-04-18T12:32:46.296Z</time></trkpt><trkpt lat="41.4200423" lon="12.7860653"><ele>1.0</ele><time>2026-04-18T12:32:55.292Z</time></trkpt><trkpt lat="41.4199913" lon="12.7861652"><ele>0.6666666666666666</ele><time>2026-04-18T12:32:57.291Z</time></trkpt><trkpt lat="41.4199821" lon="12.786252"><ele>0.3333333333333333</ele><time>2026-04-18T12:32:58.304Z</time></trkpt><trkpt lat="41.419963" lon="12.7863683"><ele>0.0</ele><time>2026-04-18T12:32:59.294Z</time></trkpt><trkpt lat="41.4199462" lon="12.7864994"><ele>0.0</ele><time>2026-04-18T12:33:00.292Z</time></trkpt><trkpt lat="41.4199259" lon="12.7866425"><ele>0.0</ele><time>2026-04-18T12:33:01.291Z</time></trkpt><trkpt lat="41.4199138" lon="12.7867712"><ele>0.0</ele><time>2026-04-18T12:33:02.292Z</time></trkpt><trkpt lat="41.4198957" lon="12.7869063"><ele>0.0</ele><time>2026-04-18T12:33:03.291Z</time></trkpt><trkpt lat="41.4198827" lon="12.7870246"><ele>0.0</ele><time>2026-04-18T12:33:04.291Z</time></trkpt><trkpt lat="41.4198646" lon="12.78716"><ele>0.0</ele><time>2026-04-18T12:33:05.295Z</time></trkpt><trkpt lat="41.4198561" lon="12.7872947"><ele>0.0</ele><time>2026-04-18T12:33:06.293Z</time></trkpt><trkpt lat="41.419844" lon="12.7874312"><ele>0.0</ele><time>2026-04-18T12:33:07.29Z</time></trkpt><trkpt lat="41.4198347" lon="12.7875676"><ele>0.0</ele><time>2026-04-18T12:33:08.29Z</time></trkpt><trkpt lat="41.4198273" lon="12.7877205"><ele>0.0</ele><time>2026-04-18T12:33:09.295Z</time></trkpt><trkpt lat="41.4198172" lon="12.7878586"><ele>0.2</ele><time>2026-04-18T12:33:10.295Z</time></trkpt><trkpt lat="41.419804" lon="12.7880032"><ele>0.4</ele><time>2026-04-18T12:33:11.296Z</time></trkpt><trkpt lat="41.4198008" lon="12.788139"><ele>0.6000000000000001</ele><time>2026-04-18T12:33:12.289Z</time></trkpt><trkpt lat="41.4197896" lon="12.7882834"><ele>0.8</ele><time>2026-04-18T12:33:13.292Z</time></trkpt><trkpt lat="41.4197836" lon="12.7884337"><ele>1.0</ele><time>2026-04-18T12:33:14.292Z</time></trkpt><trkpt lat="41.4197722" lon="12.7885896"><ele>1.0</ele><time>2026-04-18T12:33:15.295Z</time></trkpt><trkpt lat="41.419752" lon="12.7887622"><ele>1.0</ele><time>2026-04-18T12:33:16.293Z</time></trkpt><trkpt lat="41.4197342" lon="12.7889587"><ele>1.0</ele><time>2026-04-18T12:33:17.291Z</time></trkpt><trkpt lat="41.4197217" lon="12.7891567"><ele>1.0</ele><time>2026-04-18T12:33:18.291Z</time></trkpt><trkpt lat="41.4197052" lon="12.7893771"><ele>1.0</ele><time>2026-04-18T12:33:19.292Z</time></trkpt><trkpt lat="41.4196917" lon="12.7896286"><ele>1.0</ele><time>2026-04-18T12:33:20.292Z</time></trkpt><trkpt lat="41.4196644" lon="12.7898996"><ele>1.0</ele><time>2026-04-18T12:33:21.295Z</time></trkpt><trkpt lat="41.4196436" lon="12.790149"><ele>1.0</ele><time>2026-04-18T12:33:22.296Z</time></trkpt><trkpt lat="41.419619" lon="12.7903925"><ele>1.0</ele><time>2026-04-18T12:33:23.295Z</time></trkpt><trkpt lat="41.4195955" lon="12.7906306"><ele>1.0</ele><time>2026-04-18T12:33:24.296Z</time></trkpt><trkpt lat="41.419572" lon="12.7908595"><ele>0.3333333333333333</ele><time>2026-04-18T12:33:25.296Z</time></trkpt><trkpt lat="41.4195339" lon="12.791107"><ele>-0.3333333333333333</ele><time>2026-04-18T12:33:26.289Z</time></trkpt><trkpt lat="41.4195021" lon="12.7913914"><ele>-1.0</ele><time>2026-04-18T12:33:27.291Z</time></trkpt><trkpt lat="41.419464" lon="12.7916872"><ele>-0.3333333333333333</ele><time>2026-04-18T12:33:28.293Z</time></trkpt><trkpt lat="41.4194241" lon="12.7919476"><ele>0.3333333333333333</ele><time>2026-04-18T12:33:29.291Z</time></trkpt><trkpt lat="41.4193912" lon="12.7922028"><ele>1.0</ele><time>2026-04-18T12:33:30.291Z</time></trkpt><trkpt lat="41.4193559" lon="12.7924462"><ele>1.0</ele><time>2026-04-18T12:33:31.293Z</time></trkpt><trkpt lat="41.4193247" lon="12.792691"><ele>1.0</ele><time>2026-04-18T12:33:32.297Z</time></trkpt><trkpt lat="41.4192912" lon="12.7929254"><ele>1.0</ele><time>2026-04-18T12:33:33.292Z</time></trkpt><trkpt lat="41.4192643" lon="12.7931595"><ele>1.0</ele><time>2026-04-18T12:33:34.29Z</time></trkpt><trkpt lat="41.4192266" lon="12.7933975"><ele>1.0</ele><time>2026-04-18T12:33:35.291Z</time></trkpt><trkpt lat="41.4191837" lon="12.7936254"><ele>1.0</ele><time>2026-04-18T12:33:36.291Z</time></trkpt><trkpt lat="41.4191396" lon="12.7938566"><ele>0.6666666666666666</ele><time>2026-04-18T12:33:37.294Z</time></trkpt><trkpt lat="41.4190927" lon="12.794086"><ele>0.3333333333333333</ele><time>2026-04-18T12:33:38.295Z</time></trkpt><trkpt lat="41.4190472" lon="12.7943032"><ele>0.0</ele><time>2026-04-18T12:33:39.296Z</time></trkpt><trkpt lat="41.4190004" lon="12.7945155"><ele>0.0</ele><time>2026-04-18T12:33:40.29Z</time></trkpt><trkpt lat="41.4189427" lon="12.794741"><ele>0.0</ele><time>2026-04-18T12:33:41.291Z</time></trkpt><trkpt lat="41.4188959" lon="12.7949695"><ele>0.0</ele><time>2026-04-18T12:33:42.29Z</time></trkpt><trkpt lat="41.4188445" lon="12.7952099"><ele>0.6666666666666666</ele><time>2026-04-18T12:33:43.293Z</time></trkpt><trkpt lat="41.4187867" lon="12.7954485"><ele>1.3333333333333333</ele><time>2026-04-18T12:33:44.293Z</time></trkpt><trkpt lat="41.4187203" lon="12.7957046"><ele>2.0</ele><time>2026-04-18T12:33:45.296Z</time></trkpt><trkpt lat="41.4186658" lon="12.7959542"><ele>1.6666666666666665</ele><time>2026-04-18T12:33:46.294Z</time></trkpt><trkpt lat="41.4186111" lon="12.7962022"><ele>1.3333333333333333</ele><time>2026-04-18T12:33:47.29Z</time></trkpt><trkpt lat="41.4185514" lon="12.7964527"><ele>1.0</ele><time>2026-04-18T12:33:48.291Z</time></trkpt><trkpt lat="41.4184893" lon="12.7967127"><ele>0.6666666666666666</ele><time>2026-04-18T12:33:49.291Z</time></trkpt><trkpt lat="41.4184277" lon="12.7969829"><ele>0.3333333333333333</ele><time>2026-04-18T12:33:50.295Z</time></trkpt><trkpt lat="41.4183627" lon="12.7972809"><ele>0.0</ele><time>2026-04-18T12:33:51.291Z</time></trkpt><trkpt lat="41.418289" lon="12.797586"><ele>0.3333333333333333</ele><time>2026-04-18T12:33:52.293Z</time></trkpt><trkpt lat="41.4182234" lon="12.7978659"><ele>0.6666666666666666</ele><time>2026-04-18T12:33:53.291Z</time></trkpt><trkpt lat="41.4181587" lon="12.7981408"><ele>1.0</ele><time>2026-04-18T12:33:54.29Z</time></trkpt><trkpt lat="41.4181047" lon="12.7983887"><ele>1.0</ele><time>2026-04-18T12:33:55.29Z</time></trkpt><trkpt lat="41.4180539" lon="12.7986234"><ele>1.0</ele><time>2026-04-18T12:33:56.295Z</time></trkpt><trkpt lat="41.4179975" lon="12.7988644"><ele>1.0</ele><time>2026-04-18T12:33:57.295Z</time></trkpt><trkpt lat="41.4179467" lon="12.7990969"><ele>1.0</ele><time>2026-04-18T12:33:58.294Z</time></trkpt><trkpt lat="41.4179026" lon="12.7993246"><ele>1.0</ele><time>2026-04-18T12:33:59.291Z</time></trkpt><trkpt lat="41.4178589" lon="12.7995424"><ele>1.0</ele><time>2026-04-18T12:34:00.291Z</time></trkpt><trkpt lat="41.4178386" lon="12.7997451"><ele>1.0</ele><time>2026-04-18T12:34:01.29Z</time></trkpt><trkpt lat="41.4178244" lon="12.7999463"><ele>1.0</ele><time>2026-04-18T12:34:02.294Z</time></trkpt><trkpt lat="41.4178107" lon="12.8001486"><ele>1.0</ele><time>2026-04-18T12:34:03.295Z</time></trkpt><trkpt lat="41.4177963" lon="12.8003471"><ele>1.0</ele><time>2026-04-18T12:34:04.295Z</time></trkpt><trkpt lat="41.4177744" lon="12.8005287"><ele>1.0</ele><time>2026-04-18T12:34:05.293Z</time></trkpt><trkpt lat="41.4177616" lon="12.8007156"><ele>1.0</ele><time>2026-04-18T12:34:06.295Z</time></trkpt><trkpt lat="41.4177516" lon="12.8008962"><ele>1.0</ele><time>2026-04-18T12:34:07.291Z</time></trkpt><trkpt lat="41.4177462" lon="12.8010619"><ele>1.0</ele><time>2026-04-18T12:34:08.291Z</time></trkpt><trkpt lat="41.4177413" lon="12.8012196"><ele>1.0</ele><time>2026-04-18T12:34:09.289Z</time></trkpt><trkpt lat="41.4177199" lon="12.8013891"><ele>1.0</ele><time>2026-04-18T12:34:10.292Z</time></trkpt><trkpt lat="41.4176944" lon="12.8015454"><ele>1.0</ele><time>2026-04-18T12:34:11.296Z</time></trkpt><trkpt lat="41.4176622" lon="12.8016848"><ele>1.0</ele><time>2026-04-18T12:34:12.293Z</time></trkpt><trkpt lat="41.417613" lon="12.8018088"><ele>1.0</ele><time>2026-04-18T12:34:13.289Z</time></trkpt><trkpt lat="41.4175569" lon="12.8019215"><ele>1.0</ele><time>2026-04-18T12:34:14.29Z</time></trkpt><trkpt lat="41.4174687" lon="12.8020264"><ele>1.0</ele><time>2026-04-18T12:34:15.292Z</time></trkpt><trkpt lat="41.4173801" lon="12.8021231"><ele>1.0</ele><time>2026-04-18T12:34:16.297Z</time></trkpt><trkpt lat="41.4172848" lon="12.8022184"><ele>1.0</ele><time>2026-04-18T12:34:17.293Z</time></trkpt><trkpt lat="41.4171963" lon="12.8023138"><ele>1.0</ele><time>2026-04-18T12:34:18.292Z</time></trkpt><trkpt lat="41.4171099" lon="12.8024238"><ele>1.0</ele><time>2026-04-18T12:34:19.291Z</time></trkpt><trkpt lat="41.4170422" lon="12.8025275"><ele>1.0</ele><time>2026-04-18T12:34:20.289Z</time></trkpt><trkpt lat="41.41697" lon="12.8026557"><ele>1.0</ele><time>2026-04-18T12:34:21.289Z</time></trkpt><trkpt lat="41.4169144" lon="12.8027991"><ele>1.0</ele><time>2026-04-18T12:34:22.289Z</time></trkpt><trkpt lat="41.4168662" lon="12.8029606"><ele>1.0</ele><time>2026-04-18T12:34:23.292Z</time></trkpt><trkpt lat="41.4168095" lon="12.8031282"><ele>1.0</ele><time>2026-04-18T12:34:24.292Z</time></trkpt><trkpt lat="41.4167575" lon="12.8033137"><ele>0.6666666666666666</ele><time>2026-04-18T12:34:25.294Z</time></trkpt><trkpt lat="41.4167123" lon="12.8035063"><ele>0.3333333333333333</ele><time>2026-04-18T12:34:26.292Z</time></trkpt><trkpt lat="41.4166462" lon="12.8037122"><ele>0.0</ele><time>2026-04-18T12:34:27.29Z</time></trkpt><trkpt lat="41.4165755" lon="12.8039347"><ele>0.0</ele><time>2026-04-18T12:34:28.292Z</time></trkpt><trkpt lat="41.4165065" lon="12.8041617"><ele>0.0</ele><time>2026-04-18T12:34:29.293Z</time></trkpt><trkpt lat="41.4164333" lon="12.8044061"><ele>0.0</ele><time>2026-04-18T12:34:30.292Z</time></trkpt><trkpt lat="41.4163689" lon="12.804645"><ele>0.3333333333333333</ele><time>2026-04-18T12:34:31.293Z</time></trkpt><trkpt lat="41.4163003" lon="12.8049046"><ele>0.6666666666666666</ele><time>2026-04-18T12:34:32.295Z</time></trkpt><trkpt lat="41.416227" lon="12.80518"><ele>1.0</ele><time>2026-04-18T12:34:33.293Z</time></trkpt><trkpt lat="41.4161416" lon="12.8054428"><ele>1.0</ele><time>2026-04-18T12:34:34.293Z</time></trkpt><trkpt lat="41.4160692" lon="12.8056883"><ele>1.0</ele><time>2026-04-18T12:34:35.29Z</time></trkpt><trkpt lat="41.4159926" lon="12.8059317"><ele>1.0</ele><time>2026-04-18T12:34:36.29Z</time></trkpt><trkpt lat="41.4159225" lon="12.8061726"><ele>1.3333333333333333</ele><time>2026-04-18T12:34:37.294Z</time></trkpt><trkpt lat="41.4158598" lon="12.8063992"><ele>1.6666666666666665</ele><time>2026-04-18T12:34:38.294Z</time></trkpt><trkpt lat="41.4158045" lon="12.8066309"><ele>2.0</ele><time>2026-04-18T12:34:39.293Z</time></trkpt><trkpt lat="41.4157581" lon="12.8068624"><ele>2.6666666666666665</ele><time>2026-04-18T12:34:40.293Z</time></trkpt><trkpt lat="41.4157148" lon="12.8070799"><ele>3.333333333333333</ele><time>2026-04-18T12:34:41.293Z</time></trkpt><trkpt lat="41.415711" lon="12.8073276"><ele>4.0</ele><time>2026-04-18T12:34:42.294Z</time></trkpt><trkpt lat="41.4156974" lon="12.8075913"><ele>4.0</ele><time>2026-04-18T12:34:43.291Z</time></trkpt><trkpt lat="41.4156967" lon="12.8078409"><ele>4.0</ele><time>2026-04-18T12:34:44.294Z</time></trkpt><trkpt lat="41.4156867" lon="12.8081217"><ele>4.0</ele><time>2026-04-18T12:34:45.296Z</time></trkpt><trkpt lat="41.4156792" lon="12.8084007"><ele>4.0</ele><time>2026-04-18T12:34:46.29Z</time></trkpt><trkpt lat="41.4156612" lon="12.8087213"><ele>4.0</ele><time>2026-04-18T12:34:47.293Z</time></trkpt><trkpt lat="41.415648" lon="12.8090159"><ele>4.0</ele><time>2026-04-18T12:34:48.291Z</time></trkpt><trkpt lat="41.4156287" lon="12.8093032"><ele>4.0</ele><time>2026-04-18T12:34:49.295Z</time></trkpt><trkpt lat="41.4156197" lon="12.8095875"><ele>4.0</ele><time>2026-04-18T12:34:50.294Z</time></trkpt><trkpt lat="41.4155963" lon="12.8098312"><ele>4.333333333333333</ele><time>2026-04-18T12:34:51.295Z</time></trkpt><trkpt lat="41.4155883" lon="12.8100825"><ele>4.666666666666667</ele><time>2026-04-18T12:34:52.291Z</time></trkpt><trkpt lat="41.4155889" lon="12.8103122"><ele>5.0</ele><time>2026-04-18T12:34:53.295Z</time></trkpt><trkpt lat="41.4155775" lon="12.8105259"><ele>5.0</ele><time>2026-04-18T12:34:54.293Z</time></trkpt><trkpt lat="41.4155773" lon="12.8107222"><ele>5.0</ele><time>2026-04-18T12:34:55.289Z</time></trkpt><trkpt lat="41.4155703" lon="12.810923"><ele>5.0</ele><time>2026-04-18T12:34:56.292Z</time></trkpt><trkpt lat="41.4155595" lon="12.8110984"><ele>5.0</ele><time>2026-04-18T12:34:57.295Z</time></trkpt><trkpt lat="41.4155541" lon="12.8112769"><ele>5.0</ele><time>2026-04-18T12:34:58.294Z</time></trkpt><trkpt lat="41.4155432" lon="12.8114152"><ele>5.0</ele><time>2026-04-18T12:34:59.293Z</time></trkpt><trkpt lat="41.4155302" lon="12.8115492"><ele>5.0</ele><time>2026-04-18T12:35:00.295Z</time></trkpt><trkpt lat="41.4155273" lon="12.8116626"><ele>5.0</ele><time>2026-04-18T12:35:01.294Z</time></trkpt><trkpt lat="41.4155239" lon="12.8117623"><ele>5.0</ele><time>2026-04-18T12:35:02.291Z</time></trkpt><trkpt lat="41.4155551" lon="12.8118912"><ele>4.4</ele><time>2026-04-18T12:35:04.291Z</time></trkpt><trkpt lat="41.4156189" lon="12.8119488"><ele>3.8</ele><time>2026-04-18T12:35:05.292Z</time></trkpt><trkpt lat="41.415697" lon="12.8120149"><ele>3.2</ele><time>2026-04-18T12:35:06.299Z</time></trkpt><trkpt lat="41.4157732" lon="12.8120551"><ele>2.6</ele><time>2026-04-18T12:35:07.294Z</time></trkpt><trkpt lat="41.4158885" lon="12.8120658"><ele>2.0</ele><time>2026-04-18T12:35:08.29Z</time></trkpt><trkpt lat="41.4159861" lon="12.8120759"><ele>2.0</ele><time>2026-04-18T12:35:09.292Z</time></trkpt><trkpt lat="41.4160985" lon="12.8120898"><ele>2.0</ele><time>2026-04-18T12:35:10.291Z</time></trkpt><trkpt lat="41.4162143" lon="12.812087"><ele>2.0</ele><time>2026-04-18T12:35:11.293Z</time></trkpt><trkpt lat="41.4163447" lon="12.8120923"><ele>2.0</ele><time>2026-04-18T12:35:12.297Z</time></trkpt><trkpt lat="41.4164895" lon="12.8120893"><ele>2.0</ele><time>2026-04-18T12:35:13.297Z</time></trkpt><trkpt lat="41.4166534" lon="12.8120888"><ele>2.0</ele><time>2026-04-18T12:35:14.29Z</time></trkpt><trkpt lat="41.416827" lon="12.812106"><ele>2.0</ele><time>2026-04-18T12:35:15.293Z</time></trkpt><trkpt lat="41.4170177" lon="12.8120979"><ele>2.6666666666666665</ele><time>2026-04-18T12:35:16.295Z</time></trkpt><trkpt lat="41.4171918" lon="12.8121012"><ele>3.333333333333333</ele><time>2026-04-18T12:35:17.291Z</time></trkpt><trkpt lat="41.4173539" lon="12.8120995"><ele>4.0</ele><time>2026-04-18T12:35:18.291Z</time></trkpt><trkpt lat="41.4175135" lon="12.8121014"><ele>4.0</ele><time>2026-04-18T12:35:19.293Z</time></trkpt><trkpt lat="41.4176632" lon="12.8121215"><ele>4.0</ele><time>2026-04-18T12:35:20.295Z</time></trkpt><trkpt lat="41.4178128" lon="12.8121319"><ele>4.0</ele><time>2026-04-18T12:35:21.294Z</time></trkpt><trkpt lat="41.4179422" lon="12.8121412"><ele>4.0</ele><time>2026-04-18T12:35:22.292Z</time></trkpt><trkpt lat="41.4180661" lon="12.8121447"><ele>4.0</ele><time>2026-04-18T12:35:23.296Z</time></trkpt><trkpt lat="41.4181782" lon="12.8121458"><ele>4.0</ele><time>2026-04-18T12:35:24.297Z</time></trkpt><trkpt lat="41.4182877" lon="12.8121494"><ele>4.0</ele><time>2026-04-18T12:35:25.292Z</time></trkpt><trkpt lat="41.4183869" lon="12.8121596"><ele>4.0</ele><time>2026-04-18T12:35:26.292Z</time></trkpt><trkpt lat="41.4184753" lon="12.8121646"><ele>4.0</ele><time>2026-04-18T12:35:27.289Z</time></trkpt><trkpt lat="41.4185527" lon="12.8121651"><ele>4.0</ele><time>2026-04-18T12:35:28.294Z</time></trkpt><trkpt lat="41.4186689" lon="12.812171"><ele>4.0</ele><time>2026-04-18T12:35:30.292Z</time></trkpt><trkpt lat="41.4187533" lon="12.8121889"><ele>4.0</ele><time>2026-04-18T12:35:32.293Z</time></trkpt><trkpt lat="41.4187688" lon="12.8123135"><ele>4.0</ele><time>2026-04-18T12:35:36.29Z</time></trkpt><trkpt lat="41.4188022" lon="12.8123979"><ele>4.0</ele><time>2026-04-18T12:35:38.293Z</time></trkpt><trkpt lat="41.4188834" lon="12.8124526"><ele>3.9999999999999996</ele><time>2026-04-18T12:35:40.3Z</time></trkpt><trkpt lat="41.4189478" lon="12.8124719"><ele>4.0</ele><time>2026-04-18T12:35:41.291Z</time></trkpt><trkpt lat="41.4190224" lon="12.8124962"><ele>4.0</ele><time>2026-04-18T12:35:42.294Z</time></trkpt><trkpt lat="41.4191075" lon="12.8125176"><ele>4.0</ele><time>2026-04-18T12:35:43.294Z</time></trkpt><trkpt lat="41.4191939" lon="12.8125412"><ele>3.9999999999999996</ele><time>2026-04-18T12:35:44.295Z</time></trkpt><trkpt lat="41.4192831" lon="12.8125537"><ele>4.0</ele><time>2026-04-18T12:35:45.294Z</time></trkpt><trkpt lat="41.4193744" lon="12.8125661"><ele>4.0</ele><time>2026-04-18T12:35:46.295Z</time></trkpt><trkpt lat="41.4194682" lon="12.8125766"><ele>4.0</ele><time>2026-04-18T12:35:47.292Z</time></trkpt><trkpt lat="41.4195766" lon="12.8125803"><ele>4.0</ele><time>2026-04-18T12:35:48.291Z</time></trkpt><trkpt lat="41.4196872" lon="12.8125879"><ele>4.0</ele><time>2026-04-18T12:35:49.292Z</time></trkpt><trkpt lat="41.4198137" lon="12.8126066"><ele>4.0</ele><time>2026-04-18T12:35:50.293Z</time></trkpt><trkpt lat="41.419944" lon="12.8126135"><ele>4.25</ele><time>2026-04-18T12:35:51.291Z</time></trkpt><trkpt lat="41.420077" lon="12.8126227"><ele>4.5</ele><time>2026-04-18T12:35:52.29Z</time></trkpt><trkpt lat="41.4202112" lon="12.8126316"><ele>4.75</ele><time>2026-04-18T12:35:53.295Z</time></trkpt><trkpt lat="41.4203599" lon="12.812636"><ele>5.0</ele><time>2026-04-18T12:35:54.292Z</time></trkpt><trkpt lat="41.4205041" lon="12.8126413"><ele>5.25</ele><time>2026-04-18T12:35:55.291Z</time></trkpt><trkpt lat="41.4206401" lon="12.8126437"><ele>5.5</ele><time>2026-04-18T12:35:56.291Z</time></trkpt><trkpt lat="41.4207693" lon="12.8126504"><ele>5.75</ele><time>2026-04-18T12:35:57.291Z</time></trkpt><trkpt lat="41.4209029" lon="12.8126515"><ele>6.0</ele><time>2026-04-18T12:35:58.292Z</time></trkpt><trkpt lat="41.4210356" lon="12.8126616"><ele>5.5</ele><time>2026-04-18T12:35:59.294Z</time></trkpt><trkpt lat="41.4211518" lon="12.8126679"><ele>5.0</ele><time>2026-04-18T12:36:00.293Z</time></trkpt><trkpt lat="41.4212798" lon="12.8126674"><ele>4.5</ele><time>2026-04-18T12:36:01.293Z</time></trkpt><trkpt lat="41.4213935" lon="12.8126509"><ele>4.0</ele><time>2026-04-18T12:36:02.292Z</time></trkpt><trkpt lat="41.4215008" lon="12.8126294"><ele>4.0</ele><time>2026-04-18T12:36:03.292Z</time></trkpt><trkpt lat="41.421597" lon="12.8125967"><ele>4.0</ele><time>2026-04-18T12:36:04.291Z</time></trkpt><trkpt lat="41.4217009" lon="12.8125845"><ele>4.0</ele><time>2026-04-18T12:36:05.291Z</time></trkpt><trkpt lat="41.421784" lon="12.8125866"><ele>4.0</ele><time>2026-04-18T12:36:06.295Z</time></trkpt><trkpt lat="41.4218897" lon="12.8126065"><ele>4.0</ele><time>2026-04-18T12:36:07.294Z</time></trkpt><trkpt lat="41.4219759" lon="12.8126326"><ele>4.0</ele><time>2026-04-18T12:36:08.294Z</time></trkpt><trkpt lat="41.4220619" lon="12.8126457"><ele>4.0</ele><time>2026-04-18T12:36:09.295Z</time></trkpt><trkpt lat="41.4221559" lon="12.8126367"><ele>4.0</ele><time>2026-04-18T12:36:10.294Z</time></trkpt><trkpt lat="41.4222571" lon="12.8126235"><ele>4.0</ele><time>2026-04-18T12:36:11.292Z</time></trkpt><trkpt lat="41.4223458" lon="12.8126148"><ele>4.0</ele><time>2026-04-18T12:36:12.291Z</time></trkpt><trkpt lat="41.4224587" lon="12.8125995"><ele>4.0</ele><time>2026-04-18T12:36:13.292Z</time></trkpt><trkpt lat="41.4225624" lon="12.8126063"><ele>4.0</ele><time>2026-04-18T12:36:14.294Z</time></trkpt><trkpt lat="41.4226655" lon="12.8126161"><ele>4.0</ele><time>2026-04-18T12:36:15.293Z</time></trkpt><trkpt lat="41.4227627" lon="12.8126322"><ele>4.0</ele><time>2026-04-18T12:36:16.293Z</time></trkpt><trkpt lat="41.4228673" lon="12.8126413"><ele>4.0</ele><time>2026-04-18T12:36:17.293Z</time></trkpt><trkpt lat="41.4229642" lon="12.8126377"><ele>4.0</ele><time>2026-04-18T12:36:18.298Z</time></trkpt><trkpt lat="41.423064" lon="12.8126421"><ele>4.0</ele><time>2026-04-18T12:36:19.292Z</time></trkpt><trkpt lat="41.42316" lon="12.8126422"><ele>4.0</ele><time>2026-04-18T12:36:20.29Z</time></trkpt><trkpt lat="41.4232587" lon="12.8126431"><ele>4.0</ele><time>2026-04-18T12:36:21.291Z</time></trkpt><trkpt lat="41.4233478" lon="12.812644"><ele>4.0</ele><time>2026-04-18T12:36:22.294Z</time></trkpt><trkpt lat="41.4234422" lon="12.8126466"><ele>4.0</ele><time>2026-04-18T12:36:23.294Z</time></trkpt><trkpt lat="41.4235349" lon="12.8126512"><ele>4.0</ele><time>2026-04-18T12:36:24.322Z</time></trkpt><trkpt lat="41.4236176" lon="12.8126668"><ele>4.0</ele><time>2026-04-18T12:36:25.324Z</time></trkpt><trkpt lat="41.4237628" lon="12.8126917"><ele>4.0</ele><time>2026-04-18T12:36:27.311Z</time></trkpt><trkpt lat="41.4238961" lon="12.8127086"><ele>3.4000000000000004</ele><time>2026-04-18T12:36:29.291Z</time></trkpt><trkpt lat="41.4239895" lon="12.8127272"><ele>2.8000000000000003</ele><time>2026-04-18T12:36:31.295Z</time></trkpt><trkpt lat="41.42408" lon="12.8127281"><ele>2.2</ele><time>2026-04-18T12:36:33.295Z</time></trkpt><trkpt lat="41.424178" lon="12.8127431"><ele>1.6</ele><time>2026-04-18T12:36:35.305Z</time></trkpt><trkpt lat="41.4243038" lon="12.8127304"><ele>1.0</ele><time>2026-04-18T12:36:37.306Z</time></trkpt><trkpt lat="41.4244391" lon="12.8127158"><ele>1.0</ele><time>2026-04-18T12:36:39.293Z</time></trkpt><trkpt lat="41.4245948" lon="12.8127142"><ele>1.0</ele><time>2026-04-18T12:36:41.302Z</time></trkpt><trkpt lat="41.4247524" lon="12.8127124"><ele>1.0</ele><time>2026-04-18T12:36:43.291Z</time></trkpt><trkpt lat="41.4249015" lon="12.8127186"><ele>1.1666666666666665</ele><time>2026-04-18T12:36:45.337Z</time></trkpt><trkpt lat="41.4249794" lon="12.812728"><ele>1.3333333333333333</ele><time>2026-04-18T12:36:46.322Z</time></trkpt><trkpt lat="41.4250613" lon="12.8127317"><ele>1.5</ele><time>2026-04-18T12:36:47.3Z</time></trkpt><trkpt lat="41.4251415" lon="12.8127402"><ele>1.6666666666666665</ele><time>2026-04-18T12:36:48.306Z</time></trkpt><trkpt lat="41.4252217" lon="12.8127427"><ele>1.8333333333333333</ele><time>2026-04-18T12:36:49.292Z</time></trkpt><trkpt lat="41.4253034" lon="12.8127468"><ele>2.0</ele><time>2026-04-18T12:36:50.301Z</time></trkpt><trkpt lat="41.4253798" lon="12.8127539"><ele>2.0</ele><time>2026-04-18T12:36:51.296Z</time></trkpt><trkpt lat="41.4255479" lon="12.8127662"><ele>2.0</ele><time>2026-04-18T12:36:53.308Z</time></trkpt><trkpt lat="41.4257145" lon="12.8127833"><ele>2.0</ele><time>2026-04-18T12:36:55.309Z</time></trkpt><trkpt lat="41.4258754" lon="12.8127915"><ele>2.0</ele><time>2026-04-18T12:36:57.328Z</time></trkpt><trkpt lat="41.4260259" lon="12.8128226"><ele>2.0</ele><time>2026-04-18T12:36:59.332Z</time></trkpt><trkpt lat="41.4261895" lon="12.81288"><ele>2.0</ele><time>2026-04-18T12:37:01.299Z</time></trkpt><trkpt lat="41.426265" lon="12.812906"><ele>2.0</ele><time>2026-04-18T12:37:02.294Z</time></trkpt><trkpt lat="41.4264325" lon="12.8129434"><ele>2.2</ele><time>2026-04-18T12:37:04.296Z</time></trkpt><trkpt lat="41.4265085" lon="12.8129609"><ele>2.4000000000000004</ele><time>2026-04-18T12:37:05.291Z</time></trkpt><trkpt lat="41.4265826" lon="12.8129802"><ele>2.5999999999999996</ele><time>2026-04-18T12:37:06.305Z</time></trkpt><trkpt lat="41.4266565" lon="12.8129979"><ele>2.8</ele><time>2026-04-18T12:37:07.294Z</time></trkpt><trkpt lat="41.4267327" lon="12.8130291"><ele>3.0</ele><time>2026-04-18T12:37:08.324Z</time></trkpt><trkpt lat="41.4268833" lon="12.8130984"><ele>3.0</ele><time>2026-04-18T12:37:10.303Z</time></trkpt><trkpt lat="41.4269538" lon="12.8131266"><ele>3.0</ele><time>2026-04-18T12:37:11.322Z</time></trkpt><trkpt lat="41.4271053" lon="12.8132061"><ele>3.0</ele><time>2026-04-18T12:37:13.296Z</time></trkpt><trkpt lat="41.427238" lon="12.8132916"><ele>3.0</ele><time>2026-04-18T12:37:15.307Z</time></trkpt><trkpt lat="41.4272999" lon="12.813336"><ele>3.2</ele><time>2026-04-18T12:37:16.292Z</time></trkpt><trkpt lat="41.4273542" lon="12.8133799"><ele>3.4</ele><time>2026-04-18T12:37:17.294Z</time></trkpt><trkpt lat="41.4275138" lon="12.8135117"><ele>3.6000000000000005</ele><time>2026-04-18T12:37:20.291Z</time></trkpt><trkpt lat="41.427616" lon="12.8135948"><ele>3.8000000000000003</ele><time>2026-04-18T12:37:22.294Z</time></trkpt><trkpt lat="41.4276704" lon="12.8136382"><ele>4.0</ele><time>2026-04-18T12:37:23.295Z</time></trkpt><trkpt lat="41.4277233" lon="12.8136881"><ele>3.75</ele><time>2026-04-18T12:37:24.306Z</time></trkpt><trkpt lat="41.4278189" lon="12.8137839"><ele>3.5</ele><time>2026-04-18T12:37:26.299Z</time></trkpt><trkpt lat="41.4278743" lon="12.8138321"><ele>3.25</ele><time>2026-04-18T12:37:27.306Z</time></trkpt><trkpt lat="41.4279879" lon="12.8139208"><ele>3.0</ele><time>2026-04-18T12:37:29.307Z</time></trkpt><trkpt lat="41.4281167" lon="12.8139892"><ele>3.0</ele><time>2026-04-18T12:37:31.323Z</time></trkpt><trkpt lat="41.4282292" lon="12.8140458"><ele>3.0</ele><time>2026-04-18T12:37:33.292Z</time></trkpt><trkpt lat="41.4283595" lon="12.8141167"><ele>3.0</ele><time>2026-04-18T12:37:35.31Z</time></trkpt><trkpt lat="41.4284741" lon="12.81419"><ele>3.0</ele><time>2026-04-18T12:37:37.306Z</time></trkpt><trkpt lat="41.4285697" lon="12.8142784"><ele>3.0</ele><time>2026-04-18T12:37:39.292Z</time></trkpt><trkpt lat="41.4287215" lon="12.8143947"><ele>3.0</ele><time>2026-04-18T12:37:42.3Z</time></trkpt><trkpt lat="41.4288149" lon="12.8144711"><ele>3.0</ele><time>2026-04-18T12:37:44.301Z</time></trkpt><trkpt lat="41.4289004" lon="12.8145023"><ele>3.0</ele><time>2026-04-18T12:37:46.296Z</time></trkpt><trkpt lat="41.4291006" lon="12.8145915"><ele>3.0</ele><time>2026-04-18T12:37:49.326Z</time></trkpt><trkpt lat="41.4291862" lon="12.8146437"><ele>3.0</ele><time>2026-04-18T12:37:50.302Z</time></trkpt><trkpt lat="41.4292628" lon="12.8146923"><ele>3.0</ele><time>2026-04-18T12:37:51.311Z</time></trkpt><trkpt lat="41.4294215" lon="12.8147926"><ele>3.0</ele><time>2026-04-18T12:37:53.294Z</time></trkpt><trkpt lat="41.4295025" lon="12.8148353"><ele>3.0</ele><time>2026-04-18T12:37:54.306Z</time></trkpt><trkpt lat="41.4295872" lon="12.8148801"><ele>3.0</ele><time>2026-04-18T12:37:55.327Z</time></trkpt><trkpt lat="41.4296625" lon="12.8149435"><ele>3.0</ele><time>2026-04-18T12:37:56.329Z</time></trkpt><trkpt lat="41.4298027" lon="12.8150367"><ele>3.0</ele><time>2026-04-18T12:37:58.295Z</time></trkpt><trkpt lat="41.4299158" lon="12.8151256"><ele>3.0</ele><time>2026-04-18T12:38:00.311Z</time></trkpt><trkpt lat="41.4300076" lon="12.8151659"><ele>3.0</ele><time>2026-04-18T12:38:02.299Z</time></trkpt><trkpt lat="41.4300676" lon="12.8152152"><ele>3.0</ele><time>2026-04-18T12:38:04.292Z</time></trkpt><trkpt lat="41.4301491" lon="12.8152926"><ele>3.0</ele><time>2026-04-18T12:38:06.308Z</time></trkpt><trkpt lat="41.4302522" lon="12.8153219"><ele>3.0</ele><time>2026-04-18T12:38:08.321Z</time></trkpt><trkpt lat="41.4303152" lon="12.815347"><ele>3.0</ele><time>2026-04-18T12:38:09.305Z</time></trkpt><trkpt lat="41.4303826" lon="12.8153651"><ele>3.0</ele><time>2026-04-18T12:38:10.34Z</time></trkpt><trkpt lat="41.4304496" lon="12.8153806"><ele>3.0</ele><time>2026-04-18T12:38:11.294Z</time></trkpt><trkpt lat="41.4305169" lon="12.8153936"><ele>3.0</ele><time>2026-04-18T12:38:12.299Z</time></trkpt><trkpt lat="41.4305988" lon="12.815384"><ele>3.0</ele><time>2026-04-18T12:38:13.291Z</time></trkpt><trkpt lat="41.4306671" lon="12.8153956"><ele>3.0</ele><time>2026-04-18T12:38:14.306Z</time></trkpt><trkpt lat="41.4307999" lon="12.8154028"><ele>3.0</ele><time>2026-04-18T12:38:16.299Z</time></trkpt><trkpt lat="41.4309336" lon="12.8154008"><ele>3.0</ele><time>2026-04-18T12:38:18.317Z</time></trkpt><trkpt lat="41.431075" lon="12.81539"><ele>3.0</ele><time>2026-04-18T12:38:20.303Z</time></trkpt><trkpt lat="41.431216" lon="12.8153667"><ele>3.0</ele><time>2026-04-18T12:38:22.309Z</time></trkpt><trkpt lat="41.4313804" lon="12.8153704"><ele>3.0</ele><time>2026-04-18T12:38:24.311Z</time></trkpt><trkpt lat="41.4315649" lon="12.815445"><ele>2.0</ele><time>2026-04-18T12:38:26.32Z</time></trkpt><trkpt lat="41.4317685" lon="12.8154938"><ele>1.0</ele><time>2026-04-18T12:38:28.302Z</time></trkpt><trkpt lat="41.4320217" lon="12.8155365"><ele>1.0</ele><time>2026-04-18T12:38:30.327Z</time></trkpt><trkpt lat="41.4322565" lon="12.8155724"><ele>1.0</ele><time>2026-04-18T12:38:32.295Z</time></trkpt><trkpt lat="41.4324736" lon="12.8155975"><ele>1.0</ele><time>2026-04-18T12:38:34.293Z</time></trkpt><trkpt lat="41.4326939" lon="12.8155584"><ele>1.0</ele><time>2026-04-18T12:38:36.296Z</time></trkpt><trkpt lat="41.4327979" lon="12.8155369"><ele>1.0</ele><time>2026-04-18T12:38:37.295Z</time></trkpt><trkpt lat="41.4328974" lon="12.8155079"><ele>1.0</ele><time>2026-04-18T12:38:38.296Z</time></trkpt><trkpt lat="41.4329959" lon="12.8154725"><ele>1.4</ele><time>2026-04-18T12:38:39.295Z</time></trkpt><trkpt lat="41.4330868" lon="12.8154308"><ele>1.8</ele><time>2026-04-18T12:38:40.299Z</time></trkpt><trkpt lat="41.4331768" lon="12.8153738"><ele>2.1999999999999997</ele><time>2026-04-18T12:38:41.306Z</time></trkpt><trkpt lat="41.4332615" lon="12.8153196"><ele>2.6</ele><time>2026-04-18T12:38:42.305Z</time></trkpt><trkpt lat="41.4333513" lon="12.8152562"><ele>3.0</ele><time>2026-04-18T12:38:43.294Z</time></trkpt><trkpt lat="41.4334422" lon="12.8151967"><ele>2.75</ele><time>2026-04-18T12:38:44.295Z</time></trkpt><trkpt lat="41.4335357" lon="12.8151404"><ele>2.5</ele><time>2026-04-18T12:38:45.296Z</time></trkpt><trkpt lat="41.4336299" lon="12.8150849"><ele>2.25</ele><time>2026-04-18T12:38:46.303Z</time></trkpt><trkpt lat="41.4338035" lon="12.814965"><ele>2.0</ele><time>2026-04-18T12:38:48.304Z</time></trkpt><trkpt lat="41.4339445" lon="12.8148206"><ele>2.0</ele><time>2026-04-18T12:38:50.326Z</time></trkpt><trkpt lat="41.4340813" lon="12.8146546"><ele>2.0</ele><time>2026-04-18T12:38:52.33Z</time></trkpt><trkpt lat="41.4342052" lon="12.814479"><ele>2.0</ele><time>2026-04-18T12:38:54.306Z</time></trkpt><trkpt lat="41.4342702" lon="12.8143955"><ele>2.333333333333333</ele><time>2026-04-18T12:38:55.331Z</time></trkpt><trkpt lat="41.4343848" lon="12.8142148"><ele>2.6666666666666665</ele><time>2026-04-18T12:38:57.305Z</time></trkpt><trkpt lat="41.4344829" lon="12.8140321"><ele>3.0</ele><time>2026-04-18T12:38:59.307Z</time></trkpt><trkpt lat="41.4345735" lon="12.8138242"><ele>2.6666666666666665</ele><time>2026-04-18T12:39:01.292Z</time></trkpt><trkpt lat="41.4346439" lon="12.813608"><ele>2.333333333333333</ele><time>2026-04-18T12:39:03.299Z</time></trkpt><trkpt lat="41.4347093" lon="12.8133229"><ele>2.0</ele><time>2026-04-18T12:39:05.289Z</time></trkpt><trkpt lat="41.4347463" lon="12.8131829"><ele>2.0</ele><time>2026-04-18T12:39:06.304Z</time></trkpt><trkpt lat="41.4347643" lon="12.8130381"><ele>2.0</ele><time>2026-04-18T12:39:07.296Z</time></trkpt><trkpt lat="41.4348411" lon="12.8127962"><ele>2.0</ele><time>2026-04-18T12:39:09.302Z</time></trkpt><trkpt lat="41.4348848" lon="12.8126577"><ele>2.0</ele><time>2026-04-18T12:39:10.295Z</time></trkpt><trkpt lat="41.4349217" lon="12.8125306"><ele>2.0</ele><time>2026-04-18T12:39:11.297Z</time></trkpt><trkpt lat="41.4349602" lon="12.8124038"><ele>2.0</ele><time>2026-04-18T12:39:12.305Z</time></trkpt><trkpt lat="41.4350371" lon="12.812165"><ele>2.0</ele><time>2026-04-18T12:39:14.297Z</time></trkpt><trkpt lat="41.4351292" lon="12.8119315"><ele>3.0</ele><time>2026-04-18T12:39:16.307Z</time></trkpt><trkpt lat="41.4352249" lon="12.8116919"><ele>4.0</ele><time>2026-04-18T12:39:18.31Z</time></trkpt><trkpt lat="41.4353155" lon="12.8114651"><ele>5.0</ele><time>2026-04-18T12:39:20.295Z</time></trkpt><trkpt lat="41.4353534" lon="12.8113692"><ele>5.0</ele><time>2026-04-18T12:39:21.327Z</time></trkpt><trkpt lat="41.4354407" lon="12.8111703"><ele>5.0</ele><time>2026-04-18T12:39:23.306Z</time></trkpt><trkpt lat="41.4355284" lon="12.8109296"><ele>5.0</ele><time>2026-04-18T12:39:25.336Z</time></trkpt><trkpt lat="41.4356106" lon="12.810687"><ele>4.6</ele><time>2026-04-18T12:39:27.299Z</time></trkpt><trkpt lat="41.4356528" lon="12.810551"><ele>4.2</ele><time>2026-04-18T12:39:28.299Z</time></trkpt><trkpt lat="41.435681" lon="12.8104069"><ele>3.8</ele><time>2026-04-18T12:39:29.301Z</time></trkpt><trkpt lat="41.435726" lon="12.8102692"><ele>3.4</ele><time>2026-04-18T12:39:30.293Z</time></trkpt><trkpt lat="41.4357644" lon="12.8101377"><ele>3.0</ele><time>2026-04-18T12:39:31.301Z</time></trkpt><trkpt lat="41.435798" lon="12.810008"><ele>3.0</ele><time>2026-04-18T12:39:32.293Z</time></trkpt><trkpt lat="41.4358293" lon="12.8098845"><ele>3.0</ele><time>2026-04-18T12:39:33.311Z</time></trkpt><trkpt lat="41.4359161" lon="12.8096747"><ele>3.0</ele><time>2026-04-18T12:39:35.295Z</time></trkpt><trkpt lat="41.4359603" lon="12.8095409"><ele>3.0</ele><time>2026-04-18T12:39:36.295Z</time></trkpt><trkpt lat="41.4359996" lon="12.8094069"><ele>3.5</ele><time>2026-04-18T12:39:37.293Z</time></trkpt><trkpt lat="41.4360412" lon="12.8092775"><ele>4.0</ele><time>2026-04-18T12:39:38.334Z</time></trkpt><trkpt lat="41.4360783" lon="12.8091389"><ele>4.5</ele><time>2026-04-18T12:39:39.293Z</time></trkpt><trkpt lat="41.4361636" lon="12.8088819"><ele>5.0</ele><time>2026-04-18T12:39:41.311Z</time></trkpt><trkpt lat="41.4362159" lon="12.8087539"><ele>5.0</ele><time>2026-04-18T12:39:42.3Z</time></trkpt><trkpt lat="41.4362634" lon="12.8086176"><ele>5.0</ele><time>2026-04-18T12:39:43.328Z</time></trkpt><trkpt lat="41.4363209" lon="12.8084915"><ele>5.0</ele><time>2026-04-18T12:39:44.296Z</time></trkpt><trkpt lat="41.4363789" lon="12.8083693"><ele>5.0</ele><time>2026-04-18T12:39:45.289Z</time></trkpt><trkpt lat="41.4364392" lon="12.8082574"><ele>5.0</ele><time>2026-04-18T12:39:46.298Z</time></trkpt><trkpt lat="41.4365027" lon="12.8081476"><ele>5.0</ele><time>2026-04-18T12:39:47.295Z</time></trkpt><trkpt lat="41.4365627" lon="12.8080309"><ele>5.0</ele><time>2026-04-18T12:39:48.294Z</time></trkpt><trkpt lat="41.4366204" lon="12.8079134"><ele>5.0</ele><time>2026-04-18T12:39:49.29Z</time></trkpt><trkpt lat="41.4366799" lon="12.8077994"><ele>5.0</ele><time>2026-04-18T12:39:50.291Z</time></trkpt><trkpt lat="41.4367432" lon="12.8077247"><ele>5.0</ele><time>2026-04-18T12:39:51.291Z</time></trkpt><trkpt lat="41.4368078" lon="12.8076452"><ele>5.2</ele><time>2026-04-18T12:39:52.296Z</time></trkpt><trkpt lat="41.4368659" lon="12.8075783"><ele>5.4</ele><time>2026-04-18T12:39:53.291Z</time></trkpt><trkpt lat="41.4369407" lon="12.8074616"><ele>5.6</ele><time>2026-04-18T12:39:55.292Z</time></trkpt><trkpt lat="41.4369648" lon="12.807321"><ele>5.8</ele><time>2026-04-18T12:39:57.293Z</time></trkpt><trkpt lat="41.4369615" lon="12.8071823"><ele>6.0</ele><time>2026-04-18T12:39:59.306Z</time></trkpt><trkpt lat="41.4369504" lon="12.8070397"><ele>6.0</ele><time>2026-04-18T12:40:01.304Z</time></trkpt><trkpt lat="41.4369422" lon="12.8069424"><ele>6.0</ele><time>2026-04-18T12:40:02.295Z</time></trkpt><trkpt lat="41.43695" lon="12.8067415"><ele>6.0</ele><time>2026-04-18T12:40:04.301Z</time></trkpt><trkpt lat="41.4369548" lon="12.8066356"><ele>6.0</ele><time>2026-04-18T12:40:05.298Z</time></trkpt><trkpt lat="41.4369501" lon="12.8062924"><ele>6.333333333333334</ele><time>2026-04-18T12:40:08.334Z</time></trkpt><trkpt lat="41.4369615" lon="12.806073"><ele>6.666666666666667</ele><time>2026-04-18T12:40:10.294Z</time></trkpt><trkpt lat="41.4369687" lon="12.8058512"><ele>7.0</ele><time>2026-04-18T12:40:12.3Z</time></trkpt><trkpt lat="41.4369706" lon="12.8056289"><ele>6.8</ele><time>2026-04-18T12:40:14.298Z</time></trkpt><trkpt lat="41.4369707" lon="12.8054118"><ele>6.6</ele><time>2026-04-18T12:40:16.299Z</time></trkpt><trkpt lat="41.4369758" lon="12.8052937"><ele>6.3999999999999995</ele><time>2026-04-18T12:40:17.29Z</time></trkpt><trkpt lat="41.4369774" lon="12.8051841"><ele>6.199999999999999</ele><time>2026-04-18T12:40:18.29Z</time></trkpt><trkpt lat="41.4369792" lon="12.8050803"><ele>6.0</ele><time>2026-04-18T12:40:19.295Z</time></trkpt><trkpt lat="41.4369654" lon="12.8049542"><ele>6.0</ele><time>2026-04-18T12:40:20.297Z</time></trkpt><trkpt lat="41.4369553" lon="12.8048315"><ele>6.0</ele><time>2026-04-18T12:40:21.319Z</time></trkpt><trkpt lat="41.4369563" lon="12.8047455"><ele>6.0</ele><time>2026-04-18T12:40:22.32Z</time></trkpt><trkpt lat="41.4370427" lon="12.804648"><ele>6.0</ele><time>2026-04-18T12:40:26.293Z</time></trkpt><trkpt lat="41.4370655" lon="12.8045662"><ele>6.0</ele><time>2026-04-18T12:40:28.301Z</time></trkpt><trkpt lat="41.4371245" lon="12.8044997"><ele>6.0</ele><time>2026-04-18T12:40:30.292Z</time></trkpt><trkpt lat="41.4371894" lon="12.8044867"><ele>5.8</ele><time>2026-04-18T12:40:31.307Z</time></trkpt><trkpt lat="41.4372593" lon="12.8044895"><ele>5.6</ele><time>2026-04-18T12:40:32.294Z</time></trkpt><trkpt lat="41.4373295" lon="12.8044964"><ele>5.4</ele><time>2026-04-18T12:40:33.294Z</time></trkpt><trkpt lat="41.4374028" lon="12.8045058"><ele>5.2</ele><time>2026-04-18T12:40:34.307Z</time></trkpt><trkpt lat="41.4375561" lon="12.8045152"><ele>5.0</ele><time>2026-04-18T12:40:36.3Z</time></trkpt><trkpt lat="41.4376921" lon="12.8045166"><ele>5.0</ele><time>2026-04-18T12:40:38.323Z</time></trkpt><trkpt lat="41.4378078" lon="12.804507"><ele>5.0</ele><time>2026-04-18T12:40:40.292Z</time></trkpt><trkpt lat="41.4379147" lon="12.8045229"><ele>5.0</ele><time>2026-04-18T12:40:42.301Z</time></trkpt><trkpt lat="41.4380375" lon="12.8045526"><ele>5.0</ele><time>2026-04-18T12:40:44.299Z</time></trkpt><trkpt lat="41.4381953" lon="12.804563"><ele>5.25</ele><time>2026-04-18T12:40:46.323Z</time></trkpt><trkpt lat="41.4383518" lon="12.8045694"><ele>5.5</ele><time>2026-04-18T12:40:48.305Z</time></trkpt><trkpt lat="41.4384777" lon="12.8045616"><ele>5.75</ele><time>2026-04-18T12:40:50.303Z</time></trkpt><trkpt lat="41.4385589" lon="12.8046247"><ele>6.0</ele><time>2026-04-18T12:40:52.298Z</time></trkpt><trkpt lat="41.4386282" lon="12.8046905"><ele>6.0</ele><time>2026-04-18T12:40:54.291Z</time></trkpt><trkpt lat="41.4387654" lon="12.8046536"><ele>6.0</ele><time>2026-04-18T12:40:56.308Z</time></trkpt><trkpt lat="41.4389382" lon="12.8045818"><ele>6.0</ele><time>2026-04-18T12:40:58.294Z</time></trkpt><trkpt lat="41.4391181" lon="12.8044612"><ele>6.666666666666666</ele><time>2026-04-18T12:41:00.304Z</time></trkpt><trkpt lat="41.4392853" lon="12.8043185"><ele>7.333333333333333</ele><time>2026-04-18T12:41:02.293Z</time></trkpt><trkpt lat="41.4394505" lon="12.8041563"><ele>8.0</ele><time>2026-04-18T12:41:04.303Z</time></trkpt><trkpt lat="41.439522" lon="12.8040845"><ele>8.0</ele><time>2026-04-18T12:41:05.292Z</time></trkpt><trkpt lat="41.4395875" lon="12.8040219"><ele>8.0</ele><time>2026-04-18T12:41:06.29Z</time></trkpt><trkpt lat="41.4396567" lon="12.80398"><ele>8.0</ele><time>2026-04-18T12:41:07.297Z</time></trkpt><trkpt lat="41.4398065" lon="12.8039399"><ele>8.0</ele><time>2026-04-18T12:41:09.315Z</time></trkpt><trkpt lat="41.4399681" lon="12.8039685"><ele>7.666666666666666</ele><time>2026-04-18T12:41:11.294Z</time></trkpt><trkpt lat="41.4400333" lon="12.8040013"><ele>7.333333333333333</ele><time>2026-04-18T12:41:12.298Z</time></trkpt><trkpt lat="41.4401069" lon="12.8040196"><ele>7.0</ele><time>2026-04-18T12:41:13.311Z</time></trkpt><trkpt lat="41.440225" lon="12.804009"><ele>6.666666666666666</ele><time>2026-04-18T12:41:15.304Z</time></trkpt><trkpt lat="41.4403236" lon="12.803974"><ele>6.333333333333333</ele><time>2026-04-18T12:41:17.332Z</time></trkpt><trkpt lat="41.440391" lon="12.8039377"><ele>6.0</ele><time>2026-04-18T12:41:19.297Z</time></trkpt><trkpt lat="41.4404747" lon="12.803996"><ele>6.0</ele><time>2026-04-18T12:41:21.303Z</time></trkpt><trkpt lat="41.4405267" lon="12.804116"><ele>6.0</ele><time>2026-04-18T12:41:23.301Z</time></trkpt><trkpt lat="41.4405753" lon="12.8042805"><ele>6.0</ele><time>2026-04-18T12:41:24.293Z</time></trkpt><trkpt lat="41.4405996" lon="12.8045003"><ele>6.0</ele><time>2026-04-18T12:41:25.291Z</time></trkpt><trkpt lat="41.4406352" lon="12.8046636"><ele>6.199999999999999</ele><time>2026-04-18T12:41:26.291Z</time></trkpt><trkpt lat="41.4406662" lon="12.8048081"><ele>6.3999999999999995</ele><time>2026-04-18T12:41:27.292Z</time></trkpt><trkpt lat="41.4406894" lon="12.8049299"><ele>6.6</ele><time>2026-04-18T12:41:28.296Z</time></trkpt><trkpt lat="41.440721" lon="12.8050318"><ele>6.8</ele><time>2026-04-18T12:41:29.294Z</time></trkpt><trkpt lat="41.4408164" lon="12.8051503"><ele>7.0</ele><time>2026-04-18T12:41:31.292Z</time></trkpt><trkpt lat="41.4409506" lon="12.8051666"><ele>7.000000000000001</ele><time>2026-04-18T12:41:33.294Z</time></trkpt><trkpt lat="41.4410221" lon="12.8051623"><ele>7.0</ele><time>2026-04-18T12:41:34.297Z</time></trkpt><trkpt lat="41.4411128" lon="12.8051509"><ele>7.0</ele><time>2026-04-18T12:41:35.293Z</time></trkpt><trkpt lat="41.4411993" lon="12.8051434"><ele>7.0</ele><time>2026-04-18T12:41:36.298Z</time></trkpt><trkpt lat="41.4412924" lon="12.8051419"><ele>7.000000000000001</ele><time>2026-04-18T12:41:37.296Z</time></trkpt><trkpt lat="41.4413755" lon="12.8051412"><ele>7.0</ele><time>2026-04-18T12:41:38.295Z</time></trkpt><trkpt lat="41.4414636" lon="12.8051479"><ele>6.500000000000001</ele><time>2026-04-18T12:41:39.295Z</time></trkpt><trkpt lat="41.4415385" lon="12.8051447"><ele>6.0</ele><time>2026-04-18T12:41:40.297Z</time></trkpt><trkpt lat="41.4416225" lon="12.8051428"><ele>5.5</ele><time>2026-04-18T12:41:41.297Z</time></trkpt><trkpt lat="41.441698" lon="12.8051512"><ele>5.0</ele><time>2026-04-18T12:41:42.294Z</time></trkpt><trkpt lat="41.4417804" lon="12.8051613"><ele>4.5</ele><time>2026-04-18T12:41:43.296Z</time></trkpt><trkpt lat="41.4418527" lon="12.8051688"><ele>4.0</ele><time>2026-04-18T12:41:44.294Z</time></trkpt><trkpt lat="41.4419289" lon="12.8051824"><ele>3.9999999999999996</ele><time>2026-04-18T12:41:45.294Z</time></trkpt><trkpt lat="41.4420052" lon="12.8051958"><ele>4.0</ele><time>2026-04-18T12:41:46.296Z</time></trkpt><trkpt lat="41.4420773" lon="12.8052148"><ele>4.0</ele><time>2026-04-18T12:41:47.295Z</time></trkpt><trkpt lat="41.4421519" lon="12.805232"><ele>4.0</ele><time>2026-04-18T12:41:48.295Z</time></trkpt><trkpt lat="41.4422216" lon="12.8052574"><ele>3.9999999999999996</ele><time>2026-04-18T12:41:49.295Z</time></trkpt><trkpt lat="41.4423208" lon="12.8052934"><ele>4.0</ele><time>2026-04-18T12:41:51.294Z</time></trkpt><trkpt lat="41.4423895" lon="12.8053849"><ele>4.0</ele><time>2026-04-18T12:41:53.3Z</time></trkpt><trkpt lat="41.4424834" lon="12.8055193"><ele>4.0</ele><time>2026-04-18T12:41:56.312Z</time></trkpt><trkpt lat="41.4425593" lon="12.8055706"><ele>4.0</ele><time>2026-04-18T12:41:58.296Z</time></trkpt><trkpt lat="41.4426216" lon="12.8055993"><ele>4.0</ele><time>2026-04-18T12:42:00.292Z</time></trkpt><trkpt lat="41.4426902" lon="12.8055908"><ele>4.0</ele><time>2026-04-18T12:42:02.294Z</time></trkpt><trkpt lat="41.4427989" lon="12.8055369"><ele>4.0</ele><time>2026-04-18T12:42:04.303Z</time></trkpt><trkpt lat="41.4429393" lon="12.8055782"><ele>4.0</ele><time>2026-04-18T12:42:07.299Z</time></trkpt><trkpt lat="41.4430648" lon="12.8056685"><ele>4.0</ele><time>2026-04-18T12:42:09.299Z</time></trkpt><trkpt lat="41.44321" lon="12.8057534"><ele>4.0</ele><time>2026-04-18T12:42:11.33Z</time></trkpt><trkpt lat="41.4433469" lon="12.80585"><ele>4.0</ele><time>2026-04-18T12:42:13.292Z</time></trkpt><trkpt lat="41.44341" lon="12.8058988"><ele>4.0</ele><time>2026-04-18T12:42:14.323Z</time></trkpt><trkpt lat="41.443537" lon="12.8059778"><ele>4.0</ele><time>2026-04-18T12:42:16.334Z</time></trkpt><trkpt lat="41.4436598" lon="12.8060524"><ele>4.0</ele><time>2026-04-18T12:42:18.303Z</time></trkpt><trkpt lat="41.4437697" lon="12.8061104"><ele>4.0</ele><time>2026-04-18T12:42:20.3Z</time></trkpt><trkpt lat="41.4438592" lon="12.8061088"><ele>4.0</ele><time>2026-04-18T12:42:22.292Z</time></trkpt><trkpt lat="41.4439302" lon="12.8061048"><ele>4.0</ele><time>2026-04-18T12:42:24.303Z</time></trkpt><trkpt lat="41.4439902" lon="12.8061754"><ele>4.0</ele><time>2026-04-18T12:42:26.293Z</time></trkpt><trkpt lat="41.4440373" lon="12.8062721"><ele>4.0</ele><time>2026-04-18T12:42:28.309Z</time></trkpt><trkpt lat="41.4442125" lon="12.80639"><ele>4.0</ele><time>2026-04-18T12:42:31.295Z</time></trkpt><trkpt lat="41.4442926" lon="12.806431"><ele>4.0</ele><time>2026-04-18T12:42:32.293Z</time></trkpt><trkpt lat="41.4443643" lon="12.8064726"><ele>4.0</ele><time>2026-04-18T12:42:33.308Z</time></trkpt><trkpt lat="41.4444447" lon="12.8065129"><ele>4.0</ele><time>2026-04-18T12:42:34.294Z</time></trkpt><trkpt lat="41.4445823" lon="12.8065951"><ele>4.0</ele><time>2026-04-18T12:42:36.333Z</time></trkpt><trkpt lat="41.4447159" lon="12.8066585"><ele>4.5</ele><time>2026-04-18T12:42:38.298Z</time></trkpt><trkpt lat="41.4448464" lon="12.806763"><ele>5.0</ele><time>2026-04-18T12:42:40.3Z</time></trkpt><trkpt lat="41.4449854" lon="12.8068559"><ele>5.5</ele><time>2026-04-18T12:42:42.306Z</time></trkpt><trkpt lat="41.4450501" lon="12.8069021"><ele>6.0</ele><time>2026-04-18T12:42:43.298Z</time></trkpt><trkpt lat="41.4451117" lon="12.8069497"><ele>6.0</ele><time>2026-04-18T12:42:44.293Z</time></trkpt><trkpt lat="41.4452467" lon="12.8070468"><ele>6.0</ele><time>2026-04-18T12:42:46.302Z</time></trkpt><trkpt lat="41.4453832" lon="12.8071362"><ele>6.0</ele><time>2026-04-18T12:42:48.298Z</time></trkpt><trkpt lat="41.4455232" lon="12.8072243"><ele>6.0</ele><time>2026-04-18T12:42:50.332Z</time></trkpt><trkpt lat="41.4456525" lon="12.8073141"><ele>6.0</ele><time>2026-04-18T12:42:52.303Z</time></trkpt><trkpt lat="41.4457191" lon="12.8073606"><ele>6.0</ele><time>2026-04-18T12:42:53.296Z</time></trkpt><trkpt lat="41.4457915" lon="12.8073987"><ele>6.0</ele><time>2026-04-18T12:42:54.306Z</time></trkpt><trkpt lat="41.445927" lon="12.8074919"><ele>6.0</ele><time>2026-04-18T12:42:56.307Z</time></trkpt><trkpt lat="41.4460644" lon="12.8075931"><ele>6.0</ele><time>2026-04-18T12:42:58.339Z</time></trkpt><trkpt lat="41.4462039" lon="12.8076856"><ele>6.0</ele><time>2026-04-18T12:43:00.322Z</time></trkpt><trkpt lat="41.4463436" lon="12.8077721"><ele>6.166666666666667</ele><time>2026-04-18T12:43:02.31Z</time></trkpt><trkpt lat="41.4464107" lon="12.8078152"><ele>6.333333333333334</ele><time>2026-04-18T12:43:03.294Z</time></trkpt><trkpt lat="41.4464709" lon="12.8078604"><ele>6.5</ele><time>2026-04-18T12:43:04.294Z</time></trkpt><trkpt lat="41.4465323" lon="12.8079032"><ele>6.666666666666667</ele><time>2026-04-18T12:43:05.292Z</time></trkpt><trkpt lat="41.4465932" lon="12.807946"><ele>6.833333333333334</ele><time>2026-04-18T12:43:06.294Z</time></trkpt><trkpt lat="41.446655" lon="12.807989"><ele>7.0</ele><time>2026-04-18T12:43:07.295Z</time></trkpt><trkpt lat="41.4468112" lon="12.8080175"><ele>7.0</ele><time>2026-04-18T12:43:10.32Z</time></trkpt><trkpt lat="41.4468888" lon="12.8079628"><ele>6.999999999999999</ele><time>2026-04-18T12:43:12.298Z</time></trkpt><trkpt lat="41.4469458" lon="12.8080045"><ele>6.999999999999999</ele><time>2026-04-18T12:43:14.303Z</time></trkpt><trkpt lat="41.4470085" lon="12.8080571"><ele>7.0</ele><time>2026-04-18T12:43:16.312Z</time></trkpt><trkpt lat="41.4471622" lon="12.8081461"><ele>7.0</ele><time>2026-04-18T12:43:18.292Z</time></trkpt><trkpt lat="41.4472297" lon="12.8081681"><ele>7.333333333333334</ele><time>2026-04-18T12:43:19.298Z</time></trkpt><trkpt lat="41.4473923" lon="12.8082644"><ele>7.666666666666666</ele><time>2026-04-18T12:43:21.299Z</time></trkpt><trkpt lat="41.4475594" lon="12.8083265"><ele>8.0</ele><time>2026-04-18T12:43:23.301Z</time></trkpt><trkpt lat="41.4477197" lon="12.8083858"><ele>8.0</ele><time>2026-04-18T12:43:25.31Z</time></trkpt><trkpt lat="41.4478516" lon="12.8084381"><ele>8.0</ele><time>2026-04-18T12:43:27.303Z</time></trkpt><trkpt lat="41.4479653" lon="12.8084701"><ele>8.0</ele><time>2026-04-18T12:43:29.292Z</time></trkpt><trkpt lat="41.4480643" lon="12.8085199"><ele>8.0</ele><time>2026-04-18T12:43:32.295Z</time></trkpt><trkpt lat="41.4480859" lon="12.8086246"><ele>8.0</ele><time>2026-04-18T12:43:34.324Z</time></trkpt><trkpt lat="41.4481784" lon="12.8087013"><ele>7.75</ele><time>2026-04-18T12:43:36.296Z</time></trkpt><trkpt lat="41.4482631" lon="12.8087682"><ele>7.5</ele><time>2026-04-18T12:43:37.293Z</time></trkpt><trkpt lat="41.4483532" lon="12.8088423"><ele>7.25</ele><time>2026-04-18T12:43:38.309Z</time></trkpt><trkpt lat="41.4485316" lon="12.8089792"><ele>7.0</ele><time>2026-04-18T12:43:40.305Z</time></trkpt><trkpt lat="41.4486165" lon="12.8090445"><ele>7.0</ele><time>2026-04-18T12:43:41.29Z</time></trkpt><trkpt lat="41.4487018" lon="12.8091065"><ele>7.0</ele><time>2026-04-18T12:43:42.307Z</time></trkpt><trkpt lat="41.4487826" lon="12.8091672"><ele>7.0</ele><time>2026-04-18T12:43:43.3Z</time></trkpt><trkpt lat="41.4489349" lon="12.8093184"><ele>7.0</ele><time>2026-04-18T12:43:45.341Z</time></trkpt><trkpt lat="41.4491088" lon="12.8094519"><ele>7.0</ele><time>2026-04-18T12:43:47.293Z</time></trkpt><trkpt lat="41.4492048" lon="12.8095336"><ele>7.0</ele><time>2026-04-18T12:43:48.3Z</time></trkpt><trkpt lat="41.4493846" lon="12.8096637"><ele>7.0</ele><time>2026-04-18T12:43:50.3Z</time></trkpt><trkpt lat="41.4495717" lon="12.8098096"><ele>7.666666666666667</ele><time>2026-04-18T12:43:52.293Z</time></trkpt><trkpt lat="41.4497483" lon="12.8099505"><ele>8.333333333333334</ele><time>2026-04-18T12:43:54.303Z</time></trkpt><trkpt lat="41.449909" lon="12.8101085"><ele>9.0</ele><time>2026-04-18T12:43:56.327Z</time></trkpt><trkpt lat="41.450073" lon="12.8102511"><ele>9.0</ele><time>2026-04-18T12:43:58.297Z</time></trkpt><trkpt lat="41.4502192" lon="12.8103833"><ele>9.0</ele><time>2026-04-18T12:44:00.301Z</time></trkpt><trkpt lat="41.4503789" lon="12.8104736"><ele>9.0</ele><time>2026-04-18T12:44:02.302Z</time></trkpt><trkpt lat="41.4504496" lon="12.8105149"><ele>9.0</ele><time>2026-04-18T12:44:03.303Z</time></trkpt><trkpt lat="41.4505639" lon="12.8105336"><ele>9.0</ele><time>2026-04-18T12:44:05.337Z</time></trkpt><trkpt lat="41.4506298" lon="12.8105082"><ele>9.0</ele><time>2026-04-18T12:44:07.33Z</time></trkpt><trkpt lat="41.4506887" lon="12.8105396"><ele>9.0</ele><time>2026-04-18T12:44:09.306Z</time></trkpt><trkpt lat="41.4507748" lon="12.8106749"><ele>9.0</ele><time>2026-04-18T12:44:12.304Z</time></trkpt><trkpt lat="41.4508725" lon="12.8107322"><ele>9.0</ele><time>2026-04-18T12:44:14.294Z</time></trkpt><trkpt lat="41.4509385" lon="12.8107389"><ele>9.0</ele><time>2026-04-18T12:44:15.306Z</time></trkpt><trkpt lat="41.4510673" lon="12.8107568"><ele>9.0</ele><time>2026-04-18T12:44:17.292Z</time></trkpt><trkpt lat="41.4511972" lon="12.8107735"><ele>9.0</ele><time>2026-04-18T12:44:19.293Z</time></trkpt><trkpt lat="41.4513365" lon="12.8108093"><ele>9.0</ele><time>2026-04-18T12:44:21.333Z</time></trkpt><trkpt lat="41.4514036" lon="12.8108358"><ele>9.0</ele><time>2026-04-18T12:44:22.296Z</time></trkpt><trkpt lat="41.4515388" lon="12.8108758"><ele>9.666666666666666</ele><time>2026-04-18T12:44:24.301Z</time></trkpt><trkpt lat="41.4517144" lon="12.8108947"><ele>10.333333333333332</ele><time>2026-04-18T12:44:26.308Z</time></trkpt><trkpt lat="41.4518816" lon="12.8109213"><ele>11.0</ele><time>2026-04-18T12:44:28.334Z</time></trkpt><trkpt lat="41.4520516" lon="12.8109571"><ele>11.0</ele><time>2026-04-18T12:44:30.292Z</time></trkpt><trkpt lat="41.4521424" lon="12.8109854"><ele>11.0</ele><time>2026-04-18T12:44:31.301Z</time></trkpt><trkpt lat="41.4523044" lon="12.8110359"><ele>11.0</ele><time>2026-04-18T12:44:33.331Z</time></trkpt><trkpt lat="41.4524637" lon="12.8110697"><ele>11.0</ele><time>2026-04-18T12:44:35.308Z</time></trkpt><trkpt lat="41.4526085" lon="12.811094"><ele>10.75</ele><time>2026-04-18T12:44:37.304Z</time></trkpt><trkpt lat="41.4527394" lon="12.8111166"><ele>10.5</ele><time>2026-04-18T12:44:39.297Z</time></trkpt><trkpt lat="41.4528125" lon="12.8111447"><ele>10.25</ele><time>2026-04-18T12:44:41.298Z</time></trkpt><trkpt lat="41.4528565" lon="12.8112415"><ele>10.0</ele><time>2026-04-18T12:44:43.317Z</time></trkpt><trkpt lat="41.4528142" lon="12.8115453"><ele>10.0</ele><time>2026-04-18T12:44:46.292Z</time></trkpt><trkpt lat="41.4527993" lon="12.8116751"><ele>10.0</ele><time>2026-04-18T12:44:47.293Z</time></trkpt><trkpt lat="41.452785" lon="12.8118092"><ele>10.0</ele><time>2026-04-18T12:44:48.3Z</time></trkpt><trkpt lat="41.452771" lon="12.8119421"><ele>10.0</ele><time>2026-04-18T12:44:49.291Z</time></trkpt><trkpt lat="41.4527473" lon="12.8121772"><ele>9.5</ele><time>2026-04-18T12:44:51.305Z</time></trkpt><trkpt lat="41.4527306" lon="12.8123125"><ele>9.0</ele><time>2026-04-18T12:44:52.304Z</time></trkpt><trkpt lat="41.4527133" lon="12.8125471"><ele>8.5</ele><time>2026-04-18T12:44:54.296Z</time></trkpt><trkpt lat="41.4526948" lon="12.812666"><ele>8.0</ele><time>2026-04-18T12:44:55.324Z</time></trkpt><trkpt lat="41.4526726" lon="12.8127806"><ele>8.0</ele><time>2026-04-18T12:44:56.31Z</time></trkpt><trkpt lat="41.452658" lon="12.8128743"><ele>8.0</ele><time>2026-04-18T12:44:57.302Z</time></trkpt><trkpt lat="41.4526275" lon="12.813024"><ele>8.0</ele><time>2026-04-18T12:44:59.292Z</time></trkpt><trkpt lat="41.4526601" lon="12.8131708"><ele>8.0</ele><time>2026-04-18T12:45:01.31Z</time></trkpt><trkpt lat="41.4527424" lon="12.8132594"><ele>8.0</ele><time>2026-04-18T12:45:03.294Z</time></trkpt><trkpt lat="41.4527919" lon="12.8133145"><ele>8.0</ele><time>2026-04-18T12:45:04.309Z</time></trkpt><trkpt lat="41.4528536" lon="12.8133692"><ele>8.0</ele><time>2026-04-18T12:45:05.301Z</time></trkpt><trkpt lat="41.4529757" lon="12.8134972"><ele>8.0</ele><time>2026-04-18T12:45:07.31Z</time></trkpt><trkpt lat="41.4531057" lon="12.8136508"><ele>8.0</ele><time>2026-04-18T12:45:09.338Z</time></trkpt><trkpt lat="41.453179" lon="12.8137407"><ele>8.200000000000001</ele><time>2026-04-18T12:45:10.297Z</time></trkpt><trkpt lat="41.4532455" lon="12.8138193"><ele>8.4</ele><time>2026-04-18T12:45:11.321Z</time></trkpt><trkpt lat="41.453386" lon="12.8139655"><ele>8.600000000000001</ele><time>2026-04-18T12:45:13.329Z</time></trkpt><trkpt lat="41.4534524" lon="12.8140282"><ele>8.8</ele><time>2026-04-18T12:45:14.294Z</time></trkpt><trkpt lat="41.4535228" lon="12.8140831"><ele>9.0</ele><time>2026-04-18T12:45:15.29Z</time></trkpt><trkpt lat="41.4535814" lon="12.8141334"><ele>9.0</ele><time>2026-04-18T12:45:16.294Z</time></trkpt><trkpt lat="41.4536844" lon="12.8142484"><ele>9.0</ele><time>2026-04-18T12:45:18.348Z</time></trkpt><trkpt lat="41.4538089" lon="12.8142994"><ele>9.0</ele><time>2026-04-18T12:45:20.329Z</time></trkpt><trkpt lat="41.4538845" lon="12.8143171"><ele>9.0</ele><time>2026-04-18T12:45:21.384Z</time></trkpt><trkpt lat="41.4539936" lon="12.8143669"><ele>9.4</ele><time>2026-04-18T12:45:23.295Z</time></trkpt><trkpt lat="41.4541173" lon="12.8144566"><ele>9.8</ele><time>2026-04-18T12:45:26.292Z</time></trkpt><trkpt lat="41.4541708" lon="12.8145508"><ele>10.200000000000001</ele><time>2026-04-18T12:45:28.292Z</time></trkpt><trkpt lat="41.4541584" lon="12.8146909"><ele>10.600000000000001</ele><time>2026-04-18T12:45:31.294Z</time></trkpt><trkpt lat="41.4542389" lon="12.8147745"><ele>11.0</ele><time>2026-04-18T12:45:33.295Z</time></trkpt><trkpt lat="41.4543467" lon="12.8148692"><ele>11.0</ele><time>2026-04-18T12:45:35.3Z</time></trkpt><trkpt lat="41.4544025" lon="12.8149198"><ele>11.0</ele><time>2026-04-18T12:45:36.296Z</time></trkpt><trkpt lat="41.4544797" lon="12.8149741"><ele>11.0</ele><time>2026-04-18T12:45:37.295Z</time></trkpt><trkpt lat="41.4545482" lon="12.8150353"><ele>11.0</ele><time>2026-04-18T12:45:38.295Z</time></trkpt><trkpt lat="41.4546172" lon="12.8150845"><ele>11.0</ele><time>2026-04-18T12:45:39.296Z</time></trkpt><trkpt lat="41.4547362" lon="12.8151278"><ele>11.0</ele><time>2026-04-18T12:45:41.294Z</time></trkpt><trkpt lat="41.4549117" lon="12.815198"><ele>10.25</ele><time>2026-04-18T12:45:44.333Z</time></trkpt><trkpt lat="41.4550082" lon="12.815244"><ele>9.5</ele><time>2026-04-18T12:45:46.299Z</time></trkpt><trkpt lat="41.4551897" lon="12.8152522"><ele>8.75</ele><time>2026-04-18T12:45:49.29Z</time></trkpt><trkpt lat="41.4553221" lon="12.8152693"><ele>8.0</ele><time>2026-04-18T12:45:51.305Z</time></trkpt><trkpt lat="41.4553876" lon="12.8152844"><ele>8.166666666666666</ele><time>2026-04-18T12:45:52.293Z</time></trkpt><trkpt lat="41.4554638" lon="12.8152909"><ele>8.333333333333332</ele><time>2026-04-18T12:45:53.323Z</time></trkpt><trkpt lat="41.4555305" lon="12.8152844"><ele>8.5</ele><time>2026-04-18T12:45:54.301Z</time></trkpt><trkpt lat="41.4555988" lon="12.8152723"><ele>8.666666666666666</ele><time>2026-04-18T12:45:55.291Z</time></trkpt><trkpt lat="41.4556628" lon="12.8152692"><ele>8.833333333333334</ele><time>2026-04-18T12:45:56.303Z</time></trkpt><trkpt lat="41.455809" lon="12.8152406"><ele>9.0</ele><time>2026-04-18T12:45:58.324Z</time></trkpt><trkpt lat="41.4558802" lon="12.8152303"><ele>9.0</ele><time>2026-04-18T12:45:59.297Z</time></trkpt><trkpt lat="41.4559595" lon="12.8152233"><ele>9.0</ele><time>2026-04-18T12:46:00.298Z</time></trkpt><trkpt lat="41.4561115" lon="12.8151961"><ele>9.0</ele><time>2026-04-18T12:46:02.296Z</time></trkpt><trkpt lat="41.4562493" lon="12.8151408"><ele>9.0</ele><time>2026-04-18T12:46:04.311Z</time></trkpt><trkpt lat="41.4563833" lon="12.8150505"><ele>9.5</ele><time>2026-04-18T12:46:06.306Z</time></trkpt><trkpt lat="41.4565128" lon="12.8149627"><ele>10.0</ele><time>2026-04-18T12:46:08.309Z</time></trkpt><trkpt lat="41.4566302" lon="12.814896"><ele>10.5</ele><time>2026-04-18T12:46:10.295Z</time></trkpt><trkpt lat="41.4567325" lon="12.8148337"><ele>11.0</ele><time>2026-04-18T12:46:12.301Z</time></trkpt><trkpt lat="41.4567786" lon="12.8147109"><ele>11.0</ele><time>2026-04-18T12:46:15.291Z</time></trkpt><trkpt lat="41.4568048" lon="12.8145926"><ele>11.0</ele><time>2026-04-18T12:46:18.299Z</time></trkpt><trkpt lat="41.4568715" lon="12.8144814"><ele>11.0</ele><time>2026-04-18T12:46:20.295Z</time></trkpt><trkpt lat="41.4569692" lon="12.8144035"><ele>11.0</ele><time>2026-04-18T12:46:22.304Z</time></trkpt><trkpt lat="41.457098" lon="12.8143171"><ele>11.600000000000001</ele><time>2026-04-18T12:46:24.313Z</time></trkpt><trkpt lat="41.4572339" lon="12.8142009"><ele>12.2</ele><time>2026-04-18T12:46:26.308Z</time></trkpt><trkpt lat="41.4573181" lon="12.8141469"><ele>12.799999999999999</ele><time>2026-04-18T12:46:27.297Z</time></trkpt><trkpt lat="41.4573938" lon="12.8140891"><ele>13.399999999999999</ele><time>2026-04-18T12:46:28.292Z</time></trkpt><trkpt lat="41.4574683" lon="12.8140332"><ele>14.0</ele><time>2026-04-18T12:46:29.302Z</time></trkpt><trkpt lat="41.4575443" lon="12.8139795"><ele>14.0</ele><time>2026-04-18T12:46:30.329Z</time></trkpt><trkpt lat="41.4576912" lon="12.813861"><ele>14.0</ele><time>2026-04-18T12:46:32.325Z</time></trkpt><trkpt lat="41.4577749" lon="12.8138013"><ele>14.0</ele><time>2026-04-18T12:46:33.302Z</time></trkpt><trkpt lat="41.4578662" lon="12.8137359"><ele>14.0</ele><time>2026-04-18T12:46:34.293Z</time></trkpt><trkpt lat="41.4579952" lon="12.8135974"><ele>14.0</ele><time>2026-04-18T12:46:36.334Z</time></trkpt><trkpt lat="41.4582011" lon="12.8134423"><ele>14.0</ele><time>2026-04-18T12:46:38.307Z</time></trkpt><trkpt lat="41.4584004" lon="12.8132917"><ele>14.0</ele><time>2026-04-18T12:46:40.305Z</time></trkpt><trkpt lat="41.4585852" lon="12.8131418"><ele>14.0</ele><time>2026-04-18T12:46:42.307Z</time></trkpt><trkpt lat="41.4587612" lon="12.8130121"><ele>14.0</ele><time>2026-04-18T12:46:44.309Z</time></trkpt><trkpt lat="41.458838" lon="12.8129501"><ele>14.0</ele><time>2026-04-18T12:46:45.303Z</time></trkpt><trkpt lat="41.4590004" lon="12.812809"><ele>14.0</ele><time>2026-04-18T12:46:47.293Z</time></trkpt><trkpt lat="41.4590765" lon="12.8127471"><ele>14.0</ele><time>2026-04-18T12:46:48.327Z</time></trkpt><trkpt lat="41.4591553" lon="12.8126806"><ele>14.0</ele><time>2026-04-18T12:46:49.29Z</time></trkpt><trkpt lat="41.4592382" lon="12.8126169"><ele>14.0</ele><time>2026-04-18T12:46:50.297Z</time></trkpt><trkpt lat="41.4594025" lon="12.8124894"><ele>14.0</ele><time>2026-04-18T12:46:52.294Z</time></trkpt><trkpt lat="41.4594834" lon="12.8124249"><ele>14.0</ele><time>2026-04-18T12:46:53.297Z</time></trkpt><trkpt lat="41.459566" lon="12.8123646"><ele>14.0</ele><time>2026-04-18T12:46:54.314Z</time></trkpt><trkpt lat="41.459644" lon="12.8123006"><ele>13.5</ele><time>2026-04-18T12:46:55.311Z</time></trkpt><trkpt lat="41.4597294" lon="12.8122466"><ele>13.0</ele><time>2026-04-18T12:46:56.297Z</time></trkpt><trkpt lat="41.4598655" lon="12.8121323"><ele>12.5</ele><time>2026-04-18T12:46:58.328Z</time></trkpt><trkpt lat="41.4599961" lon="12.8120036"><ele>12.0</ele><time>2026-04-18T12:47:00.304Z</time></trkpt><trkpt lat="41.4600607" lon="12.8119361"><ele>12.0</ele><time>2026-04-18T12:47:01.3Z</time></trkpt><trkpt lat="41.4601212" lon="12.8118703"><ele>12.0</ele><time>2026-04-18T12:47:02.31Z</time></trkpt><trkpt lat="41.4602336" lon="12.8117658"><ele>12.0</ele><time>2026-04-18T12:47:04.311Z</time></trkpt><trkpt lat="41.4603426" lon="12.8116714"><ele>12.0</ele><time>2026-04-18T12:47:06.291Z</time></trkpt><trkpt lat="41.4604535" lon="12.8115739"><ele>12.25</ele><time>2026-04-18T12:47:08.302Z</time></trkpt><trkpt lat="41.4605603" lon="12.8114895"><ele>12.5</ele><time>2026-04-18T12:47:10.293Z</time></trkpt><trkpt lat="41.4606927" lon="12.811472"><ele>12.75</ele><time>2026-04-18T12:47:13.293Z</time></trkpt><trkpt lat="41.4607688" lon="12.8114897"><ele>13.0</ele><time>2026-04-18T12:47:15.296Z</time></trkpt><trkpt lat="41.4608782" lon="12.8114133"><ele>13.0</ele><time>2026-04-18T12:47:17.291Z</time></trkpt><trkpt lat="41.4609413" lon="12.811367"><ele>13.0</ele><time>2026-04-18T12:47:18.301Z</time></trkpt><trkpt lat="41.4610179" lon="12.8113179"><ele>13.0</ele><time>2026-04-18T12:47:19.291Z</time></trkpt><trkpt lat="41.4611671" lon="12.8112317"><ele>13.0</ele><time>2026-04-18T12:47:21.301Z</time></trkpt><trkpt lat="41.4613085" lon="12.8111512"><ele>13.0</ele><time>2026-04-18T12:47:23.297Z</time></trkpt><trkpt lat="41.4613687" lon="12.8111078"><ele>13.0</ele><time>2026-04-18T12:47:24.301Z</time></trkpt><trkpt lat="41.4614402" lon="12.811064"><ele>13.0</ele><time>2026-04-18T12:47:25.299Z</time></trkpt><trkpt lat="41.4615723" lon="12.8110024"><ele>13.0</ele><time>2026-04-18T12:47:27.3Z</time></trkpt><trkpt lat="41.4616362" lon="12.8109718"><ele>13.0</ele><time>2026-04-18T12:47:28.292Z</time></trkpt><trkpt lat="41.4617647" lon="12.8109338"><ele>13.75</ele><time>2026-04-18T12:47:30.298Z</time></trkpt><trkpt lat="41.4618975" lon="12.8108886"><ele>14.5</ele><time>2026-04-18T12:47:32.311Z</time></trkpt><trkpt lat="41.4619612" lon="12.8108621"><ele>15.25</ele><time>2026-04-18T12:47:33.308Z</time></trkpt><trkpt lat="41.4621531" lon="12.8108051"><ele>16.0</ele><time>2026-04-18T12:47:36.334Z</time></trkpt><trkpt lat="41.4622779" lon="12.8107676"><ele>16.0</ele><time>2026-04-18T12:47:38.306Z</time></trkpt><trkpt lat="41.4624077" lon="12.8107435"><ele>16.0</ele><time>2026-04-18T12:47:40.306Z</time></trkpt><trkpt lat="41.4625343" lon="12.8107255"><ele>16.0</ele><time>2026-04-18T12:47:42.299Z</time></trkpt><trkpt lat="41.4626576" lon="12.8107095"><ele>16.0</ele><time>2026-04-18T12:47:44.296Z</time></trkpt><trkpt lat="41.4627728" lon="12.8106778"><ele>15.999999999999998</ele><time>2026-04-18T12:47:46.293Z</time></trkpt><trkpt lat="41.4628727" lon="12.810647"><ele>16.0</ele><time>2026-04-18T12:47:48.294Z</time></trkpt><trkpt lat="41.4629401" lon="12.8106227"><ele>16.0</ele><time>2026-04-18T12:47:50.295Z</time></trkpt><trkpt lat="41.4630024" lon="12.8105922"><ele>16.0</ele><time>2026-04-18T12:47:55.31Z</time></trkpt><trkpt lat="41.4630537" lon="12.8106465"><ele>15.999999999999998</ele><time>2026-04-18T12:48:00.327Z</time></trkpt><trkpt lat="41.4630492" lon="12.8107743"><ele>16.0</ele><time>2026-04-18T12:48:02.307Z</time></trkpt><trkpt lat="41.4630614" lon="12.810941"><ele>15.857142857142856</ele><time>2026-04-18T12:48:04.296Z</time></trkpt><trkpt lat="41.4630686" lon="12.8110314"><ele>15.714285714285712</ele><time>2026-04-18T12:48:05.295Z</time></trkpt><trkpt lat="41.4630747" lon="12.8111256"><ele>15.571428571428571</ele><time>2026-04-18T12:48:06.296Z</time></trkpt><trkpt lat="41.4630808" lon="12.8112197"><ele>15.428571428571427</ele><time>2026-04-18T12:48:07.294Z</time></trkpt><trkpt lat="41.4630864" lon="12.8113221"><ele>15.285714285714285</ele><time>2026-04-18T12:48:08.295Z</time></trkpt><trkpt lat="41.4630954" lon="12.8114085"><ele>15.142857142857142</ele><time>2026-04-18T12:48:09.316Z</time></trkpt><trkpt lat="41.4631051" lon="12.8115164"><ele>15.0</ele><time>2026-04-18T12:48:11.293Z</time></trkpt><trkpt lat="41.4631173" lon="12.8116164"><ele>15.0</ele><time>2026-04-18T12:48:14.292Z</time></trkpt><trkpt lat="41.4632404" lon="12.8115373"><ele>15.0</ele><time>2026-04-18T12:48:23.291Z</time></trkpt><trkpt lat="41.4633204" lon="12.8115069"><ele>15.0</ele><time>2026-04-18T12:48:24.31Z</time></trkpt><trkpt lat="41.4634426" lon="12.8114824"><ele>15.0</ele><time>2026-04-18T12:48:25.296Z</time></trkpt><trkpt lat="41.4637308" lon="12.8114496"><ele>14.75</ele><time>2026-04-18T12:48:27.297Z</time></trkpt><trkpt lat="41.4638752" lon="12.8114532"><ele>14.5</ele><time>2026-04-18T12:48:28.294Z</time></trkpt><trkpt lat="41.464007" lon="12.811461"><ele>14.25</ele><time>2026-04-18T12:48:29.296Z</time></trkpt><trkpt lat="41.4641245" lon="12.8114726"><ele>14.0</ele><time>2026-04-18T12:48:30.295Z</time></trkpt><trkpt lat="41.4642364" lon="12.8114933"><ele>14.0</ele><time>2026-04-18T12:48:31.298Z</time></trkpt><trkpt lat="41.4643344" lon="12.8115232"><ele>14.0</ele><time>2026-04-18T12:48:32.299Z</time></trkpt><trkpt lat="41.4643986" lon="12.8115535"><ele>14.0</ele><time>2026-04-18T12:48:33.292Z</time></trkpt><trkpt lat="41.4644771" lon="12.8117011"><ele>14.0</ele><time>2026-04-18T12:48:35.308Z</time></trkpt><trkpt lat="41.4646013" lon="12.8119001"><ele>14.0</ele><time>2026-04-18T12:48:37.298Z</time></trkpt><trkpt lat="41.4647091" lon="12.8120035"><ele>14.0</ele><time>2026-04-18T12:48:38.295Z</time></trkpt><trkpt lat="41.4648469" lon="12.812129"><ele>14.0</ele><time>2026-04-18T12:48:39.296Z</time></trkpt><trkpt lat="41.4649655" lon="12.8122472"><ele>14.0</ele><time>2026-04-18T12:48:40.298Z</time></trkpt><trkpt lat="41.465076" lon="12.8123704"><ele>14.0</ele><time>2026-04-18T12:48:41.294Z</time></trkpt><trkpt lat="41.4652813" lon="12.8126232"><ele>14.0</ele><time>2026-04-18T12:48:43.304Z</time></trkpt><trkpt lat="41.4654889" lon="12.8128445"><ele>14.333333333333334</ele><time>2026-04-18T12:48:45.333Z</time></trkpt><trkpt lat="41.4657094" lon="12.8129725"><ele>14.666666666666668</ele><time>2026-04-18T12:48:47.304Z</time></trkpt><trkpt lat="41.4658201" lon="12.8130351"><ele>15.0</ele><time>2026-04-18T12:48:48.297Z</time></trkpt><trkpt lat="41.4659226" lon="12.8130961"><ele>15.0</ele><time>2026-04-18T12:48:49.29Z</time></trkpt><trkpt lat="41.4660244" lon="12.8131469"><ele>15.0</ele><time>2026-04-18T12:48:50.316Z</time></trkpt><trkpt lat="41.4662155" lon="12.8132226"><ele>15.0</ele><time>2026-04-18T12:48:52.328Z</time></trkpt><trkpt lat="41.4663948" lon="12.8132811"><ele>15.25</ele><time>2026-04-18T12:48:54.311Z</time></trkpt><trkpt lat="41.4665744" lon="12.8133082"><ele>15.5</ele><time>2026-04-18T12:48:56.303Z</time></trkpt><trkpt lat="41.4666621" lon="12.8133155"><ele>15.75</ele><time>2026-04-18T12:48:57.298Z</time></trkpt><trkpt lat="41.4668145" lon="12.813331"><ele>16.0</ele><time>2026-04-18T12:48:59.305Z</time></trkpt><trkpt lat="41.466934" lon="12.8133318"><ele>16.0</ele><time>2026-04-18T12:49:01.326Z</time></trkpt><trkpt lat="41.4670101" lon="12.8133917"><ele>16.0</ele><time>2026-04-18T12:49:03.294Z</time></trkpt><trkpt lat="41.4671704" lon="12.81339"><ele>16.0</ele><time>2026-04-18T12:49:06.289Z</time></trkpt><trkpt lat="41.4672945" lon="12.8133813"><ele>16.0</ele><time>2026-04-18T12:49:08.297Z</time></trkpt><trkpt lat="41.4674207" lon="12.8133763"><ele>15.999999999999998</ele><time>2026-04-18T12:49:10.297Z</time></trkpt><trkpt lat="41.4674987" lon="12.8133748"><ele>16.0</ele><time>2026-04-18T12:49:11.295Z</time></trkpt><trkpt lat="41.4675751" lon="12.8133606"><ele>16.0</ele><time>2026-04-18T12:49:12.295Z</time></trkpt><trkpt lat="41.4676601" lon="12.8133521"><ele>16.0</ele><time>2026-04-18T12:49:13.296Z</time></trkpt><trkpt lat="41.4677468" lon="12.813338"><ele>15.999999999999998</ele><time>2026-04-18T12:49:14.298Z</time></trkpt><trkpt lat="41.4678269" lon="12.8133326"><ele>16.0</ele><time>2026-04-18T12:49:15.295Z</time></trkpt><trkpt lat="41.4679003" lon="12.8133285"><ele>15.833333333333332</ele><time>2026-04-18T12:49:16.297Z</time></trkpt><trkpt lat="41.4679661" lon="12.813327"><ele>15.666666666666666</ele><time>2026-04-18T12:49:17.297Z</time></trkpt><trkpt lat="41.468077" lon="12.8133243"><ele>15.5</ele><time>2026-04-18T12:49:19.298Z</time></trkpt><trkpt lat="41.4681419" lon="12.8132775"><ele>15.333333333333332</ele><time>2026-04-18T12:49:21.293Z</time></trkpt><trkpt lat="41.4681616" lon="12.813159"><ele>15.166666666666666</ele><time>2026-04-18T12:49:23.301Z</time></trkpt><trkpt lat="41.4682137" lon="12.8130537"><ele>15.0</ele><time>2026-04-18T12:49:25.296Z</time></trkpt><trkpt lat="41.4683024" lon="12.8130673"><ele>15.0</ele><time>2026-04-18T12:49:27.29Z</time></trkpt><trkpt lat="41.4684275" lon="12.8131723"><ele>15.0</ele><time>2026-04-18T12:49:29.293Z</time></trkpt><trkpt lat="41.4684894" lon="12.8132483"><ele>15.0</ele><time>2026-04-18T12:49:30.299Z</time></trkpt><trkpt lat="41.4685573" lon="12.8133548"><ele>15.0</ele><time>2026-04-18T12:49:31.301Z</time></trkpt><trkpt lat="41.468616" lon="12.8134458"><ele>15.0</ele><time>2026-04-18T12:49:32.292Z</time></trkpt><trkpt lat="41.4686764" lon="12.8135636"><ele>15.0</ele><time>2026-04-18T12:49:33.296Z</time></trkpt><trkpt lat="41.4687287" lon="12.8136637"><ele>15.0</ele><time>2026-04-18T12:49:34.296Z</time></trkpt><trkpt lat="41.4687813" lon="12.8137811"><ele>15.0</ele><time>2026-04-18T12:49:35.296Z</time></trkpt><trkpt lat="41.4688251" lon="12.8138925"><ele>15.0</ele><time>2026-04-18T12:49:36.298Z</time></trkpt><trkpt lat="41.4688601" lon="12.8140001"><ele>15.0</ele><time>2026-04-18T12:49:37.307Z</time></trkpt><trkpt lat="41.4688941" lon="12.8141008"><ele>15.0</ele><time>2026-04-18T12:49:38.3Z</time></trkpt><trkpt lat="41.4689367" lon="12.8141894"><ele>15.0</ele><time>2026-04-18T12:49:39.301Z</time></trkpt><trkpt lat="41.4689878" lon="12.8144196"><ele>15.0</ele><time>2026-04-18T12:49:41.293Z</time></trkpt><trkpt lat="41.4690195" lon="12.8145107"><ele>15.0</ele><time>2026-04-18T12:49:42.293Z</time></trkpt><trkpt lat="41.4690627" lon="12.8146273"><ele>15.0</ele><time>2026-04-18T12:49:43.292Z</time></trkpt><trkpt lat="41.4691494" lon="12.8148549"><ele>15.0</ele><time>2026-04-18T12:49:45.302Z</time></trkpt><trkpt lat="41.4691924" lon="12.8149781"><ele>15.0</ele><time>2026-04-18T12:49:46.295Z</time></trkpt><trkpt lat="41.4692714" lon="12.8152169"><ele>15.0</ele><time>2026-04-18T12:49:48.31Z</time></trkpt><trkpt lat="41.4693161" lon="12.8153317"><ele>15.0</ele><time>2026-04-18T12:49:49.291Z</time></trkpt><trkpt lat="41.4694145" lon="12.8155838"><ele>14.75</ele><time>2026-04-18T12:49:51.299Z</time></trkpt><trkpt lat="41.4694541" lon="12.8156924"><ele>14.5</ele><time>2026-04-18T12:49:52.303Z</time></trkpt><trkpt lat="41.4695405" lon="12.8159368"><ele>14.25</ele><time>2026-04-18T12:49:54.31Z</time></trkpt><trkpt lat="41.4695912" lon="12.8160536"><ele>14.0</ele><time>2026-04-18T12:49:55.295Z</time></trkpt><trkpt lat="41.4696748" lon="12.8162718"><ele>14.0</ele><time>2026-04-18T12:49:57.317Z</time></trkpt><trkpt lat="41.4697193" lon="12.8163946"><ele>13.999999999999998</ele><time>2026-04-18T12:49:58.319Z</time></trkpt><trkpt lat="41.4697654" lon="12.8165041"><ele>13.999999999999998</ele><time>2026-04-18T12:49:59.291Z</time></trkpt><trkpt lat="41.4698133" lon="12.8166172"><ele>14.0</ele><time>2026-04-18T12:50:00.297Z</time></trkpt><trkpt lat="41.4698427" lon="12.8167144"><ele>14.0</ele><time>2026-04-18T12:50:01.29Z</time></trkpt><trkpt lat="41.4698937" lon="12.8168342"><ele>14.399999999999999</ele><time>2026-04-18T12:50:02.296Z</time></trkpt><trkpt lat="41.469925" lon="12.8169527"><ele>14.799999999999999</ele><time>2026-04-18T12:50:03.295Z</time></trkpt><trkpt lat="41.4699589" lon="12.8170548"><ele>15.200000000000001</ele><time>2026-04-18T12:50:04.289Z</time></trkpt><trkpt lat="41.4699836" lon="12.8171676"><ele>15.600000000000001</ele><time>2026-04-18T12:50:05.29Z</time></trkpt><trkpt lat="41.4700198" lon="12.8172751"><ele>16.0</ele><time>2026-04-18T12:50:06.289Z</time></trkpt><trkpt lat="41.4700601" lon="12.8173946"><ele>16.0</ele><time>2026-04-18T12:50:07.291Z</time></trkpt><trkpt lat="41.4700982" lon="12.8175085"><ele>16.0</ele><time>2026-04-18T12:50:08.291Z</time></trkpt><trkpt lat="41.4701366" lon="12.8175964"><ele>16.0</ele><time>2026-04-18T12:50:09.292Z</time></trkpt><trkpt lat="41.470208" lon="12.8177982"><ele>16.0</ele><time>2026-04-18T12:50:11.32Z</time></trkpt><trkpt lat="41.470251" lon="12.8178835"><ele>16.0</ele><time>2026-04-18T12:50:12.294Z</time></trkpt><trkpt lat="41.4702852" lon="12.8179852"><ele>16.400000000000002</ele><time>2026-04-18T12:50:13.308Z</time></trkpt><trkpt lat="41.470342" lon="12.8181925"><ele>16.8</ele><time>2026-04-18T12:50:15.295Z</time></trkpt><trkpt lat="41.4703937" lon="12.8183098"><ele>17.200000000000003</ele><time>2026-04-18T12:50:17.291Z</time></trkpt><trkpt lat="41.4704271" lon="12.8184088"><ele>17.6</ele><time>2026-04-18T12:50:20.29Z</time></trkpt><trkpt lat="41.4704217" lon="12.8184992"><ele>18.0</ele><time>2026-04-18T12:50:23.291Z</time></trkpt><trkpt lat="41.4703707" lon="12.8185629"><ele>18.333333333333332</ele><time>2026-04-18T12:50:25.292Z</time></trkpt><trkpt lat="41.4703102" lon="12.8186466"><ele>18.666666666666668</ele><time>2026-04-18T12:50:27.293Z</time></trkpt><trkpt lat="41.4702721" lon="12.8187449"><ele>19.0</ele><time>2026-04-18T12:50:29.292Z</time></trkpt><trkpt lat="41.4702772" lon="12.8188354"><ele>19.333333333333336</ele><time>2026-04-18T12:50:31.297Z</time></trkpt><trkpt lat="41.470325" lon="12.8188988"><ele>19.666666666666668</ele><time>2026-04-18T12:50:34.296Z</time></trkpt><trkpt lat="41.4704214" lon="12.8188748"><ele>20.0</ele><time>2026-04-18T12:50:36.295Z</time></trkpt><trkpt lat="41.4705516" lon="12.8190106"><ele>19.4</ele><time>2026-04-18T12:50:39.299Z</time></trkpt><trkpt lat="41.4706248" lon="12.8191998"><ele>18.8</ele><time>2026-04-18T12:50:41.296Z</time></trkpt><trkpt lat="41.4706554" lon="12.8192926"><ele>18.2</ele><time>2026-04-18T12:50:42.296Z</time></trkpt><trkpt lat="41.4706818" lon="12.8193864"><ele>17.6</ele><time>2026-04-18T12:50:43.302Z</time></trkpt><trkpt lat="41.4707221" lon="12.8194966"><ele>17.0</ele><time>2026-04-18T12:50:44.296Z</time></trkpt><trkpt lat="41.4707529" lon="12.8196133"><ele>17.0</ele><time>2026-04-18T12:50:45.291Z</time></trkpt><trkpt lat="41.470831" lon="12.8197894"><ele>17.0</ele><time>2026-04-18T12:50:47.303Z</time></trkpt><trkpt lat="41.470888" lon="12.8199917"><ele>17.0</ele><time>2026-04-18T12:50:49.293Z</time></trkpt><trkpt lat="41.4709458" lon="12.8200667"><ele>17.0</ele><time>2026-04-18T12:50:50.322Z</time></trkpt><trkpt lat="41.4709725" lon="12.820154"><ele>17.0</ele><time>2026-04-18T12:50:51.305Z</time></trkpt><trkpt lat="41.4710275" lon="12.8203414"><ele>17.0</ele><time>2026-04-18T12:50:53.299Z</time></trkpt><trkpt lat="41.4710793" lon="12.8205407"><ele>17.0</ele><time>2026-04-18T12:50:55.304Z</time></trkpt><trkpt lat="41.4711437" lon="12.8207466"><ele>17.0</ele><time>2026-04-18T12:50:57.293Z</time></trkpt><trkpt lat="41.4712363" lon="12.8209044"><ele>17.0</ele><time>2026-04-18T12:50:59.291Z</time></trkpt><trkpt lat="41.4712949" lon="12.8209727"><ele>17.0</ele><time>2026-04-18T12:51:00.293Z</time></trkpt><trkpt lat="41.4714098" lon="12.8211047"><ele>17.0</ele><time>2026-04-18T12:51:02.293Z</time></trkpt><trkpt lat="41.4714741" lon="12.8211665"><ele>17.0</ele><time>2026-04-18T12:51:03.301Z</time></trkpt><trkpt lat="41.4715317" lon="12.8212294"><ele>17.0</ele><time>2026-04-18T12:51:04.298Z</time></trkpt><trkpt lat="41.4716371" lon="12.8213501"><ele>17.0</ele><time>2026-04-18T12:51:06.29Z</time></trkpt><trkpt lat="41.4716907" lon="12.821398"><ele>17.0</ele><time>2026-04-18T12:51:07.294Z</time></trkpt><trkpt lat="41.4718078" lon="12.82149"><ele>17.0</ele><time>2026-04-18T12:51:10.327Z</time></trkpt><trkpt lat="41.4719351" lon="12.8215346"><ele>17.0</ele><time>2026-04-18T12:56:24.292Z</time></trkpt><trkpt lat="41.4720303" lon="12.8215821"><ele>17.0</ele><time>2026-04-18T12:56:25.318Z</time></trkpt><trkpt lat="41.4722131" lon="12.8216625"><ele>17.0</ele><time>2026-04-18T12:56:27.295Z</time></trkpt><trkpt lat="41.4724125" lon="12.821697"><ele>17.0</ele><time>2026-04-18T12:56:29.307Z</time></trkpt><trkpt lat="41.4726417" lon="12.8216773"><ele>17.0</ele><time>2026-04-18T12:56:31.303Z</time></trkpt><trkpt lat="41.4727921" lon="12.8216598"><ele>17.0</ele><time>2026-04-18T12:56:32.296Z</time></trkpt><trkpt lat="41.472969" lon="12.8216527"><ele>17.0</ele><time>2026-04-18T12:56:33.292Z</time></trkpt><trkpt lat="41.4732911" lon="12.8216313"><ele>17.0</ele><time>2026-04-18T12:56:35.309Z</time></trkpt><trkpt lat="41.4735933" lon="12.8216146"><ele>17.0</ele><time>2026-04-18T12:56:37.317Z</time></trkpt><trkpt lat="41.4738667" lon="12.8215929"><ele>17.0</ele><time>2026-04-18T12:56:39.308Z</time></trkpt><trkpt lat="41.4741187" lon="12.8215783"><ele>17.0</ele><time>2026-04-18T12:56:41.341Z</time></trkpt><trkpt lat="41.4743569" lon="12.8215623"><ele>17.0</ele><time>2026-04-18T12:56:43.336Z</time></trkpt><trkpt lat="41.474582" lon="12.8215446"><ele>17.333333333333336</ele><time>2026-04-18T12:56:45.307Z</time></trkpt><trkpt lat="41.4747852" lon="12.8215308"><ele>17.666666666666668</ele><time>2026-04-18T12:56:47.333Z</time></trkpt><trkpt lat="41.4749849" lon="12.8215247"><ele>18.0</ele><time>2026-04-18T12:56:49.292Z</time></trkpt><trkpt lat="41.4750708" lon="12.8215317"><ele>18.0</ele><time>2026-04-18T12:56:50.298Z</time></trkpt><trkpt lat="41.4751634" lon="12.8215508"><ele>18.0</ele><time>2026-04-18T12:56:51.295Z</time></trkpt><trkpt lat="41.4753488" lon="12.8216211"><ele>18.0</ele><time>2026-04-18T12:56:53.307Z</time></trkpt><trkpt lat="41.4755593" lon="12.821756"><ele>18.0</ele><time>2026-04-18T12:56:55.295Z</time></trkpt><trkpt lat="41.4756677" lon="12.8218346"><ele>18.0</ele><time>2026-04-18T12:56:56.295Z</time></trkpt><trkpt lat="41.4757612" lon="12.8219217"><ele>18.0</ele><time>2026-04-18T12:56:57.291Z</time></trkpt><trkpt lat="41.4758467" lon="12.82202"><ele>18.0</ele><time>2026-04-18T12:56:58.314Z</time></trkpt><trkpt lat="41.4759257" lon="12.8221246"><ele>18.0</ele><time>2026-04-18T12:56:59.303Z</time></trkpt><trkpt lat="41.4760643" lon="12.8223778"><ele>18.0</ele><time>2026-04-18T12:57:01.312Z</time></trkpt><trkpt lat="41.4761681" lon="12.8226669"><ele>18.0</ele><time>2026-04-18T12:57:03.306Z</time></trkpt><trkpt lat="41.4762406" lon="12.8229755"><ele>18.0</ele><time>2026-04-18T12:57:05.296Z</time></trkpt><trkpt lat="41.4762804" lon="12.8233055"><ele>18.0</ele><time>2026-04-18T12:57:07.297Z</time></trkpt><trkpt lat="41.4762801" lon="12.8236518"><ele>18.0</ele><time>2026-04-18T12:57:09.298Z</time></trkpt><trkpt lat="41.4762618" lon="12.8238562"><ele>18.0</ele><time>2026-04-18T12:57:10.295Z</time></trkpt><trkpt lat="41.476256" lon="12.8240426"><ele>18.5</ele><time>2026-04-18T12:57:11.296Z</time></trkpt><trkpt lat="41.4762392" lon="12.8243858"><ele>19.0</ele><time>2026-04-18T12:57:13.298Z</time></trkpt><trkpt lat="41.4762222" lon="12.8246686"><ele>19.0</ele><time>2026-04-18T12:57:15.306Z</time></trkpt><trkpt lat="41.4762395" lon="12.8249339"><ele>19.0</ele><time>2026-04-18T12:57:17.302Z</time></trkpt><trkpt lat="41.4762372" lon="12.8250753"><ele>19.0</ele><time>2026-04-18T12:57:18.312Z</time></trkpt><trkpt lat="41.4762284" lon="12.8252219"><ele>19.0</ele><time>2026-04-18T12:57:19.291Z</time></trkpt><trkpt lat="41.4762064" lon="12.8255558"><ele>19.0</ele><time>2026-04-18T12:57:21.302Z</time></trkpt><trkpt lat="41.4762007" lon="12.8257207"><ele>19.0</ele><time>2026-04-18T12:57:22.307Z</time></trkpt><trkpt lat="41.4761887" lon="12.8258765"><ele>19.0</ele><time>2026-04-18T12:57:23.298Z</time></trkpt><trkpt lat="41.4761497" lon="12.8261774"><ele>19.0</ele><time>2026-04-18T12:57:25.327Z</time></trkpt><trkpt lat="41.4761133" lon="12.8264435"><ele>19.0</ele><time>2026-04-18T12:57:27.303Z</time></trkpt><trkpt lat="41.4760612" lon="12.8267016"><ele>19.0</ele><time>2026-04-18T12:57:29.303Z</time></trkpt><trkpt lat="41.4760326" lon="12.8268238"><ele>19.0</ele><time>2026-04-18T12:57:30.294Z</time></trkpt><trkpt lat="41.4759985" lon="12.8269409"><ele>19.0</ele><time>2026-04-18T12:57:31.29Z</time></trkpt><trkpt lat="41.4759577" lon="12.8270711"><ele>19.0</ele><time>2026-04-18T12:57:32.299Z</time></trkpt><trkpt lat="41.4758679" lon="12.827341"><ele>19.0</ele><time>2026-04-18T12:57:34.33Z</time></trkpt><trkpt lat="41.4757917" lon="12.8276635"><ele>19.0</ele><time>2026-04-18T12:57:36.294Z</time></trkpt><trkpt lat="41.4757473" lon="12.827815"><ele>19.0</ele><time>2026-04-18T12:57:37.295Z</time></trkpt><trkpt lat="41.4756591" lon="12.8280916"><ele>19.0</ele><time>2026-04-18T12:57:39.303Z</time></trkpt><trkpt lat="41.47562" lon="12.828225"><ele>19.0</ele><time>2026-04-18T12:57:40.29Z</time></trkpt><trkpt lat="41.4755708" lon="12.828366"><ele>19.0</ele><time>2026-04-18T12:57:41.311Z</time></trkpt><trkpt lat="41.4755308" lon="12.8285038"><ele>19.0</ele><time>2026-04-18T12:57:42.291Z</time></trkpt><trkpt lat="41.4754843" lon="12.8286384"><ele>19.0</ele><time>2026-04-18T12:57:43.298Z</time></trkpt><trkpt lat="41.4754194" lon="12.8288946"><ele>19.0</ele><time>2026-04-18T12:57:45.297Z</time></trkpt><trkpt lat="41.4753211" lon="12.8291468"><ele>19.0</ele><time>2026-04-18T12:57:47.333Z</time></trkpt><trkpt lat="41.4752461" lon="12.8293746"><ele>19.0</ele><time>2026-04-18T12:57:49.302Z</time></trkpt><trkpt lat="41.4751573" lon="12.8295937"><ele>18.75</ele><time>2026-04-18T12:57:51.332Z</time></trkpt><trkpt lat="41.4750679" lon="12.8298166"><ele>18.5</ele><time>2026-04-18T12:57:53.329Z</time></trkpt><trkpt lat="41.4749994" lon="12.8300195"><ele>18.25</ele><time>2026-04-18T12:57:55.297Z</time></trkpt><trkpt lat="41.4749462" lon="12.8301199"><ele>18.0</ele><time>2026-04-18T12:57:56.303Z</time></trkpt><trkpt lat="41.4748833" lon="12.8302699"><ele>18.0</ele><time>2026-04-18T12:57:58.298Z</time></trkpt><trkpt lat="41.4748958" lon="12.8303827"><ele>18.0</ele><time>2026-04-18T12:58:00.294Z</time></trkpt><trkpt lat="41.4749365" lon="12.8305127"><ele>18.0</ele><time>2026-04-18T12:58:02.3Z</time></trkpt><trkpt lat="41.4749259" lon="12.8306597"><ele>18.0</ele><time>2026-04-18T12:58:04.298Z</time></trkpt><trkpt lat="41.474856" lon="12.830786"><ele>18.0</ele><time>2026-04-18T12:58:05.297Z</time></trkpt><trkpt lat="41.4748237" lon="12.8309059"><ele>18.333333333333332</ele><time>2026-04-18T12:58:06.291Z</time></trkpt><trkpt lat="41.4747837" lon="12.8310404"><ele>18.666666666666664</ele><time>2026-04-18T12:58:07.294Z</time></trkpt><trkpt lat="41.4747342" lon="12.8311782"><ele>19.0</ele><time>2026-04-18T12:58:08.307Z</time></trkpt><trkpt lat="41.4746394" lon="12.8314724"><ele>19.333333333333332</ele><time>2026-04-18T12:58:10.303Z</time></trkpt><trkpt lat="41.4745907" lon="12.831612"><ele>19.666666666666668</ele><time>2026-04-18T12:58:11.334Z</time></trkpt><trkpt lat="41.4744836" lon="12.8319097"><ele>20.0</ele><time>2026-04-18T12:58:13.299Z</time></trkpt><trkpt lat="41.4743943" lon="12.8321817"><ele>19.333333333333336</ele><time>2026-04-18T12:58:15.295Z</time></trkpt><trkpt lat="41.4743157" lon="12.8324345"><ele>18.666666666666668</ele><time>2026-04-18T12:58:17.294Z</time></trkpt><trkpt lat="41.4742607" lon="12.8326673"><ele>18.0</ele><time>2026-04-18T12:58:19.291Z</time></trkpt><trkpt lat="41.4742364" lon="12.8329436"><ele>18.0</ele><time>2026-04-18T12:58:21.293Z</time></trkpt><trkpt lat="41.4742393" lon="12.8331918"><ele>18.0</ele><time>2026-04-18T12:58:23.292Z</time></trkpt><trkpt lat="41.4742534" lon="12.8334524"><ele>18.0</ele><time>2026-04-18T12:58:25.332Z</time></trkpt><trkpt lat="41.4742793" lon="12.8336778"><ele>18.75</ele><time>2026-04-18T12:58:27.316Z</time></trkpt><trkpt lat="41.4743003" lon="12.8338027"><ele>19.5</ele><time>2026-04-18T12:58:28.294Z</time></trkpt><trkpt lat="41.4743279" lon="12.8339184"><ele>20.25</ele><time>2026-04-18T12:58:29.297Z</time></trkpt><trkpt lat="41.4743681" lon="12.8340373"><ele>21.0</ele><time>2026-04-18T12:58:30.321Z</time></trkpt><trkpt lat="41.4744741" lon="12.8342638"><ele>21.0</ele><time>2026-04-18T12:58:32.294Z</time></trkpt><trkpt lat="41.4746078" lon="12.8344891"><ele>21.0</ele><time>2026-04-18T12:58:34.331Z</time></trkpt><trkpt lat="41.4747518" lon="12.8346889"><ele>21.0</ele><time>2026-04-18T12:58:36.293Z</time></trkpt><trkpt lat="41.4749173" lon="12.8348509"><ele>21.0</ele><time>2026-04-18T12:58:38.296Z</time></trkpt><trkpt lat="41.4750021" lon="12.83492"><ele>21.0</ele><time>2026-04-18T12:58:39.295Z</time></trkpt><trkpt lat="41.4750913" lon="12.8349832"><ele>21.0</ele><time>2026-04-18T12:58:40.294Z</time></trkpt><trkpt lat="41.4751836" lon="12.8350342"><ele>21.0</ele><time>2026-04-18T12:58:41.33Z</time></trkpt><trkpt lat="41.4753797" lon="12.8351124"><ele>21.333333333333332</ele><time>2026-04-18T12:58:43.297Z</time></trkpt><trkpt lat="41.4755689" lon="12.8351804"><ele>21.666666666666664</ele><time>2026-04-18T12:58:45.308Z</time></trkpt><trkpt lat="41.4757623" lon="12.835257"><ele>22.0</ele><time>2026-04-18T12:58:47.306Z</time></trkpt><trkpt lat="41.4759546" lon="12.8353251"><ele>22.0</ele><time>2026-04-18T12:58:49.305Z</time></trkpt><trkpt lat="41.4761579" lon="12.835408"><ele>22.0</ele><time>2026-04-18T12:58:51.293Z</time></trkpt><trkpt lat="41.4763399" lon="12.8354766"><ele>22.0</ele><time>2026-04-18T12:58:53.303Z</time></trkpt><trkpt lat="41.4765118" lon="12.8355412"><ele>22.200000000000003</ele><time>2026-04-18T12:58:55.291Z</time></trkpt><trkpt lat="41.4765911" lon="12.8355752"><ele>22.4</ele><time>2026-04-18T12:58:56.293Z</time></trkpt><trkpt lat="41.4766618" lon="12.8356072"><ele>22.6</ele><time>2026-04-18T12:58:57.327Z</time></trkpt><trkpt lat="41.4767273" lon="12.835641"><ele>22.799999999999997</ele><time>2026-04-18T12:58:58.303Z</time></trkpt><trkpt lat="41.4768378" lon="12.8356855"><ele>23.0</ele><time>2026-04-18T12:59:00.323Z</time></trkpt><trkpt lat="41.4769654" lon="12.8357002"><ele>23.0</ele><time>2026-04-18T12:59:02.294Z</time></trkpt><trkpt lat="41.4770807" lon="12.8357479"><ele>23.0</ele><time>2026-04-18T12:59:04.298Z</time></trkpt><trkpt lat="41.4771918" lon="12.8358025"><ele>23.0</ele><time>2026-04-18T12:59:06.306Z</time></trkpt><trkpt lat="41.4772547" lon="12.8358224"><ele>23.0</ele><time>2026-04-18T12:59:07.304Z</time></trkpt><trkpt lat="41.4773819" lon="12.8358683"><ele>23.0</ele><time>2026-04-18T12:59:09.305Z</time></trkpt><trkpt lat="41.4775198" lon="12.8359222"><ele>23.0</ele><time>2026-04-18T12:59:11.337Z</time></trkpt><trkpt lat="41.4775929" lon="12.8359495"><ele>23.0</ele><time>2026-04-18T12:59:12.297Z</time></trkpt><trkpt lat="41.4776701" lon="12.8359848"><ele>23.0</ele><time>2026-04-18T12:59:13.296Z</time></trkpt><trkpt lat="41.4777413" lon="12.8360156"><ele>23.0</ele><time>2026-04-18T12:59:14.295Z</time></trkpt><trkpt lat="41.4778812" lon="12.8360663"><ele>23.0</ele><time>2026-04-18T12:59:16.327Z</time></trkpt><trkpt lat="41.4780174" lon="12.8361074"><ele>22.599999999999998</ele><time>2026-04-18T12:59:18.321Z</time></trkpt><trkpt lat="41.4781526" lon="12.8361555"><ele>22.2</ele><time>2026-04-18T12:59:20.305Z</time></trkpt><trkpt lat="41.4782902" lon="12.8362144"><ele>21.8</ele><time>2026-04-18T12:59:22.301Z</time></trkpt><trkpt lat="41.4783639" lon="12.8362348"><ele>21.4</ele><time>2026-04-18T12:59:23.298Z</time></trkpt><trkpt lat="41.47844" lon="12.8362567"><ele>21.0</ele><time>2026-04-18T12:59:24.341Z</time></trkpt><trkpt lat="41.4785909" lon="12.8362937"><ele>21.0</ele><time>2026-04-18T12:59:26.317Z</time></trkpt><trkpt lat="41.4787166" lon="12.836324"><ele>21.0</ele><time>2026-04-18T12:59:28.316Z</time></trkpt><trkpt lat="41.4788431" lon="12.8363581"><ele>21.0</ele><time>2026-04-18T12:59:30.304Z</time></trkpt><trkpt lat="41.478979" lon="12.8363916"><ele>21.0</ele><time>2026-04-18T12:59:32.33Z</time></trkpt><trkpt lat="41.4791333" lon="12.8364171"><ele>21.200000000000003</ele><time>2026-04-18T12:59:34.309Z</time></trkpt><trkpt lat="41.4792022" lon="12.8364325"><ele>21.400000000000002</ele><time>2026-04-18T12:59:35.297Z</time></trkpt><trkpt lat="41.479273" lon="12.8364518"><ele>21.6</ele><time>2026-04-18T12:59:36.298Z</time></trkpt><trkpt lat="41.4794104" lon="12.8364853"><ele>21.8</ele><time>2026-04-18T12:59:38.305Z</time></trkpt><trkpt lat="41.4795381" lon="12.836549"><ele>22.0</ele><time>2026-04-18T12:59:40.309Z</time></trkpt><trkpt lat="41.4796522" lon="12.8365808"><ele>22.0</ele><time>2026-04-18T12:59:42.337Z</time></trkpt><trkpt lat="41.479773" lon="12.8365632"><ele>22.0</ele><time>2026-04-18T12:59:44.3Z</time></trkpt><trkpt lat="41.4798961" lon="12.8365315"><ele>22.0</ele><time>2026-04-18T12:59:46.297Z</time></trkpt><trkpt lat="41.4799838" lon="12.8365184"><ele>22.0</ele><time>2026-04-18T12:59:47.295Z</time></trkpt><trkpt lat="41.4800663" lon="12.8364951"><ele>22.0</ele><time>2026-04-18T12:59:48.328Z</time></trkpt><trkpt lat="41.4802138" lon="12.836463"><ele>22.0</ele><time>2026-04-18T12:59:50.337Z</time></trkpt><trkpt lat="41.4803608" lon="12.8364227"><ele>22.0</ele><time>2026-04-18T12:59:52.324Z</time></trkpt><trkpt lat="41.480482" lon="12.8363854"><ele>22.0</ele><time>2026-04-18T12:59:54.33Z</time></trkpt><trkpt lat="41.4805997" lon="12.8363448"><ele>22.0</ele><time>2026-04-18T12:59:56.305Z</time></trkpt><trkpt lat="41.4807178" lon="12.8363069"><ele>21.6</ele><time>2026-04-18T12:59:58.3Z</time></trkpt><trkpt lat="41.4808328" lon="12.8362672"><ele>21.200000000000003</ele><time>2026-04-18T13:00:00.305Z</time></trkpt><trkpt lat="41.480897" lon="12.8362508"><ele>20.8</ele><time>2026-04-18T13:00:01.291Z</time></trkpt><trkpt lat="41.480965" lon="12.8362324"><ele>20.4</ele><time>2026-04-18T13:00:02.301Z</time></trkpt><trkpt lat="41.4811069" lon="12.8361876"><ele>20.0</ele><time>2026-04-18T13:00:04.294Z</time></trkpt><trkpt lat="41.4812457" lon="12.8361319"><ele>20.25</ele><time>2026-04-18T13:00:06.299Z</time></trkpt><trkpt lat="41.4813735" lon="12.8360881"><ele>20.5</ele><time>2026-04-18T13:00:08.294Z</time></trkpt><trkpt lat="41.4814986" lon="12.8360587"><ele>20.75</ele><time>2026-04-18T13:00:10.312Z</time></trkpt><trkpt lat="41.4816064" lon="12.836014"><ele>21.0</ele><time>2026-04-18T13:00:12.291Z</time></trkpt><trkpt lat="41.4817017" lon="12.8359509"><ele>21.0</ele><time>2026-04-18T13:00:14.306Z</time></trkpt><trkpt lat="41.4818147" lon="12.835868"><ele>21.0</ele><time>2026-04-18T13:00:16.295Z</time></trkpt><trkpt lat="41.4819276" lon="12.8357951"><ele>21.0</ele><time>2026-04-18T13:00:18.31Z</time></trkpt><trkpt lat="41.4820575" lon="12.8357297"><ele>21.0</ele><time>2026-04-18T13:00:20.296Z</time></trkpt><trkpt lat="41.4821194" lon="12.8356944"><ele>21.75</ele><time>2026-04-18T13:00:21.293Z</time></trkpt><trkpt lat="41.4821851" lon="12.8356668"><ele>22.5</ele><time>2026-04-18T13:00:22.294Z</time></trkpt><trkpt lat="41.482309" lon="12.8355987"><ele>23.25</ele><time>2026-04-18T13:00:24.303Z</time></trkpt><trkpt lat="41.4824267" lon="12.8355184"><ele>24.0</ele><time>2026-04-18T13:00:26.311Z</time></trkpt><trkpt lat="41.4825507" lon="12.8354499"><ele>24.0</ele><time>2026-04-18T13:00:28.306Z</time></trkpt><trkpt lat="41.4826155" lon="12.8354067"><ele>24.0</ele><time>2026-04-18T13:00:29.297Z</time></trkpt><trkpt lat="41.4827234" lon="12.8353234"><ele>24.0</ele><time>2026-04-18T13:00:31.296Z</time></trkpt><trkpt lat="41.4828397" lon="12.835255"><ele>24.0</ele><time>2026-04-18T13:00:33.304Z</time></trkpt><trkpt lat="41.4829568" lon="12.8351891"><ele>23.6</ele><time>2026-04-18T13:00:35.328Z</time></trkpt><trkpt lat="41.4830521" lon="12.8351284"><ele>23.2</ele><time>2026-04-18T13:00:37.31Z</time></trkpt><trkpt lat="41.4831437" lon="12.8350776"><ele>22.8</ele><time>2026-04-18T13:00:39.325Z</time></trkpt><trkpt lat="41.4832456" lon="12.8350185"><ele>22.400000000000002</ele><time>2026-04-18T13:00:41.298Z</time></trkpt><trkpt lat="41.4833459" lon="12.8349551"><ele>22.0</ele><time>2026-04-18T13:00:43.298Z</time></trkpt><trkpt lat="41.4834482" lon="12.8348923"><ele>22.0</ele><time>2026-04-18T13:00:45.305Z</time></trkpt><trkpt lat="41.4835529" lon="12.8348268"><ele>22.0</ele><time>2026-04-18T13:00:47.301Z</time></trkpt><trkpt lat="41.4836632" lon="12.8347584"><ele>22.0</ele><time>2026-04-18T13:00:49.308Z</time></trkpt><trkpt lat="41.483754" lon="12.8346955"><ele>22.0</ele><time>2026-04-18T13:00:51.295Z</time></trkpt><trkpt lat="41.4838568" lon="12.8346395"><ele>23.0</ele><time>2026-04-18T13:00:53.296Z</time></trkpt><trkpt lat="41.4839619" lon="12.8345805"><ele>24.0</ele><time>2026-04-18T13:00:55.295Z</time></trkpt><trkpt lat="41.4841154" lon="12.8344922"><ele>25.0</ele><time>2026-04-18T13:00:58.298Z</time></trkpt><trkpt lat="41.4842204" lon="12.8344338"><ele>26.0</ele><time>2026-04-18T13:01:00.292Z</time></trkpt><trkpt lat="41.4843286" lon="12.8343782"><ele>26.0</ele><time>2026-04-18T13:01:02.332Z</time></trkpt><trkpt lat="41.4844413" lon="12.8343221"><ele>26.0</ele><time>2026-04-18T13:01:04.3Z</time></trkpt><trkpt lat="41.4845522" lon="12.8342589"><ele>26.0</ele><time>2026-04-18T13:01:06.308Z</time></trkpt><trkpt lat="41.4846652" lon="12.8341945"><ele>26.0</ele><time>2026-04-18T13:01:08.288Z</time></trkpt><trkpt lat="41.4847862" lon="12.8341444"><ele>25.5</ele><time>2026-04-18T13:01:10.303Z</time></trkpt><trkpt lat="41.4849048" lon="12.8340882"><ele>25.0</ele><time>2026-04-18T13:01:12.307Z</time></trkpt><trkpt lat="41.4850187" lon="12.8340386"><ele>24.5</ele><time>2026-04-18T13:01:14.332Z</time></trkpt><trkpt lat="41.4851325" lon="12.8340051"><ele>24.0</ele><time>2026-04-18T13:01:16.331Z</time></trkpt><trkpt lat="41.4852272" lon="12.8339612"><ele>24.0</ele><time>2026-04-18T13:01:18.333Z</time></trkpt><trkpt lat="41.485325" lon="12.8339014"><ele>24.0</ele><time>2026-04-18T13:01:20.327Z</time></trkpt><trkpt lat="41.4854166" lon="12.8338289"><ele>24.0</ele><time>2026-04-18T13:01:22.3Z</time></trkpt><trkpt lat="41.4855175" lon="12.8337637"><ele>24.0</ele><time>2026-04-18T13:01:24.302Z</time></trkpt><trkpt lat="41.4856107" lon="12.8337032"><ele>24.0</ele><time>2026-04-18T13:01:26.303Z</time></trkpt><trkpt lat="41.4856988" lon="12.8336482"><ele>24.4</ele><time>2026-04-18T13:01:28.3Z</time></trkpt><trkpt lat="41.48576" lon="12.8336051"><ele>24.799999999999997</ele><time>2026-04-18T13:01:30.333Z</time></trkpt><trkpt lat="41.4858434" lon="12.8335534"><ele>25.200000000000003</ele><time>2026-04-18T13:01:33.293Z</time></trkpt><trkpt lat="41.4859336" lon="12.8334987"><ele>25.6</ele><time>2026-04-18T13:01:35.326Z</time></trkpt><trkpt lat="41.4860265" lon="12.8334597"><ele>26.0</ele><time>2026-04-18T13:01:37.296Z</time></trkpt><trkpt lat="41.4861223" lon="12.8334095"><ele>26.0</ele><time>2026-04-18T13:01:39.303Z</time></trkpt><trkpt lat="41.4862234" lon="12.8333534"><ele>26.0</ele><time>2026-04-18T13:01:41.293Z</time></trkpt><trkpt lat="41.486315" lon="12.8333269"><ele>26.0</ele><time>2026-04-18T13:01:43.294Z</time></trkpt><trkpt lat="41.4864078" lon="12.833288"><ele>26.0</ele><time>2026-04-18T13:01:45.298Z</time></trkpt><trkpt lat="41.4865138" lon="12.8332363"><ele>26.0</ele><time>2026-04-18T13:01:47.324Z</time></trkpt><trkpt lat="41.4866216" lon="12.8331775"><ele>26.200000000000003</ele><time>2026-04-18T13:01:49.294Z</time></trkpt><trkpt lat="41.4866844" lon="12.8331557"><ele>26.400000000000002</ele><time>2026-04-18T13:01:50.295Z</time></trkpt><trkpt lat="41.4867918" lon="12.8331007"><ele>26.6</ele><time>2026-04-18T13:01:52.295Z</time></trkpt><trkpt lat="41.4869016" lon="12.8330486"><ele>26.8</ele><time>2026-04-18T13:01:54.328Z</time></trkpt><trkpt lat="41.4870253" lon="12.833014"><ele>27.0</ele><time>2026-04-18T13:01:56.291Z</time></trkpt><trkpt lat="41.4871414" lon="12.8329895"><ele>26.5</ele><time>2026-04-18T13:01:58.298Z</time></trkpt><trkpt lat="41.4872655" lon="12.8329538"><ele>26.0</ele><time>2026-04-18T13:02:00.323Z</time></trkpt><trkpt lat="41.487429" lon="12.8328614"><ele>25.5</ele><time>2026-04-18T13:02:03.32Z</time></trkpt><trkpt lat="41.4875325" lon="12.8328205"><ele>25.0</ele><time>2026-04-18T13:02:05.304Z</time></trkpt><trkpt lat="41.487632" lon="12.8327901"><ele>25.0</ele><time>2026-04-18T13:02:07.299Z</time></trkpt><trkpt lat="41.4877416" lon="12.8327747"><ele>25.0</ele><time>2026-04-18T13:02:09.298Z</time></trkpt><trkpt lat="41.4878525" lon="12.8327559"><ele>25.0</ele><time>2026-04-18T13:02:11.299Z</time></trkpt><trkpt lat="41.4879628" lon="12.8327401"><ele>25.0</ele><time>2026-04-18T13:02:13.3Z</time></trkpt><trkpt lat="41.4880817" lon="12.8327283"><ele>24.75</ele><time>2026-04-18T13:02:15.301Z</time></trkpt><trkpt lat="41.4882128" lon="12.8326987"><ele>24.5</ele><time>2026-04-18T13:02:17.297Z</time></trkpt><trkpt lat="41.4883781" lon="12.8326624"><ele>24.25</ele><time>2026-04-18T13:02:20.303Z</time></trkpt><trkpt lat="41.4884963" lon="12.8326539"><ele>24.0</ele><time>2026-04-18T13:02:22.311Z</time></trkpt><trkpt lat="41.4886797" lon="12.8326582"><ele>24.0</ele><time>2026-04-18T13:02:25.297Z</time></trkpt><trkpt lat="41.4887506" lon="12.8326645"><ele>24.0</ele><time>2026-04-18T13:02:26.296Z</time></trkpt><trkpt lat="41.4888701" lon="12.8326543"><ele>24.0</ele><time>2026-04-18T13:02:28.304Z</time></trkpt><trkpt lat="41.4889373" lon="12.8326581"><ele>24.0</ele><time>2026-04-18T13:02:29.335Z</time></trkpt><trkpt lat="41.4890777" lon="12.8326648"><ele>24.0</ele><time>2026-04-18T13:02:31.308Z</time></trkpt><trkpt lat="41.4892268" lon="12.8326732"><ele>24.0</ele><time>2026-04-18T13:02:33.306Z</time></trkpt><trkpt lat="41.4893681" lon="12.8326869"><ele>24.0</ele><time>2026-04-18T13:02:35.339Z</time></trkpt><trkpt lat="41.4894391" lon="12.8326918"><ele>24.0</ele><time>2026-04-18T13:02:36.296Z</time></trkpt><trkpt lat="41.4895087" lon="12.832695"><ele>24.0</ele><time>2026-04-18T13:02:37.333Z</time></trkpt><trkpt lat="41.4896394" lon="12.8326974"><ele>24.0</ele><time>2026-04-18T13:02:39.324Z</time></trkpt><trkpt lat="41.4897792" lon="12.8327046"><ele>24.25</ele><time>2026-04-18T13:02:41.315Z</time></trkpt><trkpt lat="41.4899095" lon="12.8327341"><ele>24.5</ele><time>2026-04-18T13:02:43.297Z</time></trkpt><trkpt lat="41.4900288" lon="12.8327481"><ele>24.75</ele><time>2026-04-18T13:02:45.311Z</time></trkpt><trkpt lat="41.490143" lon="12.8327476"><ele>25.0</ele><time>2026-04-18T13:02:47.336Z</time></trkpt><trkpt lat="41.4902472" lon="12.8327518"><ele>25.0</ele><time>2026-04-18T13:02:49.302Z</time></trkpt><trkpt lat="41.4903564" lon="12.8327739"><ele>25.0</ele><time>2026-04-18T13:02:51.3Z</time></trkpt><trkpt lat="41.4904695" lon="12.8327838"><ele>25.0</ele><time>2026-04-18T13:02:53.311Z</time></trkpt><trkpt lat="41.4905902" lon="12.8327921"><ele>25.0</ele><time>2026-04-18T13:02:55.3Z</time></trkpt><trkpt lat="41.4907139" lon="12.8328007"><ele>25.75</ele><time>2026-04-18T13:02:57.31Z</time></trkpt><trkpt lat="41.4908301" lon="12.8328019"><ele>26.5</ele><time>2026-04-18T13:02:59.337Z</time></trkpt><trkpt lat="41.4909531" lon="12.8328153"><ele>27.25</ele><time>2026-04-18T13:03:01.29Z</time></trkpt><trkpt lat="41.4911243" lon="12.8328222"><ele>28.0</ele><time>2026-04-18T13:03:04.306Z</time></trkpt><trkpt lat="41.4912395" lon="12.8328415"><ele>28.0</ele><time>2026-04-18T13:03:06.3Z</time></trkpt><trkpt lat="41.4913643" lon="12.8328476"><ele>28.0</ele><time>2026-04-18T13:03:08.291Z</time></trkpt><trkpt lat="41.4914863" lon="12.8328485"><ele>28.0</ele><time>2026-04-18T13:03:10.306Z</time></trkpt><trkpt lat="41.4916268" lon="12.8328673"><ele>28.0</ele><time>2026-04-18T13:03:12.313Z</time></trkpt><trkpt lat="41.4917674" lon="12.8328889"><ele>28.0</ele><time>2026-04-18T13:03:14.299Z</time></trkpt><trkpt lat="41.4918989" lon="12.8329153"><ele>27.999999999999996</ele><time>2026-04-18T13:03:16.307Z</time></trkpt><trkpt lat="41.4920246" lon="12.8329259"><ele>27.999999999999996</ele><time>2026-04-18T13:03:18.307Z</time></trkpt><trkpt lat="41.4920938" lon="12.8329386"><ele>28.0</ele><time>2026-04-18T13:03:19.295Z</time></trkpt><trkpt lat="41.4921604" lon="12.8329469"><ele>28.0</ele><time>2026-04-18T13:03:20.297Z</time></trkpt><trkpt lat="41.4922359" lon="12.8329493"><ele>28.25</ele><time>2026-04-18T13:03:21.303Z</time></trkpt><trkpt lat="41.4923599" lon="12.8329555"><ele>28.5</ele><time>2026-04-18T13:03:23.303Z</time></trkpt><trkpt lat="41.492475" lon="12.8329281"><ele>28.75</ele><time>2026-04-18T13:03:25.302Z</time></trkpt><trkpt lat="41.4925928" lon="12.8329013"><ele>29.0</ele><time>2026-04-18T13:03:27.299Z</time></trkpt><trkpt lat="41.4927431" lon="12.8328385"><ele>29.0</ele><time>2026-04-18T13:03:30.303Z</time></trkpt><trkpt lat="41.4928291" lon="12.8328126"><ele>29.0</ele><time>2026-04-18T13:03:32.335Z</time></trkpt><trkpt lat="41.4930002" lon="12.8328165"><ele>29.0</ele><time>2026-04-18T13:03:35.293Z</time></trkpt><trkpt lat="41.4931075" lon="12.8328193"><ele>29.0</ele><time>2026-04-18T13:03:37.312Z</time></trkpt><trkpt lat="41.4932574" lon="12.8328343"><ele>28.75</ele><time>2026-04-18T13:03:40.306Z</time></trkpt><trkpt lat="41.4933405" lon="12.8328417"><ele>28.5</ele><time>2026-04-18T13:03:42.293Z</time></trkpt><trkpt lat="41.4935327" lon="12.8328815"><ele>28.25</ele><time>2026-04-18T13:03:45.303Z</time></trkpt><trkpt lat="41.4936674" lon="12.8329237"><ele>28.0</ele><time>2026-04-18T13:03:47.307Z</time></trkpt><trkpt lat="41.4938027" lon="12.8329596"><ele>27.75</ele><time>2026-04-18T13:03:49.331Z</time></trkpt><trkpt lat="41.4939326" lon="12.8330029"><ele>27.5</ele><time>2026-04-18T13:03:51.302Z</time></trkpt><trkpt lat="41.4940816" lon="12.8330379"><ele>27.25</ele><time>2026-04-18T13:03:53.301Z</time></trkpt><trkpt lat="41.494223" lon="12.8330774"><ele>27.0</ele><time>2026-04-18T13:03:55.303Z</time></trkpt><trkpt lat="41.4942881" lon="12.8331157"><ele>27.0</ele><time>2026-04-18T13:03:56.321Z</time></trkpt><trkpt lat="41.4943415" lon="12.8331683"><ele>27.000000000000004</ele><time>2026-04-18T13:03:57.311Z</time></trkpt><trkpt lat="41.4944403" lon="12.8332604"><ele>27.000000000000004</ele><time>2026-04-18T13:03:59.308Z</time></trkpt><trkpt lat="41.4945403" lon="12.8332487"><ele>27.0</ele><time>2026-04-18T13:04:01.334Z</time></trkpt><trkpt lat="41.4946857" lon="12.8332519"><ele>27.0</ele><time>2026-04-18T13:04:03.3Z</time></trkpt><trkpt lat="41.4948593" lon="12.8332976"><ele>26.400000000000002</ele><time>2026-04-18T13:04:05.296Z</time></trkpt><trkpt lat="41.4949502" lon="12.8333306"><ele>25.800000000000004</ele><time>2026-04-18T13:04:06.297Z</time></trkpt><trkpt lat="41.4950415" lon="12.8333712"><ele>25.2</ele><time>2026-04-18T13:04:07.308Z</time></trkpt><trkpt lat="41.4952021" lon="12.8334087"><ele>24.6</ele><time>2026-04-18T13:04:09.293Z</time></trkpt><trkpt lat="41.4952954" lon="12.8334348"><ele>24.0</ele><time>2026-04-18T13:04:10.292Z</time></trkpt><trkpt lat="41.4954046" lon="12.833466"><ele>25.5</ele><time>2026-04-18T13:04:11.304Z</time></trkpt><trkpt lat="41.4956317" lon="12.8335268"><ele>27.0</ele><time>2026-04-18T13:04:13.314Z</time></trkpt><trkpt lat="41.4958471" lon="12.8335838"><ele>27.0</ele><time>2026-04-18T13:04:15.306Z</time></trkpt><trkpt lat="41.4960383" lon="12.833638"><ele>27.0</ele><time>2026-04-18T13:04:17.301Z</time></trkpt><trkpt lat="41.4961324" lon="12.8336741"><ele>27.0</ele><time>2026-04-18T13:04:18.302Z</time></trkpt><trkpt lat="41.4962153" lon="12.8336881"><ele>27.0</ele><time>2026-04-18T13:04:19.298Z</time></trkpt><trkpt lat="41.496294" lon="12.8336954"><ele>27.0</ele><time>2026-04-18T13:04:20.295Z</time></trkpt><trkpt lat="41.4963708" lon="12.8337117"><ele>27.000000000000004</ele><time>2026-04-18T13:04:21.31Z</time></trkpt><trkpt lat="41.4964467" lon="12.8337286"><ele>27.000000000000004</ele><time>2026-04-18T13:04:22.295Z</time></trkpt><trkpt lat="41.4965233" lon="12.8337498"><ele>27.0</ele><time>2026-04-18T13:04:23.291Z</time></trkpt><trkpt lat="41.4966033" lon="12.8337624"><ele>27.0</ele><time>2026-04-18T13:04:24.292Z</time></trkpt><trkpt lat="41.4967565" lon="12.8337861"><ele>27.0</ele><time>2026-04-18T13:04:26.335Z</time></trkpt><trkpt lat="41.4969113" lon="12.8338066"><ele>27.0</ele><time>2026-04-18T13:04:28.3Z</time></trkpt><trkpt lat="41.4970614" lon="12.8338419"><ele>27.0</ele><time>2026-04-18T13:04:30.332Z</time></trkpt><trkpt lat="41.4971454" lon="12.8338556"><ele>27.0</ele><time>2026-04-18T13:04:31.305Z</time></trkpt><trkpt lat="41.4972254" lon="12.8338759"><ele>27.0</ele><time>2026-04-18T13:04:32.325Z</time></trkpt><trkpt lat="41.4973802" lon="12.8338959"><ele>27.0</ele><time>2026-04-18T13:04:34.304Z</time></trkpt><trkpt lat="41.4975333" lon="12.8339315"><ele>27.0</ele><time>2026-04-18T13:04:36.308Z</time></trkpt><trkpt lat="41.4976757" lon="12.833989"><ele>27.0</ele><time>2026-04-18T13:04:38.323Z</time></trkpt><trkpt lat="41.4977555" lon="12.8340038"><ele>27.0</ele><time>2026-04-18T13:04:39.301Z</time></trkpt><trkpt lat="41.4978251" lon="12.8340122"><ele>27.0</ele><time>2026-04-18T13:04:40.294Z</time></trkpt><trkpt lat="41.4978915" lon="12.8340218"><ele>27.0</ele><time>2026-04-18T13:04:41.295Z</time></trkpt><trkpt lat="41.4979571" lon="12.8340452"><ele>27.0</ele><time>2026-04-18T13:04:42.3Z</time></trkpt><trkpt lat="41.4980225" lon="12.8340864"><ele>27.0</ele><time>2026-04-18T13:04:43.292Z</time></trkpt><trkpt lat="41.4981716" lon="12.8341573"><ele>26.666666666666664</ele><time>2026-04-18T13:04:45.315Z</time></trkpt><trkpt lat="41.4983669" lon="12.8342063"><ele>26.333333333333332</ele><time>2026-04-18T13:04:47.291Z</time></trkpt><trkpt lat="41.4985845" lon="12.8342581"><ele>26.0</ele><time>2026-04-18T13:04:49.293Z</time></trkpt><trkpt lat="41.4988016" lon="12.8343057"><ele>26.0</ele><time>2026-04-18T13:04:51.303Z</time></trkpt><trkpt lat="41.4988959" lon="12.8343301"><ele>26.0</ele><time>2026-04-18T13:04:52.297Z</time></trkpt><trkpt lat="41.4989994" lon="12.8343563"><ele>26.0</ele><time>2026-04-18T13:04:53.295Z</time></trkpt><trkpt lat="41.4991961" lon="12.834398"><ele>26.0</ele><time>2026-04-18T13:04:55.296Z</time></trkpt><trkpt lat="41.4993078" lon="12.8344464"><ele>26.0</ele><time>2026-04-18T13:04:56.323Z</time></trkpt><trkpt lat="41.4994118" lon="12.8344888"><ele>26.0</ele><time>2026-04-18T13:04:57.292Z</time></trkpt><trkpt lat="41.4995119" lon="12.8345196"><ele>26.0</ele><time>2026-04-18T13:04:58.302Z</time></trkpt><trkpt lat="41.4997406" lon="12.8345625"><ele>26.0</ele><time>2026-04-18T13:05:00.298Z</time></trkpt><trkpt lat="41.500018" lon="12.8346322"><ele>26.0</ele><time>2026-04-18T13:05:02.333Z</time></trkpt><trkpt lat="41.5002872" lon="12.8346963"><ele>26.0</ele><time>2026-04-18T13:05:04.314Z</time></trkpt><trkpt lat="41.5005479" lon="12.8347578"><ele>26.0</ele><time>2026-04-18T13:05:06.303Z</time></trkpt><trkpt lat="41.5008112" lon="12.8348239"><ele>26.0</ele><time>2026-04-18T13:05:08.306Z</time></trkpt><trkpt lat="41.5010598" lon="12.8348898"><ele>26.0</ele><time>2026-04-18T13:05:10.331Z</time></trkpt><trkpt lat="41.5012933" lon="12.8349731"><ele>26.0</ele><time>2026-04-18T13:05:12.304Z</time></trkpt><trkpt lat="41.5014096" lon="12.834998"><ele>26.0</ele><time>2026-04-18T13:05:13.297Z</time></trkpt><trkpt lat="41.5015162" lon="12.8350272"><ele>26.0</ele><time>2026-04-18T13:05:14.292Z</time></trkpt><trkpt lat="41.5016261" lon="12.835058"><ele>26.0</ele><time>2026-04-18T13:05:15.292Z</time></trkpt><trkpt lat="41.5017393" lon="12.8350835"><ele>26.0</ele><time>2026-04-18T13:05:16.294Z</time></trkpt><trkpt lat="41.5018496" lon="12.8351195"><ele>26.0</ele><time>2026-04-18T13:05:17.292Z</time></trkpt><trkpt lat="41.5019583" lon="12.8351493"><ele>26.0</ele><time>2026-04-18T13:05:18.289Z</time></trkpt><trkpt lat="41.5020781" lon="12.8351807"><ele>26.0</ele><time>2026-04-18T13:05:19.291Z</time></trkpt><trkpt lat="41.5021906" lon="12.8352074"><ele>26.0</ele><time>2026-04-18T13:05:20.29Z</time></trkpt><trkpt lat="41.5023096" lon="12.8352367"><ele>26.0</ele><time>2026-04-18T13:05:21.291Z</time></trkpt><trkpt lat="41.5024232" lon="12.8352779"><ele>26.0</ele><time>2026-04-18T13:05:22.291Z</time></trkpt><trkpt lat="41.5025424" lon="12.8353132"><ele>26.0</ele><time>2026-04-18T13:05:23.293Z</time></trkpt><trkpt lat="41.5026561" lon="12.8353494"><ele>26.0</ele><time>2026-04-18T13:05:24.291Z</time></trkpt><trkpt lat="41.5027766" lon="12.8353788"><ele>26.0</ele><time>2026-04-18T13:05:25.292Z</time></trkpt><trkpt lat="41.5028936" lon="12.8354091"><ele>26.0</ele><time>2026-04-18T13:05:26.291Z</time></trkpt><trkpt lat="41.5030092" lon="12.8354372"><ele>26.0</ele><time>2026-04-18T13:05:27.296Z</time></trkpt><trkpt lat="41.5031251" lon="12.835464"><ele>26.0</ele><time>2026-04-18T13:05:28.29Z</time></trkpt><trkpt lat="41.5032455" lon="12.8354965"><ele>26.0</ele><time>2026-04-18T13:05:29.293Z</time></trkpt><trkpt lat="41.5033745" lon="12.8355278"><ele>26.0</ele><time>2026-04-18T13:05:30.29Z</time></trkpt><trkpt lat="41.5035047" lon="12.8355642"><ele>26.0</ele><time>2026-04-18T13:05:31.293Z</time></trkpt><trkpt lat="41.5036329" lon="12.8356017"><ele>26.0</ele><time>2026-04-18T13:05:32.291Z</time></trkpt><trkpt lat="41.503759" lon="12.8356383"><ele>26.0</ele><time>2026-04-18T13:05:33.292Z</time></trkpt><trkpt lat="41.5038727" lon="12.835672"><ele>26.0</ele><time>2026-04-18T13:05:34.29Z</time></trkpt><trkpt lat="41.5039887" lon="12.8357064"><ele>26.0</ele><time>2026-04-18T13:05:35.292Z</time></trkpt><trkpt lat="41.504106" lon="12.8357389"><ele>26.0</ele><time>2026-04-18T13:05:36.3Z</time></trkpt><trkpt lat="41.5042219" lon="12.8357693"><ele>26.0</ele><time>2026-04-18T13:05:37.29Z</time></trkpt><trkpt lat="41.5043399" lon="12.8357946"><ele>26.0</ele><time>2026-04-18T13:05:38.299Z</time></trkpt><trkpt lat="41.5044682" lon="12.8358325"><ele>26.0</ele><time>2026-04-18T13:05:39.296Z</time></trkpt><trkpt lat="41.5045838" lon="12.8358629"><ele>26.0</ele><time>2026-04-18T13:05:40.301Z</time></trkpt><trkpt lat="41.5047072" lon="12.8358978"><ele>26.0</ele><time>2026-04-18T13:05:41.291Z</time></trkpt><trkpt lat="41.5048244" lon="12.8359282"><ele>25.75</ele><time>2026-04-18T13:05:42.315Z</time></trkpt><trkpt lat="41.5049424" lon="12.835959"><ele>25.5</ele><time>2026-04-18T13:05:43.295Z</time></trkpt><trkpt lat="41.505063" lon="12.8359947"><ele>25.25</ele><time>2026-04-18T13:05:44.32Z</time></trkpt><trkpt lat="41.5051765" lon="12.8360259"><ele>25.0</ele><time>2026-04-18T13:05:45.308Z</time></trkpt><trkpt lat="41.5053964" lon="12.8360872"><ele>25.5</ele><time>2026-04-18T13:05:47.293Z</time></trkpt><trkpt lat="41.5054988" lon="12.8361193"><ele>26.0</ele><time>2026-04-18T13:05:48.294Z</time></trkpt><trkpt lat="41.5056021" lon="12.8361521"><ele>26.5</ele><time>2026-04-18T13:05:49.292Z</time></trkpt><trkpt lat="41.5057078" lon="12.8361808"><ele>27.0</ele><time>2026-04-18T13:05:50.313Z</time></trkpt><trkpt lat="41.5059083" lon="12.8362314"><ele>27.0</ele><time>2026-04-18T13:05:52.29Z</time></trkpt><trkpt lat="41.5061123" lon="12.8362808"><ele>27.0</ele><time>2026-04-18T13:05:54.29Z</time></trkpt><trkpt lat="41.5062226" lon="12.8363106"><ele>27.0</ele><time>2026-04-18T13:05:55.3Z</time></trkpt><trkpt lat="41.506441" lon="12.8363758"><ele>26.5</ele><time>2026-04-18T13:05:57.294Z</time></trkpt><trkpt lat="41.5066719" lon="12.8364434"><ele>26.0</ele><time>2026-04-18T13:05:59.291Z</time></trkpt><trkpt lat="41.5069153" lon="12.8365051"><ele>25.666666666666664</ele><time>2026-04-18T13:06:01.296Z</time></trkpt><trkpt lat="41.5071592" lon="12.8365605"><ele>25.333333333333336</ele><time>2026-04-18T13:06:03.31Z</time></trkpt><trkpt lat="41.5072865" lon="12.8365869"><ele>25.0</ele><time>2026-04-18T13:06:04.303Z</time></trkpt><trkpt lat="41.5075312" lon="12.8366531"><ele>25.0</ele><time>2026-04-18T13:06:06.295Z</time></trkpt><trkpt lat="41.5077791" lon="12.8367212"><ele>25.0</ele><time>2026-04-18T13:06:08.332Z</time></trkpt><trkpt lat="41.5078895" lon="12.8367474"><ele>25.0</ele><time>2026-04-18T13:06:09.292Z</time></trkpt><trkpt lat="41.5080073" lon="12.8367829"><ele>27.0</ele><time>2026-04-18T13:06:10.297Z</time></trkpt><trkpt lat="41.5082335" lon="12.8368504"><ele>29.0</ele><time>2026-04-18T13:06:12.336Z</time></trkpt><trkpt lat="41.5084501" lon="12.8369043"><ele>29.0</ele><time>2026-04-18T13:06:14.296Z</time></trkpt><trkpt lat="41.5085581" lon="12.8369387"><ele>29.0</ele><time>2026-04-18T13:06:15.297Z</time></trkpt><trkpt lat="41.5087617" lon="12.8369994"><ele>29.0</ele><time>2026-04-18T13:06:17.305Z</time></trkpt><trkpt lat="41.5089655" lon="12.837099"><ele>29.5</ele><time>2026-04-18T13:06:19.292Z</time></trkpt><trkpt lat="41.5091465" lon="12.837175"><ele>30.0</ele><time>2026-04-18T13:06:21.294Z</time></trkpt><trkpt lat="41.5092306" lon="12.8371958"><ele>30.5</ele><time>2026-04-18T13:06:22.291Z</time></trkpt><trkpt lat="41.5093141" lon="12.8372311"><ele>31.0</ele><time>2026-04-18T13:06:23.297Z</time></trkpt><trkpt lat="41.5094683" lon="12.8372983"><ele>30.0</ele><time>2026-04-18T13:06:25.305Z</time></trkpt><trkpt lat="41.5096197" lon="12.8373594"><ele>29.0</ele><time>2026-04-18T13:06:27.302Z</time></trkpt><trkpt lat="41.5097643" lon="12.8373972"><ele>28.0</ele><time>2026-04-18T13:06:29.335Z</time></trkpt><trkpt lat="41.5099045" lon="12.8374501"><ele>28.0</ele><time>2026-04-18T13:06:31.321Z</time></trkpt><trkpt lat="41.5100443" lon="12.8374963"><ele>28.0</ele><time>2026-04-18T13:06:33.291Z</time></trkpt><trkpt lat="41.5101999" lon="12.8375197"><ele>28.0</ele><time>2026-04-18T13:06:35.305Z</time></trkpt><trkpt lat="41.5103433" lon="12.8375449"><ele>28.0</ele><time>2026-04-18T13:06:37.298Z</time></trkpt><trkpt lat="41.5104213" lon="12.8375668"><ele>27.75</ele><time>2026-04-18T13:06:38.295Z</time></trkpt><trkpt lat="41.5105664" lon="12.8376139"><ele>27.5</ele><time>2026-04-18T13:06:40.292Z</time></trkpt><trkpt lat="41.5106949" lon="12.8376932"><ele>27.25</ele><time>2026-04-18T13:06:42.303Z</time></trkpt><trkpt lat="41.5108294" lon="12.8377542"><ele>27.0</ele><time>2026-04-18T13:06:44.304Z</time></trkpt><trkpt lat="41.5109447" lon="12.8378305"><ele>27.333333333333332</ele><time>2026-04-18T13:06:46.309Z</time></trkpt><trkpt lat="41.5110212" lon="12.8378822"><ele>27.666666666666664</ele><time>2026-04-18T13:06:48.319Z</time></trkpt><trkpt lat="41.5111034" lon="12.8378418"><ele>28.0</ele><time>2026-04-18T13:06:51.333Z</time></trkpt><trkpt lat="41.5111505" lon="12.8377589"><ele>28.333333333333332</ele><time>2026-04-18T13:06:54.296Z</time></trkpt><trkpt lat="41.5111969" lon="12.8376991"><ele>28.666666666666664</ele><time>2026-04-18T13:06:57.294Z</time></trkpt><trkpt lat="41.5112656" lon="12.8377193"><ele>29.0</ele><time>2026-04-18T13:07:00.296Z</time></trkpt><trkpt lat="41.5113444" lon="12.8377792"><ele>28.999999999999996</ele><time>2026-04-18T13:07:03.295Z</time></trkpt><trkpt lat="41.5114079" lon="12.8378113"><ele>29.0</ele><time>2026-04-18T13:07:05.294Z</time></trkpt><trkpt lat="41.5114732" lon="12.8378429"><ele>29.0</ele><time>2026-04-18T13:07:07.33Z</time></trkpt><trkpt lat="41.5115353" lon="12.8378798"><ele>29.0</ele><time>2026-04-18T13:07:09.322Z</time></trkpt><trkpt lat="41.5115988" lon="12.8379265"><ele>28.999999999999996</ele><time>2026-04-18T13:07:11.296Z</time></trkpt><trkpt lat="41.5116775" lon="12.8379191"><ele>29.0</ele><time>2026-04-18T13:07:16.296Z</time></trkpt><trkpt lat="41.5117603" lon="12.8378309"><ele>29.0</ele><time>2026-04-18T13:07:19.304Z</time></trkpt><trkpt lat="41.5118437" lon="12.837869"><ele>29.0</ele><time>2026-04-18T13:07:22.307Z</time></trkpt><trkpt lat="41.5119397" lon="12.8379378"><ele>29.0</ele><time>2026-04-18T13:07:26.295Z</time></trkpt><trkpt lat="41.5120167" lon="12.8379905"><ele>29.0</ele><time>2026-04-18T13:07:29.307Z</time></trkpt><trkpt lat="41.5121064" lon="12.8380333"><ele>29.0</ele><time>2026-04-18T13:07:32.297Z</time></trkpt><trkpt lat="41.5122002" lon="12.8381202"><ele>28.833333333333332</ele><time>2026-04-18T13:07:36.293Z</time></trkpt><trkpt lat="41.5122387" lon="12.8381921"><ele>28.666666666666664</ele><time>2026-04-18T13:07:38.324Z</time></trkpt><trkpt lat="41.5122914" lon="12.8382555"><ele>28.5</ele><time>2026-04-18T13:07:40.297Z</time></trkpt><trkpt lat="41.5123491" lon="12.8383445"><ele>28.333333333333336</ele><time>2026-04-18T13:07:42.293Z</time></trkpt><trkpt lat="41.512408" lon="12.8384251"><ele>28.166666666666668</ele><time>2026-04-18T13:07:44.302Z</time></trkpt><trkpt lat="41.5124743" lon="12.8384885"><ele>28.0</ele><time>2026-04-18T13:07:46.294Z</time></trkpt><trkpt lat="41.512547" lon="12.8385512"><ele>28.0</ele><time>2026-04-18T13:07:48.325Z</time></trkpt><trkpt lat="41.5126286" lon="12.8386202"><ele>27.999999999999996</ele><time>2026-04-18T13:07:50.306Z</time></trkpt><trkpt lat="41.5127118" lon="12.8386976"><ele>27.999999999999996</ele><time>2026-04-18T13:07:52.296Z</time></trkpt><trkpt lat="41.512791" lon="12.8387747"><ele>28.0</ele><time>2026-04-18T13:07:54.32Z</time></trkpt><trkpt lat="41.5128733" lon="12.8388562"><ele>28.0</ele><time>2026-04-18T13:07:56.298Z</time></trkpt><trkpt lat="41.5129947" lon="12.8389865"><ele>28.0</ele><time>2026-04-18T13:07:59.337Z</time></trkpt><trkpt lat="41.51308" lon="12.8390634"><ele>27.999999999999996</ele><time>2026-04-18T13:08:01.328Z</time></trkpt><trkpt lat="41.5131545" lon="12.8391591"><ele>27.999999999999996</ele><time>2026-04-18T13:08:03.305Z</time></trkpt><trkpt lat="41.5132304" lon="12.8392491"><ele>28.0</ele><time>2026-04-18T13:08:05.328Z</time></trkpt><trkpt lat="41.5133031" lon="12.8393402"><ele>28.0</ele><time>2026-04-18T13:08:07.305Z</time></trkpt><trkpt lat="41.5133797" lon="12.8394375"><ele>28.0</ele><time>2026-04-18T13:08:09.293Z</time></trkpt><trkpt lat="41.5134482" lon="12.8395175"><ele>27.999999999999996</ele><time>2026-04-18T13:08:11.288Z</time></trkpt><trkpt lat="41.5135446" lon="12.8396146"><ele>27.999999999999996</ele><time>2026-04-18T13:08:13.293Z</time></trkpt><trkpt lat="41.513611" lon="12.839674"><ele>28.0</ele><time>2026-04-18T13:08:14.292Z</time></trkpt><trkpt lat="41.5136596" lon="12.8397432"><ele>28.0</ele><time>2026-04-18T13:08:15.291Z</time></trkpt><trkpt lat="41.513746" lon="12.839844"><ele>28.0</ele><time>2026-04-18T13:08:17.293Z</time></trkpt><trkpt lat="41.5138221" lon="12.839947"><ele>27.999999999999996</ele><time>2026-04-18T13:08:19.29Z</time></trkpt><trkpt lat="41.5138959" lon="12.8400639"><ele>27.999999999999996</ele><time>2026-04-18T13:08:21.292Z</time></trkpt><trkpt lat="41.5139665" lon="12.8401436"><ele>28.0</ele><time>2026-04-18T13:08:23.295Z</time></trkpt><trkpt lat="41.5140468" lon="12.8402691"><ele>28.0</ele><time>2026-04-18T13:08:25.289Z</time></trkpt><trkpt lat="41.5141307" lon="12.8403715"><ele>28.0</ele><time>2026-04-18T13:08:27.291Z</time></trkpt><trkpt lat="41.5142486" lon="12.8405278"><ele>28.0</ele><time>2026-04-18T13:08:30.295Z</time></trkpt><trkpt lat="41.5143226" lon="12.8406274"><ele>28.0</ele><time>2026-04-18T13:08:32.3Z</time></trkpt><trkpt lat="41.5143957" lon="12.8407271"><ele>28.0</ele><time>2026-04-18T13:08:34.29Z</time></trkpt><trkpt lat="41.5144537" lon="12.8408029"><ele>28.000000000000004</ele><time>2026-04-18T13:08:35.299Z</time></trkpt><trkpt lat="41.5145078" lon="12.8408734"><ele>28.0</ele><time>2026-04-18T13:08:36.302Z</time></trkpt><trkpt lat="41.514559" lon="12.8409326"><ele>28.0</ele><time>2026-04-18T13:08:37.31Z</time></trkpt><trkpt lat="41.5146122" lon="12.8409937"><ele>28.0</ele><time>2026-04-18T13:08:38.29Z</time></trkpt><trkpt lat="41.514662" lon="12.8410596"><ele>28.000000000000004</ele><time>2026-04-18T13:08:39.292Z</time></trkpt><trkpt lat="41.5147145" lon="12.8411284"><ele>28.0</ele><time>2026-04-18T13:08:40.291Z</time></trkpt><trkpt lat="41.5148159" lon="12.8412624"><ele>27.599999999999998</ele><time>2026-04-18T13:08:42.289Z</time></trkpt><trkpt lat="41.5148683" lon="12.841331"><ele>27.199999999999996</ele><time>2026-04-18T13:08:43.292Z</time></trkpt><trkpt lat="41.5149747" lon="12.841465"><ele>26.8</ele><time>2026-04-18T13:08:45.295Z</time></trkpt><trkpt lat="41.5150541" lon="12.8415486"><ele>26.4</ele><time>2026-04-18T13:08:46.291Z</time></trkpt><trkpt lat="41.5151264" lon="12.841627"><ele>26.0</ele><time>2026-04-18T13:08:47.295Z</time></trkpt><trkpt lat="41.5151929" lon="12.8417015"><ele>26.0</ele><time>2026-04-18T13:08:48.293Z</time></trkpt><trkpt lat="41.5152594" lon="12.8417807"><ele>26.0</ele><time>2026-04-18T13:08:49.291Z</time></trkpt><trkpt lat="41.5153834" lon="12.8419432"><ele>26.0</ele><time>2026-04-18T13:08:51.29Z</time></trkpt><trkpt lat="41.5155027" lon="12.8420957"><ele>26.0</ele><time>2026-04-18T13:08:53.291Z</time></trkpt><trkpt lat="41.5155635" lon="12.8421706"><ele>26.333333333333332</ele><time>2026-04-18T13:08:54.29Z</time></trkpt><trkpt lat="41.5156252" lon="12.8422472"><ele>26.666666666666664</ele><time>2026-04-18T13:08:55.29Z</time></trkpt><trkpt lat="41.5156774" lon="12.8423147"><ele>27.0</ele><time>2026-04-18T13:08:56.29Z</time></trkpt><trkpt lat="41.5157305" lon="12.8423825"><ele>27.333333333333336</ele><time>2026-04-18T13:08:57.29Z</time></trkpt><trkpt lat="41.515782" lon="12.8424545"><ele>27.666666666666668</ele><time>2026-04-18T13:08:58.29Z</time></trkpt><trkpt lat="41.5158373" lon="12.8425226"><ele>28.0</ele><time>2026-04-18T13:08:59.291Z</time></trkpt><trkpt lat="41.5158887" lon="12.84259"><ele>28.166666666666668</ele><time>2026-04-18T13:09:00.29Z</time></trkpt><trkpt lat="41.5159398" lon="12.8426554"><ele>28.333333333333336</ele><time>2026-04-18T13:09:01.291Z</time></trkpt><trkpt lat="41.5159897" lon="12.8427202"><ele>28.5</ele><time>2026-04-18T13:09:02.29Z</time></trkpt><trkpt lat="41.5160408" lon="12.8427781"><ele>28.666666666666664</ele><time>2026-04-18T13:09:03.29Z</time></trkpt><trkpt lat="41.5161435" lon="12.8429092"><ele>28.833333333333332</ele><time>2026-04-18T13:09:05.29Z</time></trkpt><trkpt lat="41.5161887" lon="12.8429776"><ele>29.0</ele><time>2026-04-18T13:09:06.291Z</time></trkpt><trkpt lat="41.516231" lon="12.8430426"><ele>29.0</ele><time>2026-04-18T13:09:07.291Z</time></trkpt><trkpt lat="41.5163666" lon="12.8431953"><ele>29.0</ele><time>2026-04-18T13:09:10.291Z</time></trkpt><trkpt lat="41.5164581" lon="12.8433064"><ele>29.0</ele><time>2026-04-18T13:09:12.29Z</time></trkpt><trkpt lat="41.5165061" lon="12.8433704"><ele>29.0</ele><time>2026-04-18T13:09:13.291Z</time></trkpt><trkpt lat="41.5165629" lon="12.8434451"><ele>29.0</ele><time>2026-04-18T13:09:14.291Z</time></trkpt><trkpt lat="41.516674" lon="12.843592"><ele>28.999999999999996</ele><time>2026-04-18T13:09:16.29Z</time></trkpt><trkpt lat="41.5167284" lon="12.8436603"><ele>29.0</ele><time>2026-04-18T13:09:17.291Z</time></trkpt><trkpt lat="41.5167838" lon="12.8437414"><ele>29.0</ele><time>2026-04-18T13:09:18.29Z</time></trkpt><trkpt lat="41.5168417" lon="12.8438204"><ele>29.0</ele><time>2026-04-18T13:09:19.29Z</time></trkpt><trkpt lat="41.5168996" lon="12.8438967"><ele>28.999999999999996</ele><time>2026-04-18T13:09:20.29Z</time></trkpt><trkpt lat="41.5169603" lon="12.8439644"><ele>29.0</ele><time>2026-04-18T13:09:21.291Z</time></trkpt><trkpt lat="41.5170155" lon="12.8440377"><ele>28.799999999999997</ele><time>2026-04-18T13:09:22.29Z</time></trkpt><trkpt lat="41.5171225" lon="12.8441819"><ele>28.599999999999998</ele><time>2026-04-18T13:09:24.291Z</time></trkpt><trkpt lat="41.5172228" lon="12.8443205"><ele>28.4</ele><time>2026-04-18T13:09:26.29Z</time></trkpt><trkpt lat="41.5172719" lon="12.8443972"><ele>28.2</ele><time>2026-04-18T13:09:27.29Z</time></trkpt><trkpt lat="41.5173241" lon="12.8444622"><ele>28.0</ele><time>2026-04-18T13:09:28.29Z</time></trkpt><trkpt lat="41.5173769" lon="12.8445238"><ele>27.799999999999997</ele><time>2026-04-18T13:09:29.29Z</time></trkpt><trkpt lat="41.5174258" lon="12.8445996"><ele>27.599999999999998</ele><time>2026-04-18T13:09:30.291Z</time></trkpt><trkpt lat="41.5174776" lon="12.8446718"><ele>27.400000000000002</ele><time>2026-04-18T13:09:31.29Z</time></trkpt><trkpt lat="41.5175336" lon="12.8447412"><ele>27.200000000000003</ele><time>2026-04-18T13:09:32.29Z</time></trkpt><trkpt lat="41.517646" lon="12.844888"><ele>27.0</ele><time>2026-04-18T13:09:34.291Z</time></trkpt><trkpt lat="41.5177" lon="12.8449654"><ele>27.0</ele><time>2026-04-18T13:09:35.29Z</time></trkpt><trkpt lat="41.5177517" lon="12.8450397"><ele>27.000000000000004</ele><time>2026-04-18T13:09:36.29Z</time></trkpt><trkpt lat="41.5178538" lon="12.845175"><ele>27.000000000000004</ele><time>2026-04-18T13:09:38.29Z</time></trkpt><trkpt lat="41.5179027" lon="12.8452403"><ele>27.0</ele><time>2026-04-18T13:09:39.291Z</time></trkpt><trkpt lat="41.5179966" lon="12.8453677"><ele>27.0</ele><time>2026-04-18T13:09:41.29Z</time></trkpt><trkpt lat="41.5180841" lon="12.8454827"><ele>27.25</ele><time>2026-04-18T13:09:43.29Z</time></trkpt><trkpt lat="41.5181698" lon="12.8455976"><ele>27.5</ele><time>2026-04-18T13:09:45.291Z</time></trkpt><trkpt lat="41.5182568" lon="12.8457063"><ele>27.75</ele><time>2026-04-18T13:09:47.29Z</time></trkpt><trkpt lat="41.5183843" lon="12.8458779"><ele>28.0</ele><time>2026-04-18T13:09:50.291Z</time></trkpt><trkpt lat="41.5184684" lon="12.8459929"><ele>27.599999999999998</ele><time>2026-04-18T13:09:52.29Z</time></trkpt><trkpt lat="41.5185348" lon="12.8461051"><ele>27.199999999999996</ele><time>2026-04-18T13:09:54.29Z</time></trkpt><trkpt lat="41.5186172" lon="12.8462343"><ele>26.8</ele><time>2026-04-18T13:09:56.291Z</time></trkpt><trkpt lat="41.5187117" lon="12.8463671"><ele>26.4</ele><time>2026-04-18T13:09:58.291Z</time></trkpt><trkpt lat="41.5187597" lon="12.8464325"><ele>26.0</ele><time>2026-04-18T13:09:59.29Z</time></trkpt><trkpt lat="41.5188109" lon="12.8464929"><ele>26.0</ele><time>2026-04-18T13:10:00.291Z</time></trkpt><trkpt lat="41.5189093" lon="12.8466298"><ele>26.0</ele><time>2026-04-18T13:10:02.29Z</time></trkpt><trkpt lat="41.5189662" lon="12.8466927"><ele>26.0</ele><time>2026-04-18T13:10:03.29Z</time></trkpt><trkpt lat="41.5190713" lon="12.8468012"><ele>26.0</ele><time>2026-04-18T13:10:05.29Z</time></trkpt><trkpt lat="41.5191246" lon="12.8468673"><ele>26.0</ele><time>2026-04-18T13:10:06.29Z</time></trkpt><trkpt lat="41.5192181" lon="12.846992"><ele>26.499999999999996</ele><time>2026-04-18T13:10:08.291Z</time></trkpt><trkpt lat="41.5192605" lon="12.8470568"><ele>27.0</ele><time>2026-04-18T13:10:09.29Z</time></trkpt><trkpt lat="41.519308" lon="12.8471195"><ele>27.5</ele><time>2026-04-18T13:10:10.291Z</time></trkpt><trkpt lat="41.5193558" lon="12.8471848"><ele>28.0</ele><time>2026-04-18T13:10:11.291Z</time></trkpt><trkpt lat="41.5194052" lon="12.8472476"><ele>28.499999999999996</ele><time>2026-04-18T13:10:12.29Z</time></trkpt><trkpt lat="41.5194743" lon="12.8472985"><ele>29.0</ele><time>2026-04-18T13:10:13.291Z</time></trkpt><trkpt lat="41.5195507" lon="12.8474065"><ele>29.0</ele><time>2026-04-18T13:10:15.291Z</time></trkpt><trkpt lat="41.5196284" lon="12.8475213"><ele>29.0</ele><time>2026-04-18T13:10:17.29Z</time></trkpt><trkpt lat="41.5197021" lon="12.8476319"><ele>29.0</ele><time>2026-04-18T13:10:19.29Z</time></trkpt><trkpt lat="41.5197792" lon="12.8477325"><ele>29.0</ele><time>2026-04-18T13:10:21.29Z</time></trkpt><trkpt lat="41.5198798" lon="12.8478733"><ele>28.666666666666664</ele><time>2026-04-18T13:10:24.29Z</time></trkpt><trkpt lat="41.5199419" lon="12.8479617"><ele>28.333333333333332</ele><time>2026-04-18T13:10:26.291Z</time></trkpt><trkpt lat="41.5200134" lon="12.8480653"><ele>28.0</ele><time>2026-04-18T13:10:28.291Z</time></trkpt><trkpt lat="41.5200725" lon="12.8481528"><ele>27.666666666666664</ele><time>2026-04-18T13:10:30.291Z</time></trkpt><trkpt lat="41.5201284" lon="12.8482209"><ele>27.333333333333332</ele><time>2026-04-18T13:10:32.29Z</time></trkpt><trkpt lat="41.5201963" lon="12.8482731"><ele>27.0</ele><time>2026-04-18T13:10:34.291Z</time></trkpt><trkpt lat="41.5202568" lon="12.8483304"><ele>27.0</ele><time>2026-04-18T13:10:36.29Z</time></trkpt><trkpt lat="41.5203529" lon="12.8484454"><ele>27.000000000000004</ele><time>2026-04-18T13:10:39.29Z</time></trkpt><trkpt lat="41.5204165" lon="12.8485175"><ele>27.000000000000004</ele><time>2026-04-18T13:10:41.29Z</time></trkpt><trkpt lat="41.5204725" lon="12.8485909"><ele>27.0</ele><time>2026-04-18T13:10:43.291Z</time></trkpt><trkpt lat="41.5205525" lon="12.8487225"><ele>27.0</ele><time>2026-04-18T13:10:46.291Z</time></trkpt><trkpt lat="41.5206112" lon="12.8488108"><ele>27.400000000000002</ele><time>2026-04-18T13:10:48.291Z</time></trkpt><trkpt lat="41.5207042" lon="12.848936"><ele>27.800000000000004</ele><time>2026-04-18T13:10:51.291Z</time></trkpt><trkpt lat="41.5207565" lon="12.8490212"><ele>28.2</ele><time>2026-04-18T13:10:53.29Z</time></trkpt><trkpt lat="41.5208115" lon="12.8490862"><ele>28.6</ele><time>2026-04-18T13:10:55.291Z</time></trkpt><trkpt lat="41.5208686" lon="12.8491419"><ele>29.0</ele><time>2026-04-18T13:10:57.29Z</time></trkpt><trkpt lat="41.5209606" lon="12.849278"><ele>29.0</ele><time>2026-04-18T13:11:00.29Z</time></trkpt><trkpt lat="41.521018" lon="12.8493567"><ele>29.0</ele><time>2026-04-18T13:11:02.29Z</time></trkpt><trkpt lat="41.5210747" lon="12.8494325"><ele>29.0</ele><time>2026-04-18T13:11:04.291Z</time></trkpt><trkpt lat="41.5211325" lon="12.8495172"><ele>29.0</ele><time>2026-04-18T13:11:06.291Z</time></trkpt><trkpt lat="41.5211996" lon="12.8495958"><ele>29.0</ele><time>2026-04-18T13:11:08.291Z</time></trkpt><trkpt lat="41.5212853" lon="12.8496927"><ele>28.2</ele><time>2026-04-18T13:11:10.29Z</time></trkpt><trkpt lat="41.5213631" lon="12.8497982"><ele>27.4</ele><time>2026-04-18T13:11:12.29Z</time></trkpt><trkpt lat="41.521429" lon="12.8498944"><ele>26.6</ele><time>2026-04-18T13:11:14.291Z</time></trkpt><trkpt lat="41.5215071" lon="12.8499679"><ele>25.8</ele><time>2026-04-18T13:11:16.29Z</time></trkpt><trkpt lat="41.5215633" lon="12.8500427"><ele>25.0</ele><time>2026-04-18T13:11:18.29Z</time></trkpt><trkpt lat="41.5216181" lon="12.8501236"><ele>25.333333333333336</ele><time>2026-04-18T13:11:20.29Z</time></trkpt><trkpt lat="41.5216796" lon="12.8501692"><ele>25.666666666666668</ele><time>2026-04-18T13:11:22.29Z</time></trkpt><trkpt lat="41.5217441" lon="12.8502519"><ele>26.0</ele><time>2026-04-18T13:11:24.291Z</time></trkpt><trkpt lat="41.5218045" lon="12.850336"><ele>26.333333333333336</ele><time>2026-04-18T13:11:26.291Z</time></trkpt><trkpt lat="41.5218484" lon="12.8504183"><ele>26.666666666666668</ele><time>2026-04-18T13:11:28.29Z</time></trkpt><trkpt lat="41.5219058" lon="12.850469"><ele>27.0</ele><time>2026-04-18T13:11:30.291Z</time></trkpt><trkpt lat="41.5219806" lon="12.8505504"><ele>27.0</ele><time>2026-04-18T13:11:32.291Z</time></trkpt><trkpt lat="41.5220318" lon="12.8506378"><ele>27.000000000000004</ele><time>2026-04-18T13:11:35.291Z</time></trkpt><trkpt lat="41.5221298" lon="12.8507582"><ele>27.000000000000004</ele><time>2026-04-18T13:11:38.291Z</time></trkpt><trkpt lat="41.5221872" lon="12.8508545"><ele>27.0</ele><time>2026-04-18T13:11:40.29Z</time></trkpt><trkpt lat="41.5222526" lon="12.8509405"><ele>27.0</ele><time>2026-04-18T13:11:42.29Z</time></trkpt><trkpt lat="41.522336" lon="12.8510395"><ele>27.8</ele><time>2026-04-18T13:11:44.29Z</time></trkpt><trkpt lat="41.5224021" lon="12.8511254"><ele>28.6</ele><time>2026-04-18T13:11:46.29Z</time></trkpt><trkpt lat="41.5224891" lon="12.8512298"><ele>29.400000000000002</ele><time>2026-04-18T13:11:48.29Z</time></trkpt><trkpt lat="41.5225714" lon="12.851317"><ele>30.200000000000003</ele><time>2026-04-18T13:11:50.29Z</time></trkpt><trkpt lat="41.5226755" lon="12.8514201"><ele>31.0</ele><time>2026-04-18T13:11:52.29Z</time></trkpt><trkpt lat="41.5227598" lon="12.8515273"><ele>31.0</ele><time>2026-04-18T13:11:54.29Z</time></trkpt><trkpt lat="41.5228383" lon="12.8516387"><ele>31.0</ele><time>2026-04-18T13:11:56.29Z</time></trkpt><trkpt lat="41.5229406" lon="12.8517361"><ele>31.0</ele><time>2026-04-18T13:11:58.29Z</time></trkpt><trkpt lat="41.5230371" lon="12.8518419"><ele>31.0</ele><time>2026-04-18T13:12:00.29Z</time></trkpt><trkpt lat="41.523111" lon="12.8519455"><ele>30.4</ele><time>2026-04-18T13:12:02.29Z</time></trkpt><trkpt lat="41.523183" lon="12.8520586"><ele>29.8</ele><time>2026-04-18T13:12:04.291Z</time></trkpt><trkpt lat="41.5232769" lon="12.8521656"><ele>29.199999999999996</ele><time>2026-04-18T13:12:06.29Z</time></trkpt><trkpt lat="41.5233449" lon="12.8522575"><ele>28.599999999999998</ele><time>2026-04-18T13:12:08.291Z</time></trkpt><trkpt lat="41.5234106" lon="12.852359"><ele>28.0</ele><time>2026-04-18T13:12:10.29Z</time></trkpt><trkpt lat="41.5235048" lon="12.8525211"><ele>28.0</ele><time>2026-04-18T13:12:13.291Z</time></trkpt><trkpt lat="41.5235653" lon="12.8526226"><ele>27.999999999999996</ele><time>2026-04-18T13:12:15.291Z</time></trkpt><trkpt lat="41.5236389" lon="12.8527136"><ele>27.999999999999996</ele><time>2026-04-18T13:12:17.291Z</time></trkpt><trkpt lat="41.5237095" lon="12.8528002"><ele>28.0</ele><time>2026-04-18T13:12:19.29Z</time></trkpt><trkpt lat="41.5237585" lon="12.8529578"><ele>28.0</ele><time>2026-04-18T13:12:21.29Z</time></trkpt><trkpt lat="41.5237983" lon="12.8531018"><ele>28.2</ele><time>2026-04-18T13:12:23.291Z</time></trkpt><trkpt lat="41.5238537" lon="12.8532554"><ele>28.4</ele><time>2026-04-18T13:12:25.29Z</time></trkpt><trkpt lat="41.5238835" lon="12.8533896"><ele>28.599999999999998</ele><time>2026-04-18T13:12:27.29Z</time></trkpt><trkpt lat="41.5238998" lon="12.8535289"><ele>28.799999999999997</ele><time>2026-04-18T13:12:29.29Z</time></trkpt><trkpt lat="41.5239542" lon="12.8536406"><ele>29.0</ele><time>2026-04-18T13:12:31.29Z</time></trkpt><trkpt lat="41.5240303" lon="12.8537411"><ele>29.0</ele><time>2026-04-18T13:12:33.29Z</time></trkpt><trkpt lat="41.5241426" lon="12.8538888"><ele>29.0</ele><time>2026-04-18T13:12:36.29Z</time></trkpt><trkpt lat="41.524206" lon="12.8539863"><ele>29.0</ele><time>2026-04-18T13:12:38.291Z</time></trkpt><trkpt lat="41.5242729" lon="12.8540818"><ele>29.0</ele><time>2026-04-18T13:12:40.291Z</time></trkpt><trkpt lat="41.5243579" lon="12.8541843"><ele>29.0</ele><time>2026-04-18T13:12:42.291Z</time></trkpt><trkpt lat="41.5244548" lon="12.85429"><ele>29.0</ele><time>2026-04-18T13:12:44.29Z</time></trkpt><trkpt lat="41.5245756" lon="12.8544415"><ele>29.0</ele><time>2026-04-18T13:12:46.29Z</time></trkpt><trkpt lat="41.524639" lon="12.8545259"><ele>29.0</ele><time>2026-04-18T13:12:47.291Z</time></trkpt><trkpt lat="41.5247011" lon="12.8546259"><ele>29.2</ele><time>2026-04-18T13:12:48.291Z</time></trkpt><trkpt lat="41.5248312" lon="12.8547982"><ele>29.4</ele><time>2026-04-18T13:12:50.29Z</time></trkpt><trkpt lat="41.5248952" lon="12.8548707"><ele>29.6</ele><time>2026-04-18T13:12:51.291Z</time></trkpt><trkpt lat="41.524956" lon="12.8549541"><ele>29.8</ele><time>2026-04-18T13:12:52.29Z</time></trkpt><trkpt lat="41.525011" lon="12.8550463"><ele>30.0</ele><time>2026-04-18T13:12:53.29Z</time></trkpt><trkpt lat="41.5250592" lon="12.8551273"><ele>30.2</ele><time>2026-04-18T13:12:54.291Z</time></trkpt><trkpt lat="41.525114" lon="12.8551997"><ele>30.4</ele><time>2026-04-18T13:12:55.29Z</time></trkpt><trkpt lat="41.525166" lon="12.8552733"><ele>30.6</ele><time>2026-04-18T13:12:56.29Z</time></trkpt><trkpt lat="41.5252225" lon="12.8553554"><ele>30.8</ele><time>2026-04-18T13:12:57.29Z</time></trkpt><trkpt lat="41.5253354" lon="12.8555261"><ele>31.0</ele><time>2026-04-18T13:12:59.291Z</time></trkpt><trkpt lat="41.5254534" lon="12.8556738"><ele>31.25</ele><time>2026-04-18T13:13:01.291Z</time></trkpt><trkpt lat="41.5255653" lon="12.855835"><ele>31.5</ele><time>2026-04-18T13:13:03.29Z</time></trkpt><trkpt lat="41.5256317" lon="12.8559654"><ele>31.75</ele><time>2026-04-18T13:13:04.291Z</time></trkpt><trkpt lat="41.5257466" lon="12.8561119"><ele>32.0</ele><time>2026-04-18T13:13:06.291Z</time></trkpt><trkpt lat="41.5258028" lon="12.8561883"><ele>32.0</ele><time>2026-04-18T13:13:07.291Z</time></trkpt><trkpt lat="41.5259075" lon="12.8563152"><ele>32.0</ele><time>2026-04-18T13:13:09.29Z</time></trkpt><trkpt lat="41.52601" lon="12.8564578"><ele>32.0</ele><time>2026-04-18T13:13:11.291Z</time></trkpt><trkpt lat="41.5260949" lon="12.8565871"><ele>32.0</ele><time>2026-04-18T13:13:13.291Z</time></trkpt><trkpt lat="41.5261894" lon="12.8567231"><ele>31.833333333333332</ele><time>2026-04-18T13:13:15.291Z</time></trkpt><trkpt lat="41.5262448" lon="12.8567809"><ele>31.666666666666664</ele><time>2026-04-18T13:13:16.29Z</time></trkpt><trkpt lat="41.5262969" lon="12.8568411"><ele>31.5</ele><time>2026-04-18T13:13:17.29Z</time></trkpt><trkpt lat="41.5263537" lon="12.8568959"><ele>31.333333333333336</ele><time>2026-04-18T13:13:18.291Z</time></trkpt><trkpt lat="41.5263998" lon="12.8569539"><ele>31.166666666666668</ele><time>2026-04-18T13:13:19.291Z</time></trkpt><trkpt lat="41.5265025" lon="12.8570558"><ele>31.0</ele><time>2026-04-18T13:13:21.29Z</time></trkpt><trkpt lat="41.5266215" lon="12.8571633"><ele>31.666666666666668</ele><time>2026-04-18T13:13:23.291Z</time></trkpt><trkpt lat="41.5266833" lon="12.8572202"><ele>32.333333333333336</ele><time>2026-04-18T13:13:24.29Z</time></trkpt><trkpt lat="41.5268075" lon="12.8573221"><ele>33.0</ele><time>2026-04-18T13:13:26.291Z</time></trkpt><trkpt lat="41.5268622" lon="12.8573731"><ele>33.666666666666664</ele><time>2026-04-18T13:13:27.29Z</time></trkpt><trkpt lat="41.5269194" lon="12.8574166"><ele>34.33333333333333</ele><time>2026-04-18T13:13:28.291Z</time></trkpt><trkpt lat="41.526977" lon="12.8574533"><ele>35.0</ele><time>2026-04-18T13:13:29.29Z</time></trkpt><trkpt lat="41.5270424" lon="12.857489"><ele>35.0</ele><time>2026-04-18T13:13:30.291Z</time></trkpt><trkpt lat="41.5271046" lon="12.8575336"><ele>35.0</ele><time>2026-04-18T13:13:31.29Z</time></trkpt><trkpt lat="41.5271649" lon="12.8575756"><ele>35.0</ele><time>2026-04-18T13:13:32.291Z</time></trkpt><trkpt lat="41.5272926" lon="12.8576363"><ele>35.0</ele><time>2026-04-18T13:13:34.29Z</time></trkpt><trkpt lat="41.5274199" lon="12.8576979"><ele>35.0</ele><time>2026-04-18T13:13:36.291Z</time></trkpt><trkpt lat="41.5275432" lon="12.8577541"><ele>35.0</ele><time>2026-04-18T13:13:38.291Z</time></trkpt><trkpt lat="41.5276638" lon="12.8578141"><ele>35.0</ele><time>2026-04-18T13:13:40.291Z</time></trkpt><trkpt lat="41.5277215" lon="12.857858"><ele>35.0</ele><time>2026-04-18T13:13:41.29Z</time></trkpt><trkpt lat="41.5277908" lon="12.8578965"><ele>35.0</ele><time>2026-04-18T13:13:42.291Z</time></trkpt><trkpt lat="41.527924" lon="12.8579671"><ele>35.0</ele><time>2026-04-18T13:13:44.29Z</time></trkpt><trkpt lat="41.5280701" lon="12.8580457"><ele>34.75</ele><time>2026-04-18T13:13:46.29Z</time></trkpt><trkpt lat="41.528215" lon="12.8581204"><ele>34.5</ele><time>2026-04-18T13:13:48.291Z</time></trkpt><trkpt lat="41.5282872" lon="12.8581556"><ele>34.25</ele><time>2026-04-18T13:13:49.29Z</time></trkpt><trkpt lat="41.5284358" lon="12.8582217"><ele>34.0</ele><time>2026-04-18T13:13:51.291Z</time></trkpt><trkpt lat="41.5285791" lon="12.8582884"><ele>34.0</ele><time>2026-04-18T13:13:53.291Z</time></trkpt><trkpt lat="41.5286491" lon="12.8583191"><ele>34.0</ele><time>2026-04-18T13:13:54.29Z</time></trkpt><trkpt lat="41.5287219" lon="12.8583607"><ele>34.0</ele><time>2026-04-18T13:13:55.291Z</time></trkpt><trkpt lat="41.5287945" lon="12.858398"><ele>34.0</ele><time>2026-04-18T13:13:56.291Z</time></trkpt><trkpt lat="41.5288676" lon="12.8584327"><ele>34.0</ele><time>2026-04-18T13:13:57.291Z</time></trkpt><trkpt lat="41.5289426" lon="12.8584647"><ele>34.0</ele><time>2026-04-18T13:13:58.291Z</time></trkpt><trkpt lat="41.5290195" lon="12.8585034"><ele>33.6</ele><time>2026-04-18T13:13:59.29Z</time></trkpt><trkpt lat="41.5290983" lon="12.8585353"><ele>33.2</ele><time>2026-04-18T13:14:00.29Z</time></trkpt><trkpt lat="41.5291685" lon="12.8585844"><ele>32.800000000000004</ele><time>2026-04-18T13:14:01.29Z</time></trkpt><trkpt lat="41.5292432" lon="12.8586156"><ele>32.4</ele><time>2026-04-18T13:14:02.29Z</time></trkpt><trkpt lat="41.5293108" lon="12.8586517"><ele>32.0</ele><time>2026-04-18T13:14:03.29Z</time></trkpt><trkpt lat="41.5294467" lon="12.8587201"><ele>32.166666666666664</ele><time>2026-04-18T13:14:05.29Z</time></trkpt><trkpt lat="41.5295833" lon="12.8587909"><ele>32.33333333333333</ele><time>2026-04-18T13:14:07.29Z</time></trkpt><trkpt lat="41.5296478" lon="12.8588295"><ele>32.5</ele><time>2026-04-18T13:14:08.29Z</time></trkpt><trkpt lat="41.5297073" lon="12.8588666"><ele>32.666666666666664</ele><time>2026-04-18T13:14:09.291Z</time></trkpt><trkpt lat="41.529766" lon="12.8589052"><ele>32.833333333333336</ele><time>2026-04-18T13:14:10.291Z</time></trkpt><trkpt lat="41.529835" lon="12.8589359"><ele>33.0</ele><time>2026-04-18T13:14:11.29Z</time></trkpt><trkpt lat="41.529983" lon="12.8590054"><ele>33.0</ele><time>2026-04-18T13:14:13.29Z</time></trkpt><trkpt lat="41.5301219" lon="12.8590727"><ele>33.0</ele><time>2026-04-18T13:14:15.29Z</time></trkpt><trkpt lat="41.5302693" lon="12.8591396"><ele>33.0</ele><time>2026-04-18T13:14:17.291Z</time></trkpt><trkpt lat="41.530406" lon="12.8591984"><ele>33.0</ele><time>2026-04-18T13:14:19.29Z</time></trkpt><trkpt lat="41.5304756" lon="12.8592417"><ele>33.0</ele><time>2026-04-18T13:14:20.29Z</time></trkpt><trkpt lat="41.53061" lon="12.8592991"><ele>33.0</ele><time>2026-04-18T13:14:22.291Z</time></trkpt><trkpt lat="41.5306747" lon="12.8593317"><ele>33.0</ele><time>2026-04-18T13:14:23.29Z</time></trkpt><trkpt lat="41.5308065" lon="12.8593968"><ele>33.0</ele><time>2026-04-18T13:14:25.291Z</time></trkpt><trkpt lat="41.5308638" lon="12.8594326"><ele>33.0</ele><time>2026-04-18T13:14:26.29Z</time></trkpt><trkpt lat="41.5309841" lon="12.8594877"><ele>33.0</ele><time>2026-04-18T13:14:28.29Z</time></trkpt><trkpt lat="41.5310466" lon="12.8595209"><ele>33.0</ele><time>2026-04-18T13:14:29.291Z</time></trkpt><trkpt lat="41.531107" lon="12.8595487"><ele>33.0</ele><time>2026-04-18T13:14:30.29Z</time></trkpt><trkpt lat="41.5312178" lon="12.8595954"><ele>33.0</ele><time>2026-04-18T13:14:32.291Z</time></trkpt><trkpt lat="41.5313016" lon="12.8596369"><ele>33.0</ele><time>2026-04-18T13:14:34.29Z</time></trkpt><trkpt lat="41.53143" lon="12.8596349"><ele>32.8</ele><time>2026-04-18T13:14:38.291Z</time></trkpt><trkpt lat="41.5314817" lon="12.8595657"><ele>32.599999999999994</ele><time>2026-04-18T13:15:34.291Z</time></trkpt><trkpt lat="41.5315235" lon="12.8594888"><ele>32.400000000000006</ele><time>2026-04-18T13:15:37.29Z</time></trkpt><trkpt lat="41.5316207" lon="12.8593825"><ele>32.2</ele><time>2026-04-18T13:15:41.29Z</time></trkpt><trkpt lat="41.5317135" lon="12.8594211"><ele>32.0</ele><time>2026-04-18T13:15:43.291Z</time></trkpt><trkpt lat="41.5317926" lon="12.8594708"><ele>31.999999999999996</ele><time>2026-04-18T13:15:45.29Z</time></trkpt><trkpt lat="41.5318584" lon="12.8595253"><ele>32.0</ele><time>2026-04-18T13:15:47.29Z</time></trkpt><trkpt lat="41.5319289" lon="12.8595496"><ele>32.0</ele><time>2026-04-18T13:15:49.291Z</time></trkpt><trkpt lat="41.5319905" lon="12.859576"><ele>32.0</ele><time>2026-04-18T13:15:51.29Z</time></trkpt><trkpt lat="41.5320746" lon="12.8596031"><ele>31.999999999999996</ele><time>2026-04-18T13:15:54.291Z</time></trkpt><trkpt lat="41.5321555" lon="12.8596161"><ele>32.0</ele><time>2026-04-18T13:15:57.29Z</time></trkpt><trkpt lat="41.5322246" lon="12.8596791"><ele>31.999999999999996</ele><time>2026-04-18T13:16:00.291Z</time></trkpt><trkpt lat="41.5322682" lon="12.859744"><ele>32.0</ele><time>2026-04-18T13:18:20.29Z</time></trkpt><trkpt lat="41.5321935" lon="12.8596996"><ele>32.0</ele><time>2026-04-18T13:18:23.29Z</time></trkpt><trkpt lat="41.5321015" lon="12.8596435"><ele>32.0</ele><time>2026-04-18T13:18:27.29Z</time></trkpt><trkpt lat="41.5320116" lon="12.8597323"><ele>31.999999999999996</ele><time>2026-04-18T13:18:29.29Z</time></trkpt><trkpt lat="41.5319364" lon="12.8597874"><ele>32.0</ele><time>2026-04-18T13:18:31.291Z</time></trkpt><trkpt lat="41.5318697" lon="12.8597539"><ele>32.0</ele><time>2026-04-18T13:18:33.29Z</time></trkpt><trkpt lat="41.531818" lon="12.8596913"><ele>32.0</ele><time>2026-04-18T13:18:35.29Z</time></trkpt><trkpt lat="41.5317562" lon="12.8595275"><ele>32.0</ele><time>2026-04-18T13:18:38.291Z</time></trkpt><trkpt lat="41.5316935" lon="12.8594552"><ele>32.0</ele><time>2026-04-18T13:18:40.291Z</time></trkpt><trkpt lat="41.5315982" lon="12.8594184"><ele>32.0</ele><time>2026-04-18T13:18:42.291Z</time></trkpt><trkpt lat="41.531489" lon="12.8593851"><ele>31.999999999999996</ele><time>2026-04-18T13:18:44.291Z</time></trkpt><trkpt lat="41.5313926" lon="12.8593516"><ele>32.0</ele><time>2026-04-18T13:18:46.29Z</time></trkpt><trkpt lat="41.531311" lon="12.8593122"><ele>32.0</ele><time>2026-04-18T13:18:48.29Z</time></trkpt><trkpt lat="41.5312506" lon="12.859275"><ele>32.0</ele><time>2026-04-18T13:18:50.291Z</time></trkpt><trkpt lat="41.5311964" lon="12.8592178"><ele>31.999999999999996</ele><time>2026-04-18T13:18:53.29Z</time></trkpt><trkpt lat="41.5312192" lon="12.8591362"><ele>32.0</ele><time>2026-04-18T13:18:56.291Z</time></trkpt><trkpt lat="41.5312414" lon="12.8590575"><ele>31.8</ele><time>2026-04-18T13:18:58.291Z</time></trkpt><trkpt lat="41.5312955" lon="12.8588642"><ele>31.6</ele><time>2026-04-18T13:19:01.291Z</time></trkpt><trkpt lat="41.5312876" lon="12.858773"><ele>31.400000000000002</ele><time>2026-04-18T13:19:03.29Z</time></trkpt><trkpt lat="41.5312085" lon="12.8587941"><ele>31.200000000000003</ele><time>2026-04-18T13:19:06.291Z</time></trkpt><trkpt lat="41.5311518" lon="12.8588512"><ele>31.0</ele><time>2026-04-18T13:19:09.291Z</time></trkpt><trkpt lat="41.53103" lon="12.8589407"><ele>31.0</ele><time>2026-04-18T13:19:12.29Z</time></trkpt><trkpt lat="41.5309351" lon="12.8589149"><ele>31.0</ele><time>2026-04-18T13:19:15.29Z</time></trkpt><trkpt lat="41.530864" lon="12.8588454"><ele>31.0</ele><time>2026-04-18T13:19:17.29Z</time></trkpt><trkpt lat="41.5307946" lon="12.8587634"><ele>31.0</ele><time>2026-04-18T13:19:19.29Z</time></trkpt><trkpt lat="41.530704" lon="12.8586939"><ele>31.0</ele><time>2026-04-18T13:19:21.29Z</time></trkpt><trkpt lat="41.5306191" lon="12.8586454"><ele>31.0</ele><time>2026-04-18T13:19:23.29Z</time></trkpt><trkpt lat="41.5305289" lon="12.8586001"><ele>31.0</ele><time>2026-04-18T13:19:25.29Z</time></trkpt><trkpt lat="41.530447" lon="12.8585563"><ele>31.0</ele><time>2026-04-18T13:19:27.291Z</time></trkpt><trkpt lat="41.5303558" lon="12.8585199"><ele>31.0</ele><time>2026-04-18T13:19:29.291Z</time></trkpt><trkpt lat="41.5302503" lon="12.8584635"><ele>31.0</ele><time>2026-04-18T13:19:31.29Z</time></trkpt><trkpt lat="41.5301406" lon="12.8584133"><ele>30.6</ele><time>2026-04-18T13:19:33.29Z</time></trkpt><trkpt lat="41.5300361" lon="12.8583497"><ele>30.200000000000003</ele><time>2026-04-18T13:19:35.29Z</time></trkpt><trkpt lat="41.5299268" lon="12.8582931"><ele>29.799999999999997</ele><time>2026-04-18T13:19:37.291Z</time></trkpt><trkpt lat="41.529866" lon="12.8582605"><ele>29.4</ele><time>2026-04-18T13:19:38.29Z</time></trkpt><trkpt lat="41.5297474" lon="12.8582046"><ele>29.0</ele><time>2026-04-18T13:19:40.291Z</time></trkpt><trkpt lat="41.5296316" lon="12.8581395"><ele>29.0</ele><time>2026-04-18T13:19:42.291Z</time></trkpt><trkpt lat="41.5295688" lon="12.8581091"><ele>29.0</ele><time>2026-04-18T13:19:43.291Z</time></trkpt><trkpt lat="41.529449" lon="12.8580426"><ele>29.0</ele><time>2026-04-18T13:19:45.291Z</time></trkpt><trkpt lat="41.529284" lon="12.8579542"><ele>29.0</ele><time>2026-04-18T13:19:48.29Z</time></trkpt><trkpt lat="41.5291767" lon="12.8579064"><ele>29.2</ele><time>2026-04-18T13:19:50.291Z</time></trkpt><trkpt lat="41.52908" lon="12.8578614"><ele>29.4</ele><time>2026-04-18T13:19:52.291Z</time></trkpt><trkpt lat="41.5289835" lon="12.8578454"><ele>29.6</ele><time>2026-04-18T13:19:55.291Z</time></trkpt><trkpt lat="41.5289165" lon="12.8578594"><ele>29.8</ele><time>2026-04-18T13:20:03.29Z</time></trkpt><trkpt lat="41.5287973" lon="12.8577963"><ele>30.0</ele><time>2026-04-18T13:20:07.29Z</time></trkpt><trkpt lat="41.5287238" lon="12.8577636"><ele>30.166666666666668</ele><time>2026-04-18T13:20:09.291Z</time></trkpt><trkpt lat="41.5286632" lon="12.8577206"><ele>30.333333333333336</ele><time>2026-04-18T13:20:11.29Z</time></trkpt><trkpt lat="41.5286021" lon="12.8576763"><ele>30.5</ele><time>2026-04-18T13:20:15.29Z</time></trkpt><trkpt lat="41.5285369" lon="12.8576107"><ele>30.666666666666668</ele><time>2026-04-18T13:24:09.29Z</time></trkpt><trkpt lat="41.5284859" lon="12.8574979"><ele>30.833333333333336</ele><time>2026-04-18T13:24:11.291Z</time></trkpt><trkpt lat="41.5284348" lon="12.8574298"><ele>31.0</ele><time>2026-04-18T13:24:13.29Z</time></trkpt><trkpt lat="41.528368" lon="12.8573842"><ele>31.0</ele><time>2026-04-18T13:24:15.291Z</time></trkpt><trkpt lat="41.5283042" lon="12.8573631"><ele>31.0</ele><time>2026-04-18T13:24:17.291Z</time></trkpt><trkpt lat="41.5282418" lon="12.8573502"><ele>31.0</ele><time>2026-04-18T13:24:19.29Z</time></trkpt><trkpt lat="41.5281263" lon="12.8573474"><ele>31.0</ele><time>2026-04-18T13:24:22.29Z</time></trkpt><trkpt lat="41.5280147" lon="12.8573503"><ele>31.0</ele><time>2026-04-18T13:24:24.29Z</time></trkpt><trkpt lat="41.5279172" lon="12.8573095"><ele>31.500000000000004</ele><time>2026-04-18T13:24:26.291Z</time></trkpt><trkpt lat="41.5278382" lon="12.8572668"><ele>32.0</ele><time>2026-04-18T13:24:28.29Z</time></trkpt><trkpt lat="41.5277546" lon="12.8572263"><ele>32.5</ele><time>2026-04-18T13:24:30.29Z</time></trkpt><trkpt lat="41.5276805" lon="12.857181"><ele>33.0</ele><time>2026-04-18T13:24:32.291Z</time></trkpt><trkpt lat="41.527616" lon="12.8571355"><ele>33.5</ele><time>2026-04-18T13:24:34.291Z</time></trkpt><trkpt lat="41.5275622" lon="12.8570798"><ele>34.0</ele><time>2026-04-18T13:24:37.291Z</time></trkpt><trkpt lat="41.5274973" lon="12.8570621"><ele>33.99999999999999</ele><time>2026-04-18T13:24:40.291Z</time></trkpt><trkpt lat="41.5274348" lon="12.857051"><ele>34.0</ele><time>2026-04-18T13:24:42.29Z</time></trkpt><trkpt lat="41.5273705" lon="12.8570307"><ele>34.0</ele><time>2026-04-18T13:24:44.291Z</time></trkpt><trkpt lat="41.5272831" lon="12.8569706"><ele>34.0</ele><time>2026-04-18T13:24:47.29Z</time></trkpt><trkpt lat="41.5272238" lon="12.8569191"><ele>34.0</ele><time>2026-04-18T13:24:49.291Z</time></trkpt><trkpt lat="41.5271683" lon="12.8568743"><ele>33.99999999999999</ele><time>2026-04-18T13:24:51.29Z</time></trkpt><trkpt lat="41.5271092" lon="12.8568235"><ele>34.0</ele><time>2026-04-18T13:24:53.29Z</time></trkpt><trkpt lat="41.5270539" lon="12.8567734"><ele>33.5</ele><time>2026-04-18T13:24:55.29Z</time></trkpt><trkpt lat="41.5270014" lon="12.8567261"><ele>33.0</ele><time>2026-04-18T13:24:57.29Z</time></trkpt><trkpt lat="41.5269461" lon="12.8566763"><ele>32.5</ele><time>2026-04-18T13:24:59.29Z</time></trkpt><trkpt lat="41.5268817" lon="12.8566244"><ele>32.0</ele><time>2026-04-18T13:25:01.291Z</time></trkpt><trkpt lat="41.5268238" lon="12.8565427"><ele>31.500000000000004</ele><time>2026-04-18T13:25:03.29Z</time></trkpt><trkpt lat="41.5267545" lon="12.8564786"><ele>31.0</ele><time>2026-04-18T13:25:05.29Z</time></trkpt><trkpt lat="41.5266857" lon="12.8564101"><ele>31.0</ele><time>2026-04-18T13:25:07.29Z</time></trkpt><trkpt lat="41.5266235" lon="12.856332"><ele>31.0</ele><time>2026-04-18T13:25:09.291Z</time></trkpt><trkpt lat="41.5265085" lon="12.8561959"><ele>31.0</ele><time>2026-04-18T13:25:12.29Z</time></trkpt><trkpt lat="41.5264308" lon="12.8561105"><ele>31.0</ele><time>2026-04-18T13:25:14.29Z</time></trkpt><trkpt lat="41.5263465" lon="12.8560056"><ele>31.200000000000003</ele><time>2026-04-18T13:25:16.291Z</time></trkpt><trkpt lat="41.5262869" lon="12.8559218"><ele>31.400000000000002</ele><time>2026-04-18T13:25:18.291Z</time></trkpt><trkpt lat="41.5262236" lon="12.8558532"><ele>31.6</ele><time>2026-04-18T13:25:20.291Z</time></trkpt><trkpt lat="41.5261674" lon="12.8557786"><ele>31.8</ele><time>2026-04-18T13:25:22.29Z</time></trkpt><trkpt lat="41.5260849" lon="12.8556572"><ele>32.0</ele><time>2026-04-18T13:25:24.29Z</time></trkpt><trkpt lat="41.5260061" lon="12.8555479"><ele>31.400000000000002</ele><time>2026-04-18T13:25:26.29Z</time></trkpt><trkpt lat="41.5259402" lon="12.8554118"><ele>30.800000000000004</ele><time>2026-04-18T13:25:28.29Z</time></trkpt><trkpt lat="41.5258622" lon="12.8553169"><ele>30.2</ele><time>2026-04-18T13:25:30.29Z</time></trkpt><trkpt lat="41.5257757" lon="12.8552383"><ele>29.6</ele><time>2026-04-18T13:25:32.29Z</time></trkpt><trkpt lat="41.525727" lon="12.855172"><ele>29.0</ele><time>2026-04-18T13:25:33.29Z</time></trkpt><trkpt lat="41.5256391" lon="12.8550618"><ele>29.0</ele><time>2026-04-18T13:25:35.29Z</time></trkpt><trkpt lat="41.5255592" lon="12.854958"><ele>29.0</ele><time>2026-04-18T13:25:37.29Z</time></trkpt><trkpt lat="41.5254558" lon="12.8547844"><ele>29.0</ele><time>2026-04-18T13:25:40.291Z</time></trkpt><trkpt lat="41.5253934" lon="12.8546637"><ele>29.0</ele><time>2026-04-18T13:25:42.29Z</time></trkpt><trkpt lat="41.5253263" lon="12.8545617"><ele>28.999999999999996</ele><time>2026-04-18T13:25:44.29Z</time></trkpt><trkpt lat="41.5252693" lon="12.8545074"><ele>29.0</ele><time>2026-04-18T13:25:45.291Z</time></trkpt><trkpt lat="41.525185" lon="12.854436"><ele>29.0</ele><time>2026-04-18T13:25:47.29Z</time></trkpt><trkpt lat="41.5251084" lon="12.8543649"><ele>29.0</ele><time>2026-04-18T13:25:49.291Z</time></trkpt><trkpt lat="41.5250708" lon="12.8542892"><ele>28.999999999999996</ele><time>2026-04-18T13:25:50.29Z</time></trkpt><trkpt lat="41.5249923" lon="12.8541844"><ele>29.0</ele><time>2026-04-18T13:25:52.291Z</time></trkpt><trkpt lat="41.5249035" lon="12.8540808"><ele>29.0</ele><time>2026-04-18T13:25:54.29Z</time></trkpt><trkpt lat="41.5248609" lon="12.8540188"><ele>29.0</ele><time>2026-04-18T13:25:55.29Z</time></trkpt><trkpt lat="41.5247758" lon="12.8539205"><ele>29.0</ele><time>2026-04-18T13:25:57.291Z</time></trkpt><trkpt lat="41.5246925" lon="12.8537944"><ele>29.0</ele><time>2026-04-18T13:25:59.29Z</time></trkpt><trkpt lat="41.5246095" lon="12.8536779"><ele>29.0</ele><time>2026-04-18T13:26:01.29Z</time></trkpt><trkpt lat="41.5245393" lon="12.8535902"><ele>29.0</ele><time>2026-04-18T13:26:03.291Z</time></trkpt><trkpt lat="41.5244793" lon="12.8534652"><ele>29.0</ele><time>2026-04-18T13:26:05.29Z</time></trkpt><trkpt lat="41.5243967" lon="12.853337"><ele>29.0</ele><time>2026-04-18T13:26:07.29Z</time></trkpt><trkpt lat="41.5243503" lon="12.8532666"><ele>29.0</ele><time>2026-04-18T13:26:08.291Z</time></trkpt><trkpt lat="41.5242995" lon="12.8531961"><ele>29.0</ele><time>2026-04-18T13:26:09.29Z</time></trkpt><trkpt lat="41.5242443" lon="12.8531267"><ele>28.999999999999996</ele><time>2026-04-18T13:26:10.29Z</time></trkpt><trkpt lat="41.5241884" lon="12.853066"><ele>29.0</ele><time>2026-04-18T13:26:11.29Z</time></trkpt><trkpt lat="41.5241345" lon="12.8529993"><ele>29.0</ele><time>2026-04-18T13:26:12.291Z</time></trkpt><trkpt lat="41.5240811" lon="12.8529192"><ele>29.0</ele><time>2026-04-18T13:26:13.29Z</time></trkpt><trkpt lat="41.5240367" lon="12.8528529"><ele>28.999999999999996</ele><time>2026-04-18T13:26:14.29Z</time></trkpt><trkpt lat="41.5239497" lon="12.8527535"><ele>29.0</ele><time>2026-04-18T13:26:16.29Z</time></trkpt><trkpt lat="41.5238772" lon="12.8526494"><ele>29.000000000000004</ele><time>2026-04-18T13:26:18.291Z</time></trkpt><trkpt lat="41.5238213" lon="12.8525956"><ele>29.0</ele><time>2026-04-18T13:26:20.29Z</time></trkpt><trkpt lat="41.5237639" lon="12.8525466"><ele>29.000000000000004</ele><time>2026-04-18T13:26:24.291Z</time></trkpt><trkpt lat="41.523834" lon="12.852566"><ele>29.000000000000004</ele><time>2026-04-18T13:26:29.291Z</time></trkpt><trkpt lat="41.5238779" lon="12.8526433"><ele>29.0</ele><time>2026-04-18T13:26:54.29Z</time></trkpt><trkpt lat="41.5238309" lon="12.8525733"><ele>29.000000000000004</ele><time>2026-04-18T13:26:58.291Z</time></trkpt><trkpt lat="41.5237658" lon="12.8526377"><ele>29.000000000000004</ele><time>2026-04-18T13:27:02.291Z</time></trkpt><trkpt lat="41.5237055" lon="12.8527279"><ele>28.799999999999997</ele><time>2026-04-18T13:27:05.291Z</time></trkpt><trkpt lat="41.5236228" lon="12.8527675"><ele>28.599999999999998</ele><time>2026-04-18T13:27:08.29Z</time></trkpt><trkpt lat="41.5235538" lon="12.8527137"><ele>28.4</ele><time>2026-04-18T13:27:10.291Z</time></trkpt><trkpt lat="41.5235031" lon="12.8526058"><ele>28.2</ele><time>2026-04-18T13:27:12.291Z</time></trkpt><trkpt lat="41.5234547" lon="12.8525097"><ele>28.0</ele><time>2026-04-18T13:27:14.29Z</time></trkpt><trkpt lat="41.5233938" lon="12.852396"><ele>28.0</ele><time>2026-04-18T13:27:16.29Z</time></trkpt><trkpt lat="41.523291" lon="12.8522545"><ele>28.0</ele><time>2026-04-18T13:27:19.29Z</time></trkpt><trkpt lat="41.5232233" lon="12.852154"><ele>28.0</ele><time>2026-04-18T13:27:21.29Z</time></trkpt><trkpt lat="41.5231284" lon="12.8520259"><ele>28.0</ele><time>2026-04-18T13:27:24.29Z</time></trkpt><trkpt lat="41.5230312" lon="12.8519132"><ele>28.000000000000004</ele><time>2026-04-18T13:27:27.291Z</time></trkpt><trkpt lat="41.5229936" lon="12.8518365"><ele>28.0</ele><time>2026-04-18T13:27:29.291Z</time></trkpt><trkpt lat="41.5229375" lon="12.8517512"><ele>28.0</ele><time>2026-04-18T13:27:31.291Z</time></trkpt><trkpt lat="41.5228678" lon="12.8516781"><ele>28.0</ele><time>2026-04-18T13:27:33.29Z</time></trkpt><trkpt lat="41.5227867" lon="12.8516007"><ele>28.000000000000004</ele><time>2026-04-18T13:27:35.291Z</time></trkpt><trkpt lat="41.5227058" lon="12.8515147"><ele>28.0</ele><time>2026-04-18T13:27:37.29Z</time></trkpt><trkpt lat="41.5226017" lon="12.8513859"><ele>28.000000000000004</ele><time>2026-04-18T13:27:40.29Z</time></trkpt><trkpt lat="41.5225241" lon="12.8513042"><ele>28.0</ele><time>2026-04-18T13:27:42.29Z</time></trkpt><trkpt lat="41.5224429" lon="12.8512159"><ele>28.0</ele><time>2026-04-18T13:27:45.29Z</time></trkpt><trkpt lat="41.5225007" lon="12.8511442"><ele>28.0</ele><time>2026-04-18T13:27:52.29Z</time></trkpt><trkpt lat="41.522561" lon="12.8510754"><ele>28.000000000000004</ele><time>2026-04-18T13:27:56.291Z</time></trkpt><trkpt lat="41.5225358" lon="12.8509767"><ele>28.0</ele><time>2026-04-18T13:28:01.291Z</time></trkpt><trkpt lat="41.5224799" lon="12.850934"><ele>28.000000000000004</ele><time>2026-04-18T13:28:03.291Z</time></trkpt><trkpt lat="41.5224152" lon="12.8508608"><ele>28.0</ele><time>2026-04-18T13:28:06.291Z</time></trkpt><trkpt lat="41.5223568" lon="12.8507772"><ele>28.0</ele><time>2026-04-18T13:28:09.29Z</time></trkpt><trkpt lat="41.5222984" lon="12.8506835"><ele>28.0</ele><time>2026-04-18T13:28:12.29Z</time></trkpt><trkpt lat="41.5222405" lon="12.850602"><ele>28.000000000000004</ele><time>2026-04-18T13:28:15.291Z</time></trkpt><trkpt lat="41.5221971" lon="12.8505343"><ele>28.0</ele><time>2026-04-18T13:28:18.29Z</time></trkpt><trkpt lat="41.5221291" lon="12.8504456"><ele>28.0</ele><time>2026-04-18T13:28:21.29Z</time></trkpt><trkpt lat="41.5220746" lon="12.8503727"><ele>28.0</ele><time>2026-04-18T13:28:23.29Z</time></trkpt><trkpt lat="41.5220176" lon="12.8502967"><ele>28.0</ele><time>2026-04-18T13:28:25.29Z</time></trkpt><trkpt lat="41.521957" lon="12.8502299"><ele>28.0</ele><time>2026-04-18T13:28:27.291Z</time></trkpt><trkpt lat="41.5218979" lon="12.850161"><ele>28.0</ele><time>2026-04-18T13:28:29.29Z</time></trkpt><trkpt lat="41.5218423" lon="12.8501091"><ele>28.0</ele><time>2026-04-18T13:28:31.29Z</time></trkpt><trkpt lat="41.521787" lon="12.8500593"><ele>28.0</ele><time>2026-04-18T13:28:33.29Z</time></trkpt><trkpt lat="41.5217408" lon="12.8499988"><ele>27.571428571428573</ele><time>2026-04-18T13:28:35.29Z</time></trkpt><trkpt lat="41.5216957" lon="12.8499312"><ele>27.142857142857142</ele><time>2026-04-18T13:28:37.29Z</time></trkpt><trkpt lat="41.5216274" lon="12.8498643"><ele>26.714285714285715</ele><time>2026-04-18T13:28:40.29Z</time></trkpt><trkpt lat="41.5215672" lon="12.8497871"><ele>26.285714285714285</ele><time>2026-04-18T13:28:43.291Z</time></trkpt><trkpt lat="41.5215307" lon="12.8497179"><ele>25.857142857142858</ele><time>2026-04-18T13:28:45.29Z</time></trkpt><trkpt lat="41.5214763" lon="12.8496454"><ele>25.42857142857143</ele><time>2026-04-18T13:28:47.291Z</time></trkpt><trkpt lat="41.521424" lon="12.849579"><ele>25.0</ele><time>2026-04-18T13:28:49.29Z</time></trkpt><trkpt lat="41.5213739" lon="12.8495026"><ele>25.000000000000004</ele><time>2026-04-18T13:28:51.291Z</time></trkpt><trkpt lat="41.5213143" lon="12.8494173"><ele>25.0</ele><time>2026-04-18T13:28:54.291Z</time></trkpt><trkpt lat="41.5212672" lon="12.8493497"><ele>25.0</ele><time>2026-04-18T13:28:56.29Z</time></trkpt><trkpt lat="41.5212051" lon="12.8492792"><ele>25.0</ele><time>2026-04-18T13:28:59.363Z</time></trkpt><trkpt lat="41.5211417" lon="12.8491972"><ele>25.000000000000004</ele><time>2026-04-18T13:29:02.29Z</time></trkpt><trkpt lat="41.5210797" lon="12.8491169"><ele>25.0</ele><time>2026-04-18T13:29:05.29Z</time></trkpt><trkpt lat="41.5210445" lon="12.8490345"><ele>25.571428571428573</ele><time>2026-04-18T13:29:08.371Z</time></trkpt><trkpt lat="41.5209912" lon="12.848966"><ele>26.142857142857146</ele><time>2026-04-18T13:29:11.311Z</time></trkpt><trkpt lat="41.5209304" lon="12.8488962"><ele>26.714285714285715</ele><time>2026-04-18T13:29:13.311Z</time></trkpt><trkpt lat="41.5208787" lon="12.848831"><ele>27.28571428571429</ele><time>2026-04-18T13:29:15.209Z</time></trkpt><trkpt lat="41.5208285" lon="12.8487731"><ele>27.857142857142858</ele><time>2026-04-18T13:29:17.297Z</time></trkpt><trkpt lat="41.5207764" lon="12.8487209"><ele>28.428571428571434</ele><time>2026-04-18T13:29:19.33Z</time></trkpt><trkpt lat="41.5207049" lon="12.8486512"><ele>29.000000000000004</ele><time>2026-04-18T13:29:22.291Z</time></trkpt><trkpt lat="41.5206351" lon="12.8485662"><ele>28.999999999999996</ele><time>2026-04-18T13:29:25.29Z</time></trkpt><trkpt lat="41.5205793" lon="12.8485075"><ele>29.0</ele><time>2026-04-18T13:29:27.292Z</time></trkpt><trkpt lat="41.5204781" lon="12.8484091"><ele>29.0</ele><time>2026-04-18T13:29:31.355Z</time></trkpt><trkpt lat="41.5204175" lon="12.8483433"><ele>29.0</ele><time>2026-04-18T13:29:33.29Z</time></trkpt><trkpt lat="41.5203639" lon="12.84828"><ele>28.999999999999996</ele><time>2026-04-18T13:29:35.289Z</time></trkpt><trkpt lat="41.5203131" lon="12.8482032"><ele>29.0</ele><time>2026-04-18T13:29:37.291Z</time></trkpt><trkpt lat="41.5202721" lon="12.8481343"><ele>28.666666666666664</ele><time>2026-04-18T13:29:39.304Z</time></trkpt><trkpt lat="41.5202505" lon="12.8480536"><ele>28.333333333333332</ele><time>2026-04-18T13:29:41.291Z</time></trkpt><trkpt lat="41.5202143" lon="12.8479847"><ele>28.0</ele><time>2026-04-18T13:29:43.29Z</time></trkpt><trkpt lat="41.5201738" lon="12.8479063"><ele>27.666666666666664</ele><time>2026-04-18T13:29:45.343Z</time></trkpt><trkpt lat="41.5201137" lon="12.8478258"><ele>27.333333333333332</ele><time>2026-04-18T13:29:47.29Z</time></trkpt><trkpt lat="41.5200289" lon="12.8477345"><ele>27.0</ele><time>2026-04-18T13:29:50.29Z</time></trkpt><trkpt lat="41.5199827" lon="12.847674"><ele>27.0</ele><time>2026-04-18T13:29:52.325Z</time></trkpt><trkpt lat="41.519999" lon="12.8475745"><ele>27.0</ele><time>2026-04-18T13:29:56.29Z</time></trkpt><trkpt lat="41.5200597" lon="12.8476016"><ele>27.0</ele><time>2026-04-18T13:30:03.388Z</time></trkpt><trkpt lat="41.5200343" lon="12.8476866"><ele>27.0</ele><time>2026-04-18T13:30:18.309Z</time></trkpt><trkpt lat="41.5199729" lon="12.847735"><ele>27.0</ele><time>2026-04-18T13:30:23.291Z</time></trkpt><trkpt lat="41.5198873" lon="12.8475734"><ele>27.0</ele><time>2026-04-18T13:30:25.29Z</time></trkpt><trkpt lat="41.519819" lon="12.8474706"><ele>27.333333333333332</ele><time>2026-04-18T13:30:27.195Z</time></trkpt><trkpt lat="41.5197667" lon="12.8474111"><ele>27.666666666666664</ele><time>2026-04-18T13:30:29.211Z</time></trkpt><trkpt lat="41.519735" lon="12.8473009"><ele>28.0</ele><time>2026-04-18T13:30:32.315Z</time></trkpt><trkpt lat="41.5196899" lon="12.8472236"><ele>28.333333333333332</ele><time>2026-04-18T13:30:35.308Z</time></trkpt><trkpt lat="41.5196184" lon="12.8471202"><ele>28.666666666666664</ele><time>2026-04-18T13:30:38.291Z</time></trkpt><trkpt lat="41.5195684" lon="12.8470662"><ele>29.0</ele><time>2026-04-18T13:30:40.29Z</time></trkpt><trkpt lat="41.5195166" lon="12.8470079"><ele>28.999999999999996</ele><time>2026-04-18T13:30:42.291Z</time></trkpt><trkpt lat="41.5194464" lon="12.8469411"><ele>29.0</ele><time>2026-04-18T13:30:45.29Z</time></trkpt><trkpt lat="41.5194111" lon="12.8468434"><ele>29.0</ele><time>2026-04-18T13:30:48.29Z</time></trkpt><trkpt lat="41.5193449" lon="12.8467724"><ele>29.0</ele><time>2026-04-18T13:30:50.291Z</time></trkpt><trkpt lat="41.5192938" lon="12.8466987"><ele>28.999999999999996</ele><time>2026-04-18T13:30:52.29Z</time></trkpt><trkpt lat="41.5192483" lon="12.8466105"><ele>29.0</ele><time>2026-04-18T13:30:54.291Z</time></trkpt><trkpt lat="41.519165" lon="12.8465233"><ele>28.4</ele><time>2026-04-18T13:30:56.291Z</time></trkpt><trkpt lat="41.5190903" lon="12.8464275"><ele>27.799999999999997</ele><time>2026-04-18T13:30:58.29Z</time></trkpt><trkpt lat="41.5190318" lon="12.8463264"><ele>27.200000000000003</ele><time>2026-04-18T13:31:00.29Z</time></trkpt><trkpt lat="41.5189496" lon="12.8462302"><ele>26.6</ele><time>2026-04-18T13:31:02.29Z</time></trkpt><trkpt lat="41.5188692" lon="12.8461351"><ele>26.0</ele><time>2026-04-18T13:31:04.291Z</time></trkpt><trkpt lat="41.5187925" lon="12.8460364"><ele>26.4</ele><time>2026-04-18T13:31:06.29Z</time></trkpt><trkpt lat="41.518713" lon="12.8459525"><ele>26.8</ele><time>2026-04-18T13:31:08.29Z</time></trkpt><trkpt lat="41.5186445" lon="12.8458668"><ele>27.199999999999996</ele><time>2026-04-18T13:31:10.291Z</time></trkpt><trkpt lat="41.518562" lon="12.8457756"><ele>27.599999999999998</ele><time>2026-04-18T13:31:12.291Z</time></trkpt><trkpt lat="41.5185179" lon="12.8457133"><ele>28.0</ele><time>2026-04-18T13:31:13.29Z</time></trkpt><trkpt lat="41.5184219" lon="12.8455975"><ele>28.0</ele><time>2026-04-18T13:31:15.29Z</time></trkpt><trkpt lat="41.5183413" lon="12.8454845"><ele>27.999999999999996</ele><time>2026-04-18T13:31:17.29Z</time></trkpt><trkpt lat="41.5182485" lon="12.8453712"><ele>27.999999999999996</ele><time>2026-04-18T13:31:19.29Z</time></trkpt><trkpt lat="41.5181963" lon="12.8453211"><ele>28.0</ele><time>2026-04-18T13:31:20.291Z</time></trkpt><trkpt lat="41.5181474" lon="12.8452528"><ele>28.0</ele><time>2026-04-18T13:31:21.291Z</time></trkpt><trkpt lat="41.5180514" lon="12.8451322"><ele>28.142857142857142</ele><time>2026-04-18T13:31:23.29Z</time></trkpt><trkpt lat="41.5179992" lon="12.8450698"><ele>28.285714285714285</ele><time>2026-04-18T13:31:24.291Z</time></trkpt><trkpt lat="41.5179563" lon="12.845005"><ele>28.42857142857143</ele><time>2026-04-18T13:31:25.291Z</time></trkpt><trkpt lat="41.5179112" lon="12.8449361"><ele>28.571428571428573</ele><time>2026-04-18T13:31:26.291Z</time></trkpt><trkpt lat="41.5178621" lon="12.8448706"><ele>28.714285714285715</ele><time>2026-04-18T13:31:27.291Z</time></trkpt><trkpt lat="41.5178151" lon="12.8448125"><ele>28.85714285714286</ele><time>2026-04-18T13:31:28.291Z</time></trkpt><trkpt lat="41.5177667" lon="12.8447573"><ele>29.000000000000004</ele><time>2026-04-18T13:31:29.29Z</time></trkpt><trkpt lat="41.5177126" lon="12.8447043"><ele>28.833333333333332</ele><time>2026-04-18T13:31:30.29Z</time></trkpt><trkpt lat="41.5176173" lon="12.8445879"><ele>28.666666666666664</ele><time>2026-04-18T13:31:32.291Z</time></trkpt><trkpt lat="41.5175486" lon="12.8444758"><ele>28.5</ele><time>2026-04-18T13:31:34.291Z</time></trkpt><trkpt lat="41.5175046" lon="12.8444122"><ele>28.333333333333336</ele><time>2026-04-18T13:31:35.29Z</time></trkpt><trkpt lat="41.5174639" lon="12.8443414"><ele>28.166666666666668</ele><time>2026-04-18T13:31:36.29Z</time></trkpt><trkpt lat="41.5174173" lon="12.844276"><ele>28.0</ele><time>2026-04-18T13:31:37.29Z</time></trkpt><trkpt lat="41.5173781" lon="12.8442037"><ele>28.0</ele><time>2026-04-18T13:31:38.29Z</time></trkpt><trkpt lat="41.5173022" lon="12.8441055"><ele>27.999999999999996</ele><time>2026-04-18T13:31:40.29Z</time></trkpt><trkpt lat="41.5172178" lon="12.8440154"><ele>27.999999999999996</ele><time>2026-04-18T13:31:42.29Z</time></trkpt><trkpt lat="41.5171139" lon="12.8438776"><ele>28.0</ele><time>2026-04-18T13:31:44.29Z</time></trkpt><trkpt lat="41.5170612" lon="12.8438118"><ele>28.0</ele><time>2026-04-18T13:31:45.291Z</time></trkpt><trkpt lat="41.51701" lon="12.8437463"><ele>28.25</ele><time>2026-04-18T13:31:46.29Z</time></trkpt><trkpt lat="41.5168972" lon="12.843634"><ele>28.5</ele><time>2026-04-18T13:31:48.29Z</time></trkpt><trkpt lat="41.5167914" lon="12.8435096"><ele>28.75</ele><time>2026-04-18T13:31:50.29Z</time></trkpt><trkpt lat="41.5166872" lon="12.8433711"><ele>29.0</ele><time>2026-04-18T13:31:52.29Z</time></trkpt><trkpt lat="41.5165848" lon="12.8432166"><ele>28.999999999999996</ele><time>2026-04-18T13:31:54.29Z</time></trkpt><trkpt lat="41.5165309" lon="12.843159"><ele>29.0</ele><time>2026-04-18T13:31:55.29Z</time></trkpt><trkpt lat="41.5164506" lon="12.8430507"><ele>29.0</ele><time>2026-04-18T13:31:57.29Z</time></trkpt><trkpt lat="41.5164095" lon="12.8429832"><ele>29.0</ele><time>2026-04-18T13:31:59.29Z</time></trkpt><trkpt lat="41.5163355" lon="12.8429982"><ele>28.999999999999996</ele><time>2026-04-18T13:32:04.291Z</time></trkpt><trkpt lat="41.5162812" lon="12.8430579"><ele>29.0</ele><time>2026-04-18T13:32:06.291Z</time></trkpt><trkpt lat="41.5161919" lon="12.8430351"><ele>29.0</ele><time>2026-04-18T13:32:09.29Z</time></trkpt><trkpt lat="41.5161464" lon="12.842957"><ele>29.0</ele><time>2026-04-18T13:32:10.291Z</time></trkpt><trkpt lat="41.5160753" lon="12.842855"><ele>29.0</ele><time>2026-04-18T13:32:11.291Z</time></trkpt><trkpt lat="41.5159968" lon="12.8427442"><ele>29.0</ele><time>2026-04-18T13:32:12.291Z</time></trkpt><trkpt lat="41.5159085" lon="12.8426305"><ele>29.0</ele><time>2026-04-18T13:32:13.291Z</time></trkpt><trkpt lat="41.5158293" lon="12.8425049"><ele>28.75</ele><time>2026-04-18T13:32:14.291Z</time></trkpt><trkpt lat="41.5157468" lon="12.8424011"><ele>28.5</ele><time>2026-04-18T13:32:15.291Z</time></trkpt><trkpt lat="41.5156668" lon="12.8422888"><ele>28.25</ele><time>2026-04-18T13:32:16.291Z</time></trkpt><trkpt lat="41.5155855" lon="12.8421789"><ele>28.0</ele><time>2026-04-18T13:32:17.29Z</time></trkpt><trkpt lat="41.515508" lon="12.8420732"><ele>28.0</ele><time>2026-04-18T13:32:18.291Z</time></trkpt><trkpt lat="41.515421" lon="12.8419724"><ele>28.0</ele><time>2026-04-18T13:32:19.29Z</time></trkpt><trkpt lat="41.5153297" lon="12.8418535"><ele>28.0</ele><time>2026-04-18T13:32:20.291Z</time></trkpt><trkpt lat="41.5152385" lon="12.8417465"><ele>28.0</ele><time>2026-04-18T13:32:21.29Z</time></trkpt><trkpt lat="41.5151418" lon="12.8416467"><ele>27.5</ele><time>2026-04-18T13:32:22.291Z</time></trkpt><trkpt lat="41.5150499" lon="12.8415275"><ele>27.0</ele><time>2026-04-18T13:32:23.29Z</time></trkpt><trkpt lat="41.5149603" lon="12.8414248"><ele>26.5</ele><time>2026-04-18T13:32:24.291Z</time></trkpt><trkpt lat="41.5148768" lon="12.8413215"><ele>26.0</ele><time>2026-04-18T13:32:25.29Z</time></trkpt><trkpt lat="41.5147943" lon="12.8412191"><ele>26.0</ele><time>2026-04-18T13:32:26.29Z</time></trkpt><trkpt lat="41.5147174" lon="12.8411179"><ele>26.0</ele><time>2026-04-18T13:32:27.29Z</time></trkpt><trkpt lat="41.5146529" lon="12.8410169"><ele>26.0</ele><time>2026-04-18T13:32:28.29Z</time></trkpt><trkpt lat="41.5145825" lon="12.8409087"><ele>26.0</ele><time>2026-04-18T13:32:29.29Z</time></trkpt><trkpt lat="41.5145141" lon="12.8408091"><ele>26.0</ele><time>2026-04-18T13:32:30.29Z</time></trkpt><trkpt lat="41.514444" lon="12.8407113"><ele>26.4</ele><time>2026-04-18T13:32:31.291Z</time></trkpt><trkpt lat="41.5143744" lon="12.8406192"><ele>26.8</ele><time>2026-04-18T13:32:32.29Z</time></trkpt><trkpt lat="41.5143159" lon="12.8405181"><ele>27.199999999999996</ele><time>2026-04-18T13:32:33.291Z</time></trkpt><trkpt lat="41.5142555" lon="12.8404331"><ele>27.599999999999998</ele><time>2026-04-18T13:32:34.29Z</time></trkpt><trkpt lat="41.5141956" lon="12.8403496"><ele>28.0</ele><time>2026-04-18T13:32:35.291Z</time></trkpt><trkpt lat="41.5141316" lon="12.8402676"><ele>28.000000000000004</ele><time>2026-04-18T13:32:36.29Z</time></trkpt><trkpt lat="41.5140665" lon="12.8401972"><ele>28.0</ele><time>2026-04-18T13:32:37.29Z</time></trkpt><trkpt lat="41.5140021" lon="12.8401327"><ele>28.0</ele><time>2026-04-18T13:32:38.291Z</time></trkpt><trkpt lat="41.5139328" lon="12.8400485"><ele>28.0</ele><time>2026-04-18T13:32:39.29Z</time></trkpt><trkpt lat="41.5138617" lon="12.839962"><ele>28.000000000000004</ele><time>2026-04-18T13:32:40.291Z</time></trkpt><trkpt lat="41.5138013" lon="12.839869"><ele>28.0</ele><time>2026-04-18T13:32:41.291Z</time></trkpt><trkpt lat="41.5137395" lon="12.8397921"><ele>28.000000000000004</ele><time>2026-04-18T13:32:42.291Z</time></trkpt><trkpt lat="41.5136782" lon="12.8397061"><ele>28.0</ele><time>2026-04-18T13:32:43.29Z</time></trkpt><trkpt lat="41.5136263" lon="12.8396404"><ele>28.0</ele><time>2026-04-18T13:32:44.29Z</time></trkpt><trkpt lat="41.5135612" lon="12.8395584"><ele>28.0</ele><time>2026-04-18T13:32:45.291Z</time></trkpt><trkpt lat="41.5134899" lon="12.8394703"><ele>28.000000000000004</ele><time>2026-04-18T13:32:46.291Z</time></trkpt><trkpt lat="41.5134156" lon="12.8393781"><ele>28.0</ele><time>2026-04-18T13:32:47.291Z</time></trkpt><trkpt lat="41.5133415" lon="12.8392939"><ele>27.799999999999997</ele><time>2026-04-18T13:32:48.29Z</time></trkpt><trkpt lat="41.5132649" lon="12.8392104"><ele>27.599999999999998</ele><time>2026-04-18T13:32:49.29Z</time></trkpt><trkpt lat="41.5131916" lon="12.8391207"><ele>27.400000000000002</ele><time>2026-04-18T13:32:50.29Z</time></trkpt><trkpt lat="41.5131197" lon="12.8390461"><ele>27.200000000000003</ele><time>2026-04-18T13:32:51.29Z</time></trkpt><trkpt lat="41.513049" lon="12.8389748"><ele>27.0</ele><time>2026-04-18T13:32:52.291Z</time></trkpt><trkpt lat="41.5129714" lon="12.8388996"><ele>27.166666666666668</ele><time>2026-04-18T13:32:53.291Z</time></trkpt><trkpt lat="41.5129003" lon="12.8388256"><ele>27.333333333333336</ele><time>2026-04-18T13:32:54.29Z</time></trkpt><trkpt lat="41.5128285" lon="12.8387556"><ele>27.5</ele><time>2026-04-18T13:32:55.29Z</time></trkpt><trkpt lat="41.5127535" lon="12.8386885"><ele>27.666666666666668</ele><time>2026-04-18T13:32:56.291Z</time></trkpt><trkpt lat="41.5126802" lon="12.8386242"><ele>27.833333333333336</ele><time>2026-04-18T13:32:57.291Z</time></trkpt><trkpt lat="41.5126061" lon="12.8385725"><ele>28.0</ele><time>2026-04-18T13:32:58.29Z</time></trkpt><trkpt lat="41.5125306" lon="12.8385084"><ele>27.833333333333336</ele><time>2026-04-18T13:32:59.29Z</time></trkpt><trkpt lat="41.5124563" lon="12.838446"><ele>27.666666666666668</ele><time>2026-04-18T13:33:00.291Z</time></trkpt><trkpt lat="41.5123963" lon="12.8383812"><ele>27.5</ele><time>2026-04-18T13:33:01.29Z</time></trkpt><trkpt lat="41.5123412" lon="12.8383269"><ele>27.333333333333336</ele><time>2026-04-18T13:33:02.291Z</time></trkpt><trkpt lat="41.5122917" lon="12.838259"><ele>27.166666666666668</ele><time>2026-04-18T13:33:03.29Z</time></trkpt><trkpt lat="41.5122107" lon="12.8381372"><ele>27.0</ele><time>2026-04-18T13:33:05.291Z</time></trkpt><trkpt lat="41.512155" lon="12.8380947"><ele>27.400000000000002</ele><time>2026-04-18T13:33:06.29Z</time></trkpt><trkpt lat="41.5120435" lon="12.8380355"><ele>27.800000000000004</ele><time>2026-04-18T13:33:08.29Z</time></trkpt><trkpt lat="41.5119415" lon="12.8379268"><ele>28.2</ele><time>2026-04-18T13:33:10.29Z</time></trkpt><trkpt lat="41.5118777" lon="12.8378531"><ele>28.6</ele><time>2026-04-18T13:33:12.29Z</time></trkpt><trkpt lat="41.5118033" lon="12.8378101"><ele>29.0</ele><time>2026-04-18T13:33:14.29Z</time></trkpt><trkpt lat="41.5117224" lon="12.8377673"><ele>28.999999999999996</ele><time>2026-04-18T13:33:17.29Z</time></trkpt><trkpt lat="41.5116606" lon="12.8378738"><ele>29.0</ele><time>2026-04-18T13:33:21.291Z</time></trkpt><trkpt lat="41.5115623" lon="12.8378969"><ele>29.0</ele><time>2026-04-18T13:33:25.29Z</time></trkpt><trkpt lat="41.5114875" lon="12.8378582"><ele>29.0</ele><time>2026-04-18T13:33:27.29Z</time></trkpt><trkpt lat="41.5114086" lon="12.8378309"><ele>28.999999999999996</ele><time>2026-04-18T13:33:29.291Z</time></trkpt><trkpt lat="41.5113363" lon="12.8377838"><ele>29.0</ele><time>2026-04-18T13:33:31.29Z</time></trkpt><trkpt lat="41.5112822" lon="12.8377354"><ele>28.999999999999996</ele><time>2026-04-18T13:33:33.29Z</time></trkpt><trkpt lat="41.5112258" lon="12.8376624"><ele>29.0</ele><time>2026-04-18T13:33:37.29Z</time></trkpt><trkpt lat="41.5111355" lon="12.837736"><ele>29.0</ele><time>2026-04-18T13:33:41.29Z</time></trkpt><trkpt lat="41.5110798" lon="12.8378139"><ele>29.0</ele><time>2026-04-18T13:33:45.291Z</time></trkpt><trkpt lat="41.5110128" lon="12.8378545"><ele>28.999999999999996</ele><time>2026-04-18T13:33:48.291Z</time></trkpt><trkpt lat="41.5109348" lon="12.8378022"><ele>29.0</ele><time>2026-04-18T13:33:51.291Z</time></trkpt><trkpt lat="41.5108702" lon="12.8377967"><ele>29.0</ele><time>2026-04-18T13:34:12.29Z</time></trkpt><trkpt lat="41.5107702" lon="12.8377294"><ele>29.0</ele><time>2026-04-18T13:36:56.29Z</time></trkpt><trkpt lat="41.5106531" lon="12.8376738"><ele>29.0</ele><time>2026-04-18T13:36:58.291Z</time></trkpt><trkpt lat="41.5105575" lon="12.8376062"><ele>29.0</ele><time>2026-04-18T13:37:00.291Z</time></trkpt><trkpt lat="41.5104412" lon="12.8375548"><ele>28.833333333333332</ele><time>2026-04-18T13:37:02.29Z</time></trkpt><trkpt lat="41.5103678" lon="12.8375321"><ele>28.666666666666664</ele><time>2026-04-18T13:37:03.29Z</time></trkpt><trkpt lat="41.5102442" lon="12.8375088"><ele>28.5</ele><time>2026-04-18T13:37:05.291Z</time></trkpt><trkpt lat="41.5101797" lon="12.837494"><ele>28.333333333333336</ele><time>2026-04-18T13:37:06.29Z</time></trkpt><trkpt lat="41.5101157" lon="12.8374803"><ele>28.166666666666668</ele><time>2026-04-18T13:37:07.291Z</time></trkpt><trkpt lat="41.5100521" lon="12.8374702"><ele>28.0</ele><time>2026-04-18T13:37:08.29Z</time></trkpt><trkpt lat="41.5099328" lon="12.8374418"><ele>28.0</ele><time>2026-04-18T13:37:10.29Z</time></trkpt><trkpt lat="41.5098302" lon="12.8374145"><ele>27.999999999999996</ele><time>2026-04-18T13:37:12.29Z</time></trkpt><trkpt lat="41.5097133" lon="12.8373681"><ele>27.999999999999996</ele><time>2026-04-18T13:37:14.291Z</time></trkpt><trkpt lat="41.5095907" lon="12.8373341"><ele>28.0</ele><time>2026-04-18T13:37:16.29Z</time></trkpt><trkpt lat="41.5095241" lon="12.8373126"><ele>28.0</ele><time>2026-04-18T13:37:17.29Z</time></trkpt><trkpt lat="41.5093878" lon="12.8372702"><ele>28.500000000000004</ele><time>2026-04-18T13:37:19.29Z</time></trkpt><trkpt lat="41.5093261" lon="12.8372503"><ele>29.0</ele><time>2026-04-18T13:37:20.291Z</time></trkpt><trkpt lat="41.5092611" lon="12.8372227"><ele>29.5</ele><time>2026-04-18T13:37:21.291Z</time></trkpt><trkpt lat="41.509199" lon="12.8372016"><ele>30.0</ele><time>2026-04-18T13:37:22.291Z</time></trkpt><trkpt lat="41.5090764" lon="12.8371659"><ele>30.500000000000004</ele><time>2026-04-18T13:37:24.291Z</time></trkpt><trkpt lat="41.508961" lon="12.8371001"><ele>31.0</ele><time>2026-04-18T13:37:26.291Z</time></trkpt><trkpt lat="41.5088818" lon="12.8370518"><ele>31.0</ele><time>2026-04-18T13:37:27.29Z</time></trkpt><trkpt lat="41.5087947" lon="12.8370043"><ele>31.0</ele><time>2026-04-18T13:37:28.29Z</time></trkpt><trkpt lat="41.5087076" lon="12.8369707"><ele>31.0</ele><time>2026-04-18T13:37:29.29Z</time></trkpt><trkpt lat="41.5086109" lon="12.8369363"><ele>31.0</ele><time>2026-04-18T13:37:30.29Z</time></trkpt><trkpt lat="41.5083969" lon="12.8368759"><ele>30.5</ele><time>2026-04-18T13:37:32.29Z</time></trkpt><trkpt lat="41.5082737" lon="12.8368461"><ele>30.0</ele><time>2026-04-18T13:37:33.29Z</time></trkpt><trkpt lat="41.5081315" lon="12.8368053"><ele>29.5</ele><time>2026-04-18T13:37:34.29Z</time></trkpt><trkpt lat="41.5079918" lon="12.8367717"><ele>29.0</ele><time>2026-04-18T13:37:35.29Z</time></trkpt><trkpt lat="41.5078546" lon="12.8367354"><ele>27.666666666666664</ele><time>2026-04-18T13:37:36.291Z</time></trkpt><trkpt lat="41.5077203" lon="12.836698"><ele>26.333333333333336</ele><time>2026-04-18T13:37:37.29Z</time></trkpt><trkpt lat="41.5074537" lon="12.8366299"><ele>25.0</ele><time>2026-04-18T13:37:39.29Z</time></trkpt><trkpt lat="41.5073266" lon="12.8366004"><ele>25.0</ele><time>2026-04-18T13:37:40.29Z</time></trkpt><trkpt lat="41.5072051" lon="12.8365678"><ele>25.0</ele><time>2026-04-18T13:37:41.291Z</time></trkpt><trkpt lat="41.5070808" lon="12.8365404"><ele>25.0</ele><time>2026-04-18T13:37:42.29Z</time></trkpt><trkpt lat="41.5069604" lon="12.8365093"><ele>25.0</ele><time>2026-04-18T13:37:43.291Z</time></trkpt><trkpt lat="41.5068484" lon="12.8364848"><ele>25.25</ele><time>2026-04-18T13:37:44.29Z</time></trkpt><trkpt lat="41.5067276" lon="12.8364486"><ele>25.5</ele><time>2026-04-18T13:37:45.291Z</time></trkpt><trkpt lat="41.5066083" lon="12.8364161"><ele>25.75</ele><time>2026-04-18T13:37:46.29Z</time></trkpt><trkpt lat="41.5064949" lon="12.836381"><ele>26.0</ele><time>2026-04-18T13:37:47.29Z</time></trkpt><trkpt lat="41.506378" lon="12.8363432"><ele>26.0</ele><time>2026-04-18T13:37:48.291Z</time></trkpt><trkpt lat="41.5062669" lon="12.836314"><ele>26.0</ele><time>2026-04-18T13:37:49.291Z</time></trkpt><trkpt lat="41.5061581" lon="12.8362816"><ele>26.0</ele><time>2026-04-18T13:37:50.29Z</time></trkpt><trkpt lat="41.5060419" lon="12.8362508"><ele>26.0</ele><time>2026-04-18T13:37:51.291Z</time></trkpt><trkpt lat="41.5059278" lon="12.8362241"><ele>26.25</ele><time>2026-04-18T13:37:52.29Z</time></trkpt><trkpt lat="41.5058108" lon="12.8361939"><ele>26.5</ele><time>2026-04-18T13:37:53.291Z</time></trkpt><trkpt lat="41.5056928" lon="12.83616"><ele>26.75</ele><time>2026-04-18T13:37:54.291Z</time></trkpt><trkpt lat="41.5055745" lon="12.8361244"><ele>27.0</ele><time>2026-04-18T13:37:55.29Z</time></trkpt><trkpt lat="41.505457" lon="12.8360936"><ele>27.25</ele><time>2026-04-18T13:37:56.29Z</time></trkpt><trkpt lat="41.5053455" lon="12.8360604"><ele>27.5</ele><time>2026-04-18T13:37:57.29Z</time></trkpt><trkpt lat="41.5052314" lon="12.83603"><ele>27.75</ele><time>2026-04-18T13:37:58.29Z</time></trkpt><trkpt lat="41.5051136" lon="12.8359985"><ele>28.0</ele><time>2026-04-18T13:37:59.29Z</time></trkpt><trkpt lat="41.5049904" lon="12.8359594"><ele>27.5</ele><time>2026-04-18T13:38:00.291Z</time></trkpt><trkpt lat="41.5048696" lon="12.8359266"><ele>27.0</ele><time>2026-04-18T13:38:01.291Z</time></trkpt><trkpt lat="41.5047499" lon="12.8358947"><ele>26.5</ele><time>2026-04-18T13:38:02.29Z</time></trkpt><trkpt lat="41.5046304" lon="12.8358614"><ele>26.0</ele><time>2026-04-18T13:38:03.29Z</time></trkpt><trkpt lat="41.5045053" lon="12.8358296"><ele>26.0</ele><time>2026-04-18T13:38:04.291Z</time></trkpt><trkpt lat="41.5043802" lon="12.8357979"><ele>26.0</ele><time>2026-04-18T13:38:05.29Z</time></trkpt><trkpt lat="41.5042546" lon="12.8357663"><ele>26.0</ele><time>2026-04-18T13:38:06.29Z</time></trkpt><trkpt lat="41.5041296" lon="12.8357325"><ele>26.0</ele><time>2026-04-18T13:38:07.291Z</time></trkpt><trkpt lat="41.5040098" lon="12.8357012"><ele>26.0</ele><time>2026-04-18T13:38:08.291Z</time></trkpt><trkpt lat="41.5038885" lon="12.8356677"><ele>26.0</ele><time>2026-04-18T13:38:09.29Z</time></trkpt><trkpt lat="41.5037626" lon="12.8356385"><ele>26.0</ele><time>2026-04-18T13:38:10.29Z</time></trkpt><trkpt lat="41.503641" lon="12.8356009"><ele>26.0</ele><time>2026-04-18T13:38:11.29Z</time></trkpt><trkpt lat="41.5035141" lon="12.8355663"><ele>26.0</ele><time>2026-04-18T13:38:12.29Z</time></trkpt><trkpt lat="41.5033865" lon="12.8355292"><ele>26.0</ele><time>2026-04-18T13:38:13.291Z</time></trkpt><trkpt lat="41.5032592" lon="12.835497"><ele>26.0</ele><time>2026-04-18T13:38:14.29Z</time></trkpt><trkpt lat="41.5031326" lon="12.8354603"><ele>26.0</ele><time>2026-04-18T13:38:15.29Z</time></trkpt><trkpt lat="41.5030079" lon="12.8354254"><ele>26.0</ele><time>2026-04-18T13:38:16.291Z</time></trkpt><trkpt lat="41.5028779" lon="12.8353888"><ele>26.0</ele><time>2026-04-18T13:38:17.29Z</time></trkpt><trkpt lat="41.5027479" lon="12.8353575"><ele>26.0</ele><time>2026-04-18T13:38:18.29Z</time></trkpt><trkpt lat="41.502623" lon="12.835326"><ele>26.0</ele><time>2026-04-18T13:38:19.29Z</time></trkpt><trkpt lat="41.5024964" lon="12.8352928"><ele>26.0</ele><time>2026-04-18T13:38:20.29Z</time></trkpt><trkpt lat="41.5023656" lon="12.8352601"><ele>26.0</ele><time>2026-04-18T13:38:21.29Z</time></trkpt><trkpt lat="41.5022375" lon="12.8352261"><ele>26.0</ele><time>2026-04-18T13:38:22.29Z</time></trkpt><trkpt lat="41.5021146" lon="12.8351884"><ele>26.0</ele><time>2026-04-18T13:38:23.29Z</time></trkpt><trkpt lat="41.5019902" lon="12.8351491"><ele>26.0</ele><time>2026-04-18T13:38:24.29Z</time></trkpt><trkpt lat="41.501869" lon="12.8351182"><ele>26.0</ele><time>2026-04-18T13:38:25.29Z</time></trkpt><trkpt lat="41.5017462" lon="12.8350846"><ele>26.0</ele><time>2026-04-18T13:38:26.291Z</time></trkpt><trkpt lat="41.5016222" lon="12.8350476"><ele>26.0</ele><time>2026-04-18T13:38:27.291Z</time></trkpt><trkpt lat="41.501499" lon="12.8350163"><ele>26.0</ele><time>2026-04-18T13:38:28.29Z</time></trkpt><trkpt lat="41.5013781" lon="12.8349865"><ele>26.0</ele><time>2026-04-18T13:38:29.29Z</time></trkpt><trkpt lat="41.5012583" lon="12.8349602"><ele>26.0</ele><time>2026-04-18T13:38:30.29Z</time></trkpt><trkpt lat="41.5010181" lon="12.8348957"><ele>26.0</ele><time>2026-04-18T13:38:32.291Z</time></trkpt><trkpt lat="41.500894" lon="12.8348645"><ele>26.0</ele><time>2026-04-18T13:38:33.29Z</time></trkpt><trkpt lat="41.5007723" lon="12.8348329"><ele>26.0</ele><time>2026-04-18T13:38:34.29Z</time></trkpt><trkpt lat="41.5006517" lon="12.8347946"><ele>26.0</ele><time>2026-04-18T13:38:35.291Z</time></trkpt><trkpt lat="41.5003986" lon="12.8347238"><ele>25.75</ele><time>2026-04-18T13:38:37.29Z</time></trkpt><trkpt lat="41.5002845" lon="12.8346981"><ele>25.5</ele><time>2026-04-18T13:38:38.291Z</time></trkpt><trkpt lat="41.5001743" lon="12.8346686"><ele>25.25</ele><time>2026-04-18T13:38:39.291Z</time></trkpt><trkpt lat="41.5000708" lon="12.8346421"><ele>25.0</ele><time>2026-04-18T13:38:40.29Z</time></trkpt><trkpt lat="41.4998823" lon="12.8345919"><ele>25.0</ele><time>2026-04-18T13:38:42.29Z</time></trkpt><trkpt lat="41.4997961" lon="12.8345659"><ele>25.0</ele><time>2026-04-18T13:38:43.29Z</time></trkpt><trkpt lat="41.4996353" lon="12.8345233"><ele>25.0</ele><time>2026-04-18T13:38:45.29Z</time></trkpt><trkpt lat="41.4994767" lon="12.8344958"><ele>25.0</ele><time>2026-04-18T13:38:47.29Z</time></trkpt><trkpt lat="41.4993968" lon="12.8344684"><ele>25.2</ele><time>2026-04-18T13:38:48.29Z</time></trkpt><trkpt lat="41.4993141" lon="12.8344349"><ele>25.4</ele><time>2026-04-18T13:38:49.291Z</time></trkpt><trkpt lat="41.4991541" lon="12.834373"><ele>25.6</ele><time>2026-04-18T13:38:51.29Z</time></trkpt><trkpt lat="41.499061" lon="12.8343468"><ele>25.8</ele><time>2026-04-18T13:38:52.29Z</time></trkpt><trkpt lat="41.4989693" lon="12.834332"><ele>26.0</ele><time>2026-04-18T13:38:53.291Z</time></trkpt><trkpt lat="41.4988721" lon="12.8343135"><ele>25.5</ele><time>2026-04-18T13:38:54.29Z</time></trkpt><trkpt lat="41.4986732" lon="12.8342691"><ele>25.0</ele><time>2026-04-18T13:38:56.291Z</time></trkpt><trkpt lat="41.498578" lon="12.8342425"><ele>24.5</ele><time>2026-04-18T13:38:57.29Z</time></trkpt><trkpt lat="41.4984812" lon="12.8342214"><ele>24.0</ele><time>2026-04-18T13:38:58.29Z</time></trkpt><trkpt lat="41.4983963" lon="12.8341984"><ele>24.0</ele><time>2026-04-18T13:38:59.291Z</time></trkpt><trkpt lat="41.4982287" lon="12.8341661"><ele>24.0</ele><time>2026-04-18T13:39:01.291Z</time></trkpt><trkpt lat="41.4980781" lon="12.8341271"><ele>24.0</ele><time>2026-04-18T13:39:03.29Z</time></trkpt><trkpt lat="41.4980167" lon="12.8340976"><ele>24.0</ele><time>2026-04-18T13:39:04.29Z</time></trkpt><trkpt lat="41.4979543" lon="12.8340601"><ele>24.428571428571427</ele><time>2026-04-18T13:39:05.291Z</time></trkpt><trkpt lat="41.497888" lon="12.8340249"><ele>24.857142857142858</ele><time>2026-04-18T13:39:06.291Z</time></trkpt><trkpt lat="41.4978176" lon="12.8340071"><ele>25.285714285714285</ele><time>2026-04-18T13:39:07.29Z</time></trkpt><trkpt lat="41.4977527" lon="12.8339965"><ele>25.714285714285715</ele><time>2026-04-18T13:39:08.29Z</time></trkpt><trkpt lat="41.4976826" lon="12.8339748"><ele>26.142857142857142</ele><time>2026-04-18T13:39:09.29Z</time></trkpt><trkpt lat="41.4976105" lon="12.8339606"><ele>26.57142857142857</ele><time>2026-04-18T13:39:10.29Z</time></trkpt><trkpt lat="41.4975437" lon="12.8339269"><ele>27.0</ele><time>2026-04-18T13:39:11.291Z</time></trkpt><trkpt lat="41.4974775" lon="12.8339009"><ele>27.0</ele><time>2026-04-18T13:39:12.29Z</time></trkpt><trkpt lat="41.4974053" lon="12.8338925"><ele>27.000000000000004</ele><time>2026-04-18T13:39:13.29Z</time></trkpt><trkpt lat="41.4972474" lon="12.8338724"><ele>27.000000000000004</ele><time>2026-04-18T13:39:15.29Z</time></trkpt><trkpt lat="41.4971731" lon="12.8338593"><ele>27.0</ele><time>2026-04-18T13:39:16.291Z</time></trkpt><trkpt lat="41.497098" lon="12.8338392"><ele>27.0</ele><time>2026-04-18T13:39:17.291Z</time></trkpt><trkpt lat="41.497018" lon="12.8338186"><ele>27.0</ele><time>2026-04-18T13:39:18.291Z</time></trkpt><trkpt lat="41.4968619" lon="12.8337797"><ele>27.000000000000004</ele><time>2026-04-18T13:39:20.29Z</time></trkpt><trkpt lat="41.4967761" lon="12.8337672"><ele>27.000000000000004</ele><time>2026-04-18T13:39:21.29Z</time></trkpt><trkpt lat="41.4966941" lon="12.8337529"><ele>27.0</ele><time>2026-04-18T13:39:22.291Z</time></trkpt><trkpt lat="41.4966097" lon="12.8337428"><ele>27.0</ele><time>2026-04-18T13:39:23.291Z</time></trkpt><trkpt lat="41.4965165" lon="12.8337315"><ele>27.0</ele><time>2026-04-18T13:39:24.29Z</time></trkpt><trkpt lat="41.4963382" lon="12.8336969"><ele>27.0</ele><time>2026-04-18T13:39:26.29Z</time></trkpt><trkpt lat="41.4961649" lon="12.8336617"><ele>27.0</ele><time>2026-04-18T13:39:28.29Z</time></trkpt><trkpt lat="41.4960805" lon="12.8336379"><ele>27.0</ele><time>2026-04-18T13:39:29.291Z</time></trkpt><trkpt lat="41.4959947" lon="12.8336161"><ele>27.0</ele><time>2026-04-18T13:39:30.29Z</time></trkpt><trkpt lat="41.4958107" lon="12.833567"><ele>27.0</ele><time>2026-04-18T13:39:32.291Z</time></trkpt><trkpt lat="41.4957126" lon="12.8335384"><ele>27.0</ele><time>2026-04-18T13:39:33.291Z</time></trkpt><trkpt lat="41.4955245" lon="12.8334973"><ele>26.400000000000002</ele><time>2026-04-18T13:39:35.29Z</time></trkpt><trkpt lat="41.4954257" lon="12.8334703"><ele>25.800000000000004</ele><time>2026-04-18T13:39:36.29Z</time></trkpt><trkpt lat="41.4953296" lon="12.8334474"><ele>25.2</ele><time>2026-04-18T13:39:37.291Z</time></trkpt><trkpt lat="41.4952476" lon="12.8334301"><ele>24.6</ele><time>2026-04-18T13:39:38.29Z</time></trkpt><trkpt lat="41.4951608" lon="12.8334055"><ele>24.0</ele><time>2026-04-18T13:39:39.29Z</time></trkpt><trkpt lat="41.4950737" lon="12.8333912"><ele>24.0</ele><time>2026-04-18T13:39:40.29Z</time></trkpt><trkpt lat="41.4949907" lon="12.833365"><ele>24.0</ele><time>2026-04-18T13:39:41.291Z</time></trkpt><trkpt lat="41.4948332" lon="12.8333031"><ele>24.0</ele><time>2026-04-18T13:39:43.29Z</time></trkpt><trkpt lat="41.4946889" lon="12.8332562"><ele>24.0</ele><time>2026-04-18T13:39:45.29Z</time></trkpt><trkpt lat="41.4945601" lon="12.8332413"><ele>24.75</ele><time>2026-04-18T13:39:47.291Z</time></trkpt><trkpt lat="41.4944361" lon="12.8332672"><ele>25.5</ele><time>2026-04-18T13:39:49.29Z</time></trkpt><trkpt lat="41.4943367" lon="12.8331998"><ele>26.25</ele><time>2026-04-18T13:39:51.291Z</time></trkpt><trkpt lat="41.4942327" lon="12.8331063"><ele>27.0</ele><time>2026-04-18T13:39:53.291Z</time></trkpt><trkpt lat="41.4941085" lon="12.8330566"><ele>27.0</ele><time>2026-04-18T13:39:55.29Z</time></trkpt><trkpt lat="41.4940405" lon="12.8330394"><ele>27.0</ele><time>2026-04-18T13:39:56.29Z</time></trkpt><trkpt lat="41.4939724" lon="12.8330219"><ele>27.0</ele><time>2026-04-18T13:39:57.291Z</time></trkpt><trkpt lat="41.4938967" lon="12.832995"><ele>27.0</ele><time>2026-04-18T13:39:58.291Z</time></trkpt><trkpt lat="41.4938206" lon="12.8329771"><ele>27.0</ele><time>2026-04-18T13:39:59.29Z</time></trkpt><trkpt lat="41.4936759" lon="12.8329395"><ele>27.0</ele><time>2026-04-18T13:40:01.291Z</time></trkpt><trkpt lat="41.493607" lon="12.8329325"><ele>27.200000000000003</ele><time>2026-04-18T13:40:02.29Z</time></trkpt><trkpt lat="41.493539" lon="12.8329143"><ele>27.400000000000002</ele><time>2026-04-18T13:40:03.29Z</time></trkpt><trkpt lat="41.4934194" lon="12.8328664"><ele>27.599999999999998</ele><time>2026-04-18T13:40:05.29Z</time></trkpt><trkpt lat="41.4933119" lon="12.8328306"><ele>27.799999999999997</ele><time>2026-04-18T13:40:07.291Z</time></trkpt><trkpt lat="41.4931944" lon="12.8328076"><ele>28.0</ele><time>2026-04-18T13:40:09.291Z</time></trkpt><trkpt lat="41.493012" lon="12.8328101"><ele>28.25</ele><time>2026-04-18T13:40:12.29Z</time></trkpt><trkpt lat="41.4928723" lon="12.832807"><ele>28.5</ele><time>2026-04-18T13:40:14.29Z</time></trkpt><trkpt lat="41.4927426" lon="12.8328089"><ele>28.75</ele><time>2026-04-18T13:40:16.291Z</time></trkpt><trkpt lat="41.4925988" lon="12.832893"><ele>29.0</ele><time>2026-04-18T13:40:19.29Z</time></trkpt><trkpt lat="41.4924786" lon="12.8329241"><ele>29.0</ele><time>2026-04-18T13:40:21.29Z</time></trkpt><trkpt lat="41.4923476" lon="12.8329688"><ele>29.0</ele><time>2026-04-18T13:40:23.29Z</time></trkpt><trkpt lat="41.4922742" lon="12.8329792"><ele>29.0</ele><time>2026-04-18T13:40:24.29Z</time></trkpt><trkpt lat="41.492168" lon="12.83296"><ele>29.0</ele><time>2026-04-18T13:40:26.29Z</time></trkpt><trkpt lat="41.4920178" lon="12.8329453"><ele>28.85714285714286</ele><time>2026-04-18T13:40:28.29Z</time></trkpt><trkpt lat="41.4919414" lon="12.8329268"><ele>28.714285714285715</ele><time>2026-04-18T13:40:29.29Z</time></trkpt><trkpt lat="41.491864" lon="12.8329086"><ele>28.571428571428573</ele><time>2026-04-18T13:40:30.291Z</time></trkpt><trkpt lat="41.4917889" lon="12.8328894"><ele>28.42857142857143</ele><time>2026-04-18T13:40:31.291Z</time></trkpt><trkpt lat="41.4917186" lon="12.8328704"><ele>28.285714285714285</ele><time>2026-04-18T13:40:32.29Z</time></trkpt><trkpt lat="41.4916531" lon="12.8328636"><ele>28.142857142857142</ele><time>2026-04-18T13:40:33.29Z</time></trkpt><trkpt lat="41.491578" lon="12.8328524"><ele>28.0</ele><time>2026-04-18T13:40:34.29Z</time></trkpt><trkpt lat="41.4914436" lon="12.8328376"><ele>28.0</ele><time>2026-04-18T13:40:36.291Z</time></trkpt><trkpt lat="41.491379" lon="12.8328343"><ele>27.999999999999996</ele><time>2026-04-18T13:40:37.291Z</time></trkpt><trkpt lat="41.4912456" lon="12.8328231"><ele>27.999999999999996</ele><time>2026-04-18T13:40:39.29Z</time></trkpt><trkpt lat="41.491124" lon="12.8328077"><ele>28.0</ele><time>2026-04-18T13:40:41.29Z</time></trkpt><trkpt lat="41.4910102" lon="12.8327954"><ele>28.0</ele><time>2026-04-18T13:40:43.29Z</time></trkpt><trkpt lat="41.4908911" lon="12.8327877"><ele>28.0</ele><time>2026-04-18T13:40:45.29Z</time></trkpt><trkpt lat="41.4907694" lon="12.8327746"><ele>28.0</ele><time>2026-04-18T13:40:47.29Z</time></trkpt><trkpt lat="41.4906465" lon="12.8327717"><ele>28.0</ele><time>2026-04-18T13:40:49.291Z</time></trkpt><trkpt lat="41.4905832" lon="12.8327667"><ele>28.0</ele><time>2026-04-18T13:40:50.29Z</time></trkpt><trkpt lat="41.4904071" lon="12.8327394"><ele>27.4</ele><time>2026-04-18T13:40:53.29Z</time></trkpt><trkpt lat="41.4903437" lon="12.8327303"><ele>26.799999999999997</ele><time>2026-04-18T13:40:54.29Z</time></trkpt><trkpt lat="41.4902785" lon="12.832724"><ele>26.2</ele><time>2026-04-18T13:40:55.29Z</time></trkpt><trkpt lat="41.4901448" lon="12.8327123"><ele>25.6</ele><time>2026-04-18T13:40:57.29Z</time></trkpt><trkpt lat="41.4900069" lon="12.8327129"><ele>25.0</ele><time>2026-04-18T13:40:59.291Z</time></trkpt><trkpt lat="41.4898814" lon="12.8327168"><ele>25.0</ele><time>2026-04-18T13:41:01.29Z</time></trkpt><trkpt lat="41.4897544" lon="12.8326974"><ele>25.0</ele><time>2026-04-18T13:41:03.291Z</time></trkpt><trkpt lat="41.4896185" lon="12.8326895"><ele>25.0</ele><time>2026-04-18T13:41:05.29Z</time></trkpt><trkpt lat="41.489472" lon="12.8326747"><ele>25.0</ele><time>2026-04-18T13:41:07.291Z</time></trkpt><trkpt lat="41.489322" lon="12.8326653"><ele>24.8</ele><time>2026-04-18T13:41:09.291Z</time></trkpt><trkpt lat="41.489173" lon="12.8326605"><ele>24.6</ele><time>2026-04-18T13:41:11.291Z</time></trkpt><trkpt lat="41.489098" lon="12.8326542"><ele>24.4</ele><time>2026-04-18T13:41:12.29Z</time></trkpt><trkpt lat="41.4890232" lon="12.8326479"><ele>24.2</ele><time>2026-04-18T13:41:13.29Z</time></trkpt><trkpt lat="41.4888749" lon="12.8326437"><ele>24.0</ele><time>2026-04-18T13:41:15.291Z</time></trkpt><trkpt lat="41.4887189" lon="12.8326396"><ele>24.0</ele><time>2026-04-18T13:41:17.291Z</time></trkpt><trkpt lat="41.4886499" lon="12.8326488"><ele>24.0</ele><time>2026-04-18T13:41:18.29Z</time></trkpt><trkpt lat="41.4885743" lon="12.8326461"><ele>24.0</ele><time>2026-04-18T13:41:19.291Z</time></trkpt><trkpt lat="41.4885114" lon="12.8326518"><ele>24.0</ele><time>2026-04-18T13:41:20.29Z</time></trkpt><trkpt lat="41.4883759" lon="12.8326402"><ele>24.0</ele><time>2026-04-18T13:41:22.29Z</time></trkpt><trkpt lat="41.4881986" lon="12.832671"><ele>24.0</ele><time>2026-04-18T13:41:25.29Z</time></trkpt><trkpt lat="41.4880835" lon="12.8326946"><ele>24.0</ele><time>2026-04-18T13:41:27.29Z</time></trkpt><trkpt lat="41.4879611" lon="12.8327201"><ele>24.0</ele><time>2026-04-18T13:41:29.29Z</time></trkpt><trkpt lat="41.4878938" lon="12.8327309"><ele>24.0</ele><time>2026-04-18T13:41:30.29Z</time></trkpt><trkpt lat="41.4878295" lon="12.8327448"><ele>24.0</ele><time>2026-04-18T13:41:31.29Z</time></trkpt><trkpt lat="41.4877024" lon="12.8327654"><ele>24.2</ele><time>2026-04-18T13:41:33.291Z</time></trkpt><trkpt lat="41.487638" lon="12.8327744"><ele>24.4</ele><time>2026-04-18T13:41:34.29Z</time></trkpt><trkpt lat="41.4875707" lon="12.8327933"><ele>24.6</ele><time>2026-04-18T13:41:35.291Z</time></trkpt><trkpt lat="41.4874473" lon="12.8328341"><ele>24.8</ele><time>2026-04-18T13:41:37.291Z</time></trkpt><trkpt lat="41.4873295" lon="12.8328819"><ele>25.0</ele><time>2026-04-18T13:41:39.291Z</time></trkpt><trkpt lat="41.4872224" lon="12.8329391"><ele>25.0</ele><time>2026-04-18T13:41:41.291Z</time></trkpt><trkpt lat="41.4871055" lon="12.8329821"><ele>25.0</ele><time>2026-04-18T13:41:43.29Z</time></trkpt><trkpt lat="41.4869872" lon="12.8330114"><ele>25.0</ele><time>2026-04-18T13:41:45.291Z</time></trkpt><trkpt lat="41.4869243" lon="12.8330285"><ele>25.0</ele><time>2026-04-18T13:41:46.29Z</time></trkpt><trkpt lat="41.4868071" lon="12.8330731"><ele>25.0</ele><time>2026-04-18T13:41:48.291Z</time></trkpt><trkpt lat="41.4866914" lon="12.8331214"><ele>25.2</ele><time>2026-04-18T13:41:50.291Z</time></trkpt><trkpt lat="41.4866331" lon="12.833154"><ele>25.4</ele><time>2026-04-18T13:41:51.29Z</time></trkpt><trkpt lat="41.486517" lon="12.8332113"><ele>25.6</ele><time>2026-04-18T13:41:53.291Z</time></trkpt><trkpt lat="41.4864548" lon="12.8332411"><ele>25.8</ele><time>2026-04-18T13:41:54.29Z</time></trkpt><trkpt lat="41.4863428" lon="12.8332938"><ele>26.0</ele><time>2026-04-18T13:41:56.29Z</time></trkpt><trkpt lat="41.4862358" lon="12.8333375"><ele>26.0</ele><time>2026-04-18T13:41:58.291Z</time></trkpt><trkpt lat="41.4861277" lon="12.8333816"><ele>26.0</ele><time>2026-04-18T13:42:00.291Z</time></trkpt><trkpt lat="41.486002" lon="12.8334314"><ele>26.0</ele><time>2026-04-18T13:42:02.291Z</time></trkpt><trkpt lat="41.4859378" lon="12.8334636"><ele>26.0</ele><time>2026-04-18T13:42:03.291Z</time></trkpt><trkpt lat="41.4858665" lon="12.8334851"><ele>26.0</ele><time>2026-04-18T13:42:04.29Z</time></trkpt><trkpt lat="41.4858036" lon="12.8335254"><ele>26.0</ele><time>2026-04-18T13:42:05.29Z</time></trkpt><trkpt lat="41.4857434" lon="12.8335656"><ele>26.0</ele><time>2026-04-18T13:42:06.291Z</time></trkpt><trkpt lat="41.4856853" lon="12.8336112"><ele>26.0</ele><time>2026-04-18T13:42:07.291Z</time></trkpt><trkpt lat="41.4856224" lon="12.8336426"><ele>26.0</ele><time>2026-04-18T13:42:08.29Z</time></trkpt><trkpt lat="41.4855173" lon="12.8337041"><ele>26.0</ele><time>2026-04-18T13:42:10.29Z</time></trkpt><trkpt lat="41.4854581" lon="12.8337358"><ele>26.0</ele><time>2026-04-18T13:42:11.291Z</time></trkpt><trkpt lat="41.4854023" lon="12.8337772"><ele>26.0</ele><time>2026-04-18T13:42:12.291Z</time></trkpt><trkpt lat="41.4852985" lon="12.8338534"><ele>25.5</ele><time>2026-04-18T13:42:14.29Z</time></trkpt><trkpt lat="41.4851417" lon="12.8339761"><ele>25.0</ele><time>2026-04-18T13:42:17.29Z</time></trkpt><trkpt lat="41.4850364" lon="12.8340282"><ele>24.5</ele><time>2026-04-18T13:42:19.291Z</time></trkpt><trkpt lat="41.4849242" lon="12.8340673"><ele>24.0</ele><time>2026-04-18T13:42:21.29Z</time></trkpt><trkpt lat="41.484816" lon="12.8341141"><ele>24.0</ele><time>2026-04-18T13:42:23.29Z</time></trkpt><trkpt lat="41.4847048" lon="12.8341665"><ele>24.0</ele><time>2026-04-18T13:42:25.29Z</time></trkpt><trkpt lat="41.4845952" lon="12.8342283"><ele>24.0</ele><time>2026-04-18T13:42:27.29Z</time></trkpt><trkpt lat="41.4844796" lon="12.8342852"><ele>24.0</ele><time>2026-04-18T13:42:29.291Z</time></trkpt><trkpt lat="41.4843189" lon="12.8343748"><ele>24.5</ele><time>2026-04-18T13:42:32.29Z</time></trkpt><trkpt lat="41.4842114" lon="12.8344283"><ele>25.0</ele><time>2026-04-18T13:42:34.29Z</time></trkpt><trkpt lat="41.4840995" lon="12.8344909"><ele>25.5</ele><time>2026-04-18T13:42:36.29Z</time></trkpt><trkpt lat="41.4839818" lon="12.8345605"><ele>26.0</ele><time>2026-04-18T13:42:38.29Z</time></trkpt><trkpt lat="41.4838778" lon="12.8346266"><ele>26.0</ele><time>2026-04-18T13:42:40.29Z</time></trkpt><trkpt lat="41.4837708" lon="12.8346792"><ele>26.0</ele><time>2026-04-18T13:42:42.29Z</time></trkpt><trkpt lat="41.4836665" lon="12.8347304"><ele>26.0</ele><time>2026-04-18T13:42:44.29Z</time></trkpt><trkpt lat="41.4835778" lon="12.8347815"><ele>26.0</ele><time>2026-04-18T13:42:46.291Z</time></trkpt><trkpt lat="41.4834949" lon="12.83483"><ele>26.0</ele><time>2026-04-18T13:42:48.29Z</time></trkpt><trkpt lat="41.4834054" lon="12.834882"><ele>25.6</ele><time>2026-04-18T13:42:50.291Z</time></trkpt><trkpt lat="41.4833042" lon="12.8349397"><ele>25.200000000000003</ele><time>2026-04-18T13:42:52.29Z</time></trkpt><trkpt lat="41.4831802" lon="12.8350243"><ele>24.799999999999997</ele><time>2026-04-18T13:42:55.291Z</time></trkpt><trkpt lat="41.483093" lon="12.8350761"><ele>24.4</ele><time>2026-04-18T13:42:57.291Z</time></trkpt><trkpt lat="41.4830023" lon="12.8351349"><ele>24.0</ele><time>2026-04-18T13:42:59.29Z</time></trkpt><trkpt lat="41.4828735" lon="12.8352047"><ele>24.0</ele><time>2026-04-18T13:43:02.291Z</time></trkpt><trkpt lat="41.4827788" lon="12.8352595"><ele>24.0</ele><time>2026-04-18T13:43:04.29Z</time></trkpt><trkpt lat="41.4826823" lon="12.8353128"><ele>24.0</ele><time>2026-04-18T13:43:06.29Z</time></trkpt><trkpt lat="41.4825769" lon="12.8353883"><ele>24.0</ele><time>2026-04-18T13:43:08.291Z</time></trkpt><trkpt lat="41.4825164" lon="12.8354267"><ele>24.0</ele><time>2026-04-18T13:43:09.291Z</time></trkpt><trkpt lat="41.4824575" lon="12.8354617"><ele>24.0</ele><time>2026-04-18T13:43:10.29Z</time></trkpt><trkpt lat="41.4823953" lon="12.8354953"><ele>24.0</ele><time>2026-04-18T13:43:11.29Z</time></trkpt><trkpt lat="41.4822782" lon="12.8355656"><ele>24.0</ele><time>2026-04-18T13:43:13.291Z</time></trkpt><trkpt lat="41.4822187" lon="12.8355954"><ele>24.0</ele><time>2026-04-18T13:43:14.291Z</time></trkpt><trkpt lat="41.4821565" lon="12.835631"><ele>24.0</ele><time>2026-04-18T13:43:15.291Z</time></trkpt><trkpt lat="41.4820984" lon="12.8356667"><ele>24.0</ele><time>2026-04-18T13:43:16.29Z</time></trkpt><trkpt lat="41.4819881" lon="12.8357309"><ele>23.4</ele><time>2026-04-18T13:43:18.29Z</time></trkpt><trkpt lat="41.481877" lon="12.8357989"><ele>22.799999999999997</ele><time>2026-04-18T13:43:20.29Z</time></trkpt><trkpt lat="41.481818" lon="12.8358302"><ele>22.200000000000003</ele><time>2026-04-18T13:43:21.29Z</time></trkpt><trkpt lat="41.4817169" lon="12.8359002"><ele>21.6</ele><time>2026-04-18T13:43:23.29Z</time></trkpt><trkpt lat="41.4816103" lon="12.8359784"><ele>21.0</ele><time>2026-04-18T13:43:25.29Z</time></trkpt><trkpt lat="41.4815027" lon="12.8360469"><ele>21.0</ele><time>2026-04-18T13:43:27.29Z</time></trkpt><trkpt lat="41.48139" lon="12.8360679"><ele>21.0</ele><time>2026-04-18T13:43:29.29Z</time></trkpt><trkpt lat="41.4812776" lon="12.836106"><ele>21.0</ele><time>2026-04-18T13:43:31.291Z</time></trkpt><trkpt lat="41.4811689" lon="12.8361452"><ele>21.0</ele><time>2026-04-18T13:43:33.291Z</time></trkpt><trkpt lat="41.4810596" lon="12.8361837"><ele>20.75</ele><time>2026-04-18T13:43:35.29Z</time></trkpt><trkpt lat="41.4808963" lon="12.8362368"><ele>20.5</ele><time>2026-04-18T13:43:38.291Z</time></trkpt><trkpt lat="41.480788" lon="12.8362735"><ele>20.25</ele><time>2026-04-18T13:43:40.29Z</time></trkpt><trkpt lat="41.4806933" lon="12.8363007"><ele>20.0</ele><time>2026-04-18T13:43:42.291Z</time></trkpt><trkpt lat="41.4805649" lon="12.8363404"><ele>20.0</ele><time>2026-04-18T13:43:44.291Z</time></trkpt><trkpt lat="41.4804593" lon="12.8363741"><ele>20.0</ele><time>2026-04-18T13:43:46.29Z</time></trkpt><trkpt lat="41.4803484" lon="12.8364055"><ele>20.0</ele><time>2026-04-18T13:43:48.29Z</time></trkpt><trkpt lat="41.4802436" lon="12.8364288"><ele>20.0</ele><time>2026-04-18T13:43:50.291Z</time></trkpt><trkpt lat="41.4800827" lon="12.836467"><ele>20.4</ele><time>2026-04-18T13:43:53.29Z</time></trkpt><trkpt lat="41.4799831" lon="12.8364859"><ele>20.8</ele><time>2026-04-18T13:43:55.291Z</time></trkpt><trkpt lat="41.4798771" lon="12.836512"><ele>21.200000000000003</ele><time>2026-04-18T13:43:57.29Z</time></trkpt><trkpt lat="41.4797559" lon="12.836542"><ele>21.6</ele><time>2026-04-18T13:43:59.29Z</time></trkpt><trkpt lat="41.4796431" lon="12.8365659"><ele>22.0</ele><time>2026-04-18T13:44:01.291Z</time></trkpt><trkpt lat="41.4794955" lon="12.836529"><ele>22.0</ele><time>2026-04-18T13:44:04.291Z</time></trkpt><trkpt lat="41.4793875" lon="12.8364831"><ele>22.0</ele><time>2026-04-18T13:44:06.29Z</time></trkpt><trkpt lat="41.4792242" lon="12.8364288"><ele>22.0</ele><time>2026-04-18T13:44:09.29Z</time></trkpt><trkpt lat="41.4791145" lon="12.8364099"><ele>22.0</ele><time>2026-04-18T13:44:11.291Z</time></trkpt><trkpt lat="41.4789966" lon="12.836378"><ele>22.0</ele><time>2026-04-18T13:44:13.29Z</time></trkpt><trkpt lat="41.4788836" lon="12.8363557"><ele>22.0</ele><time>2026-04-18T13:44:15.291Z</time></trkpt><trkpt lat="41.4787883" lon="12.8363327"><ele>22.0</ele><time>2026-04-18T13:44:17.29Z</time></trkpt><trkpt lat="41.4786796" lon="12.8362988"><ele>22.0</ele><time>2026-04-18T13:44:19.291Z</time></trkpt><trkpt lat="41.4784999" lon="12.8362631"><ele>21.75</ele><time>2026-04-18T13:44:22.29Z</time></trkpt><trkpt lat="41.4784355" lon="12.8362452"><ele>21.5</ele><time>2026-04-18T13:44:23.291Z</time></trkpt><trkpt lat="41.478269" lon="12.8361914"><ele>21.25</ele><time>2026-04-18T13:44:26.291Z</time></trkpt><trkpt lat="41.4781489" lon="12.8361489"><ele>21.0</ele><time>2026-04-18T13:44:28.29Z</time></trkpt><trkpt lat="41.4780303" lon="12.8361052"><ele>21.0</ele><time>2026-04-18T13:44:30.29Z</time></trkpt><trkpt lat="41.4779675" lon="12.8360826"><ele>21.0</ele><time>2026-04-18T13:44:31.29Z</time></trkpt><trkpt lat="41.4779038" lon="12.8360581"><ele>21.0</ele><time>2026-04-18T13:44:32.29Z</time></trkpt><trkpt lat="41.4777855" lon="12.8360129"><ele>21.0</ele><time>2026-04-18T13:44:34.29Z</time></trkpt><trkpt lat="41.4776663" lon="12.8359701"><ele>21.0</ele><time>2026-04-18T13:44:36.291Z</time></trkpt><trkpt lat="41.4775543" lon="12.835924"><ele>21.333333333333332</ele><time>2026-04-18T13:44:38.291Z</time></trkpt><trkpt lat="41.4774433" lon="12.8358748"><ele>21.666666666666668</ele><time>2026-04-18T13:44:40.29Z</time></trkpt><trkpt lat="41.477375" lon="12.8358483"><ele>22.0</ele><time>2026-04-18T13:44:41.29Z</time></trkpt><trkpt lat="41.477313" lon="12.8358234"><ele>22.333333333333336</ele><time>2026-04-18T13:44:42.29Z</time></trkpt><trkpt lat="41.4772505" lon="12.835808"><ele>22.666666666666668</ele><time>2026-04-18T13:44:43.29Z</time></trkpt><trkpt lat="41.4771889" lon="12.8357854"><ele>23.0</ele><time>2026-04-18T13:44:44.29Z</time></trkpt><trkpt lat="41.4770873" lon="12.8357479"><ele>23.0</ele><time>2026-04-18T13:44:46.291Z</time></trkpt><trkpt lat="41.4769306" lon="12.8357098"><ele>23.0</ele><time>2026-04-18T13:44:49.29Z</time></trkpt><trkpt lat="41.4768236" lon="12.8356863"><ele>23.0</ele><time>2026-04-18T13:44:51.29Z</time></trkpt><trkpt lat="41.4767296" lon="12.8356535"><ele>23.0</ele><time>2026-04-18T13:44:53.29Z</time></trkpt><trkpt lat="41.4766193" lon="12.835598"><ele>23.0</ele><time>2026-04-18T13:44:55.291Z</time></trkpt><trkpt lat="41.4765553" lon="12.8355683"><ele>23.0</ele><time>2026-04-18T13:44:56.291Z</time></trkpt><trkpt lat="41.4764896" lon="12.8355389"><ele>23.0</ele><time>2026-04-18T13:44:57.29Z</time></trkpt><trkpt lat="41.4763417" lon="12.8354827"><ele>23.0</ele><time>2026-04-18T13:44:59.291Z</time></trkpt><trkpt lat="41.4762667" lon="12.8354586"><ele>23.0</ele><time>2026-04-18T13:45:00.29Z</time></trkpt><trkpt lat="41.4761921" lon="12.8354283"><ele>23.0</ele><time>2026-04-18T13:45:01.291Z</time></trkpt><trkpt lat="41.4761181" lon="12.8353943"><ele>22.833333333333336</ele><time>2026-04-18T13:45:02.29Z</time></trkpt><trkpt lat="41.4760461" lon="12.8353688"><ele>22.666666666666668</ele><time>2026-04-18T13:45:03.291Z</time></trkpt><trkpt lat="41.4759758" lon="12.8353503"><ele>22.5</ele><time>2026-04-18T13:45:04.29Z</time></trkpt><trkpt lat="41.4759039" lon="12.8353161"><ele>22.333333333333332</ele><time>2026-04-18T13:45:05.29Z</time></trkpt><trkpt lat="41.4758331" lon="12.835288"><ele>22.166666666666664</ele><time>2026-04-18T13:45:06.29Z</time></trkpt><trkpt lat="41.4757488" lon="12.8352557"><ele>22.0</ele><time>2026-04-18T13:45:07.29Z</time></trkpt><trkpt lat="41.4756677" lon="12.835216"><ele>22.0</ele><time>2026-04-18T13:45:08.29Z</time></trkpt><trkpt lat="41.4755856" lon="12.8351841"><ele>22.0</ele><time>2026-04-18T13:45:09.29Z</time></trkpt><trkpt lat="41.4754271" lon="12.8351187"><ele>22.0</ele><time>2026-04-18T13:45:11.29Z</time></trkpt><trkpt lat="41.4753442" lon="12.8350873"><ele>22.0</ele><time>2026-04-18T13:45:12.29Z</time></trkpt><trkpt lat="41.4752643" lon="12.8350507"><ele>22.0</ele><time>2026-04-18T13:45:13.29Z</time></trkpt><trkpt lat="41.4751864" lon="12.8350094"><ele>21.833333333333332</ele><time>2026-04-18T13:45:14.29Z</time></trkpt><trkpt lat="41.4751144" lon="12.8349688"><ele>21.666666666666664</ele><time>2026-04-18T13:45:15.29Z</time></trkpt><trkpt lat="41.475041" lon="12.8349236"><ele>21.5</ele><time>2026-04-18T13:45:16.29Z</time></trkpt><trkpt lat="41.4749696" lon="12.8348704"><ele>21.333333333333332</ele><time>2026-04-18T13:45:17.291Z</time></trkpt><trkpt lat="41.474895" lon="12.834803"><ele>21.166666666666668</ele><time>2026-04-18T13:45:18.291Z</time></trkpt><trkpt lat="41.4748272" lon="12.834742"><ele>21.0</ele><time>2026-04-18T13:45:19.29Z</time></trkpt><trkpt lat="41.4747019" lon="12.8345903"><ele>21.0</ele><time>2026-04-18T13:45:21.29Z</time></trkpt><trkpt lat="41.4745893" lon="12.8344319"><ele>21.0</ele><time>2026-04-18T13:45:23.29Z</time></trkpt><trkpt lat="41.4745426" lon="12.8343476"><ele>21.0</ele><time>2026-04-18T13:45:24.29Z</time></trkpt><trkpt lat="41.4745043" lon="12.8342546"><ele>21.0</ele><time>2026-04-18T13:45:25.291Z</time></trkpt><trkpt lat="41.4744578" lon="12.834176"><ele>21.0</ele><time>2026-04-18T13:45:26.291Z</time></trkpt><trkpt lat="41.4744182" lon="12.8340854"><ele>21.0</ele><time>2026-04-18T13:45:27.291Z</time></trkpt><trkpt lat="41.4743819" lon="12.833995"><ele>21.0</ele><time>2026-04-18T13:45:28.29Z</time></trkpt><trkpt lat="41.4743386" lon="12.8339033"><ele>21.0</ele><time>2026-04-18T13:45:29.291Z</time></trkpt><trkpt lat="41.4743126" lon="12.8338154"><ele>21.0</ele><time>2026-04-18T13:45:30.29Z</time></trkpt><trkpt lat="41.4742655" lon="12.8336113"><ele>21.0</ele><time>2026-04-18T13:45:32.291Z</time></trkpt><trkpt lat="41.4742526" lon="12.8335003"><ele>20.25</ele><time>2026-04-18T13:45:33.291Z</time></trkpt><trkpt lat="41.4742443" lon="12.8333907"><ele>19.5</ele><time>2026-04-18T13:45:34.291Z</time></trkpt><trkpt lat="41.4742346" lon="12.8332781"><ele>18.75</ele><time>2026-04-18T13:45:35.291Z</time></trkpt><trkpt lat="41.474231" lon="12.8330572"><ele>18.0</ele><time>2026-04-18T13:45:37.29Z</time></trkpt><trkpt lat="41.4742363" lon="12.8328359"><ele>18.0</ele><time>2026-04-18T13:45:39.291Z</time></trkpt><trkpt lat="41.4742462" lon="12.8327247"><ele>18.0</ele><time>2026-04-18T13:45:40.29Z</time></trkpt><trkpt lat="41.4742627" lon="12.8326124"><ele>18.0</ele><time>2026-04-18T13:45:41.29Z</time></trkpt><trkpt lat="41.4742849" lon="12.8325023"><ele>18.0</ele><time>2026-04-18T13:45:42.29Z</time></trkpt><trkpt lat="41.4743124" lon="12.8323905"><ele>18.0</ele><time>2026-04-18T13:45:43.29Z</time></trkpt><trkpt lat="41.474377" lon="12.83218"><ele>18.0</ele><time>2026-04-18T13:45:45.29Z</time></trkpt><trkpt lat="41.4744493" lon="12.8319474"><ele>18.0</ele><time>2026-04-18T13:45:47.29Z</time></trkpt><trkpt lat="41.4745333" lon="12.8317161"><ele>18.0</ele><time>2026-04-18T13:45:49.29Z</time></trkpt><trkpt lat="41.474569" lon="12.8316062"><ele>18.0</ele><time>2026-04-18T13:45:50.29Z</time></trkpt><trkpt lat="41.474612" lon="12.8314985"><ele>18.0</ele><time>2026-04-18T13:45:51.29Z</time></trkpt><trkpt lat="41.4746852" lon="12.8312811"><ele>18.0</ele><time>2026-04-18T13:45:53.29Z</time></trkpt><trkpt lat="41.4747237" lon="12.831177"><ele>18.0</ele><time>2026-04-18T13:45:54.29Z</time></trkpt><trkpt lat="41.4747591" lon="12.8310704"><ele>18.0</ele><time>2026-04-18T13:45:55.291Z</time></trkpt><trkpt lat="41.4748347" lon="12.8308548"><ele>18.0</ele><time>2026-04-18T13:45:57.29Z</time></trkpt><trkpt lat="41.4748685" lon="12.8307604"><ele>18.0</ele><time>2026-04-18T13:45:58.29Z</time></trkpt><trkpt lat="41.4749233" lon="12.8305963"><ele>18.0</ele><time>2026-04-18T13:46:00.291Z</time></trkpt><trkpt lat="41.4749435" lon="12.830462"><ele>18.0</ele><time>2026-04-18T13:46:02.291Z</time></trkpt><trkpt lat="41.4748995" lon="12.8303503"><ele>18.0</ele><time>2026-04-18T13:46:04.291Z</time></trkpt><trkpt lat="41.4748924" lon="12.8302344"><ele>17.8</ele><time>2026-04-18T13:46:06.291Z</time></trkpt><trkpt lat="41.4749421" lon="12.8301269"><ele>17.6</ele><time>2026-04-18T13:46:08.29Z</time></trkpt><trkpt lat="41.4749729" lon="12.8300434"><ele>17.4</ele><time>2026-04-18T13:46:09.29Z</time></trkpt><trkpt lat="41.4750061" lon="12.8299541"><ele>17.2</ele><time>2026-04-18T13:46:10.29Z</time></trkpt><trkpt lat="41.4750906" lon="12.8297615"><ele>17.0</ele><time>2026-04-18T13:46:12.29Z</time></trkpt><trkpt lat="41.4751324" lon="12.829668"><ele>17.0</ele><time>2026-04-18T13:46:13.29Z</time></trkpt><trkpt lat="41.4751662" lon="12.8295691"><ele>17.0</ele><time>2026-04-18T13:46:14.29Z</time></trkpt><trkpt lat="41.4752031" lon="12.8294564"><ele>17.0</ele><time>2026-04-18T13:46:15.29Z</time></trkpt><trkpt lat="41.4752947" lon="12.8292037"><ele>17.0</ele><time>2026-04-18T13:46:17.291Z</time></trkpt><trkpt lat="41.4753878" lon="12.8289296"><ele>17.333333333333336</ele><time>2026-04-18T13:46:19.291Z</time></trkpt><trkpt lat="41.4754346" lon="12.82879"><ele>17.666666666666668</ele><time>2026-04-18T13:46:20.29Z</time></trkpt><trkpt lat="41.4755335" lon="12.8285145"><ele>18.0</ele><time>2026-04-18T13:46:22.29Z</time></trkpt><trkpt lat="41.4756216" lon="12.828261"><ele>18.25</ele><time>2026-04-18T13:46:24.291Z</time></trkpt><trkpt lat="41.4756599" lon="12.8281452"><ele>18.5</ele><time>2026-04-18T13:46:25.291Z</time></trkpt><trkpt lat="41.4756957" lon="12.8280305"><ele>18.75</ele><time>2026-04-18T13:46:26.29Z</time></trkpt><trkpt lat="41.475725" lon="12.8279198"><ele>19.0</ele><time>2026-04-18T13:46:27.291Z</time></trkpt><trkpt lat="41.4757995" lon="12.8276782"><ele>19.0</ele><time>2026-04-18T13:46:29.29Z</time></trkpt><trkpt lat="41.475867" lon="12.8274379"><ele>19.0</ele><time>2026-04-18T13:46:31.29Z</time></trkpt><trkpt lat="41.4759345" lon="12.827189"><ele>19.0</ele><time>2026-04-18T13:46:33.291Z</time></trkpt><trkpt lat="41.4760121" lon="12.8269347"><ele>19.0</ele><time>2026-04-18T13:46:35.291Z</time></trkpt><trkpt lat="41.4760548" lon="12.8268152"><ele>19.0</ele><time>2026-04-18T13:46:36.29Z</time></trkpt><trkpt lat="41.4761223" lon="12.826567"><ele>19.0</ele><time>2026-04-18T13:46:38.29Z</time></trkpt><trkpt lat="41.4761594" lon="12.8262936"><ele>19.0</ele><time>2026-04-18T13:46:40.29Z</time></trkpt><trkpt lat="41.4761718" lon="12.8261615"><ele>19.0</ele><time>2026-04-18T13:46:41.29Z</time></trkpt><trkpt lat="41.476189" lon="12.8260223"><ele>19.0</ele><time>2026-04-18T13:46:42.29Z</time></trkpt><trkpt lat="41.4762078" lon="12.8258814"><ele>19.0</ele><time>2026-04-18T13:46:43.291Z</time></trkpt><trkpt lat="41.4762219" lon="12.8257472"><ele>19.0</ele><time>2026-04-18T13:46:44.291Z</time></trkpt><trkpt lat="41.4762351" lon="12.825606"><ele>19.0</ele><time>2026-04-18T13:46:45.29Z</time></trkpt><trkpt lat="41.4762352" lon="12.8254779"><ele>19.0</ele><time>2026-04-18T13:46:46.29Z</time></trkpt><trkpt lat="41.4762377" lon="12.825345"><ele>19.0</ele><time>2026-04-18T13:46:47.29Z</time></trkpt><trkpt lat="41.4762433" lon="12.8252128"><ele>19.0</ele><time>2026-04-18T13:46:48.29Z</time></trkpt><trkpt lat="41.4762512" lon="12.8250882"><ele>19.0</ele><time>2026-04-18T13:46:49.291Z</time></trkpt><trkpt lat="41.4762534" lon="12.824983"><ele>19.0</ele><time>2026-04-18T13:46:50.29Z</time></trkpt><trkpt lat="41.4762531" lon="12.8248917"><ele>19.0</ele><time>2026-04-18T13:46:51.29Z</time></trkpt><trkpt lat="41.4762434" lon="12.824804"><ele>19.0</ele><time>2026-04-18T13:46:52.291Z</time></trkpt><trkpt lat="41.4762291" lon="12.8247011"><ele>19.0</ele><time>2026-04-18T13:46:53.291Z</time></trkpt><trkpt lat="41.4762252" lon="12.8246102"><ele>19.0</ele><time>2026-04-18T13:46:54.29Z</time></trkpt><trkpt lat="41.4762333" lon="12.8245032"><ele>19.0</ele><time>2026-04-18T13:46:55.291Z</time></trkpt><trkpt lat="41.4762424" lon="12.8243926"><ele>19.0</ele><time>2026-04-18T13:46:56.29Z</time></trkpt><trkpt lat="41.4762491" lon="12.8242535"><ele>18.75</ele><time>2026-04-18T13:46:57.29Z</time></trkpt><trkpt lat="41.4762639" lon="12.8241039"><ele>18.5</ele><time>2026-04-18T13:46:58.29Z</time></trkpt><trkpt lat="41.4762705" lon="12.8239569"><ele>18.25</ele><time>2026-04-18T13:46:59.291Z</time></trkpt><trkpt lat="41.476274" lon="12.8238075"><ele>18.0</ele><time>2026-04-18T13:47:00.291Z</time></trkpt><trkpt lat="41.476279" lon="12.8236492"><ele>18.0</ele><time>2026-04-18T13:47:01.291Z</time></trkpt><trkpt lat="41.4762798" lon="12.8234996"><ele>18.0</ele><time>2026-04-18T13:47:02.29Z</time></trkpt><trkpt lat="41.4762761" lon="12.8233535"><ele>18.0</ele><time>2026-04-18T13:47:03.291Z</time></trkpt><trkpt lat="41.476271" lon="12.8232032"><ele>18.0</ele><time>2026-04-18T13:47:04.29Z</time></trkpt><trkpt lat="41.4762469" lon="12.8230536"><ele>18.0</ele><time>2026-04-18T13:47:05.291Z</time></trkpt><trkpt lat="41.4762255" lon="12.8228983"><ele>18.0</ele><time>2026-04-18T13:47:06.29Z</time></trkpt><trkpt lat="41.4761927" lon="12.8227453"><ele>18.0</ele><time>2026-04-18T13:47:07.29Z</time></trkpt><trkpt lat="41.4761542" lon="12.8225941"><ele>18.0</ele><time>2026-04-18T13:47:08.29Z</time></trkpt><trkpt lat="41.4761093" lon="12.8224506"><ele>18.0</ele><time>2026-04-18T13:47:09.29Z</time></trkpt><trkpt lat="41.476054" lon="12.8223192"><ele>18.0</ele><time>2026-04-18T13:47:10.291Z</time></trkpt><trkpt lat="41.4759979" lon="12.8221933"><ele>18.0</ele><time>2026-04-18T13:47:11.291Z</time></trkpt><trkpt lat="41.4759156" lon="12.8221113"><ele>18.0</ele><time>2026-04-18T13:47:12.291Z</time></trkpt><trkpt lat="41.4758484" lon="12.8220066"><ele>18.0</ele><time>2026-04-18T13:47:13.29Z</time></trkpt><trkpt lat="41.475759" lon="12.821916"><ele>18.0</ele><time>2026-04-18T13:47:14.29Z</time></trkpt><trkpt lat="41.4756662" lon="12.8218329"><ele>18.0</ele><time>2026-04-18T13:47:15.29Z</time></trkpt><trkpt lat="41.4755701" lon="12.8217682"><ele>18.0</ele><time>2026-04-18T13:47:16.29Z</time></trkpt><trkpt lat="41.4754733" lon="12.8217018"><ele>18.0</ele><time>2026-04-18T13:47:17.29Z</time></trkpt><trkpt lat="41.4753705" lon="12.8216376"><ele>18.0</ele><time>2026-04-18T13:47:18.29Z</time></trkpt><trkpt lat="41.4752657" lon="12.8215858"><ele>18.0</ele><time>2026-04-18T13:47:19.29Z</time></trkpt><trkpt lat="41.4751569" lon="12.8215501"><ele>18.0</ele><time>2026-04-18T13:47:20.29Z</time></trkpt><trkpt lat="41.4750372" lon="12.8215307"><ele>18.0</ele><time>2026-04-18T13:47:21.29Z</time></trkpt><trkpt lat="41.4749187" lon="12.8215229"><ele>18.0</ele><time>2026-04-18T13:47:22.29Z</time></trkpt><trkpt lat="41.4747776" lon="12.8215196"><ele>18.0</ele><time>2026-04-18T13:47:23.291Z</time></trkpt><trkpt lat="41.4746278" lon="12.821529"><ele>17.666666666666668</ele><time>2026-04-18T13:47:24.291Z</time></trkpt><trkpt lat="41.4744773" lon="12.8215415"><ele>17.333333333333336</ele><time>2026-04-18T13:47:25.291Z</time></trkpt><trkpt lat="41.4743116" lon="12.8215555"><ele>17.0</ele><time>2026-04-18T13:47:26.291Z</time></trkpt><trkpt lat="41.474155" lon="12.8215748"><ele>17.0</ele><time>2026-04-18T13:47:27.29Z</time></trkpt><trkpt lat="41.4740027" lon="12.821583"><ele>17.0</ele><time>2026-04-18T13:47:28.291Z</time></trkpt><trkpt lat="41.4738522" lon="12.8215961"><ele>17.0</ele><time>2026-04-18T13:47:29.29Z</time></trkpt><trkpt lat="41.4737032" lon="12.8216067"><ele>17.0</ele><time>2026-04-18T13:47:30.29Z</time></trkpt><trkpt lat="41.4735569" lon="12.8216233"><ele>17.0</ele><time>2026-04-18T13:47:31.29Z</time></trkpt><trkpt lat="41.4734145" lon="12.8216404"><ele>17.0</ele><time>2026-04-18T13:47:32.29Z</time></trkpt><trkpt lat="41.4732739" lon="12.8216579"><ele>17.0</ele><time>2026-04-18T13:47:33.291Z</time></trkpt><trkpt lat="41.4731358" lon="12.8216677"><ele>17.0</ele><time>2026-04-18T13:47:34.29Z</time></trkpt><trkpt lat="41.4730052" lon="12.8216801"><ele>17.0</ele><time>2026-04-18T13:47:35.29Z</time></trkpt><trkpt lat="41.4728789" lon="12.8216899"><ele>17.0</ele><time>2026-04-18T13:47:36.291Z</time></trkpt><trkpt lat="41.4727552" lon="12.8216995"><ele>17.0</ele><time>2026-04-18T13:47:37.291Z</time></trkpt><trkpt lat="41.4726325" lon="12.8217046"><ele>17.0</ele><time>2026-04-18T13:47:38.291Z</time></trkpt><trkpt lat="41.4725166" lon="12.821715"><ele>17.0</ele><time>2026-04-18T13:47:39.291Z</time></trkpt><trkpt lat="41.4724078" lon="12.8217219"><ele>17.0</ele><time>2026-04-18T13:47:40.29Z</time></trkpt><trkpt lat="41.4723055" lon="12.8217197"><ele>17.0</ele><time>2026-04-18T13:47:41.29Z</time></trkpt><trkpt lat="41.4722032" lon="12.8217049"><ele>17.0</ele><time>2026-04-18T13:47:42.29Z</time></trkpt><trkpt lat="41.4719926" lon="12.8216355"><ele>17.0</ele><time>2026-04-18T13:47:44.29Z</time></trkpt><trkpt lat="41.4717961" lon="12.8215109"><ele>17.0</ele><time>2026-04-18T13:47:46.29Z</time></trkpt><trkpt lat="41.471701" lon="12.8214487"><ele>17.0</ele><time>2026-04-18T13:47:47.29Z</time></trkpt><trkpt lat="41.471608" lon="12.8213633"><ele>17.0</ele><time>2026-04-18T13:47:48.291Z</time></trkpt><trkpt lat="41.4715206" lon="12.8212734"><ele>17.0</ele><time>2026-04-18T13:47:49.29Z</time></trkpt><trkpt lat="41.4713703" lon="12.8210951"><ele>17.0</ele><time>2026-04-18T13:47:51.291Z</time></trkpt><trkpt lat="41.471238" lon="12.8209329"><ele>17.0</ele><time>2026-04-18T13:47:53.291Z</time></trkpt><trkpt lat="41.4711486" lon="12.8207736"><ele>17.0</ele><time>2026-04-18T13:47:55.291Z</time></trkpt><trkpt lat="41.4710781" lon="12.8205653"><ele>17.0</ele><time>2026-04-18T13:47:57.291Z</time></trkpt><trkpt lat="41.4710448" lon="12.8204569"><ele>17.0</ele><time>2026-04-18T13:47:58.29Z</time></trkpt><trkpt lat="41.4709843" lon="12.8202714"><ele>17.0</ele><time>2026-04-18T13:48:00.29Z</time></trkpt><trkpt lat="41.47096" lon="12.8201768"><ele>17.0</ele><time>2026-04-18T13:48:01.29Z</time></trkpt><trkpt lat="41.4709364" lon="12.820092"><ele>17.0</ele><time>2026-04-18T13:48:02.291Z</time></trkpt><trkpt lat="41.4708658" lon="12.8199204"><ele>17.0</ele><time>2026-04-18T13:48:04.29Z</time></trkpt><trkpt lat="41.4708111" lon="12.8197322"><ele>17.0</ele><time>2026-04-18T13:48:06.291Z</time></trkpt><trkpt lat="41.4707563" lon="12.8196431"><ele>17.0</ele><time>2026-04-18T13:48:07.29Z</time></trkpt><trkpt lat="41.4707232" lon="12.8195264"><ele>17.0</ele><time>2026-04-18T13:48:08.29Z</time></trkpt><trkpt lat="41.4706488" lon="12.8193117"><ele>17.0</ele><time>2026-04-18T13:48:10.29Z</time></trkpt><trkpt lat="41.470585" lon="12.8191047"><ele>17.0</ele><time>2026-04-18T13:48:12.29Z</time></trkpt><trkpt lat="41.4705355" lon="12.8189428"><ele>16.8</ele><time>2026-04-18T13:48:14.291Z</time></trkpt><trkpt lat="41.4704783" lon="12.8188504"><ele>16.6</ele><time>2026-04-18T13:48:16.291Z</time></trkpt><trkpt lat="41.4703931" lon="12.8188706"><ele>16.400000000000002</ele><time>2026-04-18T13:48:18.29Z</time></trkpt><trkpt lat="41.4703087" lon="12.8189062"><ele>16.2</ele><time>2026-04-18T13:48:20.29Z</time></trkpt><trkpt lat="41.4702545" lon="12.818812"><ele>16.0</ele><time>2026-04-18T13:48:23.29Z</time></trkpt><trkpt lat="41.4703279" lon="12.8186357"><ele>16.400000000000002</ele><time>2026-04-18T13:48:25.291Z</time></trkpt><trkpt lat="41.4703998" lon="12.8185098"><ele>16.8</ele><time>2026-04-18T13:48:27.29Z</time></trkpt><trkpt lat="41.4704133" lon="12.8184092"><ele>17.200000000000003</ele><time>2026-04-18T13:48:29.29Z</time></trkpt><trkpt lat="41.4703727" lon="12.8182682"><ele>17.6</ele><time>2026-04-18T13:48:31.29Z</time></trkpt><trkpt lat="41.4703247" lon="12.8181597"><ele>18.0</ele><time>2026-04-18T13:48:32.291Z</time></trkpt><trkpt lat="41.4702971" lon="12.8180489"><ele>18.0</ele><time>2026-04-18T13:48:33.29Z</time></trkpt><trkpt lat="41.4702617" lon="12.8179373"><ele>18.0</ele><time>2026-04-18T13:48:34.29Z</time></trkpt><trkpt lat="41.4702168" lon="12.8178327"><ele>18.0</ele><time>2026-04-18T13:48:35.291Z</time></trkpt><trkpt lat="41.4701289" lon="12.8176048"><ele>18.0</ele><time>2026-04-18T13:48:37.29Z</time></trkpt><trkpt lat="41.4700851" lon="12.8174925"><ele>17.6</ele><time>2026-04-18T13:48:38.29Z</time></trkpt><trkpt lat="41.4700516" lon="12.8173772"><ele>17.200000000000003</ele><time>2026-04-18T13:48:39.29Z</time></trkpt><trkpt lat="41.4700156" lon="12.8172451"><ele>16.8</ele><time>2026-04-18T13:48:40.291Z</time></trkpt><trkpt lat="41.4699765" lon="12.8171471"><ele>16.400000000000002</ele><time>2026-04-18T13:48:41.291Z</time></trkpt><trkpt lat="41.4699372" lon="12.8170293"><ele>16.0</ele><time>2026-04-18T13:48:42.291Z</time></trkpt><trkpt lat="41.4698972" lon="12.8168999"><ele>15.333333333333332</ele><time>2026-04-18T13:48:43.291Z</time></trkpt><trkpt lat="41.4698131" lon="12.8166324"><ele>14.666666666666668</ele><time>2026-04-18T13:48:45.29Z</time></trkpt><trkpt lat="41.4697166" lon="12.816369"><ele>14.0</ele><time>2026-04-18T13:48:47.29Z</time></trkpt><trkpt lat="41.4696736" lon="12.8162477"><ele>14.0</ele><time>2026-04-18T13:48:48.29Z</time></trkpt><trkpt lat="41.4696219" lon="12.8161555"><ele>14.0</ele><time>2026-04-18T13:48:49.29Z</time></trkpt><trkpt lat="41.4695744" lon="12.8160277"><ele>14.0</ele><time>2026-04-18T13:48:50.291Z</time></trkpt><trkpt lat="41.4695274" lon="12.8159101"><ele>14.0</ele><time>2026-04-18T13:48:51.291Z</time></trkpt><trkpt lat="41.4694491" lon="12.8156798"><ele>14.25</ele><time>2026-04-18T13:48:53.29Z</time></trkpt><trkpt lat="41.4694112" lon="12.8155676"><ele>14.5</ele><time>2026-04-18T13:48:54.291Z</time></trkpt><trkpt lat="41.4693741" lon="12.8154757"><ele>14.75</ele><time>2026-04-18T13:48:55.29Z</time></trkpt><trkpt lat="41.4692986" lon="12.8152626"><ele>15.0</ele><time>2026-04-18T13:48:57.29Z</time></trkpt><trkpt lat="41.4692143" lon="12.8150437"><ele>15.0</ele><time>2026-04-18T13:48:59.29Z</time></trkpt><trkpt lat="41.4691366" lon="12.814824"><ele>15.0</ele><time>2026-04-18T13:49:01.29Z</time></trkpt><trkpt lat="41.4690672" lon="12.814601"><ele>15.0</ele><time>2026-04-18T13:49:03.29Z</time></trkpt><trkpt lat="41.4689884" lon="12.8144229"><ele>15.0</ele><time>2026-04-18T13:49:05.291Z</time></trkpt><trkpt lat="41.4689595" lon="12.8143265"><ele>15.0</ele><time>2026-04-18T13:49:06.291Z</time></trkpt><trkpt lat="41.4689331" lon="12.8142077"><ele>15.0</ele><time>2026-04-18T13:49:07.29Z</time></trkpt><trkpt lat="41.468857" lon="12.8140066"><ele>15.0</ele><time>2026-04-18T13:49:09.291Z</time></trkpt><trkpt lat="41.4687783" lon="12.8137906"><ele>15.0</ele><time>2026-04-18T13:49:11.29Z</time></trkpt><trkpt lat="41.4686886" lon="12.813591"><ele>15.0</ele><time>2026-04-18T13:49:13.29Z</time></trkpt><trkpt lat="41.4686431" lon="12.8134923"><ele>15.0</ele><time>2026-04-18T13:49:14.291Z</time></trkpt><trkpt lat="41.4686024" lon="12.8133938"><ele>15.0</ele><time>2026-04-18T13:49:15.29Z</time></trkpt><trkpt lat="41.4685391" lon="12.8133185"><ele>15.0</ele><time>2026-04-18T13:49:16.291Z</time></trkpt><trkpt lat="41.4684855" lon="12.8132337"><ele>15.0</ele><time>2026-04-18T13:49:17.29Z</time></trkpt><trkpt lat="41.4684186" lon="12.8131532"><ele>15.0</ele><time>2026-04-18T13:49:18.29Z</time></trkpt><trkpt lat="41.4683455" lon="12.8130747"><ele>15.0</ele><time>2026-04-18T13:49:19.29Z</time></trkpt><trkpt lat="41.4682753" lon="12.8130377"><ele>15.0</ele><time>2026-04-18T13:49:20.291Z</time></trkpt><trkpt lat="41.4682042" lon="12.8129982"><ele>15.0</ele><time>2026-04-18T13:49:21.29Z</time></trkpt><trkpt lat="41.4680537" lon="12.8129459"><ele>15.2</ele><time>2026-04-18T13:49:23.29Z</time></trkpt><trkpt lat="41.4679261" lon="12.8129191"><ele>15.4</ele><time>2026-04-18T13:49:25.291Z</time></trkpt><trkpt lat="41.4678465" lon="12.8129188"><ele>15.600000000000001</ele><time>2026-04-18T13:49:26.29Z</time></trkpt><trkpt lat="41.4677528" lon="12.8129302"><ele>15.8</ele><time>2026-04-18T13:49:27.29Z</time></trkpt><trkpt lat="41.467663" lon="12.8129337"><ele>16.0</ele><time>2026-04-18T13:49:28.29Z</time></trkpt><trkpt lat="41.4675689" lon="12.8129359"><ele>16.0</ele><time>2026-04-18T13:49:29.29Z</time></trkpt><trkpt lat="41.4674767" lon="12.8129524"><ele>16.0</ele><time>2026-04-18T13:49:30.29Z</time></trkpt><trkpt lat="41.4673756" lon="12.8129621"><ele>16.0</ele><time>2026-04-18T13:49:31.29Z</time></trkpt><trkpt lat="41.4672901" lon="12.8129735"><ele>16.0</ele><time>2026-04-18T13:49:32.291Z</time></trkpt><trkpt lat="41.4671979" lon="12.8129819"><ele>16.0</ele><time>2026-04-18T13:49:33.291Z</time></trkpt><trkpt lat="41.4671064" lon="12.8129749"><ele>15.999999999999998</ele><time>2026-04-18T13:49:34.29Z</time></trkpt><trkpt lat="41.4670116" lon="12.8129746"><ele>16.0</ele><time>2026-04-18T13:49:35.291Z</time></trkpt><trkpt lat="41.4669246" lon="12.8129707"><ele>16.0</ele><time>2026-04-18T13:49:36.291Z</time></trkpt><trkpt lat="41.4668348" lon="12.8129673"><ele>16.0</ele><time>2026-04-18T13:49:37.291Z</time></trkpt><trkpt lat="41.466747" lon="12.8129647"><ele>15.999999999999998</ele><time>2026-04-18T13:49:38.29Z</time></trkpt><trkpt lat="41.4666578" lon="12.8129499"><ele>16.0</ele><time>2026-04-18T13:49:39.291Z</time></trkpt><trkpt lat="41.4665664" lon="12.8129354"><ele>16.0</ele><time>2026-04-18T13:49:40.29Z</time></trkpt><trkpt lat="41.4664777" lon="12.8129128"><ele>16.0</ele><time>2026-04-18T13:49:41.29Z</time></trkpt><trkpt lat="41.4663916" lon="12.8128922"><ele>16.0</ele><time>2026-04-18T13:49:42.291Z</time></trkpt><trkpt lat="41.4663086" lon="12.8128758"><ele>16.0</ele><time>2026-04-18T13:49:43.29Z</time></trkpt><trkpt lat="41.4662191" lon="12.812849"><ele>16.0</ele><time>2026-04-18T13:49:44.291Z</time></trkpt><trkpt lat="41.466125" lon="12.8128104"><ele>15.833333333333332</ele><time>2026-04-18T13:49:45.291Z</time></trkpt><trkpt lat="41.4660495" lon="12.812776"><ele>15.666666666666666</ele><time>2026-04-18T13:49:46.29Z</time></trkpt><trkpt lat="41.4659762" lon="12.8127377"><ele>15.5</ele><time>2026-04-18T13:49:47.29Z</time></trkpt><trkpt lat="41.4659099" lon="12.8127087"><ele>15.333333333333332</ele><time>2026-04-18T13:49:48.29Z</time></trkpt><trkpt lat="41.4658333" lon="12.8126629"><ele>15.166666666666666</ele><time>2026-04-18T13:49:49.291Z</time></trkpt><trkpt lat="41.4657621" lon="12.8126206"><ele>15.0</ele><time>2026-04-18T13:49:50.29Z</time></trkpt><trkpt lat="41.4656876" lon="12.8125836"><ele>15.0</ele><time>2026-04-18T13:49:51.29Z</time></trkpt><trkpt lat="41.4655973" lon="12.8125298"><ele>15.0</ele><time>2026-04-18T13:49:53.291Z</time></trkpt><trkpt lat="41.4655316" lon="12.8124935"><ele>15.0</ele><time>2026-04-18T13:49:55.29Z</time></trkpt><trkpt lat="41.4654807" lon="12.8124346"><ele>15.0</ele><time>2026-04-18T13:49:57.29Z</time></trkpt><trkpt lat="41.4654032" lon="12.8123722"><ele>15.0</ele><time>2026-04-18T13:49:59.291Z</time></trkpt><trkpt lat="41.4653128" lon="12.8122976"><ele>15.0</ele><time>2026-04-18T13:50:01.291Z</time></trkpt><trkpt lat="41.4652355" lon="12.8122314"><ele>14.8</ele><time>2026-04-18T13:50:03.29Z</time></trkpt><trkpt lat="41.4651598" lon="12.8121691"><ele>14.6</ele><time>2026-04-18T13:50:05.29Z</time></trkpt><trkpt lat="41.4650651" lon="12.8120836"><ele>14.399999999999999</ele><time>2026-04-18T13:50:07.29Z</time></trkpt><trkpt lat="41.4649783" lon="12.8119931"><ele>14.2</ele><time>2026-04-18T13:50:09.29Z</time></trkpt><trkpt lat="41.4648828" lon="12.8118996"><ele>14.0</ele><time>2026-04-18T13:50:11.29Z</time></trkpt><trkpt lat="41.4647832" lon="12.8118209"><ele>14.0</ele><time>2026-04-18T13:50:13.291Z</time></trkpt><trkpt lat="41.4646756" lon="12.8117362"><ele>14.0</ele><time>2026-04-18T13:50:15.291Z</time></trkpt><trkpt lat="41.4645498" lon="12.8116432"><ele>14.0</ele><time>2026-04-18T13:50:17.29Z</time></trkpt><trkpt lat="41.464431" lon="12.8115726"><ele>14.0</ele><time>2026-04-18T13:50:19.291Z</time></trkpt><trkpt lat="41.4643695" lon="12.8115374"><ele>14.0</ele><time>2026-04-18T13:50:20.29Z</time></trkpt><trkpt lat="41.4642468" lon="12.8114803"><ele>13.999999999999998</ele><time>2026-04-18T13:50:22.291Z</time></trkpt><trkpt lat="41.4641761" lon="12.8114619"><ele>13.999999999999998</ele><time>2026-04-18T13:50:23.29Z</time></trkpt><trkpt lat="41.4641115" lon="12.8114532"><ele>14.0</ele><time>2026-04-18T13:50:24.291Z</time></trkpt><trkpt lat="41.4639823" lon="12.8114445"><ele>14.0</ele><time>2026-04-18T13:50:26.29Z</time></trkpt><trkpt lat="41.4639191" lon="12.8114406"><ele>14.0</ele><time>2026-04-18T13:50:27.291Z</time></trkpt><trkpt lat="41.4638501" lon="12.8114327"><ele>14.0</ele><time>2026-04-18T13:50:28.29Z</time></trkpt><trkpt lat="41.4637867" lon="12.8114297"><ele>14.0</ele><time>2026-04-18T13:50:29.29Z</time></trkpt><trkpt lat="41.4637175" lon="12.8114256"><ele>14.0</ele><time>2026-04-18T13:50:30.29Z</time></trkpt><trkpt lat="41.4636477" lon="12.811427"><ele>14.0</ele><time>2026-04-18T13:50:31.291Z</time></trkpt><trkpt lat="41.4635808" lon="12.8114349"><ele>14.0</ele><time>2026-04-18T13:50:32.291Z</time></trkpt><trkpt lat="41.4635125" lon="12.8114436"><ele>14.0</ele><time>2026-04-18T13:50:33.29Z</time></trkpt><trkpt lat="41.463447" lon="12.8114557"><ele>14.166666666666668</ele><time>2026-04-18T13:50:34.291Z</time></trkpt><trkpt lat="41.463385" lon="12.811471"><ele>14.333333333333334</ele><time>2026-04-18T13:50:35.291Z</time></trkpt><trkpt lat="41.4632743" lon="12.8115047"><ele>14.5</ele><time>2026-04-18T13:50:37.29Z</time></trkpt><trkpt lat="41.4632024" lon="12.8115546"><ele>14.666666666666668</ele><time>2026-04-18T13:50:39.29Z</time></trkpt><trkpt lat="41.4631394" lon="12.8115566"><ele>14.833333333333334</ele><time>2026-04-18T13:51:17.291Z</time></trkpt><trkpt lat="41.463084" lon="12.8114457"><ele>15.0</ele><time>2026-04-18T13:51:19.29Z</time></trkpt><trkpt lat="41.4630756" lon="12.8111799"><ele>15.0</ele><time>2026-04-18T13:51:21.291Z</time></trkpt><trkpt lat="41.4630699" lon="12.8110436"><ele>15.0</ele><time>2026-04-18T13:51:22.291Z</time></trkpt><trkpt lat="41.46306" lon="12.8109177"><ele>15.0</ele><time>2026-04-18T13:51:23.29Z</time></trkpt><trkpt lat="41.4630515" lon="12.8108181"><ele>15.0</ele><time>2026-04-18T13:51:24.29Z</time></trkpt><trkpt lat="41.4630469" lon="12.8106796"><ele>15.0</ele><time>2026-04-18T13:51:26.291Z</time></trkpt><trkpt lat="41.4630196" lon="12.8105969"><ele>15.0</ele><time>2026-04-18T13:51:28.291Z</time></trkpt><trkpt lat="41.4629283" lon="12.8106161"><ele>15.2</ele><time>2026-04-18T13:51:30.291Z</time></trkpt><trkpt lat="41.4628545" lon="12.8106385"><ele>15.4</ele><time>2026-04-18T13:51:31.29Z</time></trkpt><trkpt lat="41.4626958" lon="12.810674"><ele>15.600000000000001</ele><time>2026-04-18T13:51:33.29Z</time></trkpt><trkpt lat="41.4626066" lon="12.8106936"><ele>15.8</ele><time>2026-04-18T13:51:34.29Z</time></trkpt><trkpt lat="41.4625016" lon="12.8107166"><ele>16.0</ele><time>2026-04-18T13:51:35.29Z</time></trkpt><trkpt lat="41.4623611" lon="12.8107365"><ele>16.0</ele><time>2026-04-18T13:51:36.29Z</time></trkpt><trkpt lat="41.4622432" lon="12.8107656"><ele>16.0</ele><time>2026-04-18T13:51:37.29Z</time></trkpt><trkpt lat="41.462132" lon="12.8107921"><ele>16.0</ele><time>2026-04-18T13:51:38.29Z</time></trkpt><trkpt lat="41.4620226" lon="12.8108281"><ele>16.0</ele><time>2026-04-18T13:51:39.29Z</time></trkpt><trkpt lat="41.4619171" lon="12.8108663"><ele>16.25</ele><time>2026-04-18T13:51:40.29Z</time></trkpt><trkpt lat="41.4617306" lon="12.8109342"><ele>16.5</ele><time>2026-04-18T13:51:42.291Z</time></trkpt><trkpt lat="41.4616362" lon="12.8109671"><ele>16.75</ele><time>2026-04-18T13:51:43.291Z</time></trkpt><trkpt lat="41.4615547" lon="12.8110074"><ele>17.0</ele><time>2026-04-18T13:51:44.291Z</time></trkpt><trkpt lat="41.4614802" lon="12.8110435"><ele>16.428571428571427</ele><time>2026-04-18T13:51:45.29Z</time></trkpt><trkpt lat="41.4614084" lon="12.8110825"><ele>15.857142857142858</ele><time>2026-04-18T13:51:46.291Z</time></trkpt><trkpt lat="41.4613421" lon="12.811114"><ele>15.285714285714285</ele><time>2026-04-18T13:51:47.291Z</time></trkpt><trkpt lat="41.4612749" lon="12.8111576"><ele>14.714285714285714</ele><time>2026-04-18T13:51:48.29Z</time></trkpt><trkpt lat="41.4612088" lon="12.8112013"><ele>14.142857142857142</ele><time>2026-04-18T13:51:49.29Z</time></trkpt><trkpt lat="41.4611484" lon="12.8112487"><ele>13.571428571428571</ele><time>2026-04-18T13:51:50.29Z</time></trkpt><trkpt lat="41.46108" lon="12.8112969"><ele>13.0</ele><time>2026-04-18T13:51:51.291Z</time></trkpt><trkpt lat="41.4609408" lon="12.8113779"><ele>13.0</ele><time>2026-04-18T13:51:53.291Z</time></trkpt><trkpt lat="41.4608225" lon="12.8114653"><ele>13.0</ele><time>2026-04-18T13:51:55.291Z</time></trkpt><trkpt lat="41.4607161" lon="12.8115162"><ele>13.0</ele><time>2026-04-18T13:51:57.29Z</time></trkpt><trkpt lat="41.4606125" lon="12.8114706"><ele>13.0</ele><time>2026-04-18T13:52:00.29Z</time></trkpt><trkpt lat="41.4605155" lon="12.811519"><ele>12.833333333333332</ele><time>2026-04-18T13:52:02.29Z</time></trkpt><trkpt lat="41.4603986" lon="12.8116103"><ele>12.666666666666666</ele><time>2026-04-18T13:52:04.29Z</time></trkpt><trkpt lat="41.460336" lon="12.8116606"><ele>12.5</ele><time>2026-04-18T13:52:05.29Z</time></trkpt><trkpt lat="41.4602627" lon="12.811717"><ele>12.333333333333332</ele><time>2026-04-18T13:52:06.291Z</time></trkpt><trkpt lat="41.4601981" lon="12.8117721"><ele>12.166666666666666</ele><time>2026-04-18T13:52:07.29Z</time></trkpt><trkpt lat="41.4601316" lon="12.8118206"><ele>12.0</ele><time>2026-04-18T13:52:08.29Z</time></trkpt><trkpt lat="41.4600218" lon="12.8119367"><ele>12.0</ele><time>2026-04-18T13:52:10.291Z</time></trkpt><trkpt lat="41.459912" lon="12.8120541"><ele>12.0</ele><time>2026-04-18T13:52:12.29Z</time></trkpt><trkpt lat="41.4597604" lon="12.812179"><ele>12.0</ele><time>2026-04-18T13:52:14.291Z</time></trkpt><trkpt lat="41.4595821" lon="12.8123163"><ele>11.666666666666666</ele><time>2026-04-18T13:52:16.29Z</time></trkpt><trkpt lat="41.459485" lon="12.8124035"><ele>11.333333333333332</ele><time>2026-04-18T13:52:17.29Z</time></trkpt><trkpt lat="41.4592825" lon="12.81257"><ele>11.0</ele><time>2026-04-18T13:52:19.291Z</time></trkpt><trkpt lat="41.459075" lon="12.8127414"><ele>11.0</ele><time>2026-04-18T13:52:21.29Z</time></trkpt><trkpt lat="41.458883" lon="12.8128972"><ele>11.0</ele><time>2026-04-18T13:52:23.291Z</time></trkpt><trkpt lat="41.4586921" lon="12.8130472"><ele>11.0</ele><time>2026-04-18T13:52:25.291Z</time></trkpt><trkpt lat="41.4586036" lon="12.8131159"><ele>12.0</ele><time>2026-04-18T13:52:26.29Z</time></trkpt><trkpt lat="41.458417" lon="12.8132695"><ele>13.0</ele><time>2026-04-18T13:52:28.29Z</time></trkpt><trkpt lat="41.4582292" lon="12.8134114"><ele>14.0</ele><time>2026-04-18T13:52:30.29Z</time></trkpt><trkpt lat="41.4581391" lon="12.8134618"><ele>14.0</ele><time>2026-04-18T13:52:31.29Z</time></trkpt><trkpt lat="41.4580642" lon="12.8135234"><ele>13.999999999999998</ele><time>2026-04-18T13:52:32.291Z</time></trkpt><trkpt lat="41.4579798" lon="12.8135958"><ele>13.999999999999998</ele><time>2026-04-18T13:52:33.29Z</time></trkpt><trkpt lat="41.4578972" lon="12.8136621"><ele>14.0</ele><time>2026-04-18T13:52:34.29Z</time></trkpt><trkpt lat="41.4578144" lon="12.8137414"><ele>14.0</ele><time>2026-04-18T13:52:35.29Z</time></trkpt><trkpt lat="41.4576522" lon="12.8138699"><ele>14.0</ele><time>2026-04-18T13:52:37.29Z</time></trkpt><trkpt lat="41.4575724" lon="12.8139346"><ele>13.999999999999998</ele><time>2026-04-18T13:52:38.29Z</time></trkpt><trkpt lat="41.4574942" lon="12.8140068"><ele>13.999999999999998</ele><time>2026-04-18T13:52:39.291Z</time></trkpt><trkpt lat="41.457411" lon="12.8140686"><ele>14.0</ele><time>2026-04-18T13:52:40.29Z</time></trkpt><trkpt lat="41.4573362" lon="12.8141349"><ele>14.0</ele><time>2026-04-18T13:52:41.291Z</time></trkpt><trkpt lat="41.4571873" lon="12.8142557"><ele>14.0</ele><time>2026-04-18T13:52:43.29Z</time></trkpt><trkpt lat="41.4571257" lon="12.8142973"><ele>13.999999999999998</ele><time>2026-04-18T13:52:44.291Z</time></trkpt><trkpt lat="41.4569989" lon="12.8143813"><ele>13.999999999999998</ele><time>2026-04-18T13:52:46.291Z</time></trkpt><trkpt lat="41.4569124" lon="12.8144423"><ele>14.0</ele><time>2026-04-18T13:52:48.29Z</time></trkpt><trkpt lat="41.4568476" lon="12.8145118"><ele>14.0</ele><time>2026-04-18T13:52:51.291Z</time></trkpt><trkpt lat="41.4567912" lon="12.8146155"><ele>13.399999999999999</ele><time>2026-04-18T13:52:54.29Z</time></trkpt><trkpt lat="41.4567736" lon="12.8147475"><ele>12.799999999999999</ele><time>2026-04-18T13:52:56.291Z</time></trkpt><trkpt lat="41.45668" lon="12.8148773"><ele>12.2</ele><time>2026-04-18T13:52:59.29Z</time></trkpt><trkpt lat="41.4565856" lon="12.8149256"><ele>11.600000000000001</ele><time>2026-04-18T13:53:01.291Z</time></trkpt><trkpt lat="41.456523" lon="12.8149627"><ele>11.0</ele><time>2026-04-18T13:53:02.291Z</time></trkpt><trkpt lat="41.4564572" lon="12.8150116"><ele>11.0</ele><time>2026-04-18T13:53:03.29Z</time></trkpt><trkpt lat="41.4563194" lon="12.8151053"><ele>11.0</ele><time>2026-04-18T13:53:05.291Z</time></trkpt><trkpt lat="41.4562389" lon="12.8151573"><ele>11.0</ele><time>2026-04-18T13:53:06.29Z</time></trkpt><trkpt lat="41.4561697" lon="12.8151947"><ele>11.0</ele><time>2026-04-18T13:53:07.29Z</time></trkpt><trkpt lat="41.4560354" lon="12.8152538"><ele>10.600000000000001</ele><time>2026-04-18T13:53:09.29Z</time></trkpt><trkpt lat="41.4558873" lon="12.8152654"><ele>10.200000000000001</ele><time>2026-04-18T13:53:11.29Z</time></trkpt><trkpt lat="41.4558086" lon="12.815268"><ele>9.8</ele><time>2026-04-18T13:53:12.29Z</time></trkpt><trkpt lat="41.4557345" lon="12.8152719"><ele>9.4</ele><time>2026-04-18T13:53:13.291Z</time></trkpt><trkpt lat="41.4556645" lon="12.8152859"><ele>9.0</ele><time>2026-04-18T13:53:14.29Z</time></trkpt><trkpt lat="41.4555859" lon="12.8152838"><ele>8.75</ele><time>2026-04-18T13:53:15.29Z</time></trkpt><trkpt lat="41.4554415" lon="12.815331"><ele>8.5</ele><time>2026-04-18T13:53:17.291Z</time></trkpt><trkpt lat="41.45531" lon="12.815321"><ele>8.25</ele><time>2026-04-18T13:53:19.29Z</time></trkpt><trkpt lat="41.4551869" lon="12.8153033"><ele>8.0</ele><time>2026-04-18T13:53:21.29Z</time></trkpt><trkpt lat="41.4550536" lon="12.8152832"><ele>8.0</ele><time>2026-04-18T13:53:23.29Z</time></trkpt><trkpt lat="41.4549141" lon="12.8152489"><ele>8.0</ele><time>2026-04-18T13:53:25.291Z</time></trkpt><trkpt lat="41.4547924" lon="12.81519"><ele>8.0</ele><time>2026-04-18T13:53:27.29Z</time></trkpt><trkpt lat="41.4546662" lon="12.8151419"><ele>8.0</ele><time>2026-04-18T13:53:29.29Z</time></trkpt><trkpt lat="41.4545507" lon="12.815102"><ele>8.75</ele><time>2026-04-18T13:53:31.29Z</time></trkpt><trkpt lat="41.4544424" lon="12.8150255"><ele>9.5</ele><time>2026-04-18T13:53:33.291Z</time></trkpt><trkpt lat="41.4543499" lon="12.8149634"><ele>10.25</ele><time>2026-04-18T13:53:35.29Z</time></trkpt><trkpt lat="41.4542527" lon="12.8148791"><ele>11.0</ele><time>2026-04-18T13:53:37.29Z</time></trkpt><trkpt lat="41.4541575" lon="12.8147932"><ele>11.0</ele><time>2026-04-18T13:53:39.29Z</time></trkpt><trkpt lat="41.454108" lon="12.8146905"><ele>11.0</ele><time>2026-04-18T13:53:41.291Z</time></trkpt><trkpt lat="41.4541334" lon="12.8145822"><ele>11.0</ele><time>2026-04-18T13:53:43.29Z</time></trkpt><trkpt lat="41.4541251" lon="12.8144967"><ele>11.0</ele><time>2026-04-18T13:53:45.29Z</time></trkpt><trkpt lat="41.4540581" lon="12.8144362"><ele>11.0</ele><time>2026-04-18T13:53:47.29Z</time></trkpt><trkpt lat="41.4539468" lon="12.8143801"><ele>11.0</ele><time>2026-04-18T13:53:49.29Z</time></trkpt><trkpt lat="41.4538837" lon="12.8143431"><ele>10.5</ele><time>2026-04-18T13:53:50.29Z</time></trkpt><trkpt lat="41.4537532" lon="12.8142774"><ele>10.0</ele><time>2026-04-18T13:53:52.29Z</time></trkpt><trkpt lat="41.4536489" lon="12.8142073"><ele>9.5</ele><time>2026-04-18T13:53:54.29Z</time></trkpt><trkpt lat="41.4535421" lon="12.8141161"><ele>9.0</ele><time>2026-04-18T13:53:56.29Z</time></trkpt><trkpt lat="41.4534806" lon="12.8140694"><ele>9.0</ele><time>2026-04-18T13:53:57.29Z</time></trkpt><trkpt lat="41.4534246" lon="12.8140131"><ele>9.0</ele><time>2026-04-18T13:53:58.291Z</time></trkpt><trkpt lat="41.4533608" lon="12.8139563"><ele>9.0</ele><time>2026-04-18T13:53:59.29Z</time></trkpt><trkpt lat="41.453297" lon="12.813892"><ele>9.0</ele><time>2026-04-18T13:54:00.29Z</time></trkpt><trkpt lat="41.4532345" lon="12.8138269"><ele>9.0</ele><time>2026-04-18T13:54:01.291Z</time></trkpt><trkpt lat="41.45311" lon="12.8136918"><ele>9.0</ele><time>2026-04-18T13:54:03.291Z</time></trkpt><trkpt lat="41.4529779" lon="12.813552"><ele>9.0</ele><time>2026-04-18T13:54:05.291Z</time></trkpt><trkpt lat="41.4529161" lon="12.8134855"><ele>9.0</ele><time>2026-04-18T13:54:06.29Z</time></trkpt><trkpt lat="41.4528526" lon="12.8134148"><ele>9.0</ele><time>2026-04-18T13:54:07.29Z</time></trkpt><trkpt lat="41.4527908" lon="12.8133494"><ele>9.0</ele><time>2026-04-18T13:54:08.29Z</time></trkpt><trkpt lat="41.4527352" lon="12.8132738"><ele>8.75</ele><time>2026-04-18T13:54:09.29Z</time></trkpt><trkpt lat="41.4526871" lon="12.8132167"><ele>8.5</ele><time>2026-04-18T13:54:10.29Z</time></trkpt><trkpt lat="41.4526046" lon="12.8130817"><ele>8.25</ele><time>2026-04-18T13:54:12.29Z</time></trkpt><trkpt lat="41.4526067" lon="12.8128762"><ele>8.0</ele><time>2026-04-18T13:54:14.291Z</time></trkpt><trkpt lat="41.4526369" lon="12.8126401"><ele>8.0</ele><time>2026-04-18T13:54:16.29Z</time></trkpt><trkpt lat="41.4526645" lon="12.8123808"><ele>8.0</ele><time>2026-04-18T13:54:18.29Z</time></trkpt><trkpt lat="41.452685" lon="12.8122673"><ele>8.0</ele><time>2026-04-18T13:54:19.29Z</time></trkpt><trkpt lat="41.4527216" lon="12.8120294"><ele>8.0</ele><time>2026-04-18T13:54:21.291Z</time></trkpt><trkpt lat="41.4527351" lon="12.8119129"><ele>8.0</ele><time>2026-04-18T13:54:22.291Z</time></trkpt><trkpt lat="41.452752" lon="12.8118045"><ele>8.0</ele><time>2026-04-18T13:54:23.29Z</time></trkpt><trkpt lat="41.4527797" lon="12.8115889"><ele>8.0</ele><time>2026-04-18T13:54:25.29Z</time></trkpt><trkpt lat="41.4528034" lon="12.8113883"><ele>8.4</ele><time>2026-04-18T13:54:27.29Z</time></trkpt><trkpt lat="41.452828" lon="12.8112067"><ele>8.8</ele><time>2026-04-18T13:54:30.29Z</time></trkpt><trkpt lat="41.4527662" lon="12.8111262"><ele>9.2</ele><time>2026-04-18T13:54:33.29Z</time></trkpt><trkpt lat="41.4526651" lon="12.8110879"><ele>9.6</ele><time>2026-04-18T13:54:35.29Z</time></trkpt><trkpt lat="41.4525484" lon="12.81107"><ele>10.0</ele><time>2026-04-18T13:54:37.291Z</time></trkpt><trkpt lat="41.4524167" lon="12.8110441"><ele>10.0</ele><time>2026-04-18T13:54:39.29Z</time></trkpt><trkpt lat="41.4522763" lon="12.8110176"><ele>10.0</ele><time>2026-04-18T13:54:41.291Z</time></trkpt><trkpt lat="41.4521975" lon="12.8110003"><ele>10.0</ele><time>2026-04-18T13:54:42.291Z</time></trkpt><trkpt lat="41.4521181" lon="12.8109848"><ele>10.0</ele><time>2026-04-18T13:54:43.29Z</time></trkpt><trkpt lat="41.4520366" lon="12.8109609"><ele>10.0</ele><time>2026-04-18T13:54:44.291Z</time></trkpt><trkpt lat="41.4519519" lon="12.8109419"><ele>10.333333333333334</ele><time>2026-04-18T13:54:45.291Z</time></trkpt><trkpt lat="41.4518694" lon="12.8109263"><ele>10.666666666666666</ele><time>2026-04-18T13:54:46.291Z</time></trkpt><trkpt lat="41.4516945" lon="12.8108966"><ele>11.0</ele><time>2026-04-18T13:54:48.291Z</time></trkpt><trkpt lat="41.4515004" lon="12.8108545"><ele>11.0</ele><time>2026-04-18T13:54:50.291Z</time></trkpt><trkpt lat="41.4513169" lon="12.8108091"><ele>11.0</ele><time>2026-04-18T13:54:52.291Z</time></trkpt><trkpt lat="41.45123" lon="12.8107876"><ele>11.0</ele><time>2026-04-18T13:54:53.291Z</time></trkpt><trkpt lat="41.4510546" lon="12.8107486"><ele>10.600000000000001</ele><time>2026-04-18T13:54:55.29Z</time></trkpt><trkpt lat="41.4508992" lon="12.8107181"><ele>10.200000000000001</ele><time>2026-04-18T13:54:57.291Z</time></trkpt><trkpt lat="41.450791" lon="12.8106902"><ele>9.8</ele><time>2026-04-18T13:54:59.29Z</time></trkpt><trkpt lat="41.4507343" lon="12.8106241"><ele>9.4</ele><time>2026-04-18T13:55:01.29Z</time></trkpt><trkpt lat="41.4506791" lon="12.8105383"><ele>9.0</ele><time>2026-04-18T13:55:03.291Z</time></trkpt><trkpt lat="41.4505695" lon="12.8105055"><ele>9.0</ele><time>2026-04-18T13:55:06.29Z</time></trkpt><trkpt lat="41.4504683" lon="12.810508"><ele>9.0</ele><time>2026-04-18T13:55:08.29Z</time></trkpt><trkpt lat="41.4504046" lon="12.8104951"><ele>9.0</ele><time>2026-04-18T13:55:09.291Z</time></trkpt><trkpt lat="41.4503176" lon="12.8104457"><ele>9.0</ele><time>2026-04-18T13:55:10.29Z</time></trkpt><trkpt lat="41.4502338" lon="12.8103968"><ele>9.0</ele><time>2026-04-18T13:55:11.291Z</time></trkpt><trkpt lat="41.4501457" lon="12.8103287"><ele>9.0</ele><time>2026-04-18T13:55:12.291Z</time></trkpt><trkpt lat="41.4500478" lon="12.8102392"><ele>9.0</ele><time>2026-04-18T13:55:13.291Z</time></trkpt><trkpt lat="41.4499606" lon="12.8101494"><ele>9.0</ele><time>2026-04-18T13:55:14.291Z</time></trkpt><trkpt lat="41.4498235" lon="12.8100229"><ele>9.0</ele><time>2026-04-18T13:55:15.29Z</time></trkpt><trkpt lat="41.4496981" lon="12.8099214"><ele>8.5</ele><time>2026-04-18T13:55:16.291Z</time></trkpt><trkpt lat="41.4495826" lon="12.8098346"><ele>8.0</ele><time>2026-04-18T13:55:17.29Z</time></trkpt><trkpt lat="41.4494827" lon="12.8097532"><ele>7.5</ele><time>2026-04-18T13:55:18.291Z</time></trkpt><trkpt lat="41.4493878" lon="12.8096895"><ele>7.0</ele><time>2026-04-18T13:55:19.29Z</time></trkpt><trkpt lat="41.4492862" lon="12.8096156"><ele>7.0</ele><time>2026-04-18T13:55:20.291Z</time></trkpt><trkpt lat="41.449185" lon="12.8095554"><ele>7.0</ele><time>2026-04-18T13:55:21.291Z</time></trkpt><trkpt lat="41.4490824" lon="12.809477"><ele>7.0</ele><time>2026-04-18T13:55:22.291Z</time></trkpt><trkpt lat="41.4489821" lon="12.8094043"><ele>7.0</ele><time>2026-04-18T13:55:23.29Z</time></trkpt><trkpt lat="41.4487972" lon="12.8092393"><ele>7.0</ele><time>2026-04-18T13:55:25.29Z</time></trkpt><trkpt lat="41.44861" lon="12.8090785"><ele>7.0</ele><time>2026-04-18T13:55:27.291Z</time></trkpt><trkpt lat="41.4485185" lon="12.8090009"><ele>7.0</ele><time>2026-04-18T13:55:28.29Z</time></trkpt><trkpt lat="41.4483479" lon="12.8088845"><ele>7.0</ele><time>2026-04-18T13:55:30.29Z</time></trkpt><trkpt lat="41.4481838" lon="12.8087892"><ele>7.0</ele><time>2026-04-18T13:55:32.29Z</time></trkpt><trkpt lat="41.4480403" lon="12.8086793"><ele>7.0</ele><time>2026-04-18T13:55:35.29Z</time></trkpt><trkpt lat="41.4479871" lon="12.8086051"><ele>7.0</ele><time>2026-04-18T13:55:37.29Z</time></trkpt><trkpt lat="41.4479617" lon="12.8085219"><ele>7.333333333333334</ele><time>2026-04-18T13:55:39.29Z</time></trkpt><trkpt lat="41.4478498" lon="12.8084908"><ele>7.666666666666666</ele><time>2026-04-18T13:55:41.29Z</time></trkpt><trkpt lat="41.4476537" lon="12.8084003"><ele>8.0</ele><time>2026-04-18T13:55:44.291Z</time></trkpt><trkpt lat="41.4474948" lon="12.8083342"><ele>8.0</ele><time>2026-04-18T13:55:46.29Z</time></trkpt><trkpt lat="41.4473405" lon="12.8082771"><ele>8.0</ele><time>2026-04-18T13:55:48.291Z</time></trkpt><trkpt lat="41.4472072" lon="12.8082043"><ele>8.0</ele><time>2026-04-18T13:55:50.291Z</time></trkpt><trkpt lat="41.4471401" lon="12.8081597"><ele>8.0</ele><time>2026-04-18T13:55:51.29Z</time></trkpt><trkpt lat="41.447083" lon="12.8081217"><ele>8.0</ele><time>2026-04-18T13:55:52.291Z</time></trkpt><trkpt lat="41.4469958" lon="12.8080586"><ele>7.833333333333333</ele><time>2026-04-18T13:55:54.29Z</time></trkpt><trkpt lat="41.4469303" lon="12.8079871"><ele>7.666666666666666</ele><time>2026-04-18T13:55:57.291Z</time></trkpt><trkpt lat="41.4468427" lon="12.8079805"><ele>7.5</ele><time>2026-04-18T13:56:00.29Z</time></trkpt><trkpt lat="41.4467559" lon="12.8079808"><ele>7.333333333333334</ele><time>2026-04-18T13:56:02.29Z</time></trkpt><trkpt lat="41.4466907" lon="12.8079636"><ele>7.166666666666667</ele><time>2026-04-18T13:56:03.29Z</time></trkpt><trkpt lat="41.4466303" lon="12.8079245"><ele>7.0</ele><time>2026-04-18T13:56:04.29Z</time></trkpt><trkpt lat="41.446483" lon="12.8078476"><ele>7.0</ele><time>2026-04-18T13:56:06.29Z</time></trkpt><trkpt lat="41.4464131" lon="12.8078031"><ele>7.0</ele><time>2026-04-18T13:56:07.291Z</time></trkpt><trkpt lat="41.4463393" lon="12.8077635"><ele>7.0</ele><time>2026-04-18T13:56:08.291Z</time></trkpt><trkpt lat="41.4461577" lon="12.8076508"><ele>7.0</ele><time>2026-04-18T13:56:10.29Z</time></trkpt><trkpt lat="41.4459448" lon="12.8075154"><ele>6.666666666666667</ele><time>2026-04-18T13:56:12.29Z</time></trkpt><trkpt lat="41.4458431" lon="12.8074496"><ele>6.333333333333334</ele><time>2026-04-18T13:56:13.29Z</time></trkpt><trkpt lat="41.44569" lon="12.8073398"><ele>6.0</ele><time>2026-04-18T13:56:15.29Z</time></trkpt><trkpt lat="41.4455248" lon="12.8072391"><ele>6.0</ele><time>2026-04-18T13:56:17.29Z</time></trkpt><trkpt lat="41.4454413" lon="12.8071812"><ele>6.0</ele><time>2026-04-18T13:56:18.291Z</time></trkpt><trkpt lat="41.4452809" lon="12.8070674"><ele>6.0</ele><time>2026-04-18T13:56:20.29Z</time></trkpt><trkpt lat="41.4451343" lon="12.8069745"><ele>6.0</ele><time>2026-04-18T13:56:22.29Z</time></trkpt><trkpt lat="41.4449824" lon="12.8068764"><ele>6.4</ele><time>2026-04-18T13:56:24.29Z</time></trkpt><trkpt lat="41.4448375" lon="12.8067753"><ele>6.8</ele><time>2026-04-18T13:56:26.291Z</time></trkpt><trkpt lat="41.4447715" lon="12.8067289"><ele>7.200000000000001</ele><time>2026-04-18T13:56:27.29Z</time></trkpt><trkpt lat="41.4447105" lon="12.806678"><ele>7.6000000000000005</ele><time>2026-04-18T13:56:28.29Z</time></trkpt><trkpt lat="41.4445868" lon="12.8066103"><ele>8.0</ele><time>2026-04-18T13:56:30.29Z</time></trkpt><trkpt lat="41.4444357" lon="12.8065211"><ele>7.0</ele><time>2026-04-18T13:56:32.29Z</time></trkpt><trkpt lat="41.4442983" lon="12.8064325"><ele>6.0</ele><time>2026-04-18T13:56:34.29Z</time></trkpt><trkpt lat="41.4442274" lon="12.8063828"><ele>5.0</ele><time>2026-04-18T13:56:35.291Z</time></trkpt><trkpt lat="41.4441094" lon="12.8063088"><ele>4.0</ele><time>2026-04-18T13:56:37.291Z</time></trkpt><trkpt lat="41.4439818" lon="12.8061848"><ele>3.9999999999999996</ele><time>2026-04-18T13:56:40.291Z</time></trkpt><trkpt lat="41.4439154" lon="12.8061109"><ele>4.0</ele><time>2026-04-18T13:56:42.29Z</time></trkpt><trkpt lat="41.4438432" lon="12.8060883"><ele>4.0</ele><time>2026-04-18T13:56:44.29Z</time></trkpt><trkpt lat="41.4437581" lon="12.8060725"><ele>4.0</ele><time>2026-04-18T13:56:46.29Z</time></trkpt><trkpt lat="41.4436425" lon="12.806008"><ele>3.9999999999999996</ele><time>2026-04-18T13:56:48.291Z</time></trkpt><trkpt lat="41.443577" lon="12.8059689"><ele>4.0</ele><time>2026-04-18T13:56:49.29Z</time></trkpt><trkpt lat="41.4435055" lon="12.8059186"><ele>4.0</ele><time>2026-04-18T13:56:50.291Z</time></trkpt><trkpt lat="41.443439" lon="12.8058778"><ele>4.0</ele><time>2026-04-18T13:56:51.29Z</time></trkpt><trkpt lat="41.4433571" lon="12.8058363"><ele>4.0</ele><time>2026-04-18T13:56:52.291Z</time></trkpt><trkpt lat="41.4432771" lon="12.8057818"><ele>4.0</ele><time>2026-04-18T13:56:53.29Z</time></trkpt><trkpt lat="41.4432014" lon="12.8057308"><ele>4.0</ele><time>2026-04-18T13:56:54.29Z</time></trkpt><trkpt lat="41.4430556" lon="12.8056412"><ele>3.9999999999999996</ele><time>2026-04-18T13:56:56.29Z</time></trkpt><trkpt lat="41.4429881" lon="12.8056002"><ele>4.0</ele><time>2026-04-18T13:56:57.291Z</time></trkpt><trkpt lat="41.4429247" lon="12.805564"><ele>4.0</ele><time>2026-04-18T13:56:58.29Z</time></trkpt><trkpt lat="41.4428276" lon="12.8055533"><ele>4.0</ele><time>2026-04-18T13:57:00.291Z</time></trkpt><trkpt lat="41.4427256" lon="12.8055982"><ele>3.9999999999999996</ele><time>2026-04-18T13:57:02.29Z</time></trkpt><trkpt lat="41.4426514" lon="12.8055625"><ele>4.0</ele><time>2026-04-18T13:57:04.291Z</time></trkpt><trkpt lat="41.4425955" lon="12.8055147"><ele>4.0</ele><time>2026-04-18T13:57:07.29Z</time></trkpt><trkpt lat="41.4424709" lon="12.8054727"><ele>4.0</ele><time>2026-04-18T13:57:10.284Z</time></trkpt><trkpt lat="41.4424032" lon="12.805446"><ele>4.0</ele><time>2026-04-18T13:57:12.284Z</time></trkpt><trkpt lat="41.4423237" lon="12.8053527"><ele>4.0</ele><time>2026-04-18T13:57:14.283Z</time></trkpt><trkpt lat="41.4421838" lon="12.8052534"><ele>3.9999999999999996</ele><time>2026-04-18T13:57:17.284Z</time></trkpt><trkpt lat="41.4420532" lon="12.8052117"><ele>4.0</ele><time>2026-04-18T13:57:19.283Z</time></trkpt><trkpt lat="41.4419789" lon="12.8051968"><ele>4.0</ele><time>2026-04-18T13:57:20.283Z</time></trkpt><trkpt lat="41.4418986" lon="12.8051787"><ele>4.0</ele><time>2026-04-18T13:57:21.283Z</time></trkpt><trkpt lat="41.4418215" lon="12.8051685"><ele>3.9999999999999996</ele><time>2026-04-18T13:57:22.283Z</time></trkpt><trkpt lat="41.4417463" lon="12.8051564"><ele>4.0</ele><time>2026-04-18T13:57:23.284Z</time></trkpt><trkpt lat="41.4415903" lon="12.805146"><ele>4.0</ele><time>2026-04-18T13:57:25.284Z</time></trkpt><trkpt lat="41.4414348" lon="12.8051409"><ele>4.0</ele><time>2026-04-18T13:57:27.283Z</time></trkpt><trkpt lat="41.4412834" lon="12.8051423"><ele>4.0</ele><time>2026-04-18T13:57:29.283Z</time></trkpt><trkpt lat="41.4411351" lon="12.8051485"><ele>4.2</ele><time>2026-04-18T13:57:31.284Z</time></trkpt><trkpt lat="41.4410634" lon="12.8051539"><ele>4.4</ele><time>2026-04-18T13:57:32.283Z</time></trkpt><trkpt lat="41.4409886" lon="12.805159"><ele>4.6</ele><time>2026-04-18T13:57:33.283Z</time></trkpt><trkpt lat="41.4409235" lon="12.8051708"><ele>4.8</ele><time>2026-04-18T13:57:34.283Z</time></trkpt><trkpt lat="41.440768" lon="12.8051555"><ele>5.0</ele><time>2026-04-18T13:57:37.283Z</time></trkpt><trkpt lat="41.440717" lon="12.8050624"><ele>5.666666666666667</ele><time>2026-04-18T13:57:39.284Z</time></trkpt><trkpt lat="41.440686" lon="12.8049016"><ele>6.333333333333334</ele><time>2026-04-18T13:57:41.283Z</time></trkpt><trkpt lat="41.4406442" lon="12.8046631"><ele>7.0</ele><time>2026-04-18T13:57:43.283Z</time></trkpt><trkpt lat="41.4405963" lon="12.8044406"><ele>7.0</ele><time>2026-04-18T13:57:45.284Z</time></trkpt><trkpt lat="41.4405767" lon="12.8043322"><ele>7.0</ele><time>2026-04-18T13:57:46.283Z</time></trkpt><trkpt lat="41.440521" lon="12.8041512"><ele>7.0</ele><time>2026-04-18T13:57:48.284Z</time></trkpt><trkpt lat="41.4404866" lon="12.8039866"><ele>7.0</ele><time>2026-04-18T13:57:50.283Z</time></trkpt><trkpt lat="41.4403768" lon="12.8039219"><ele>6.8</ele><time>2026-04-18T13:57:54.283Z</time></trkpt><trkpt lat="41.4403117" lon="12.8039592"><ele>6.6</ele><time>2026-04-18T13:57:55.283Z</time></trkpt><trkpt lat="41.4402455" lon="12.8039978"><ele>6.3999999999999995</ele><time>2026-04-18T13:57:56.283Z</time></trkpt><trkpt lat="41.4401672" lon="12.8040223"><ele>6.199999999999999</ele><time>2026-04-18T13:57:57.284Z</time></trkpt><trkpt lat="41.4400922" lon="12.8040219"><ele>6.0</ele><time>2026-04-18T13:57:58.283Z</time></trkpt><trkpt lat="41.4399342" lon="12.803986"><ele>6.0</ele><time>2026-04-18T13:58:00.283Z</time></trkpt><trkpt lat="41.4398504" lon="12.8039626"><ele>6.0</ele><time>2026-04-18T13:58:01.283Z</time></trkpt><trkpt lat="41.4397787" lon="12.8039603"><ele>6.0</ele><time>2026-04-18T13:58:02.283Z</time></trkpt><trkpt lat="41.439613" lon="12.8040098"><ele>6.0</ele><time>2026-04-18T13:58:04.283Z</time></trkpt><trkpt lat="41.4394507" lon="12.8041638"><ele>6.25</ele><time>2026-04-18T13:58:06.283Z</time></trkpt><trkpt lat="41.4392865" lon="12.8043136"><ele>6.5</ele><time>2026-04-18T13:58:08.283Z</time></trkpt><trkpt lat="41.439212" lon="12.8043831"><ele>6.75</ele><time>2026-04-18T13:58:09.283Z</time></trkpt><trkpt lat="41.4391516" lon="12.8044574"><ele>7.0</ele><time>2026-04-18T13:58:10.284Z</time></trkpt><trkpt lat="41.4389964" lon="12.8045557"><ele>7.0</ele><time>2026-04-18T13:58:12.284Z</time></trkpt><trkpt lat="41.4388389" lon="12.8046192"><ele>6.999999999999999</ele><time>2026-04-18T13:58:14.283Z</time></trkpt><trkpt lat="41.4387616" lon="12.8046456"><ele>6.999999999999999</ele><time>2026-04-18T13:58:15.283Z</time></trkpt><trkpt lat="41.4386952" lon="12.8046755"><ele>7.0</ele><time>2026-04-18T13:58:16.283Z</time></trkpt><trkpt lat="41.4386274" lon="12.8046924"><ele>7.0</ele><time>2026-04-18T13:58:17.283Z</time></trkpt><trkpt lat="41.4385495" lon="12.80463"><ele>6.833333333333334</ele><time>2026-04-18T13:58:20.284Z</time></trkpt><trkpt lat="41.4384841" lon="12.8045659"><ele>6.666666666666667</ele><time>2026-04-18T13:58:22.284Z</time></trkpt><trkpt lat="41.4383652" lon="12.8045792"><ele>6.5</ele><time>2026-04-18T13:58:24.283Z</time></trkpt><trkpt lat="41.4382922" lon="12.804577"><ele>6.333333333333334</ele><time>2026-04-18T13:58:25.283Z</time></trkpt><trkpt lat="41.4382181" lon="12.8045753"><ele>6.166666666666667</ele><time>2026-04-18T13:58:26.283Z</time></trkpt><trkpt lat="41.4381489" lon="12.804573"><ele>6.0</ele><time>2026-04-18T13:58:27.283Z</time></trkpt><trkpt lat="41.4380827" lon="12.8045682"><ele>6.0</ele><time>2026-04-18T13:58:28.283Z</time></trkpt><trkpt lat="41.4380104" lon="12.8045653"><ele>6.0</ele><time>2026-04-18T13:58:29.283Z</time></trkpt><trkpt lat="41.4378887" lon="12.8045358"><ele>6.0</ele><time>2026-04-18T13:58:31.283Z</time></trkpt><trkpt lat="41.4377857" lon="12.8045066"><ele>6.0</ele><time>2026-04-18T13:58:33.283Z</time></trkpt><trkpt lat="41.4376668" lon="12.8045186"><ele>6.0</ele><time>2026-04-18T13:58:35.283Z</time></trkpt><trkpt lat="41.4375215" lon="12.8045314"><ele>6.0</ele><time>2026-04-18T13:58:37.283Z</time></trkpt><trkpt lat="41.4374447" lon="12.8045302"><ele>6.0</ele><time>2026-04-18T13:58:38.284Z</time></trkpt><trkpt lat="41.4373695" lon="12.8045246"><ele>6.0</ele><time>2026-04-18T13:58:39.284Z</time></trkpt><trkpt lat="41.4372979" lon="12.8045116"><ele>6.0</ele><time>2026-04-18T13:58:40.283Z</time></trkpt><trkpt lat="41.4371645" lon="12.8044899"><ele>6.0</ele><time>2026-04-18T13:58:42.284Z</time></trkpt><trkpt lat="41.4370787" lon="12.8045026"><ele>6.0</ele><time>2026-04-18T13:58:44.283Z</time></trkpt><trkpt lat="41.4370566" lon="12.8046375"><ele>6.0</ele><time>2026-04-18T13:58:48.284Z</time></trkpt><trkpt lat="41.4369895" lon="12.8046807"><ele>6.0</ele><time>2026-04-18T13:58:50.283Z</time></trkpt><trkpt lat="41.4369612" lon="12.8047768"><ele>6.0</ele><time>2026-04-18T13:58:52.283Z</time></trkpt><trkpt lat="41.4369503" lon="12.8048742"><ele>6.0</ele><time>2026-04-18T13:58:53.284Z</time></trkpt><trkpt lat="41.4369565" lon="12.8049923"><ele>6.0</ele><time>2026-04-18T13:58:54.284Z</time></trkpt><trkpt lat="41.436962" lon="12.8051203"><ele>6.0</ele><time>2026-04-18T13:58:55.284Z</time></trkpt><trkpt lat="41.436964" lon="12.8053266"><ele>5.5</ele><time>2026-04-18T13:58:56.283Z</time></trkpt><trkpt lat="41.4369645" lon="12.8056891"><ele>5.0</ele><time>2026-04-18T13:58:58.284Z</time></trkpt><trkpt lat="41.4369551" lon="12.80605"><ele>6.0</ele><time>2026-04-18T13:59:00.283Z</time></trkpt><trkpt lat="41.4369475" lon="12.8063857"><ele>7.0</ele><time>2026-04-18T13:59:02.283Z</time></trkpt><trkpt lat="41.4369411" lon="12.8066687"><ele>7.0</ele><time>2026-04-18T13:59:04.284Z</time></trkpt><trkpt lat="41.4369372" lon="12.8067906"><ele>7.0</ele><time>2026-04-18T13:59:05.283Z</time></trkpt><trkpt lat="41.4369386" lon="12.8070176"><ele>7.0</ele><time>2026-04-18T13:59:07.284Z</time></trkpt><trkpt lat="41.4369435" lon="12.80719"><ele>7.0</ele><time>2026-04-18T13:59:09.283Z</time></trkpt><trkpt lat="41.4369631" lon="12.8073382"><ele>6.75</ele><time>2026-04-18T13:59:11.284Z</time></trkpt><trkpt lat="41.4369331" lon="12.8074867"><ele>6.5</ele><time>2026-04-18T13:59:13.283Z</time></trkpt><trkpt lat="41.4367979" lon="12.807653"><ele>6.25</ele><time>2026-04-18T13:59:15.283Z</time></trkpt><trkpt lat="41.4367224" lon="12.8077669"><ele>6.0</ele><time>2026-04-18T13:59:16.284Z</time></trkpt><trkpt lat="41.4366534" lon="12.8078879"><ele>5.5</ele><time>2026-04-18T13:59:17.284Z</time></trkpt><trkpt lat="41.4365187" lon="12.8081237"><ele>5.0</ele><time>2026-04-18T13:59:19.283Z</time></trkpt><trkpt lat="41.43639" lon="12.8083742"><ele>5.0</ele><time>2026-04-18T13:59:21.283Z</time></trkpt><trkpt lat="41.4363287" lon="12.8084961"><ele>5.0</ele><time>2026-04-18T13:59:22.283Z</time></trkpt><trkpt lat="41.4362712" lon="12.8086293"><ele>5.0</ele><time>2026-04-18T13:59:23.283Z</time></trkpt><trkpt lat="41.4362171" lon="12.8087663"><ele>5.0</ele><time>2026-04-18T13:59:24.283Z</time></trkpt><trkpt lat="41.43616" lon="12.8088971"><ele>5.0</ele><time>2026-04-18T13:59:25.283Z</time></trkpt><trkpt lat="41.4361016" lon="12.8090432"><ele>5.0</ele><time>2026-04-18T13:59:26.284Z</time></trkpt><trkpt lat="41.4360246" lon="12.8093302"><ele>5.0</ele><time>2026-04-18T13:59:28.283Z</time></trkpt><trkpt lat="41.4359503" lon="12.8095787"><ele>4.5</ele><time>2026-04-18T13:59:30.283Z</time></trkpt><trkpt lat="41.4359107" lon="12.8096925"><ele>4.0</ele><time>2026-04-18T13:59:31.284Z</time></trkpt><trkpt lat="41.4358703" lon="12.8097994"><ele>3.5</ele><time>2026-04-18T13:59:32.284Z</time></trkpt><trkpt lat="41.4358351" lon="12.8099036"><ele>3.0</ele><time>2026-04-18T13:59:33.283Z</time></trkpt><trkpt lat="41.4357918" lon="12.8101762"><ele>3.0</ele><time>2026-04-18T13:59:35.283Z</time></trkpt><trkpt lat="41.4357121" lon="12.8104311"><ele>3.0</ele><time>2026-04-18T13:59:37.283Z</time></trkpt><trkpt lat="41.4356758" lon="12.8105615"><ele>3.0</ele><time>2026-04-18T13:59:38.283Z</time></trkpt><trkpt lat="41.4356253" lon="12.8107057"><ele>3.0</ele><time>2026-04-18T13:59:39.283Z</time></trkpt><trkpt lat="41.4355851" lon="12.8108337"><ele>3.0</ele><time>2026-04-18T13:59:40.284Z</time></trkpt><trkpt lat="41.4355401" lon="12.8109673"><ele>3.0</ele><time>2026-04-18T13:59:41.283Z</time></trkpt><trkpt lat="41.4354911" lon="12.8110855"><ele>3.0</ele><time>2026-04-18T13:59:42.283Z</time></trkpt><trkpt lat="41.435441" lon="12.8112085"><ele>3.0</ele><time>2026-04-18T13:59:43.284Z</time></trkpt><trkpt lat="41.4353916" lon="12.8113124"><ele>3.0</ele><time>2026-04-18T13:59:44.284Z</time></trkpt><trkpt lat="41.4352957" lon="12.8115364"><ele>2.75</ele><time>2026-04-18T13:59:46.284Z</time></trkpt><trkpt lat="41.4351905" lon="12.8117721"><ele>2.5</ele><time>2026-04-18T13:59:48.283Z</time></trkpt><trkpt lat="41.4351405" lon="12.8118843"><ele>2.25</ele><time>2026-04-18T13:59:49.284Z</time></trkpt><trkpt lat="41.435092" lon="12.8120046"><ele>2.0</ele><time>2026-04-18T13:59:50.284Z</time></trkpt><trkpt lat="41.4350427" lon="12.8121222"><ele>2.0</ele><time>2026-04-18T13:59:51.283Z</time></trkpt><trkpt lat="41.435" lon="12.8122341"><ele>2.0</ele><time>2026-04-18T13:59:52.283Z</time></trkpt><trkpt lat="41.4349435" lon="12.812482"><ele>2.0</ele><time>2026-04-18T13:59:54.283Z</time></trkpt><trkpt lat="41.4348613" lon="12.8127446"><ele>2.0</ele><time>2026-04-18T13:59:56.283Z</time></trkpt><trkpt lat="41.4347843" lon="12.8130091"><ele>2.0</ele><time>2026-04-18T13:59:58.283Z</time></trkpt><trkpt lat="41.4347596" lon="12.8131343"><ele>2.0</ele><time>2026-04-18T13:59:59.284Z</time></trkpt><trkpt lat="41.434723" lon="12.813261"><ele>2.0</ele><time>2026-04-18T14:00:00.283Z</time></trkpt><trkpt lat="41.434636" lon="12.8135409"><ele>2.333333333333333</ele><time>2026-04-18T14:00:02.283Z</time></trkpt><trkpt lat="41.434549" lon="12.8137954"><ele>2.6666666666666665</ele><time>2026-04-18T14:00:04.284Z</time></trkpt><trkpt lat="41.4344578" lon="12.8140068"><ele>3.0</ele><time>2026-04-18T14:00:06.283Z</time></trkpt><trkpt lat="41.4343478" lon="12.8141949"><ele>3.0</ele><time>2026-04-18T14:00:08.284Z</time></trkpt><trkpt lat="41.4342944" lon="12.814285"><ele>3.0</ele><time>2026-04-18T14:00:09.283Z</time></trkpt><trkpt lat="41.4342338" lon="12.8143766"><ele>3.0</ele><time>2026-04-18T14:00:10.283Z</time></trkpt><trkpt lat="41.4341179" lon="12.8145553"><ele>3.0</ele><time>2026-04-18T14:00:12.283Z</time></trkpt><trkpt lat="41.4340622" lon="12.8146297"><ele>3.0</ele><time>2026-04-18T14:00:13.283Z</time></trkpt><trkpt lat="41.433998" lon="12.8147098"><ele>2.75</ele><time>2026-04-18T14:00:14.283Z</time></trkpt><trkpt lat="41.4339319" lon="12.8147935"><ele>2.5</ele><time>2026-04-18T14:00:15.283Z</time></trkpt><trkpt lat="41.4337763" lon="12.814938"><ele>2.25</ele><time>2026-04-18T14:00:17.284Z</time></trkpt><trkpt lat="41.4336932" lon="12.8150063"><ele>2.0</ele><time>2026-04-18T14:00:18.283Z</time></trkpt><trkpt lat="41.4336147" lon="12.8150645"><ele>2.333333333333333</ele><time>2026-04-18T14:00:19.284Z</time></trkpt><trkpt lat="41.4334435" lon="12.8151684"><ele>2.6666666666666665</ele><time>2026-04-18T14:00:21.284Z</time></trkpt><trkpt lat="41.4333013" lon="12.8152737"><ele>3.0</ele><time>2026-04-18T14:00:23.283Z</time></trkpt><trkpt lat="41.4331462" lon="12.8153668"><ele>3.0</ele><time>2026-04-18T14:00:25.284Z</time></trkpt><trkpt lat="41.4330731" lon="12.815411"><ele>3.0</ele><time>2026-04-18T14:00:26.284Z</time></trkpt><trkpt lat="41.4329179" lon="12.8154834"><ele>3.0</ele><time>2026-04-18T14:00:28.283Z</time></trkpt><trkpt lat="41.4328412" lon="12.8155153"><ele>3.0</ele><time>2026-04-18T14:00:29.284Z</time></trkpt><trkpt lat="41.432681" lon="12.8155619"><ele>2.5</ele><time>2026-04-18T14:00:31.283Z</time></trkpt><trkpt lat="41.4326056" lon="12.8155779"><ele>2.0</ele><time>2026-04-18T14:00:32.283Z</time></trkpt><trkpt lat="41.4325328" lon="12.8155955"><ele>1.5</ele><time>2026-04-18T14:00:33.283Z</time></trkpt><trkpt lat="41.4323763" lon="12.8156032"><ele>1.0</ele><time>2026-04-18T14:00:35.283Z</time></trkpt><trkpt lat="41.4322083" lon="12.8155882"><ele>1.0</ele><time>2026-04-18T14:00:37.283Z</time></trkpt><trkpt lat="41.4320258" lon="12.8155533"><ele>1.0</ele><time>2026-04-18T14:00:39.284Z</time></trkpt><trkpt lat="41.4318518" lon="12.8155252"><ele>1.0</ele><time>2026-04-18T14:00:41.284Z</time></trkpt><trkpt lat="41.4317733" lon="12.815513"><ele>1.0</ele><time>2026-04-18T14:00:42.283Z</time></trkpt><trkpt lat="41.4317092" lon="12.8155019"><ele>1.0</ele><time>2026-04-18T14:00:43.284Z</time></trkpt><trkpt lat="41.4315523" lon="12.8154597"><ele>1.0</ele><time>2026-04-18T14:00:45.283Z</time></trkpt><trkpt lat="41.43148" lon="12.815437"><ele>1.0</ele><time>2026-04-18T14:00:46.284Z</time></trkpt><trkpt lat="41.4314073" lon="12.8154015"><ele>1.0</ele><time>2026-04-18T14:00:47.283Z</time></trkpt><trkpt lat="41.4312746" lon="12.8153495"><ele>1.3333333333333333</ele><time>2026-04-18T14:00:49.283Z</time></trkpt><trkpt lat="41.4311417" lon="12.8153691"><ele>1.6666666666666665</ele><time>2026-04-18T14:00:51.283Z</time></trkpt><trkpt lat="41.4310742" lon="12.8153825"><ele>2.0</ele><time>2026-04-18T14:00:52.283Z</time></trkpt><trkpt lat="41.4310073" lon="12.8153904"><ele>2.3333333333333335</ele><time>2026-04-18T14:00:53.283Z</time></trkpt><trkpt lat="41.4309381" lon="12.8153941"><ele>2.6666666666666665</ele><time>2026-04-18T14:00:54.283Z</time></trkpt><trkpt lat="41.4308703" lon="12.8153924"><ele>3.0</ele><time>2026-04-18T14:00:55.284Z</time></trkpt><trkpt lat="41.4307405" lon="12.8153952"><ele>3.0</ele><time>2026-04-18T14:00:57.283Z</time></trkpt><trkpt lat="41.4306685" lon="12.8153861"><ele>3.0</ele><time>2026-04-18T14:00:58.284Z</time></trkpt><trkpt lat="41.4305584" lon="12.8153761"><ele>3.0</ele><time>2026-04-18T14:01:00.283Z</time></trkpt><trkpt lat="41.4304338" lon="12.8153475"><ele>3.0</ele><time>2026-04-18T14:01:02.283Z</time></trkpt><trkpt lat="41.4302712" lon="12.8153148"><ele>3.0</ele><time>2026-04-18T14:01:05.284Z</time></trkpt><trkpt lat="41.430185" lon="12.8152792"><ele>3.0</ele><time>2026-04-18T14:01:07.284Z</time></trkpt><trkpt lat="41.4300955" lon="12.8152355"><ele>3.0</ele><time>2026-04-18T14:01:09.283Z</time></trkpt><trkpt lat="41.4300454" lon="12.8151667"><ele>3.0</ele><time>2026-04-18T14:03:59.283Z</time></trkpt><trkpt lat="41.4301338" lon="12.8150573"><ele>3.0</ele><time>2026-04-18T14:04:03.283Z</time></trkpt><trkpt lat="41.4302253" lon="12.815017"><ele>4.0</ele><time>2026-04-18T14:04:05.283Z</time></trkpt><trkpt lat="41.4303105" lon="12.8149639"><ele>5.0</ele><time>2026-04-18T14:04:07.283Z</time></trkpt><trkpt lat="41.4303635" lon="12.8148645"><ele>6.000000000000001</ele><time>2026-04-18T14:04:09.284Z</time></trkpt><trkpt lat="41.4303967" lon="12.8147248"><ele>7.0</ele><time>2026-04-18T14:04:11.283Z</time></trkpt><trkpt lat="41.4304212" lon="12.8145697"><ele>8.0</ele><time>2026-04-18T14:04:13.283Z</time></trkpt><trkpt lat="41.4304443" lon="12.814429"><ele>7.833333333333333</ele><time>2026-04-18T14:04:15.284Z</time></trkpt><trkpt lat="41.4304632" lon="12.8143035"><ele>7.666666666666666</ele><time>2026-04-18T14:04:17.283Z</time></trkpt><trkpt lat="41.4304815" lon="12.8142223"><ele>7.5</ele><time>2026-04-18T14:04:19.283Z</time></trkpt><trkpt lat="41.4305432" lon="12.8141828"><ele>7.333333333333334</ele><time>2026-04-18T14:04:24.283Z</time></trkpt><trkpt lat="41.430525" lon="12.8143249"><ele>7.166666666666667</ele><time>2026-04-18T14:04:26.283Z</time></trkpt><trkpt lat="41.4305128" lon="12.814413"><ele>7.0</ele><time>2026-04-18T14:04:27.283Z</time></trkpt><trkpt lat="41.4304951" lon="12.8145244"><ele>7.166666666666667</ele><time>2026-04-18T14:04:28.284Z</time></trkpt><trkpt lat="41.4304765" lon="12.814638"><ele>7.333333333333334</ele><time>2026-04-18T14:04:29.283Z</time></trkpt><trkpt lat="41.4304573" lon="12.8147517"><ele>7.5</ele><time>2026-04-18T14:04:30.283Z</time></trkpt><trkpt lat="41.430439" lon="12.8148707"><ele>7.666666666666666</ele><time>2026-04-18T14:04:31.284Z</time></trkpt><trkpt lat="41.4304233" lon="12.8149819"><ele>7.833333333333333</ele><time>2026-04-18T14:04:32.284Z</time></trkpt><trkpt lat="41.4304076" lon="12.8151019"><ele>8.0</ele><time>2026-04-18T14:04:33.283Z</time></trkpt><trkpt lat="41.4303911" lon="12.8152146"><ele>7.166666666666666</ele><time>2026-04-18T14:04:34.283Z</time></trkpt><trkpt lat="41.4303725" lon="12.8153226"><ele>6.333333333333333</ele><time>2026-04-18T14:04:35.284Z</time></trkpt><trkpt lat="41.4303559" lon="12.8154393"><ele>5.5</ele><time>2026-04-18T14:04:36.283Z</time></trkpt><trkpt lat="41.4303415" lon="12.815541"><ele>4.666666666666666</ele><time>2026-04-18T14:04:37.283Z</time></trkpt><trkpt lat="41.4303337" lon="12.8156349"><ele>3.833333333333333</ele><time>2026-04-18T14:04:38.284Z</time></trkpt><trkpt lat="41.4303201" lon="12.8157256"><ele>3.0</ele><time>2026-04-18T14:04:39.283Z</time></trkpt><trkpt lat="41.4303023" lon="12.8158572"><ele>3.0</ele><time>2026-04-18T14:04:41.283Z</time></trkpt><trkpt lat="41.4302698" lon="12.8159584"><ele>3.0</ele><time>2026-04-18T14:04:43.283Z</time></trkpt><trkpt lat="41.4301821" lon="12.8159168"><ele>3.0</ele><time>2026-04-18T14:04:45.284Z</time></trkpt><trkpt lat="41.4300907" lon="12.8159002"><ele>3.0</ele><time>2026-04-18T14:04:47.283Z</time></trkpt><trkpt lat="41.4300059" lon="12.8158811"><ele>3.0</ele><time>2026-04-18T14:04:49.283Z</time></trkpt><trkpt lat="41.4299051" lon="12.8158348"><ele>3.0</ele><time>2026-04-18T14:04:51.283Z</time></trkpt><trkpt lat="41.4298435" lon="12.8158145"><ele>3.0</ele><time>2026-04-18T14:04:52.283Z</time></trkpt><trkpt lat="41.4297263" lon="12.8157682"><ele>3.0</ele><time>2026-04-18T14:04:54.283Z</time></trkpt><trkpt lat="41.429618" lon="12.8157187"><ele>3.0</ele><time>2026-04-18T14:04:56.283Z</time></trkpt><trkpt lat="41.4295057" lon="12.8156609"><ele>3.0</ele><time>2026-04-18T14:04:58.283Z</time></trkpt><trkpt lat="41.4293879" lon="12.8156046"><ele>2.8</ele><time>2026-04-18T14:05:00.283Z</time></trkpt><trkpt lat="41.4292907" lon="12.8155438"><ele>2.5999999999999996</ele><time>2026-04-18T14:05:02.283Z</time></trkpt><trkpt lat="41.4291963" lon="12.8155121"><ele>2.4000000000000004</ele><time>2026-04-18T14:05:04.283Z</time></trkpt><trkpt lat="41.4290845" lon="12.8154639"><ele>2.2</ele><time>2026-04-18T14:05:06.283Z</time></trkpt><trkpt lat="41.428974" lon="12.8153886"><ele>2.0</ele><time>2026-04-18T14:05:08.283Z</time></trkpt><trkpt lat="41.4288679" lon="12.8153158"><ele>2.0</ele><time>2026-04-18T14:05:10.283Z</time></trkpt><trkpt lat="41.4288118" lon="12.815276"><ele>2.0</ele><time>2026-04-18T14:05:11.283Z</time></trkpt><trkpt lat="41.4287131" lon="12.8151941"><ele>2.0</ele><time>2026-04-18T14:05:13.283Z</time></trkpt><trkpt lat="41.4286164" lon="12.8151157"><ele>2.0</ele><time>2026-04-18T14:05:15.284Z</time></trkpt><trkpt lat="41.4285178" lon="12.8150412"><ele>2.0</ele><time>2026-04-18T14:05:17.284Z</time></trkpt><trkpt lat="41.4284053" lon="12.8149461"><ele>2.25</ele><time>2026-04-18T14:05:19.283Z</time></trkpt><trkpt lat="41.4283513" lon="12.8149025"><ele>2.5</ele><time>2026-04-18T14:05:20.283Z</time></trkpt><trkpt lat="41.4282092" lon="12.814787"><ele>2.75</ele><time>2026-04-18T14:05:23.283Z</time></trkpt><trkpt lat="41.4281156" lon="12.8147111"><ele>3.0</ele><time>2026-04-18T14:05:25.283Z</time></trkpt><trkpt lat="41.4280128" lon="12.8146395"><ele>3.0</ele><time>2026-04-18T14:05:27.283Z</time></trkpt><trkpt lat="41.4278551" lon="12.8145394"><ele>3.0</ele><time>2026-04-18T14:05:30.284Z</time></trkpt><trkpt lat="41.4277448" lon="12.8144488"><ele>3.0</ele><time>2026-04-18T14:05:32.284Z</time></trkpt><trkpt lat="41.4276848" lon="12.8144034"><ele>3.0</ele><time>2026-04-18T14:05:33.283Z</time></trkpt><trkpt lat="41.4276183" lon="12.8143565"><ele>3.0</ele><time>2026-04-18T14:05:34.284Z</time></trkpt><trkpt lat="41.4274457" lon="12.814226"><ele>2.75</ele><time>2026-04-18T14:05:37.283Z</time></trkpt><trkpt lat="41.4273424" lon="12.8141494"><ele>2.5</ele><time>2026-04-18T14:05:39.284Z</time></trkpt><trkpt lat="41.4272267" lon="12.814065"><ele>2.25</ele><time>2026-04-18T14:05:41.283Z</time></trkpt><trkpt lat="41.427131" lon="12.8139987"><ele>2.0</ele><time>2026-04-18T14:05:43.284Z</time></trkpt><trkpt lat="41.4270256" lon="12.8139244"><ele>2.0</ele><time>2026-04-18T14:05:45.283Z</time></trkpt><trkpt lat="41.4269687" lon="12.8138863"><ele>2.0</ele><time>2026-04-18T14:05:46.284Z</time></trkpt><trkpt lat="41.4268614" lon="12.8138303"><ele>2.0</ele><time>2026-04-18T14:05:48.283Z</time></trkpt><trkpt lat="41.4267541" lon="12.8137772"><ele>2.0</ele><time>2026-04-18T14:05:50.284Z</time></trkpt><trkpt lat="41.426652" lon="12.8137016"><ele>2.0</ele><time>2026-04-18T14:05:52.283Z</time></trkpt><trkpt lat="41.4265525" lon="12.8136525"><ele>2.0</ele><time>2026-04-18T14:05:54.283Z</time></trkpt><trkpt lat="41.4264382" lon="12.8136203"><ele>2.0</ele><time>2026-04-18T14:05:56.283Z</time></trkpt><trkpt lat="41.4263329" lon="12.8135895"><ele>2.0</ele><time>2026-04-18T14:05:58.283Z</time></trkpt><trkpt lat="41.4261814" lon="12.8135235"><ele>2.0</ele><time>2026-04-18T14:06:01.283Z</time></trkpt><trkpt lat="41.4260846" lon="12.8135099"><ele>2.0</ele><time>2026-04-18T14:06:03.283Z</time></trkpt><trkpt lat="41.4259432" lon="12.813505"><ele>2.0</ele><time>2026-04-18T14:06:06.284Z</time></trkpt><trkpt lat="41.4258501" lon="12.8135022"><ele>2.0</ele><time>2026-04-18T14:06:08.283Z</time></trkpt><trkpt lat="41.4257577" lon="12.8134877"><ele>2.0</ele><time>2026-04-18T14:06:10.283Z</time></trkpt><trkpt lat="41.4256677" lon="12.8134768"><ele>2.0</ele><time>2026-04-18T14:06:12.283Z</time></trkpt><trkpt lat="41.4255913" lon="12.8134696"><ele>2.0</ele><time>2026-04-18T14:06:14.283Z</time></trkpt><trkpt lat="41.4255057" lon="12.8134605"><ele>2.0</ele><time>2026-04-18T14:06:16.284Z</time></trkpt><trkpt lat="41.4254212" lon="12.8134506"><ele>2.0</ele><time>2026-04-18T14:06:18.283Z</time></trkpt><trkpt lat="41.425308" lon="12.8134443"><ele>2.0</ele><time>2026-04-18T14:06:20.284Z</time></trkpt><trkpt lat="41.4252085" lon="12.8134471"><ele>2.0</ele><time>2026-04-18T14:06:22.284Z</time></trkpt><trkpt lat="41.4251326" lon="12.8134554"><ele>2.0</ele><time>2026-04-18T14:06:25.283Z</time></trkpt><trkpt lat="41.425022" lon="12.8134565"><ele>2.0</ele><time>2026-04-18T14:06:27.283Z</time></trkpt><trkpt lat="41.4248812" lon="12.8134496"><ele>2.0</ele><time>2026-04-18T14:06:30.283Z</time></trkpt><trkpt lat="41.4247881" lon="12.8134457"><ele>2.0</ele><time>2026-04-18T14:06:32.284Z</time></trkpt><trkpt lat="41.4246915" lon="12.8134466"><ele>2.0</ele><time>2026-04-18T14:06:34.284Z</time></trkpt><trkpt lat="41.4245822" lon="12.8134268"><ele>1.8333333333333333</ele><time>2026-04-18T14:06:37.284Z</time></trkpt><trkpt lat="41.4244925" lon="12.8134246"><ele>1.6666666666666665</ele><time>2026-04-18T14:06:39.283Z</time></trkpt><trkpt lat="41.4244285" lon="12.8134109"><ele>1.5</ele><time>2026-04-18T14:06:40.284Z</time></trkpt><trkpt lat="41.4243388" lon="12.8134261"><ele>1.3333333333333333</ele><time>2026-04-18T14:06:44.283Z</time></trkpt><trkpt lat="41.4242605" lon="12.8134243"><ele>1.1666666666666665</ele><time>2026-04-18T14:06:46.284Z</time></trkpt><trkpt lat="41.4241852" lon="12.8134193"><ele>1.0</ele><time>2026-04-18T14:06:48.284Z</time></trkpt><trkpt lat="41.4241121" lon="12.8134131"><ele>0.9999999999999999</ele><time>2026-04-18T14:06:50.283Z</time></trkpt><trkpt lat="41.424041" lon="12.8134085"><ele>1.0</ele><time>2026-04-18T14:06:52.284Z</time></trkpt><trkpt lat="41.4239739" lon="12.8134104"><ele>1.0</ele><time>2026-04-18T14:06:54.284Z</time></trkpt><trkpt lat="41.4238744" lon="12.8134033"><ele>1.0</ele><time>2026-04-18T14:06:57.284Z</time></trkpt><trkpt lat="41.4237761" lon="12.8133878"><ele>0.9999999999999999</ele><time>2026-04-18T14:06:59.283Z</time></trkpt><trkpt lat="41.4237026" lon="12.8133807"><ele>1.0</ele><time>2026-04-18T14:07:01.284Z</time></trkpt><trkpt lat="41.4236262" lon="12.8133805"><ele>0.9999999999999999</ele><time>2026-04-18T14:07:03.283Z</time></trkpt><trkpt lat="41.4235617" lon="12.8133832"><ele>1.0</ele><time>2026-04-18T14:07:05.283Z</time></trkpt><trkpt lat="41.4234252" lon="12.8133919"><ele>1.0</ele><time>2026-04-18T14:07:09.284Z</time></trkpt><trkpt lat="41.4233473" lon="12.8133841"><ele>1.0</ele><time>2026-04-18T14:07:11.284Z</time></trkpt><trkpt lat="41.4232652" lon="12.8133833"><ele>0.9999999999999999</ele><time>2026-04-18T14:07:13.283Z</time></trkpt><trkpt lat="41.4231821" lon="12.8134009"><ele>1.0</ele><time>2026-04-18T14:07:16.283Z</time></trkpt><trkpt lat="41.4230718" lon="12.8133922"><ele>0.8333333333333333</ele><time>2026-04-18T14:07:20.283Z</time></trkpt><trkpt lat="41.4229715" lon="12.8133783"><ele>0.6666666666666666</ele><time>2026-04-18T14:07:22.283Z</time></trkpt><trkpt lat="41.4228822" lon="12.8133875"><ele>0.5</ele><time>2026-04-18T14:07:25.284Z</time></trkpt><trkpt lat="41.4227823" lon="12.8133872"><ele>0.3333333333333333</ele><time>2026-04-18T14:07:28.283Z</time></trkpt><trkpt lat="41.4227114" lon="12.8133821"><ele>0.16666666666666666</ele><time>2026-04-18T14:07:30.283Z</time></trkpt><trkpt lat="41.422639" lon="12.8133754"><ele>0.0</ele><time>2026-04-18T14:07:32.283Z</time></trkpt><trkpt lat="41.422568" lon="12.8133737"><ele>0.0</ele><time>2026-04-18T14:07:34.283Z</time></trkpt><trkpt lat="41.4225024" lon="12.8133652"><ele>0.0</ele><time>2026-04-18T14:07:36.283Z</time></trkpt><trkpt lat="41.4224153" lon="12.8133566"><ele>0.0</ele><time>2026-04-18T14:07:39.284Z</time></trkpt><trkpt lat="41.422352" lon="12.8133371"><ele>0.0</ele><time>2026-04-18T14:07:41.284Z</time></trkpt><trkpt lat="41.4222476" lon="12.8133469"><ele>0.0</ele><time>2026-04-18T14:07:44.283Z</time></trkpt><trkpt lat="41.4221836" lon="12.813355"><ele>0.0</ele><time>2026-04-18T14:07:46.284Z</time></trkpt><trkpt lat="41.4220834" lon="12.8133594"><ele>0.3333333333333333</ele><time>2026-04-18T14:07:49.283Z</time></trkpt><trkpt lat="41.4219947" lon="12.8133628"><ele>0.6666666666666666</ele><time>2026-04-18T14:07:52.283Z</time></trkpt><trkpt lat="41.4219307" lon="12.8133751"><ele>1.0</ele><time>2026-04-18T14:07:54.283Z</time></trkpt><trkpt lat="41.4218596" lon="12.8133799"><ele>1.3333333333333333</ele><time>2026-04-18T14:07:56.284Z</time></trkpt><trkpt lat="41.4217588" lon="12.8133959"><ele>1.6666666666666665</ele><time>2026-04-18T14:07:59.283Z</time></trkpt><trkpt lat="41.4216878" lon="12.8134214"><ele>2.0</ele><time>2026-04-18T14:08:02.284Z</time></trkpt><trkpt lat="41.4216245" lon="12.8134479"><ele>2.1666666666666665</ele><time>2026-04-18T14:08:06.283Z</time></trkpt><trkpt lat="41.4216309" lon="12.8135522"><ele>2.333333333333333</ele><time>2026-04-18T14:08:11.283Z</time></trkpt><trkpt lat="41.421689" lon="12.8136115"><ele>2.5</ele><time>2026-04-18T14:09:00.284Z</time></trkpt><trkpt lat="41.4218091" lon="12.8136232"><ele>2.6666666666666665</ele><time>2026-04-18T14:09:03.283Z</time></trkpt><trkpt lat="41.4218914" lon="12.8136261"><ele>2.8333333333333335</ele><time>2026-04-18T14:09:05.283Z</time></trkpt><trkpt lat="41.4219562" lon="12.8136269"><ele>3.0</ele><time>2026-04-18T14:09:07.283Z</time></trkpt><trkpt lat="41.4220471" lon="12.8136213"><ele>3.0</ele><time>2026-04-18T14:09:10.283Z</time></trkpt><trkpt lat="41.4221141" lon="12.8136691"><ele>3.0</ele><time>2026-04-18T14:09:13.284Z</time></trkpt><trkpt lat="41.4221133" lon="12.8137711"><ele>3.0</ele><time>2026-04-18T14:09:15.283Z</time></trkpt><trkpt lat="41.4220857" lon="12.8138893"><ele>3.0</ele><time>2026-04-18T14:09:17.284Z</time></trkpt><trkpt lat="41.4220639" lon="12.8139926"><ele>3.0</ele><time>2026-04-18T14:09:19.284Z</time></trkpt><trkpt lat="41.4220447" lon="12.8140982"><ele>3.0</ele><time>2026-04-18T14:09:21.283Z</time></trkpt><trkpt lat="41.4220252" lon="12.8142103"><ele>2.8333333333333335</ele><time>2026-04-18T14:09:23.283Z</time></trkpt><trkpt lat="41.4220034" lon="12.8143225"><ele>2.6666666666666665</ele><time>2026-04-18T14:09:25.283Z</time></trkpt><trkpt lat="41.4219878" lon="12.8144234"><ele>2.5</ele><time>2026-04-18T14:09:27.283Z</time></trkpt><trkpt lat="41.4219704" lon="12.8145161"><ele>2.333333333333333</ele><time>2026-04-18T14:09:29.283Z</time></trkpt><trkpt lat="41.4219499" lon="12.8146232"><ele>2.1666666666666665</ele><time>2026-04-18T14:09:31.283Z</time></trkpt><trkpt lat="41.4219435" lon="12.8147269"><ele>2.0</ele><time>2026-04-18T14:09:33.283Z</time></trkpt><trkpt lat="41.4220131" lon="12.814815"><ele>2.0</ele><time>2026-04-18T14:09:36.283Z</time></trkpt><trkpt lat="41.4220963" lon="12.8148507"><ele>2.0</ele><time>2026-04-18T14:09:38.284Z</time></trkpt><trkpt lat="41.4221942" lon="12.8148702"><ele>2.0</ele><time>2026-04-18T14:09:40.284Z</time></trkpt><trkpt lat="41.4223202" lon="12.8149093"><ele>2.0</ele><time>2026-04-18T14:09:42.283Z</time></trkpt><trkpt lat="41.4223843" lon="12.8149303"><ele>2.0</ele><time>2026-04-18T14:09:43.283Z</time></trkpt><trkpt lat="41.4224511" lon="12.8149595"><ele>1.8333333333333333</ele><time>2026-04-18T14:09:44.283Z</time></trkpt><trkpt lat="41.422514" lon="12.8149764"><ele>1.6666666666666665</ele><time>2026-04-18T14:09:45.283Z</time></trkpt><trkpt lat="41.4225815" lon="12.8150016"><ele>1.5</ele><time>2026-04-18T14:09:46.283Z</time></trkpt><trkpt lat="41.4226828" lon="12.8150235"><ele>1.3333333333333333</ele><time>2026-04-18T14:09:48.283Z</time></trkpt><trkpt lat="41.4227514" lon="12.8150758"><ele>1.1666666666666665</ele><time>2026-04-18T14:09:50.283Z</time></trkpt><trkpt lat="41.4227819" lon="12.8151609"><ele>1.0</ele><time>2026-04-18T14:09:52.283Z</time></trkpt><trkpt lat="41.4227612" lon="12.8152858"><ele>1.6</ele><time>2026-04-18T14:09:55.284Z</time></trkpt><trkpt lat="41.4227385" lon="12.8154239"><ele>2.2</ele><time>2026-04-18T14:09:57.283Z</time></trkpt><trkpt lat="41.422721" lon="12.8155134"><ele>2.8000000000000003</ele><time>2026-04-18T14:09:58.284Z</time></trkpt><trkpt lat="41.422693" lon="12.8156264"><ele>3.4000000000000004</ele><time>2026-04-18T14:09:59.283Z</time></trkpt><trkpt lat="41.422676" lon="12.8157178"><ele>4.0</ele><time>2026-04-18T14:10:00.284Z</time></trkpt><trkpt lat="41.4226255" lon="12.8158985"><ele>4.2</ele><time>2026-04-18T14:10:02.283Z</time></trkpt><trkpt lat="41.4226156" lon="12.8159955"><ele>4.4</ele><time>2026-04-18T14:10:03.284Z</time></trkpt><trkpt lat="41.4225803" lon="12.8161522"><ele>4.6</ele><time>2026-04-18T14:10:05.284Z</time></trkpt><trkpt lat="41.4224943" lon="12.8162335"><ele>4.8</ele><time>2026-04-18T14:10:07.283Z</time></trkpt><trkpt lat="41.4224204" lon="12.8162466"><ele>5.0</ele><time>2026-04-18T14:10:08.283Z</time></trkpt><trkpt lat="41.4222546" lon="12.8161941"><ele>4.8</ele><time>2026-04-18T14:10:10.283Z</time></trkpt><trkpt lat="41.4221079" lon="12.8161333"><ele>4.6</ele><time>2026-04-18T14:10:12.283Z</time></trkpt><trkpt lat="41.42204" lon="12.816115"><ele>4.4</ele><time>2026-04-18T14:10:13.284Z</time></trkpt><trkpt lat="41.4219747" lon="12.8161009"><ele>4.2</ele><time>2026-04-18T14:10:14.284Z</time></trkpt><trkpt lat="41.4218663" lon="12.8161461"><ele>4.0</ele><time>2026-04-18T14:10:16.284Z</time></trkpt><trkpt lat="41.4218029" lon="12.8161418"><ele>4.0</ele><time>2026-04-18T14:10:17.283Z</time></trkpt><trkpt lat="41.4216479" lon="12.8161094"><ele>4.0</ele><time>2026-04-18T14:10:19.283Z</time></trkpt><trkpt lat="41.4214836" lon="12.8160552"><ele>4.0</ele><time>2026-04-18T14:10:21.284Z</time></trkpt><trkpt lat="41.4213328" lon="12.8160109"><ele>3.8000000000000003</ele><time>2026-04-18T14:10:23.284Z</time></trkpt><trkpt lat="41.4212649" lon="12.8159925"><ele>3.6000000000000005</ele><time>2026-04-18T14:10:24.283Z</time></trkpt><trkpt lat="41.421153" lon="12.8159637"><ele>3.4</ele><time>2026-04-18T14:10:26.283Z</time></trkpt><trkpt lat="41.4210466" lon="12.8159037"><ele>3.2</ele><time>2026-04-18T14:10:28.283Z</time></trkpt><trkpt lat="41.4209193" lon="12.8158251"><ele>3.0</ele><time>2026-04-18T14:10:30.284Z</time></trkpt><trkpt lat="41.4207888" lon="12.8157478"><ele>3.0</ele><time>2026-04-18T14:10:32.284Z</time></trkpt><trkpt lat="41.4206653" lon="12.815671"><ele>3.0</ele><time>2026-04-18T14:10:34.284Z</time></trkpt><trkpt lat="41.4205331" lon="12.8155878"><ele>3.0</ele><time>2026-04-18T14:10:36.283Z</time></trkpt><trkpt lat="41.4204643" lon="12.8155486"><ele>3.0</ele><time>2026-04-18T14:10:37.283Z</time></trkpt><trkpt lat="41.4204028" lon="12.8155165"><ele>3.0</ele><time>2026-04-18T14:10:38.283Z</time></trkpt><trkpt lat="41.4202655" lon="12.8154211"><ele>3.0</ele><time>2026-04-18T14:10:40.283Z</time></trkpt><trkpt lat="41.4201415" lon="12.8153378"><ele>3.0</ele><time>2026-04-18T14:10:42.283Z</time></trkpt><trkpt lat="41.4199976" lon="12.8152478"><ele>3.0</ele><time>2026-04-18T14:10:44.283Z</time></trkpt><trkpt lat="41.4198566" lon="12.8151534"><ele>3.0</ele><time>2026-04-18T14:10:46.283Z</time></trkpt><trkpt lat="41.4197884" lon="12.8151047"><ele>3.0</ele><time>2026-04-18T14:10:47.283Z</time></trkpt><trkpt lat="41.419654" lon="12.8150183"><ele>3.0</ele><time>2026-04-18T14:10:49.284Z</time></trkpt><trkpt lat="41.4195876" lon="12.814972"><ele>3.0</ele><time>2026-04-18T14:10:50.284Z</time></trkpt><trkpt lat="41.4195202" lon="12.814918"><ele>3.0</ele><time>2026-04-18T14:10:51.283Z</time></trkpt><trkpt lat="41.4194483" lon="12.8148732"><ele>2.8333333333333335</ele><time>2026-04-18T14:10:52.284Z</time></trkpt><trkpt lat="41.4193733" lon="12.8148349"><ele>2.6666666666666665</ele><time>2026-04-18T14:10:53.284Z</time></trkpt><trkpt lat="41.4193" lon="12.8147839"><ele>2.5</ele><time>2026-04-18T14:10:54.283Z</time></trkpt><trkpt lat="41.4192313" lon="12.8147325"><ele>2.333333333333333</ele><time>2026-04-18T14:10:55.283Z</time></trkpt><trkpt lat="41.4191587" lon="12.8146853"><ele>2.1666666666666665</ele><time>2026-04-18T14:10:56.283Z</time></trkpt><trkpt lat="41.4190941" lon="12.814648"><ele>2.0</ele><time>2026-04-18T14:10:57.284Z</time></trkpt><trkpt lat="41.4190181" lon="12.8145987"><ele>1.9999999999999998</ele><time>2026-04-18T14:10:58.284Z</time></trkpt><trkpt lat="41.4189573" lon="12.8145529"><ele>2.0</ele><time>2026-04-18T14:10:59.283Z</time></trkpt><trkpt lat="41.418893" lon="12.8145027"><ele>2.0</ele><time>2026-04-18T14:11:00.283Z</time></trkpt><trkpt lat="41.4188272" lon="12.8144566"><ele>2.0</ele><time>2026-04-18T14:11:01.283Z</time></trkpt><trkpt lat="41.4187637" lon="12.8144136"><ele>1.9999999999999998</ele><time>2026-04-18T14:11:02.284Z</time></trkpt><trkpt lat="41.4187024" lon="12.8143735"><ele>2.0</ele><time>2026-04-18T14:11:03.283Z</time></trkpt><trkpt lat="41.4185681" lon="12.814284"><ele>1.9999999999999998</ele><time>2026-04-18T14:11:05.284Z</time></trkpt><trkpt lat="41.4185028" lon="12.8142415"><ele>2.0</ele><time>2026-04-18T14:11:06.284Z</time></trkpt><trkpt lat="41.4184379" lon="12.8142021"><ele>2.0</ele><time>2026-04-18T14:11:07.284Z</time></trkpt><trkpt lat="41.4183621" lon="12.8141614"><ele>2.0</ele><time>2026-04-18T14:11:08.283Z</time></trkpt><trkpt lat="41.4183065" lon="12.8141175"><ele>1.9999999999999998</ele><time>2026-04-18T14:11:09.284Z</time></trkpt><trkpt lat="41.4181921" lon="12.8140296"><ele>2.0</ele><time>2026-04-18T14:11:11.284Z</time></trkpt><trkpt lat="41.4181323" lon="12.8139826"><ele>2.0</ele><time>2026-04-18T14:11:12.283Z</time></trkpt><trkpt lat="41.4180753" lon="12.8139363"><ele>2.0</ele><time>2026-04-18T14:11:13.284Z</time></trkpt><trkpt lat="41.4178652" lon="12.8138322"><ele>2.0</ele><time>2026-04-18T14:11:16.283Z</time></trkpt><trkpt lat="41.4177954" lon="12.8137973"><ele>2.0</ele><time>2026-04-18T14:11:17.283Z</time></trkpt><trkpt lat="41.417728" lon="12.8137777"><ele>2.0</ele><time>2026-04-18T14:11:18.283Z</time></trkpt><trkpt lat="41.4176538" lon="12.8137385"><ele>1.75</ele><time>2026-04-18T14:11:19.283Z</time></trkpt><trkpt lat="41.4175096" lon="12.8136737"><ele>1.5</ele><time>2026-04-18T14:11:21.283Z</time></trkpt><trkpt lat="41.4173673" lon="12.8136355"><ele>1.25</ele><time>2026-04-18T14:11:23.284Z</time></trkpt><trkpt lat="41.4172932" lon="12.8136226"><ele>1.0</ele><time>2026-04-18T14:11:24.284Z</time></trkpt><trkpt lat="41.4172123" lon="12.8136131"><ele>1.25</ele><time>2026-04-18T14:11:25.283Z</time></trkpt><trkpt lat="41.4171472" lon="12.8136068"><ele>1.5</ele><time>2026-04-18T14:11:26.283Z</time></trkpt><trkpt lat="41.4169873" lon="12.8135971"><ele>1.75</ele><time>2026-04-18T14:11:28.284Z</time></trkpt><trkpt lat="41.4169237" lon="12.8136033"><ele>2.0</ele><time>2026-04-18T14:11:29.284Z</time></trkpt><trkpt lat="41.4167563" lon="12.8135952"><ele>2.0</ele><time>2026-04-18T14:11:31.284Z</time></trkpt><trkpt lat="41.4166047" lon="12.8135959"><ele>2.0</ele><time>2026-04-18T14:11:33.283Z</time></trkpt><trkpt lat="41.4164444" lon="12.8135953"><ele>2.0</ele><time>2026-04-18T14:11:35.283Z</time></trkpt><trkpt lat="41.4163703" lon="12.8135937"><ele>2.0</ele><time>2026-04-18T14:11:36.283Z</time></trkpt><trkpt lat="41.4162966" lon="12.8135889"><ele>2.2</ele><time>2026-04-18T14:11:37.283Z</time></trkpt><trkpt lat="41.4162263" lon="12.8135871"><ele>2.4000000000000004</ele><time>2026-04-18T14:11:38.283Z</time></trkpt><trkpt lat="41.4160784" lon="12.8135866"><ele>2.5999999999999996</ele><time>2026-04-18T14:11:40.283Z</time></trkpt><trkpt lat="41.4160133" lon="12.8135901"><ele>2.8</ele><time>2026-04-18T14:11:41.284Z</time></trkpt><trkpt lat="41.4158558" lon="12.8135583"><ele>3.0</ele><time>2026-04-18T14:11:44.284Z</time></trkpt><trkpt lat="41.4157894" lon="12.8134912"><ele>2.8</ele><time>2026-04-18T14:11:47.283Z</time></trkpt><trkpt lat="41.4157394" lon="12.8133941"><ele>2.5999999999999996</ele><time>2026-04-18T14:11:52.283Z</time></trkpt><trkpt lat="41.4156338" lon="12.8133562"><ele>2.4000000000000004</ele><time>2026-04-18T14:11:55.283Z</time></trkpt><trkpt lat="41.4155653" lon="12.8133468"><ele>2.2</ele><time>2026-04-18T14:11:57.283Z</time></trkpt><trkpt lat="41.4154922" lon="12.8133276"><ele>2.0</ele><time>2026-04-18T14:12:01.283Z</time></trkpt><trkpt lat="41.4154912" lon="12.8131721"><ele>2.0</ele><time>2026-04-18T14:12:06.284Z</time></trkpt><trkpt lat="41.4154816" lon="12.8130638"><ele>2.0</ele><time>2026-04-18T14:12:08.283Z</time></trkpt><trkpt lat="41.4154896" lon="12.8128634"><ele>2.0</ele><time>2026-04-18T14:12:11.283Z</time></trkpt><trkpt lat="41.415496" lon="12.8127143"><ele>2.0</ele><time>2026-04-18T14:12:13.284Z</time></trkpt><trkpt lat="41.4155011" lon="12.8124921"><ele>2.0</ele><time>2026-04-18T14:12:16.283Z</time></trkpt><trkpt lat="41.4154998" lon="12.8123209"><ele>2.0</ele><time>2026-04-18T14:12:19.283Z</time></trkpt><trkpt lat="41.4154831" lon="12.8122364"><ele>2.0</ele><time>2026-04-18T14:12:21.284Z</time></trkpt><trkpt lat="41.415505" lon="12.8121219"><ele>2.0</ele><time>2026-04-18T14:12:23.283Z</time></trkpt><trkpt lat="41.4155256" lon="12.8119787"><ele>2.0</ele><time>2026-04-18T14:12:25.283Z</time></trkpt><trkpt lat="41.4155147" lon="12.8117932"><ele>3.0</ele><time>2026-04-18T14:12:27.283Z</time></trkpt><trkpt lat="41.4155236" lon="12.8115289"><ele>4.0</ele><time>2026-04-18T14:12:29.283Z</time></trkpt><trkpt lat="41.4155373" lon="12.811209"><ele>5.0</ele><time>2026-04-18T14:12:31.283Z</time></trkpt><trkpt lat="41.4155463" lon="12.810991"><ele>5.333333333333334</ele><time>2026-04-18T14:12:32.283Z</time></trkpt><trkpt lat="41.4155664" lon="12.810745"><ele>5.666666666666667</ele><time>2026-04-18T14:12:33.283Z</time></trkpt><trkpt lat="41.4155809" lon="12.8104815"><ele>6.0</ele><time>2026-04-18T14:12:34.284Z</time></trkpt><trkpt lat="41.4155945" lon="12.8102402"><ele>5.666666666666667</ele><time>2026-04-18T14:12:35.283Z</time></trkpt><trkpt lat="41.4156085" lon="12.8100252"><ele>5.333333333333334</ele><time>2026-04-18T14:12:36.283Z</time></trkpt><trkpt lat="41.4156168" lon="12.8098193"><ele>5.0</ele><time>2026-04-18T14:12:37.284Z</time></trkpt><trkpt lat="41.4156378" lon="12.8094184"><ele>4.666666666666667</ele><time>2026-04-18T14:12:39.284Z</time></trkpt><trkpt lat="41.4156473" lon="12.8092231"><ele>4.333333333333333</ele><time>2026-04-18T14:12:40.283Z</time></trkpt><trkpt lat="41.4156648" lon="12.8088696"><ele>4.0</ele><time>2026-04-18T14:12:42.283Z</time></trkpt><trkpt lat="41.4156817" lon="12.8084953"><ele>4.0</ele><time>2026-04-18T14:12:44.283Z</time></trkpt><trkpt lat="41.4156846" lon="12.8082811"><ele>4.0</ele><time>2026-04-18T14:12:45.283Z</time></trkpt><trkpt lat="41.4156968" lon="12.8080842"><ele>4.0</ele><time>2026-04-18T14:12:46.283Z</time></trkpt><trkpt lat="41.415702" lon="12.8078796"><ele>4.0</ele><time>2026-04-18T14:12:47.283Z</time></trkpt><trkpt lat="41.4157108" lon="12.8077239"><ele>4.0</ele><time>2026-04-18T14:12:48.283Z</time></trkpt><trkpt lat="41.415724" lon="12.8075516"><ele>4.0</ele><time>2026-04-18T14:12:49.283Z</time></trkpt><trkpt lat="41.4157472" lon="12.8072167"><ele>4.0</ele><time>2026-04-18T14:12:51.283Z</time></trkpt><trkpt lat="41.4157615" lon="12.8070461"><ele>4.0</ele><time>2026-04-18T14:12:52.284Z</time></trkpt><trkpt lat="41.4157841" lon="12.8068665"><ele>4.0</ele><time>2026-04-18T14:12:53.283Z</time></trkpt><trkpt lat="41.4158165" lon="12.8067014"><ele>4.0</ele><time>2026-04-18T14:12:54.283Z</time></trkpt><trkpt lat="41.4158615" lon="12.8065207"><ele>3.333333333333333</ele><time>2026-04-18T14:12:55.283Z</time></trkpt><trkpt lat="41.4158951" lon="12.806355"><ele>2.6666666666666665</ele><time>2026-04-18T14:12:56.283Z</time></trkpt><trkpt lat="41.4159455" lon="12.8061685"><ele>2.0</ele><time>2026-04-18T14:12:57.283Z</time></trkpt><trkpt lat="41.4160467" lon="12.8058335"><ele>2.0</ele><time>2026-04-18T14:12:59.283Z</time></trkpt><trkpt lat="41.4161455" lon="12.8054977"><ele>2.0</ele><time>2026-04-18T14:13:01.284Z</time></trkpt><trkpt lat="41.4162463" lon="12.8051568"><ele>2.0</ele><time>2026-04-18T14:13:03.283Z</time></trkpt><trkpt lat="41.4162951" lon="12.8049833"><ele>2.0</ele><time>2026-04-18T14:13:04.284Z</time></trkpt><trkpt lat="41.4163452" lon="12.8048026"><ele>2.0</ele><time>2026-04-18T14:13:05.284Z</time></trkpt><trkpt lat="41.4163932" lon="12.8046128"><ele>2.0</ele><time>2026-04-18T14:13:06.283Z</time></trkpt><trkpt lat="41.4164573" lon="12.8044184"><ele>1.3333333333333333</ele><time>2026-04-18T14:13:07.283Z</time></trkpt><trkpt lat="41.4165026" lon="12.8042623"><ele>0.6666666666666666</ele><time>2026-04-18T14:13:08.283Z</time></trkpt><trkpt lat="41.4165516" lon="12.8040919"><ele>0.0</ele><time>2026-04-18T14:13:09.283Z</time></trkpt><trkpt lat="41.4166303" lon="12.803757"><ele>0.3333333333333333</ele><time>2026-04-18T14:13:11.284Z</time></trkpt><trkpt lat="41.4167277" lon="12.8034174"><ele>0.6666666666666666</ele><time>2026-04-18T14:13:13.283Z</time></trkpt><trkpt lat="41.4167716" lon="12.8032584"><ele>1.0</ele><time>2026-04-18T14:13:14.284Z</time></trkpt><trkpt lat="41.4168149" lon="12.8030968"><ele>1.0</ele><time>2026-04-18T14:13:15.284Z</time></trkpt><trkpt lat="41.4169087" lon="12.8028263"><ele>1.0</ele><time>2026-04-18T14:13:17.284Z</time></trkpt><trkpt lat="41.4169623" lon="12.8027104"><ele>1.0</ele><time>2026-04-18T14:13:18.284Z</time></trkpt><trkpt lat="41.4171008" lon="12.8024765"><ele>1.0</ele><time>2026-04-18T14:13:20.283Z</time></trkpt><trkpt lat="41.4171815" lon="12.8023783"><ele>1.0</ele><time>2026-04-18T14:13:21.284Z</time></trkpt><trkpt lat="41.4173342" lon="12.8022062"><ele>1.0</ele><time>2026-04-18T14:13:23.284Z</time></trkpt><trkpt lat="41.4174114" lon="12.8021388"><ele>1.0</ele><time>2026-04-18T14:13:24.284Z</time></trkpt><trkpt lat="41.417488" lon="12.8020619"><ele>1.0</ele><time>2026-04-18T14:13:25.283Z</time></trkpt><trkpt lat="41.4175533" lon="12.8019851"><ele>1.0</ele><time>2026-04-18T14:13:26.284Z</time></trkpt><trkpt lat="41.4176133" lon="12.8018949"><ele>1.0</ele><time>2026-04-18T14:13:27.283Z</time></trkpt><trkpt lat="41.4176631" lon="12.8017994"><ele>1.0</ele><time>2026-04-18T14:13:28.283Z</time></trkpt><trkpt lat="41.4176999" lon="12.801689"><ele>1.0</ele><time>2026-04-18T14:13:29.283Z</time></trkpt><trkpt lat="41.4177355" lon="12.8014319"><ele>1.0</ele><time>2026-04-18T14:13:31.284Z</time></trkpt><trkpt lat="41.4177605" lon="12.8011136"><ele>1.0</ele><time>2026-04-18T14:13:33.283Z</time></trkpt><trkpt lat="41.417776" lon="12.8009123"><ele>1.0</ele><time>2026-04-18T14:13:34.284Z</time></trkpt><trkpt lat="41.4177914" lon="12.8006822"><ele>1.0</ele><time>2026-04-18T14:13:35.284Z</time></trkpt><trkpt lat="41.4178269" lon="12.8001154"><ele>1.0</ele><time>2026-04-18T14:13:37.284Z</time></trkpt><trkpt lat="41.4178503" lon="12.7998804"><ele>1.0</ele><time>2026-04-18T14:13:38.284Z</time></trkpt><trkpt lat="41.4178754" lon="12.7996507"><ele>1.0</ele><time>2026-04-18T14:13:39.284Z</time></trkpt><trkpt lat="41.4179063" lon="12.7994137"><ele>1.0</ele><time>2026-04-18T14:13:40.283Z</time></trkpt><trkpt lat="41.4179862" lon="12.7990404"><ele>1.0</ele><time>2026-04-18T14:13:42.283Z</time></trkpt><trkpt lat="41.4180693" lon="12.7986868"><ele>1.0</ele><time>2026-04-18T14:13:44.284Z</time></trkpt><trkpt lat="41.4181113" lon="12.7985035"><ele>1.0</ele><time>2026-04-18T14:13:45.284Z</time></trkpt><trkpt lat="41.4181877" lon="12.7981778"><ele>1.0</ele><time>2026-04-18T14:13:47.283Z</time></trkpt><trkpt lat="41.4182744" lon="12.7978155"><ele>1.0</ele><time>2026-04-18T14:13:49.283Z</time></trkpt><trkpt lat="41.4183618" lon="12.7974549"><ele>1.0</ele><time>2026-04-18T14:13:51.283Z</time></trkpt><trkpt lat="41.4184022" lon="12.7972711"><ele>1.0</ele><time>2026-04-18T14:13:52.283Z</time></trkpt><trkpt lat="41.4184483" lon="12.797087"><ele>1.0</ele><time>2026-04-18T14:13:53.284Z</time></trkpt><trkpt lat="41.4185252" lon="12.7967261"><ele>1.0</ele><time>2026-04-18T14:13:55.283Z</time></trkpt><trkpt lat="41.4186147" lon="12.796363"><ele>1.0</ele><time>2026-04-18T14:13:57.283Z</time></trkpt><trkpt lat="41.4186912" lon="12.7959839"><ele>1.0</ele><time>2026-04-18T14:13:59.284Z</time></trkpt><trkpt lat="41.4187624" lon="12.7956191"><ele>1.0</ele><time>2026-04-18T14:14:01.283Z</time></trkpt><trkpt lat="41.4188094" lon="12.79543"><ele>1.0</ele><time>2026-04-18T14:14:02.283Z</time></trkpt><trkpt lat="41.4188532" lon="12.7952393"><ele>0.6666666666666666</ele><time>2026-04-18T14:14:03.283Z</time></trkpt><trkpt lat="41.4189381" lon="12.794881"><ele>0.3333333333333333</ele><time>2026-04-18T14:14:05.284Z</time></trkpt><trkpt lat="41.4189774" lon="12.7946961"><ele>0.0</ele><time>2026-04-18T14:14:06.284Z</time></trkpt><trkpt lat="41.4190586" lon="12.794323"><ele>1.0</ele><time>2026-04-18T14:14:08.283Z</time></trkpt><trkpt lat="41.4191058" lon="12.7941273"><ele>2.0</ele><time>2026-04-18T14:14:09.283Z</time></trkpt><trkpt lat="41.4191476" lon="12.793943"><ele>3.0</ele><time>2026-04-18T14:14:10.283Z</time></trkpt><trkpt lat="41.4191845" lon="12.7937453"><ele>2.0</ele><time>2026-04-18T14:14:11.283Z</time></trkpt><trkpt lat="41.4192514" lon="12.7933271"><ele>1.0</ele><time>2026-04-18T14:14:13.283Z</time></trkpt><trkpt lat="41.4193126" lon="12.7928846"><ele>1.0</ele><time>2026-04-18T14:14:15.283Z</time></trkpt><trkpt lat="41.4193404" lon="12.7926848"><ele>1.0</ele><time>2026-04-18T14:14:16.284Z</time></trkpt><trkpt lat="41.4193705" lon="12.7924637"><ele>1.0</ele><time>2026-04-18T14:14:17.284Z</time></trkpt><trkpt lat="41.419425" lon="12.792138"><ele>0.3333333333333333</ele><time>2026-04-18T14:14:18.284Z</time></trkpt><trkpt lat="41.4194652" lon="12.7918386"><ele>-0.3333333333333333</ele><time>2026-04-18T14:14:19.283Z</time></trkpt><trkpt lat="41.4195053" lon="12.7915499"><ele>-1.0</ele><time>2026-04-18T14:14:20.284Z</time></trkpt><trkpt lat="41.4195453" lon="12.7912819"><ele>-1.0</ele><time>2026-04-18T14:14:21.283Z</time></trkpt><trkpt lat="41.4195803" lon="12.7910304"><ele>-1.0</ele><time>2026-04-18T14:14:22.283Z</time></trkpt><trkpt lat="41.4196102" lon="12.7905744"><ele>0.0</ele><time>2026-04-18T14:14:24.283Z</time></trkpt><trkpt lat="41.4196531" lon="12.7901074"><ele>1.0</ele><time>2026-04-18T14:14:26.283Z</time></trkpt><trkpt lat="41.4196771" lon="12.7898837"><ele>1.0</ele><time>2026-04-18T14:14:27.283Z</time></trkpt><trkpt lat="41.4196961" lon="12.7896742"><ele>1.0</ele><time>2026-04-18T14:14:28.284Z</time></trkpt><trkpt lat="41.4197074" lon="12.7894794"><ele>1.0</ele><time>2026-04-18T14:14:29.284Z</time></trkpt><trkpt lat="41.4197214" lon="12.7892731"><ele>1.0</ele><time>2026-04-18T14:14:30.283Z</time></trkpt><trkpt lat="41.4197458" lon="12.7890733"><ele>1.0</ele><time>2026-04-18T14:14:31.284Z</time></trkpt><trkpt lat="41.4197834" lon="12.7886715"><ele>1.0</ele><time>2026-04-18T14:14:33.284Z</time></trkpt><trkpt lat="41.4198333" lon="12.7881613"><ele>1.0</ele><time>2026-04-18T14:14:35.283Z</time></trkpt><trkpt lat="41.419852" lon="12.7879114"><ele>0.5</ele><time>2026-04-18T14:14:36.283Z</time></trkpt><trkpt lat="41.4198678" lon="12.7876697"><ele>0.0</ele><time>2026-04-18T14:14:37.284Z</time></trkpt><trkpt lat="41.4199179" lon="12.7872262"><ele>0.0</ele><time>2026-04-18T14:14:39.283Z</time></trkpt><trkpt lat="41.4199348" lon="12.7870501"><ele>0.0</ele><time>2026-04-18T14:14:40.283Z</time></trkpt><trkpt lat="41.4199505" lon="12.786896"><ele>0.0</ele><time>2026-04-18T14:14:41.283Z</time></trkpt><trkpt lat="41.4199609" lon="12.7867308"><ele>0.0</ele><time>2026-04-18T14:14:42.284Z</time></trkpt><trkpt lat="41.4199601" lon="12.7866006"><ele>0.0</ele><time>2026-04-18T14:14:43.284Z</time></trkpt><trkpt lat="41.4199733" lon="12.786476"><ele>0.0</ele><time>2026-04-18T14:14:44.283Z</time></trkpt><trkpt lat="41.4199866" lon="12.7862657"><ele>0.0</ele><time>2026-04-18T14:14:46.284Z</time></trkpt><trkpt lat="41.4199961" lon="12.7861041"><ele>0.0</ele><time>2026-04-18T14:14:48.283Z</time></trkpt><trkpt lat="41.4200469" lon="12.7860194"><ele>0.0</ele><time>2026-04-18T14:14:50.283Z</time></trkpt><trkpt lat="41.420275" lon="12.7861073"><ele>0.0</ele><time>2026-04-18T14:15:00.283Z</time></trkpt><trkpt lat="41.4203746" lon="12.7861206"><ele>0.0</ele><time>2026-04-18T14:15:02.283Z</time></trkpt><trkpt lat="41.4204888" lon="12.7861749"><ele>0.2857142857142857</ele><time>2026-04-18T14:15:04.283Z</time></trkpt><trkpt lat="41.4205468" lon="12.7862076"><ele>0.5714285714285714</ele><time>2026-04-18T14:15:05.283Z</time></trkpt><trkpt lat="41.4206141" lon="12.7862401"><ele>0.8571428571428571</ele><time>2026-04-18T14:15:06.284Z</time></trkpt><trkpt lat="41.4206791" lon="12.7862586"><ele>1.1428571428571428</ele><time>2026-04-18T14:15:07.284Z</time></trkpt><trkpt lat="41.4207433" lon="12.7862707"><ele>1.4285714285714284</ele><time>2026-04-18T14:15:08.283Z</time></trkpt><trkpt lat="41.420822" lon="12.7862833"><ele>1.7142857142857142</ele><time>2026-04-18T14:15:09.284Z</time></trkpt><trkpt lat="41.4208934" lon="12.7862966"><ele>2.0</ele><time>2026-04-18T14:15:10.283Z</time></trkpt><trkpt lat="41.4209592" lon="12.7863175"><ele>1.9999999999999998</ele><time>2026-04-18T14:15:11.283Z</time></trkpt><trkpt lat="41.4210833" lon="12.7863774"><ele>2.0</ele><time>2026-04-18T14:15:13.283Z</time></trkpt><trkpt lat="41.421144" lon="12.7864017"><ele>2.0</ele><time>2026-04-18T14:15:14.283Z</time></trkpt><trkpt lat="41.4212225" lon="12.7864314"><ele>2.0</ele><time>2026-04-18T14:15:15.284Z</time></trkpt><trkpt lat="41.4212833" lon="12.7864548"><ele>1.9999999999999998</ele><time>2026-04-18T14:15:16.283Z</time></trkpt><trkpt lat="41.4213537" lon="12.7864779"><ele>2.0</ele><time>2026-04-18T14:15:17.283Z</time></trkpt><trkpt lat="41.421474" lon="12.7865318"><ele>1.8333333333333333</ele><time>2026-04-18T14:15:19.284Z</time></trkpt><trkpt lat="41.4215515" lon="12.7865614"><ele>1.6666666666666665</ele><time>2026-04-18T14:15:20.284Z</time></trkpt><trkpt lat="41.4216248" lon="12.7865788"><ele>1.5</ele><time>2026-04-18T14:15:21.283Z</time></trkpt><trkpt lat="41.4217637" lon="12.7866157"><ele>1.3333333333333333</ele><time>2026-04-18T14:15:23.284Z</time></trkpt><trkpt lat="41.4218333" lon="12.786643"><ele>1.1666666666666665</ele><time>2026-04-18T14:15:24.283Z</time></trkpt><trkpt lat="41.4218977" lon="12.7866639"><ele>1.0</ele><time>2026-04-18T14:15:25.284Z</time></trkpt><trkpt lat="41.4219663" lon="12.7866882"><ele>1.0</ele><time>2026-04-18T14:15:26.283Z</time></trkpt><trkpt lat="41.4221065" lon="12.7867431"><ele>1.0</ele><time>2026-04-18T14:15:28.283Z</time></trkpt><trkpt lat="41.4221768" lon="12.7867726"><ele>1.0</ele><time>2026-04-18T14:15:29.283Z</time></trkpt><trkpt lat="41.4223048" lon="12.7868174"><ele>1.0</ele><time>2026-04-18T14:15:31.283Z</time></trkpt><trkpt lat="41.4223705" lon="12.7868406"><ele>1.0</ele><time>2026-04-18T14:15:32.283Z</time></trkpt><trkpt lat="41.4224354" lon="12.7868619"><ele>0.9999999999999999</ele><time>2026-04-18T14:15:33.283Z</time></trkpt><trkpt lat="41.4225058" lon="12.7868915"><ele>1.0</ele><time>2026-04-18T14:15:34.283Z</time></trkpt><trkpt lat="41.4225761" lon="12.7869144"><ele>1.0</ele><time>2026-04-18T14:15:35.284Z</time></trkpt><trkpt lat="41.422651" lon="12.7869278"><ele>1.0</ele><time>2026-04-18T14:15:36.284Z</time></trkpt><trkpt lat="41.4227199" lon="12.7869443"><ele>0.9999999999999999</ele><time>2026-04-18T14:15:37.283Z</time></trkpt><trkpt lat="41.4228558" lon="12.7869771"><ele>1.0</ele><time>2026-04-18T14:15:39.283Z</time></trkpt><trkpt lat="41.4229958" lon="12.7869823"><ele>1.0</ele><time>2026-04-18T14:15:41.283Z</time></trkpt><trkpt lat="41.4230686" lon="12.7869865"><ele>1.0</ele><time>2026-04-18T14:15:42.284Z</time></trkpt><trkpt lat="41.4231577" lon="12.7870036"><ele>1.0</ele><time>2026-04-18T14:15:43.284Z</time></trkpt><trkpt lat="41.4232464" lon="12.7870225"><ele>1.0</ele><time>2026-04-18T14:15:44.283Z</time></trkpt><trkpt lat="41.4233286" lon="12.7870475"><ele>1.0</ele><time>2026-04-18T14:15:45.283Z</time></trkpt><trkpt lat="41.423473" lon="12.7870927"><ele>1.0</ele><time>2026-04-18T14:15:47.283Z</time></trkpt><trkpt lat="41.4235369" lon="12.7871268"><ele>0.9999999999999999</ele><time>2026-04-18T14:15:48.283Z</time></trkpt><trkpt lat="41.4236259" lon="12.7871997"><ele>1.0</ele><time>2026-04-18T14:15:50.284Z</time></trkpt><trkpt lat="41.4236753" lon="12.7872532"><ele>1.0</ele><time>2026-04-18T14:15:53.283Z</time></trkpt><trkpt lat="41.4237336" lon="12.7872927"><ele>0.9999999999999999</ele><time>2026-04-18T14:17:00.284Z</time></trkpt><trkpt lat="41.4237164" lon="12.7873843"><ele>1.0</ele><time>2026-04-18T14:17:05.283Z</time></trkpt><trkpt lat="41.423734" lon="12.7874778"><ele>1.0</ele><time>2026-04-18T14:17:09.284Z</time></trkpt><trkpt lat="41.4236919" lon="12.7875522"><ele>1.0</ele><time>2026-04-18T14:17:44.284Z</time></trkpt><trkpt lat="41.4236905" lon="12.7874602"><ele>1.0</ele><time>2026-04-18T14:17:52.283Z</time></trkpt><trkpt lat="41.4237171" lon="12.787375"><ele>1.0</ele><time>2026-04-18T14:18:01.284Z</time></trkpt><trkpt lat="41.4237914" lon="12.7873584"><ele>1.0</ele><time>2026-04-18T14:19:04.214Z</time></trkpt></trkseg></trk></gpx>